<?xml version="1.0" encoding="UTF-8" standalone="no" ?>
<gpx xmlns="http://www.topografix.com/GPX/1/1" xmlns:xsi="http://www.w3.org/2001/XMLSchema-instance" xsi:schemaLocation="http://www.topografix.com/GPX/1/1 http://www.topografix.com/GPX/1/1/gpx.xsd" version="1.1" creator="VisuGPX - https://www.visugpx.com">
  <metadata>
    <name>Stevenson J2</name>
    <desc><![CDATA[2e étape du Stevenson]]></desc>
  </metadata>
  <trk>
    <name><![CDATA[STEV J2  22:03]]></name>
    <trkseg>
      <trkpt lat="44.59196" lon="3.90578">
        <ele>1014.81</ele>
        <time>2011-08-02T16:35:03Z</time>
      </trkpt>
      <trkpt lat="44.59195" lon="3.90578">
        <ele>1014.81</ele>
        <time>2011-08-02T16:35:27Z</time>
      </trkpt>
      <trkpt lat="44.59195" lon="3.90577">
        <ele>1014.81</ele>
        <time>2011-08-02T16:35:58Z</time>
      </trkpt>
      <trkpt lat="44.59195" lon="3.90577">
        <ele>1014.81</ele>
        <time>2011-08-02T16:36:25Z</time>
      </trkpt>
      <trkpt lat="44.59195" lon="3.90578">
        <ele>1014.33</ele>
        <time>2011-08-02T16:36:54Z</time>
      </trkpt>
      <trkpt lat="44.59195" lon="3.90576">
        <ele>1014.33</ele>
        <time>2011-08-02T16:37:22Z</time>
      </trkpt>
      <trkpt lat="44.59195" lon="3.90576">
        <ele>1014.33</ele>
        <time>2011-08-02T16:37:25Z</time>
      </trkpt>
      <trkpt lat="44.59206" lon="3.90566">
        <ele>1019.62</ele>
        <time>2011-08-02T16:52:32Z</time>
      </trkpt>
      <trkpt lat="44.59208" lon="3.90572">
        <ele>1033.07</ele>
        <time>2011-08-02T16:53:01Z</time>
      </trkpt>
      <trkpt lat="44.59211" lon="3.90568">
        <ele>1031.15</ele>
        <time>2011-08-02T16:53:35Z</time>
      </trkpt>
      <trkpt lat="44.59211" lon="3.90567">
        <ele>1029.71</ele>
        <time>2011-08-02T16:54:11Z</time>
      </trkpt>
      <trkpt lat="44.59211" lon="3.90567">
        <ele>1029.71</ele>
        <time>2011-08-02T16:54:48Z</time>
      </trkpt>
      <trkpt lat="44.59211" lon="3.90567">
        <ele>1029.23</ele>
        <time>2011-08-02T16:55:16Z</time>
      </trkpt>
      <trkpt lat="44.59235" lon="3.90567">
        <ele>1066.24</ele>
        <time>2011-08-02T19:37:41Z</time>
      </trkpt>
      <trkpt lat="44.59237" lon="3.90574">
        <ele>1062.87</ele>
        <time>2011-08-02T19:38:10Z</time>
      </trkpt>
      <trkpt lat="44.59243" lon="3.90572">
        <ele>1063.84</ele>
        <time>2011-08-02T19:38:43Z</time>
      </trkpt>
      <trkpt lat="44.59245" lon="3.90572">
        <ele>1059.03</ele>
        <time>2011-08-02T19:39:15Z</time>
      </trkpt>
      <trkpt lat="44.59245" lon="3.90571">
        <ele>1058.07</ele>
        <time>2011-08-02T19:39:52Z</time>
      </trkpt>
      <trkpt lat="44.59245" lon="3.90571">
        <ele>1058.07</ele>
        <time>2011-08-02T19:40:22Z</time>
      </trkpt>
      <trkpt lat="44.59244" lon="3.90572">
        <ele>1058.07</ele>
        <time>2011-08-02T19:40:52Z</time>
      </trkpt>
      <trkpt lat="44.59244" lon="3.90572">
        <ele>1058.07</ele>
        <time>2011-08-02T19:41:23Z</time>
      </trkpt>
      <trkpt lat="44.59244" lon="3.90572">
        <ele>1058.07</ele>
        <time>2011-08-02T19:41:52Z</time>
      </trkpt>
      <trkpt lat="44.59244" lon="3.90572">
        <ele>1058.07</ele>
        <time>2011-08-02T19:42:21Z</time>
      </trkpt>
      <trkpt lat="44.59244" lon="3.90572">
        <ele>1058.07</ele>
        <time>2011-08-02T19:42:51Z</time>
      </trkpt>
      <trkpt lat="44.59244" lon="3.90572">
        <ele>1058.07</ele>
        <time>2011-08-02T19:43:16Z</time>
      </trkpt>
      <trkpt lat="44.59244" lon="3.90572">
        <ele>1057.11</ele>
        <time>2011-08-02T19:43:45Z</time>
      </trkpt>
      <trkpt lat="44.59244" lon="3.90572">
        <ele>1057.11</ele>
        <time>2011-08-02T19:44:11Z</time>
      </trkpt>
      <trkpt lat="44.59244" lon="3.90572">
        <ele>1057.11</ele>
        <time>2011-08-02T19:44:14Z</time>
      </trkpt>
      <trkpt lat="44.59243" lon="3.90571">
        <ele>1056.63</ele>
        <time>2011-08-02T19:44:30Z</time>
      </trkpt>
      <trkpt lat="44.5919" lon="3.90566">
        <ele>1091.71</ele>
        <time>2011-08-03T07:16:03Z</time>
      </trkpt>
      <trkpt lat="44.59193" lon="3.90569">
        <ele>1077.78</ele>
        <time>2011-08-03T07:16:22Z</time>
      </trkpt>
      <trkpt lat="44.59188" lon="3.90576">
        <ele>1051.34</ele>
        <time>2011-08-03T07:16:34Z</time>
      </trkpt>
      <trkpt lat="44.59179" lon="3.90566">
        <ele>1031.15</ele>
        <time>2011-08-03T07:16:46Z</time>
      </trkpt>
      <trkpt lat="44.59184" lon="3.90533">
        <ele>1028.27</ele>
        <time>2011-08-03T07:16:57Z</time>
      </trkpt>
      <trkpt lat="44.59184" lon="3.90529">
        <ele>1028.27</ele>
        <time>2011-08-03T07:16:58Z</time>
      </trkpt>
      <trkpt lat="44.59197" lon="3.90474">
        <ele>1024.9</ele>
        <time>2011-08-03T07:17:12Z</time>
      </trkpt>
      <trkpt lat="44.59222" lon="3.90445">
        <ele>1022.98</ele>
        <time>2011-08-03T07:17:26Z</time>
      </trkpt>
      <trkpt lat="44.59257" lon="3.90451">
        <ele>1023.94</ele>
        <time>2011-08-03T07:17:41Z</time>
      </trkpt>
      <trkpt lat="44.59291" lon="3.9046">
        <ele>1025.86</ele>
        <time>2011-08-03T07:17:56Z</time>
      </trkpt>
      <trkpt lat="44.59331" lon="3.90467">
        <ele>1023.94</ele>
        <time>2011-08-03T07:18:10Z</time>
      </trkpt>
      <trkpt lat="44.5937" lon="3.90444">
        <ele>1023.46</ele>
        <time>2011-08-03T07:18:25Z</time>
      </trkpt>
      <trkpt lat="44.59414" lon="3.9043">
        <ele>1023.46</ele>
        <time>2011-08-03T07:18:40Z</time>
      </trkpt>
      <trkpt lat="44.59444" lon="3.90418">
        <ele>1022.5</ele>
        <time>2011-08-03T07:18:53Z</time>
      </trkpt>
      <trkpt lat="44.59444" lon="3.90417">
        <ele>1022.02</ele>
        <time>2011-08-03T07:19:02Z</time>
      </trkpt>
      <trkpt lat="44.5944" lon="3.90398">
        <ele>1021.54</ele>
        <time>2011-08-03T07:19:14Z</time>
      </trkpt>
      <trkpt lat="44.5944" lon="3.90398">
        <ele>1021.54</ele>
        <time>2011-08-03T07:19:15Z</time>
      </trkpt>
      <trkpt lat="44.59436" lon="3.90396">
        <ele>1022.02</ele>
        <time>2011-08-03T07:19:19Z</time>
      </trkpt>
      <trkpt lat="44.59426" lon="3.9039">
        <ele>1022.98</ele>
        <time>2011-08-03T07:19:31Z</time>
      </trkpt>
      <trkpt lat="44.59398" lon="3.9038">
        <ele>1025.38</ele>
        <time>2011-08-03T07:19:50Z</time>
      </trkpt>
      <trkpt lat="44.59395" lon="3.9036">
        <ele>1026.83</ele>
        <time>2011-08-03T07:20:01Z</time>
      </trkpt>
      <trkpt lat="44.59395" lon="3.90354">
        <ele>1027.31</ele>
        <time>2011-08-03T07:20:05Z</time>
      </trkpt>
      <trkpt lat="44.59395" lon="3.90337">
        <ele>1028.27</ele>
        <time>2011-08-03T07:20:11Z</time>
      </trkpt>
      <trkpt lat="44.59396" lon="3.9033">
        <ele>1028.75</ele>
        <time>2011-08-03T07:20:15Z</time>
      </trkpt>
      <trkpt lat="44.59396" lon="3.90322">
        <ele>1030.67</ele>
        <time>2011-08-03T07:20:20Z</time>
      </trkpt>
      <trkpt lat="44.59395" lon="3.90296">
        <ele>1035.96</ele>
        <time>2011-08-03T07:20:38Z</time>
      </trkpt>
      <trkpt lat="44.59399" lon="3.90273">
        <ele>1038.36</ele>
        <time>2011-08-03T07:20:55Z</time>
      </trkpt>
      <trkpt lat="44.59407" lon="3.90253">
        <ele>1041.25</ele>
        <time>2011-08-03T07:21:11Z</time>
      </trkpt>
      <trkpt lat="44.59408" lon="3.90252">
        <ele>1041.73</ele>
        <time>2011-08-03T07:21:12Z</time>
      </trkpt>
      <trkpt lat="44.59406" lon="3.90242">
        <ele>1043.65</ele>
        <time>2011-08-03T07:21:18Z</time>
      </trkpt>
      <trkpt lat="44.59399" lon="3.9024">
        <ele>1044.61</ele>
        <time>2011-08-03T07:21:24Z</time>
      </trkpt>
      <trkpt lat="44.59383" lon="3.90257">
        <ele>1044.61</ele>
        <time>2011-08-03T07:21:40Z</time>
      </trkpt>
      <trkpt lat="44.5938" lon="3.90262">
        <ele>1044.61</ele>
        <time>2011-08-03T07:21:43Z</time>
      </trkpt>
      <trkpt lat="44.59374" lon="3.90268">
        <ele>1044.13</ele>
        <time>2011-08-03T07:21:48Z</time>
      </trkpt>
      <trkpt lat="44.59354" lon="3.90278">
        <ele>1044.61</ele>
        <time>2011-08-03T07:22:05Z</time>
      </trkpt>
      <trkpt lat="44.59333" lon="3.90276">
        <ele>1047.49</ele>
        <time>2011-08-03T07:22:22Z</time>
      </trkpt>
      <trkpt lat="44.59316" lon="3.90272">
        <ele>1048.45</ele>
        <time>2011-08-03T07:22:35Z</time>
      </trkpt>
      <trkpt lat="44.59298" lon="3.90259">
        <ele>1049.42</ele>
        <time>2011-08-03T07:22:51Z</time>
      </trkpt>
      <trkpt lat="44.5929" lon="3.90249">
        <ele>1051.34</ele>
        <time>2011-08-03T07:22:59Z</time>
      </trkpt>
      <trkpt lat="44.59273" lon="3.90231">
        <ele>1053.74</ele>
        <time>2011-08-03T07:23:16Z</time>
      </trkpt>
      <trkpt lat="44.59254" lon="3.9022">
        <ele>1056.63</ele>
        <time>2011-08-03T07:23:31Z</time>
      </trkpt>
      <trkpt lat="44.59236" lon="3.90208">
        <ele>1059.03</ele>
        <time>2011-08-03T07:23:45Z</time>
      </trkpt>
      <trkpt lat="44.59216" lon="3.90197">
        <ele>1059.99</ele>
        <time>2011-08-03T07:24:02Z</time>
      </trkpt>
      <trkpt lat="44.59203" lon="3.90188">
        <ele>1062.39</ele>
        <time>2011-08-03T07:24:16Z</time>
      </trkpt>
      <trkpt lat="44.592" lon="3.90186">
        <ele>1062.87</ele>
        <time>2011-08-03T07:24:18Z</time>
      </trkpt>
      <trkpt lat="44.59194" lon="3.90183">
        <ele>1063.84</ele>
        <time>2011-08-03T07:24:23Z</time>
      </trkpt>
      <trkpt lat="44.5918" lon="3.90174">
        <ele>1065.28</ele>
        <time>2011-08-03T07:24:32Z</time>
      </trkpt>
      <trkpt lat="44.59157" lon="3.90162">
        <ele>1068.16</ele>
        <time>2011-08-03T07:24:48Z</time>
      </trkpt>
      <trkpt lat="44.5914" lon="3.9015">
        <ele>1070.57</ele>
        <time>2011-08-03T07:25:01Z</time>
      </trkpt>
      <trkpt lat="44.59119" lon="3.90135">
        <ele>1074.41</ele>
        <time>2011-08-03T07:25:16Z</time>
      </trkpt>
      <trkpt lat="44.59097" lon="3.90118">
        <ele>1073.93</ele>
        <time>2011-08-03T07:25:33Z</time>
      </trkpt>
      <trkpt lat="44.59076" lon="3.90105">
        <ele>1073.45</ele>
        <time>2011-08-03T07:25:48Z</time>
      </trkpt>
      <trkpt lat="44.59057" lon="3.90088">
        <ele>1075.37</ele>
        <time>2011-08-03T07:26:02Z</time>
      </trkpt>
      <trkpt lat="44.5903" lon="3.90069">
        <ele>1076.33</ele>
        <time>2011-08-03T07:26:22Z</time>
      </trkpt>
      <trkpt lat="44.59008" lon="3.90053">
        <ele>1077.78</ele>
        <time>2011-08-03T07:26:38Z</time>
      </trkpt>
      <trkpt lat="44.58986" lon="3.90033">
        <ele>1078.74</ele>
        <time>2011-08-03T07:26:56Z</time>
      </trkpt>
      <trkpt lat="44.58971" lon="3.9002">
        <ele>1080.66</ele>
        <time>2011-08-03T07:27:09Z</time>
      </trkpt>
      <trkpt lat="44.58952" lon="3.89997">
        <ele>1082.58</ele>
        <time>2011-08-03T07:27:26Z</time>
      </trkpt>
      <trkpt lat="44.58953" lon="3.89966">
        <ele>1086.91</ele>
        <time>2011-08-03T07:27:44Z</time>
      </trkpt>
      <trkpt lat="44.58969" lon="3.89946">
        <ele>1091.23</ele>
        <time>2011-08-03T07:28:01Z</time>
      </trkpt>
      <trkpt lat="44.5898" lon="3.89934">
        <ele>1091.23</ele>
        <time>2011-08-03T07:28:11Z</time>
      </trkpt>
      <trkpt lat="44.58997" lon="3.89918">
        <ele>1093.64</ele>
        <time>2011-08-03T07:28:27Z</time>
      </trkpt>
      <trkpt lat="44.58998" lon="3.89917">
        <ele>1093.64</ele>
        <time>2011-08-03T07:28:28Z</time>
      </trkpt>
      <trkpt lat="44.59021" lon="3.89906">
        <ele>1095.56</ele>
        <time>2011-08-03T07:28:47Z</time>
      </trkpt>
      <trkpt lat="44.59039" lon="3.89895">
        <ele>1097.96</ele>
        <time>2011-08-03T07:29:03Z</time>
      </trkpt>
      <trkpt lat="44.59058" lon="3.89888">
        <ele>1100.85</ele>
        <time>2011-08-03T07:29:19Z</time>
      </trkpt>
      <trkpt lat="44.59077" lon="3.89879">
        <ele>1102.29</ele>
        <time>2011-08-03T07:29:35Z</time>
      </trkpt>
      <trkpt lat="44.59097" lon="3.89872">
        <ele>1105.65</ele>
        <time>2011-08-03T07:29:52Z</time>
      </trkpt>
      <trkpt lat="44.59115" lon="3.89864">
        <ele>1106.13</ele>
        <time>2011-08-03T07:30:06Z</time>
      </trkpt>
      <trkpt lat="44.59132" lon="3.89861">
        <ele>1107.58</ele>
        <time>2011-08-03T07:30:20Z</time>
      </trkpt>
      <trkpt lat="44.59157" lon="3.89859">
        <ele>1110.46</ele>
        <time>2011-08-03T07:30:40Z</time>
      </trkpt>
      <trkpt lat="44.59172" lon="3.8986">
        <ele>1112.38</ele>
        <time>2011-08-03T07:30:52Z</time>
      </trkpt>
      <trkpt lat="44.59193" lon="3.89856">
        <ele>1116.23</ele>
        <time>2011-08-03T07:31:08Z</time>
      </trkpt>
      <trkpt lat="44.59211" lon="3.8985">
        <ele>1119.59</ele>
        <time>2011-08-03T07:31:23Z</time>
      </trkpt>
      <trkpt lat="44.5923" lon="3.89839">
        <ele>1121.03</ele>
        <time>2011-08-03T07:31:39Z</time>
      </trkpt>
      <trkpt lat="44.59248" lon="3.89825">
        <ele>1122.48</ele>
        <time>2011-08-03T07:31:55Z</time>
      </trkpt>
      <trkpt lat="44.59267" lon="3.8981">
        <ele>1125.36</ele>
        <time>2011-08-03T07:32:13Z</time>
      </trkpt>
      <trkpt lat="44.59287" lon="3.89794">
        <ele>1125.36</ele>
        <time>2011-08-03T07:32:30Z</time>
      </trkpt>
      <trkpt lat="44.59306" lon="3.89774">
        <ele>1127.76</ele>
        <time>2011-08-03T07:32:47Z</time>
      </trkpt>
      <trkpt lat="44.59327" lon="3.89753">
        <ele>1129.69</ele>
        <time>2011-08-03T07:33:07Z</time>
      </trkpt>
      <trkpt lat="44.59346" lon="3.89734">
        <ele>1130.17</ele>
        <time>2011-08-03T07:33:23Z</time>
      </trkpt>
      <trkpt lat="44.59363" lon="3.89716">
        <ele>1132.09</ele>
        <time>2011-08-03T07:33:39Z</time>
      </trkpt>
      <trkpt lat="44.59369" lon="3.89706">
        <ele>1132.57</ele>
        <time>2011-08-03T07:33:45Z</time>
      </trkpt>
      <trkpt lat="44.59366" lon="3.8968">
        <ele>1134.49</ele>
        <time>2011-08-03T07:34:00Z</time>
      </trkpt>
      <trkpt lat="44.59361" lon="3.89669">
        <ele>1134.49</ele>
        <time>2011-08-03T07:34:07Z</time>
      </trkpt>
      <trkpt lat="44.59357" lon="3.89663">
        <ele>1134.49</ele>
        <time>2011-08-03T07:34:11Z</time>
      </trkpt>
      <trkpt lat="44.59345" lon="3.89637">
        <ele>1135.94</ele>
        <time>2011-08-03T07:34:29Z</time>
      </trkpt>
      <trkpt lat="44.59343" lon="3.89633">
        <ele>1135.94</ele>
        <time>2011-08-03T07:34:31Z</time>
      </trkpt>
      <trkpt lat="44.5934" lon="3.89626">
        <ele>1136.9</ele>
        <time>2011-08-03T07:34:36Z</time>
      </trkpt>
      <trkpt lat="44.59331" lon="3.89609">
        <ele>1137.38</ele>
        <time>2011-08-03T07:34:48Z</time>
      </trkpt>
      <trkpt lat="44.59318" lon="3.89585">
        <ele>1138.34</ele>
        <time>2011-08-03T07:35:04Z</time>
      </trkpt>
      <trkpt lat="44.59302" lon="3.89556">
        <ele>1141.7</ele>
        <time>2011-08-03T07:35:24Z</time>
      </trkpt>
      <trkpt lat="44.5929" lon="3.89527">
        <ele>1145.07</ele>
        <time>2011-08-03T07:35:42Z</time>
      </trkpt>
      <trkpt lat="44.5928" lon="3.89501">
        <ele>1147.47</ele>
        <time>2011-08-03T07:35:58Z</time>
      </trkpt>
      <trkpt lat="44.5927" lon="3.8947">
        <ele>1149.87</ele>
        <time>2011-08-03T07:36:16Z</time>
      </trkpt>
      <trkpt lat="44.59267" lon="3.89443">
        <ele>1150.35</ele>
        <time>2011-08-03T07:36:30Z</time>
      </trkpt>
      <trkpt lat="44.59264" lon="3.89414">
        <ele>1153.24</ele>
        <time>2011-08-03T07:36:47Z</time>
      </trkpt>
      <trkpt lat="44.59264" lon="3.89404">
        <ele>1153.24</ele>
        <time>2011-08-03T07:36:54Z</time>
      </trkpt>
      <trkpt lat="44.59262" lon="3.8937">
        <ele>1152.28</ele>
        <time>2011-08-03T07:37:11Z</time>
      </trkpt>
      <trkpt lat="44.59261" lon="3.89356">
        <ele>1152.76</ele>
        <time>2011-08-03T07:37:18Z</time>
      </trkpt>
      <trkpt lat="44.59257" lon="3.89319">
        <ele>1155.64</ele>
        <time>2011-08-03T07:37:37Z</time>
      </trkpt>
      <trkpt lat="44.59255" lon="3.89283">
        <ele>1159.01</ele>
        <time>2011-08-03T07:37:55Z</time>
      </trkpt>
      <trkpt lat="44.59255" lon="3.89248">
        <ele>1161.41</ele>
        <time>2011-08-03T07:38:12Z</time>
      </trkpt>
      <trkpt lat="44.59257" lon="3.89215">
        <ele>1163.81</ele>
        <time>2011-08-03T07:38:29Z</time>
      </trkpt>
      <trkpt lat="44.59254" lon="3.89179">
        <ele>1167.18</ele>
        <time>2011-08-03T07:38:47Z</time>
      </trkpt>
      <trkpt lat="44.5925" lon="3.89158">
        <ele>1169.1</ele>
        <time>2011-08-03T07:39:01Z</time>
      </trkpt>
      <trkpt lat="44.59249" lon="3.89154">
        <ele>1169.58</ele>
        <time>2011-08-03T07:39:04Z</time>
      </trkpt>
      <trkpt lat="44.59238" lon="3.89132">
        <ele>1171.98</ele>
        <time>2011-08-03T07:39:18Z</time>
      </trkpt>
      <trkpt lat="44.59221" lon="3.89109">
        <ele>1174.87</ele>
        <time>2011-08-03T07:39:36Z</time>
      </trkpt>
      <trkpt lat="44.59206" lon="3.89087">
        <ele>1177.75</ele>
        <time>2011-08-03T07:39:53Z</time>
      </trkpt>
      <trkpt lat="44.59196" lon="3.89069">
        <ele>1180.16</ele>
        <time>2011-08-03T07:40:05Z</time>
      </trkpt>
      <trkpt lat="44.5918" lon="3.89048">
        <ele>1183.52</ele>
        <time>2011-08-03T07:40:20Z</time>
      </trkpt>
      <trkpt lat="44.59167" lon="3.89032">
        <ele>1188.33</ele>
        <time>2011-08-03T07:40:34Z</time>
      </trkpt>
      <trkpt lat="44.59156" lon="3.89019">
        <ele>1189.77</ele>
        <time>2011-08-03T07:40:46Z</time>
      </trkpt>
      <trkpt lat="44.59154" lon="3.89017">
        <ele>1189.77</ele>
        <time>2011-08-03T07:40:48Z</time>
      </trkpt>
      <trkpt lat="44.59135" lon="3.88997">
        <ele>1190.25</ele>
        <time>2011-08-03T07:41:04Z</time>
      </trkpt>
      <trkpt lat="44.59119" lon="3.8898">
        <ele>1191.69</ele>
        <time>2011-08-03T07:41:18Z</time>
      </trkpt>
      <trkpt lat="44.591" lon="3.88968">
        <ele>1193.13</ele>
        <time>2011-08-03T07:41:32Z</time>
      </trkpt>
      <trkpt lat="44.59095" lon="3.88965">
        <ele>1193.61</ele>
        <time>2011-08-03T07:41:36Z</time>
      </trkpt>
      <trkpt lat="44.59086" lon="3.88962">
        <ele>1194.09</ele>
        <time>2011-08-03T07:41:43Z</time>
      </trkpt>
      <trkpt lat="44.59076" lon="3.88956">
        <ele>1194.09</ele>
        <time>2011-08-03T07:41:51Z</time>
      </trkpt>
      <trkpt lat="44.59056" lon="3.88944">
        <ele>1196.98</ele>
        <time>2011-08-03T07:42:06Z</time>
      </trkpt>
      <trkpt lat="44.59045" lon="3.88935">
        <ele>1197.46</ele>
        <time>2011-08-03T07:42:15Z</time>
      </trkpt>
      <trkpt lat="44.5904" lon="3.88931">
        <ele>1197.94</ele>
        <time>2011-08-03T07:42:20Z</time>
      </trkpt>
      <trkpt lat="44.59025" lon="3.88915">
        <ele>1200.82</ele>
        <time>2011-08-03T07:42:35Z</time>
      </trkpt>
      <trkpt lat="44.59013" lon="3.88895">
        <ele>1202.75</ele>
        <time>2011-08-03T07:42:50Z</time>
      </trkpt>
      <trkpt lat="44.59002" lon="3.88872">
        <ele>1203.23</ele>
        <time>2011-08-03T07:43:05Z</time>
      </trkpt>
      <trkpt lat="44.59" lon="3.88866">
        <ele>1204.19</ele>
        <time>2011-08-03T07:43:09Z</time>
      </trkpt>
      <trkpt lat="44.58999" lon="3.88859">
        <ele>1205.15</ele>
        <time>2011-08-03T07:43:13Z</time>
      </trkpt>
      <trkpt lat="44.58997" lon="3.88848">
        <ele>1206.11</ele>
        <time>2011-08-03T07:43:28Z</time>
      </trkpt>
      <trkpt lat="44.58997" lon="3.88848">
        <ele>1206.11</ele>
        <time>2011-08-03T07:43:48Z</time>
      </trkpt>
      <trkpt lat="44.58997" lon="3.88848">
        <ele>1206.11</ele>
        <time>2011-08-03T07:44:18Z</time>
      </trkpt>
      <trkpt lat="44.58997" lon="3.88849">
        <ele>1206.11</ele>
        <time>2011-08-03T07:44:49Z</time>
      </trkpt>
      <trkpt lat="44.58997" lon="3.88849">
        <ele>1206.11</ele>
        <time>2011-08-03T07:45:19Z</time>
      </trkpt>
      <trkpt lat="44.58997" lon="3.88848">
        <ele>1206.11</ele>
        <time>2011-08-03T07:45:46Z</time>
      </trkpt>
      <trkpt lat="44.58997" lon="3.88848">
        <ele>1206.11</ele>
        <time>2011-08-03T07:46:09Z</time>
      </trkpt>
      <trkpt lat="44.58997" lon="3.88848">
        <ele>1206.11</ele>
        <time>2011-08-03T07:46:34Z</time>
      </trkpt>
      <trkpt lat="44.58997" lon="3.88848">
        <ele>1206.11</ele>
        <time>2011-08-03T07:46:57Z</time>
      </trkpt>
      <trkpt lat="44.58997" lon="3.88848">
        <ele>1206.11</ele>
        <time>2011-08-03T07:47:21Z</time>
      </trkpt>
      <trkpt lat="44.58996" lon="3.88848">
        <ele>1205.63</ele>
        <time>2011-08-03T07:47:45Z</time>
      </trkpt>
      <trkpt lat="44.58997" lon="3.88848">
        <ele>1205.63</ele>
        <time>2011-08-03T07:48:05Z</time>
      </trkpt>
      <trkpt lat="44.58997" lon="3.88848">
        <ele>1205.63</ele>
        <time>2011-08-03T07:48:26Z</time>
      </trkpt>
      <trkpt lat="44.58996" lon="3.88848">
        <ele>1205.63</ele>
        <time>2011-08-03T07:48:47Z</time>
      </trkpt>
      <trkpt lat="44.58994" lon="3.88844">
        <ele>1205.63</ele>
        <time>2011-08-03T07:49:02Z</time>
      </trkpt>
      <trkpt lat="44.58993" lon="3.8884">
        <ele>1205.63</ele>
        <time>2011-08-03T07:49:19Z</time>
      </trkpt>
      <trkpt lat="44.58989" lon="3.8882">
        <ele>1206.59</ele>
        <time>2011-08-03T07:49:37Z</time>
      </trkpt>
      <trkpt lat="44.58987" lon="3.88799">
        <ele>1208.51</ele>
        <time>2011-08-03T07:49:50Z</time>
      </trkpt>
      <trkpt lat="44.58988" lon="3.8879">
        <ele>1209</ele>
        <time>2011-08-03T07:49:56Z</time>
      </trkpt>
      <trkpt lat="44.58987" lon="3.88772">
        <ele>1210.92</ele>
        <time>2011-08-03T07:50:10Z</time>
      </trkpt>
      <trkpt lat="44.58987" lon="3.88752">
        <ele>1210.44</ele>
        <time>2011-08-03T07:50:25Z</time>
      </trkpt>
      <trkpt lat="44.58984" lon="3.88728">
        <ele>1211.4</ele>
        <time>2011-08-03T07:50:41Z</time>
      </trkpt>
      <trkpt lat="44.58983" lon="3.88722">
        <ele>1211.88</ele>
        <time>2011-08-03T07:50:46Z</time>
      </trkpt>
      <trkpt lat="44.5898" lon="3.88707">
        <ele>1213.32</ele>
        <time>2011-08-03T07:50:57Z</time>
      </trkpt>
      <trkpt lat="44.58977" lon="3.88681">
        <ele>1214.76</ele>
        <time>2011-08-03T07:51:14Z</time>
      </trkpt>
      <trkpt lat="44.58974" lon="3.88659">
        <ele>1216.69</ele>
        <time>2011-08-03T07:51:30Z</time>
      </trkpt>
      <trkpt lat="44.58971" lon="3.88638">
        <ele>1218.13</ele>
        <time>2011-08-03T07:51:45Z</time>
      </trkpt>
      <trkpt lat="44.58966" lon="3.88613">
        <ele>1220.53</ele>
        <time>2011-08-03T07:52:02Z</time>
      </trkpt>
      <trkpt lat="44.58959" lon="3.88592">
        <ele>1224.38</ele>
        <time>2011-08-03T07:52:18Z</time>
      </trkpt>
      <trkpt lat="44.5895" lon="3.88578">
        <ele>1226.3</ele>
        <time>2011-08-03T07:52:32Z</time>
      </trkpt>
      <trkpt lat="44.58937" lon="3.88563">
        <ele>1228.7</ele>
        <time>2011-08-03T07:52:48Z</time>
      </trkpt>
      <trkpt lat="44.58932" lon="3.88561">
        <ele>1229.18</ele>
        <time>2011-08-03T07:52:52Z</time>
      </trkpt>
      <trkpt lat="44.58926" lon="3.88561">
        <ele>1230.62</ele>
        <time>2011-08-03T07:52:58Z</time>
      </trkpt>
      <trkpt lat="44.58913" lon="3.88571">
        <ele>1233.51</ele>
        <time>2011-08-03T07:53:14Z</time>
      </trkpt>
      <trkpt lat="44.58904" lon="3.88583">
        <ele>1234.47</ele>
        <time>2011-08-03T07:53:25Z</time>
      </trkpt>
      <trkpt lat="44.58902" lon="3.88585">
        <ele>1234.95</ele>
        <time>2011-08-03T07:53:28Z</time>
      </trkpt>
      <trkpt lat="44.58898" lon="3.88589">
        <ele>1235.91</ele>
        <time>2011-08-03T07:53:33Z</time>
      </trkpt>
      <trkpt lat="44.58881" lon="3.88597">
        <ele>1239.28</ele>
        <time>2011-08-03T07:53:48Z</time>
      </trkpt>
      <trkpt lat="44.58868" lon="3.88601">
        <ele>1242.64</ele>
        <time>2011-08-03T07:54:04Z</time>
      </trkpt>
      <trkpt lat="44.58851" lon="3.88607">
        <ele>1243.6</ele>
        <time>2011-08-03T07:54:20Z</time>
      </trkpt>
      <trkpt lat="44.58836" lon="3.88613">
        <ele>1243.6</ele>
        <time>2011-08-03T07:54:35Z</time>
      </trkpt>
      <trkpt lat="44.58821" lon="3.88619">
        <ele>1243.12</ele>
        <time>2011-08-03T07:54:50Z</time>
      </trkpt>
      <trkpt lat="44.58806" lon="3.88621">
        <ele>1242.64</ele>
        <time>2011-08-03T07:55:04Z</time>
      </trkpt>
      <trkpt lat="44.58799" lon="3.8862">
        <ele>1242.16</ele>
        <time>2011-08-03T07:55:12Z</time>
      </trkpt>
      <trkpt lat="44.58781" lon="3.88614">
        <ele>1244.08</ele>
        <time>2011-08-03T07:55:28Z</time>
      </trkpt>
      <trkpt lat="44.58775" lon="3.88607">
        <ele>1244.08</ele>
        <time>2011-08-03T07:55:35Z</time>
      </trkpt>
      <trkpt lat="44.58768" lon="3.886">
        <ele>1244.08</ele>
        <time>2011-08-03T07:55:43Z</time>
      </trkpt>
      <trkpt lat="44.5876" lon="3.88587">
        <ele>1244.56</ele>
        <time>2011-08-03T07:55:54Z</time>
      </trkpt>
      <trkpt lat="44.58758" lon="3.88585">
        <ele>1244.56</ele>
        <time>2011-08-03T07:55:56Z</time>
      </trkpt>
      <trkpt lat="44.58754" lon="3.88578">
        <ele>1245.53</ele>
        <time>2011-08-03T07:56:02Z</time>
      </trkpt>
      <trkpt lat="44.58743" lon="3.88561">
        <ele>1247.93</ele>
        <time>2011-08-03T07:56:20Z</time>
      </trkpt>
      <trkpt lat="44.58741" lon="3.8856">
        <ele>1248.41</ele>
        <time>2011-08-03T07:56:22Z</time>
      </trkpt>
      <trkpt lat="44.58728" lon="3.88546">
        <ele>1251.77</ele>
        <time>2011-08-03T07:56:39Z</time>
      </trkpt>
      <trkpt lat="44.58718" lon="3.8853">
        <ele>1251.77</ele>
        <time>2011-08-03T07:56:53Z</time>
      </trkpt>
      <trkpt lat="44.58706" lon="3.88511">
        <ele>1252.25</ele>
        <time>2011-08-03T07:57:09Z</time>
      </trkpt>
      <trkpt lat="44.58695" lon="3.88493">
        <ele>1256.58</ele>
        <time>2011-08-03T07:57:23Z</time>
      </trkpt>
      <trkpt lat="44.58678" lon="3.88483">
        <ele>1259.46</ele>
        <time>2011-08-03T07:57:38Z</time>
      </trkpt>
      <trkpt lat="44.58665" lon="3.8849">
        <ele>1264.27</ele>
        <time>2011-08-03T07:57:53Z</time>
      </trkpt>
      <trkpt lat="44.58642" lon="3.88502">
        <ele>1266.19</ele>
        <time>2011-08-03T07:58:09Z</time>
      </trkpt>
      <trkpt lat="44.58623" lon="3.88501">
        <ele>1267.16</ele>
        <time>2011-08-03T07:58:25Z</time>
      </trkpt>
      <trkpt lat="44.58621" lon="3.885">
        <ele>1267.16</ele>
        <time>2011-08-03T07:58:27Z</time>
      </trkpt>
      <trkpt lat="44.58616" lon="3.88498">
        <ele>1267.16</ele>
        <time>2011-08-03T07:58:31Z</time>
      </trkpt>
      <trkpt lat="44.58596" lon="3.88487">
        <ele>1267.64</ele>
        <time>2011-08-03T07:58:49Z</time>
      </trkpt>
      <trkpt lat="44.58574" lon="3.88474">
        <ele>1269.56</ele>
        <time>2011-08-03T07:59:08Z</time>
      </trkpt>
      <trkpt lat="44.58556" lon="3.88461">
        <ele>1271.96</ele>
        <time>2011-08-03T07:59:24Z</time>
      </trkpt>
      <trkpt lat="44.58542" lon="3.88441">
        <ele>1274.85</ele>
        <time>2011-08-03T07:59:39Z</time>
      </trkpt>
      <trkpt lat="44.58538" lon="3.88424">
        <ele>1275.81</ele>
        <time>2011-08-03T07:59:49Z</time>
      </trkpt>
      <trkpt lat="44.58536" lon="3.88398">
        <ele>1276.77</ele>
        <time>2011-08-03T08:00:04Z</time>
      </trkpt>
      <trkpt lat="44.58536" lon="3.88378">
        <ele>1277.73</ele>
        <time>2011-08-03T08:00:16Z</time>
      </trkpt>
      <trkpt lat="44.58535" lon="3.88368">
        <ele>1278.21</ele>
        <time>2011-08-03T08:00:23Z</time>
      </trkpt>
      <trkpt lat="44.58535" lon="3.88363">
        <ele>1279.17</ele>
        <time>2011-08-03T08:00:26Z</time>
      </trkpt>
      <trkpt lat="44.58534" lon="3.88343">
        <ele>1279.65</ele>
        <time>2011-08-03T08:00:39Z</time>
      </trkpt>
      <trkpt lat="44.58534" lon="3.88341">
        <ele>1279.65</ele>
        <time>2011-08-03T08:00:40Z</time>
      </trkpt>
      <trkpt lat="44.5853" lon="3.88314">
        <ele>1280.13</ele>
        <time>2011-08-03T08:00:55Z</time>
      </trkpt>
      <trkpt lat="44.58526" lon="3.88287">
        <ele>1283.02</ele>
        <time>2011-08-03T08:01:12Z</time>
      </trkpt>
      <trkpt lat="44.58523" lon="3.88272">
        <ele>1284.46</ele>
        <time>2011-08-03T08:01:21Z</time>
      </trkpt>
      <trkpt lat="44.58518" lon="3.88243">
        <ele>1284.94</ele>
        <time>2011-08-03T08:01:39Z</time>
      </trkpt>
      <trkpt lat="44.58507" lon="3.88221">
        <ele>1286.38</ele>
        <time>2011-08-03T08:01:53Z</time>
      </trkpt>
      <trkpt lat="44.58492" lon="3.88201">
        <ele>1286.86</ele>
        <time>2011-08-03T08:02:08Z</time>
      </trkpt>
      <trkpt lat="44.58469" lon="3.88181">
        <ele>1287.82</ele>
        <time>2011-08-03T08:02:25Z</time>
      </trkpt>
      <trkpt lat="44.58445" lon="3.88159">
        <ele>1289.75</ele>
        <time>2011-08-03T08:02:42Z</time>
      </trkpt>
      <trkpt lat="44.58435" lon="3.88152">
        <ele>1291.19</ele>
        <time>2011-08-03T08:02:50Z</time>
      </trkpt>
      <trkpt lat="44.58426" lon="3.88143">
        <ele>1292.15</ele>
        <time>2011-08-03T08:02:59Z</time>
      </trkpt>
      <trkpt lat="44.58407" lon="3.88129">
        <ele>1292.63</ele>
        <time>2011-08-03T08:03:14Z</time>
      </trkpt>
      <trkpt lat="44.58386" lon="3.88108">
        <ele>1294.55</ele>
        <time>2011-08-03T08:03:32Z</time>
      </trkpt>
      <trkpt lat="44.58367" lon="3.88088">
        <ele>1295.03</ele>
        <time>2011-08-03T08:03:47Z</time>
      </trkpt>
      <trkpt lat="44.5835" lon="3.88059">
        <ele>1297.44</ele>
        <time>2011-08-03T08:04:05Z</time>
      </trkpt>
      <trkpt lat="44.58344" lon="3.88031">
        <ele>1297.92</ele>
        <time>2011-08-03T08:04:21Z</time>
      </trkpt>
      <trkpt lat="44.58344" lon="3.88002">
        <ele>1300.32</ele>
        <time>2011-08-03T08:04:37Z</time>
      </trkpt>
      <trkpt lat="44.58345" lon="3.8799">
        <ele>1301.76</ele>
        <time>2011-08-03T08:04:44Z</time>
      </trkpt>
      <trkpt lat="44.58347" lon="3.87979">
        <ele>1303.2</ele>
        <time>2011-08-03T08:04:57Z</time>
      </trkpt>
      <trkpt lat="44.58343" lon="3.8798">
        <ele>1302.72</ele>
        <time>2011-08-03T08:05:18Z</time>
      </trkpt>
      <trkpt lat="44.58343" lon="3.8798">
        <ele>1302.72</ele>
        <time>2011-08-03T08:05:51Z</time>
      </trkpt>
      <trkpt lat="44.58343" lon="3.8798">
        <ele>1302.72</ele>
        <time>2011-08-03T08:06:32Z</time>
      </trkpt>
      <trkpt lat="44.58343" lon="3.8798">
        <ele>1302.24</ele>
        <time>2011-08-03T08:07:13Z</time>
      </trkpt>
      <trkpt lat="44.58343" lon="3.8798">
        <ele>1302.24</ele>
        <time>2011-08-03T08:07:50Z</time>
      </trkpt>
      <trkpt lat="44.58343" lon="3.8798">
        <ele>1302.24</ele>
        <time>2011-08-03T08:08:24Z</time>
      </trkpt>
      <trkpt lat="44.58344" lon="3.8798">
        <ele>1302.24</ele>
        <time>2011-08-03T08:09:05Z</time>
      </trkpt>
      <trkpt lat="44.58343" lon="3.8798">
        <ele>1302.24</ele>
        <time>2011-08-03T08:09:36Z</time>
      </trkpt>
      <trkpt lat="44.58344" lon="3.8798">
        <ele>1303.2</ele>
        <time>2011-08-03T08:10:08Z</time>
      </trkpt>
      <trkpt lat="44.58344" lon="3.8798">
        <ele>1303.2</ele>
        <time>2011-08-03T08:10:24Z</time>
      </trkpt>
      <trkpt lat="44.58344" lon="3.8798">
        <ele>1303.2</ele>
        <time>2011-08-03T08:10:58Z</time>
      </trkpt>
      <trkpt lat="44.58365" lon="3.87976">
        <ele>1303.69</ele>
        <time>2011-08-03T08:11:14Z</time>
      </trkpt>
      <trkpt lat="44.58394" lon="3.87968">
        <ele>1304.65</ele>
        <time>2011-08-03T08:11:29Z</time>
      </trkpt>
      <trkpt lat="44.58427" lon="3.87947">
        <ele>1306.57</ele>
        <time>2011-08-03T08:11:48Z</time>
      </trkpt>
      <trkpt lat="44.58458" lon="3.87924">
        <ele>1308.01</ele>
        <time>2011-08-03T08:12:07Z</time>
      </trkpt>
      <trkpt lat="44.58484" lon="3.87896">
        <ele>1308.97</ele>
        <time>2011-08-03T08:12:26Z</time>
      </trkpt>
      <trkpt lat="44.58513" lon="3.87865">
        <ele>1309.93</ele>
        <time>2011-08-03T08:12:46Z</time>
      </trkpt>
      <trkpt lat="44.58545" lon="3.87835">
        <ele>1310.41</ele>
        <time>2011-08-03T08:13:05Z</time>
      </trkpt>
      <trkpt lat="44.58559" lon="3.87795">
        <ele>1310.41</ele>
        <time>2011-08-03T08:13:20Z</time>
      </trkpt>
      <trkpt lat="44.58563" lon="3.87747">
        <ele>1309.93</ele>
        <time>2011-08-03T08:13:36Z</time>
      </trkpt>
      <trkpt lat="44.5857" lon="3.87699">
        <ele>1309.45</ele>
        <time>2011-08-03T08:13:52Z</time>
      </trkpt>
      <trkpt lat="44.58579" lon="3.87657">
        <ele>1309.45</ele>
        <time>2011-08-03T08:14:08Z</time>
      </trkpt>
      <trkpt lat="44.58591" lon="3.87604">
        <ele>1311.38</ele>
        <time>2011-08-03T08:14:27Z</time>
      </trkpt>
      <trkpt lat="44.586" lon="3.87549">
        <ele>1312.82</ele>
        <time>2011-08-03T08:14:46Z</time>
      </trkpt>
      <trkpt lat="44.5861" lon="3.87493">
        <ele>1313.78</ele>
        <time>2011-08-03T08:15:04Z</time>
      </trkpt>
      <trkpt lat="44.58621" lon="3.87449">
        <ele>1314.26</ele>
        <time>2011-08-03T08:15:19Z</time>
      </trkpt>
      <trkpt lat="44.58628" lon="3.87397">
        <ele>1313.3</ele>
        <time>2011-08-03T08:15:34Z</time>
      </trkpt>
      <trkpt lat="44.58631" lon="3.87323">
        <ele>1311.38</ele>
        <time>2011-08-03T08:15:51Z</time>
      </trkpt>
      <trkpt lat="44.58632" lon="3.87245">
        <ele>1309.93</ele>
        <time>2011-08-03T08:16:06Z</time>
      </trkpt>
      <trkpt lat="44.58624" lon="3.87166">
        <ele>1308.97</ele>
        <time>2011-08-03T08:16:21Z</time>
      </trkpt>
      <trkpt lat="44.58622" lon="3.87143">
        <ele>1308.49</ele>
        <time>2011-08-03T08:16:25Z</time>
      </trkpt>
      <trkpt lat="44.58621" lon="3.87131">
        <ele>1308.49</ele>
        <time>2011-08-03T08:16:27Z</time>
      </trkpt>
      <trkpt lat="44.58618" lon="3.87114">
        <ele>1308.49</ele>
        <time>2011-08-03T08:16:30Z</time>
      </trkpt>
      <trkpt lat="44.58593" lon="3.87029">
        <ele>1307.53</ele>
        <time>2011-08-03T08:16:46Z</time>
      </trkpt>
      <trkpt lat="44.58589" lon="3.87013">
        <ele>1307.53</ele>
        <time>2011-08-03T08:16:49Z</time>
      </trkpt>
      <trkpt lat="44.58589" lon="3.87007">
        <ele>1307.53</ele>
        <time>2011-08-03T08:16:50Z</time>
      </trkpt>
      <trkpt lat="44.58588" lon="3.87002">
        <ele>1307.53</ele>
        <time>2011-08-03T08:16:51Z</time>
      </trkpt>
      <trkpt lat="44.58588" lon="3.86997">
        <ele>1307.53</ele>
        <time>2011-08-03T08:16:52Z</time>
      </trkpt>
      <trkpt lat="44.58587" lon="3.86992">
        <ele>1307.53</ele>
        <time>2011-08-03T08:16:53Z</time>
      </trkpt>
      <trkpt lat="44.58587" lon="3.86987">
        <ele>1307.53</ele>
        <time>2011-08-03T08:16:54Z</time>
      </trkpt>
      <trkpt lat="44.58587" lon="3.86981">
        <ele>1307.53</ele>
        <time>2011-08-03T08:16:55Z</time>
      </trkpt>
      <trkpt lat="44.58586" lon="3.86976">
        <ele>1307.53</ele>
        <time>2011-08-03T08:16:56Z</time>
      </trkpt>
      <trkpt lat="44.58571" lon="3.86917">
        <ele>1307.53</ele>
        <time>2011-08-03T08:17:08Z</time>
      </trkpt>
      <trkpt lat="44.58542" lon="3.86844">
        <ele>1307.05</ele>
        <time>2011-08-03T08:17:24Z</time>
      </trkpt>
      <trkpt lat="44.58514" lon="3.86753">
        <ele>1307.05</ele>
        <time>2011-08-03T08:17:41Z</time>
      </trkpt>
      <trkpt lat="44.58487" lon="3.86662">
        <ele>1306.57</ele>
        <time>2011-08-03T08:17:58Z</time>
      </trkpt>
      <trkpt lat="44.58486" lon="3.86656">
        <ele>1306.09</ele>
        <time>2011-08-03T08:17:59Z</time>
      </trkpt>
      <trkpt lat="44.58485" lon="3.8665">
        <ele>1306.09</ele>
        <time>2011-08-03T08:18:00Z</time>
      </trkpt>
      <trkpt lat="44.58485" lon="3.86644">
        <ele>1305.61</ele>
        <time>2011-08-03T08:18:01Z</time>
      </trkpt>
      <trkpt lat="44.58485" lon="3.86637">
        <ele>1305.61</ele>
        <time>2011-08-03T08:18:02Z</time>
      </trkpt>
      <trkpt lat="44.58498" lon="3.86572">
        <ele>1306.57</ele>
        <time>2011-08-03T08:18:15Z</time>
      </trkpt>
      <trkpt lat="44.58522" lon="3.86482">
        <ele>1305.61</ele>
        <time>2011-08-03T08:18:32Z</time>
      </trkpt>
      <trkpt lat="44.58541" lon="3.86413">
        <ele>1305.61</ele>
        <time>2011-08-03T08:18:45Z</time>
      </trkpt>
      <trkpt lat="44.58535" lon="3.86349">
        <ele>1307.05</ele>
        <time>2011-08-03T08:19:00Z</time>
      </trkpt>
      <trkpt lat="44.58536" lon="3.86278">
        <ele>1309.93</ele>
        <time>2011-08-03T08:19:22Z</time>
      </trkpt>
      <trkpt lat="44.58537" lon="3.86209">
        <ele>1310.41</ele>
        <time>2011-08-03T08:19:41Z</time>
      </trkpt>
      <trkpt lat="44.58526" lon="3.86159">
        <ele>1310.41</ele>
        <time>2011-08-03T08:19:54Z</time>
      </trkpt>
      <trkpt lat="44.58511" lon="3.86122">
        <ele>1308.97</ele>
        <time>2011-08-03T08:20:02Z</time>
      </trkpt>
      <trkpt lat="44.58508" lon="3.86117">
        <ele>1308.49</ele>
        <time>2011-08-03T08:20:03Z</time>
      </trkpt>
      <trkpt lat="44.58474" lon="3.86041">
        <ele>1304.65</ele>
        <time>2011-08-03T08:20:13Z</time>
      </trkpt>
      <trkpt lat="44.58433" lon="3.85953">
        <ele>1297.92</ele>
        <time>2011-08-03T08:20:22Z</time>
      </trkpt>
      <trkpt lat="44.58427" lon="3.85926">
        <ele>1295.99</ele>
        <time>2011-08-03T08:20:24Z</time>
      </trkpt>
      <trkpt lat="44.58416" lon="3.85866">
        <ele>1291.19</ele>
        <time>2011-08-03T08:20:29Z</time>
      </trkpt>
      <trkpt lat="44.58374" lon="3.85764">
        <ele>1285.9</ele>
        <time>2011-08-03T08:20:40Z</time>
      </trkpt>
      <trkpt lat="44.58353" lon="3.8572">
        <ele>1286.86</ele>
        <time>2011-08-03T08:20:50Z</time>
      </trkpt>
      <trkpt lat="44.58348" lon="3.85715">
        <ele>1287.34</ele>
        <time>2011-08-03T08:20:53Z</time>
      </trkpt>
      <trkpt lat="44.58346" lon="3.85714">
        <ele>1287.34</ele>
        <time>2011-08-03T08:20:54Z</time>
      </trkpt>
      <trkpt lat="44.58344" lon="3.85714">
        <ele>1287.82</ele>
        <time>2011-08-03T08:20:55Z</time>
      </trkpt>
      <trkpt lat="44.58343" lon="3.85714">
        <ele>1287.82</ele>
        <time>2011-08-03T08:20:56Z</time>
      </trkpt>
      <trkpt lat="44.58341" lon="3.85714">
        <ele>1288.3</ele>
        <time>2011-08-03T08:20:57Z</time>
      </trkpt>
      <trkpt lat="44.58339" lon="3.85714">
        <ele>1288.3</ele>
        <time>2011-08-03T08:20:58Z</time>
      </trkpt>
      <trkpt lat="44.58336" lon="3.85712">
        <ele>1288.3</ele>
        <time>2011-08-03T08:21:00Z</time>
      </trkpt>
      <trkpt lat="44.58332" lon="3.85708">
        <ele>1288.3</ele>
        <time>2011-08-03T08:21:03Z</time>
      </trkpt>
      <trkpt lat="44.58313" lon="3.85696">
        <ele>1289.27</ele>
        <time>2011-08-03T08:21:16Z</time>
      </trkpt>
      <trkpt lat="44.58287" lon="3.85676">
        <ele>1289.27</ele>
        <time>2011-08-03T08:21:33Z</time>
      </trkpt>
      <trkpt lat="44.58258" lon="3.85654">
        <ele>1290.23</ele>
        <time>2011-08-03T08:21:50Z</time>
      </trkpt>
      <trkpt lat="44.58237" lon="3.8563">
        <ele>1290.71</ele>
        <time>2011-08-03T08:22:06Z</time>
      </trkpt>
      <trkpt lat="44.58218" lon="3.85592">
        <ele>1292.15</ele>
        <time>2011-08-03T08:22:23Z</time>
      </trkpt>
      <trkpt lat="44.58198" lon="3.85553">
        <ele>1293.59</ele>
        <time>2011-08-03T08:22:40Z</time>
      </trkpt>
      <trkpt lat="44.58181" lon="3.85513">
        <ele>1295.03</ele>
        <time>2011-08-03T08:22:59Z</time>
      </trkpt>
      <trkpt lat="44.5817" lon="3.85477">
        <ele>1295.03</ele>
        <time>2011-08-03T08:23:14Z</time>
      </trkpt>
      <trkpt lat="44.58151" lon="3.85435">
        <ele>1296.48</ele>
        <time>2011-08-03T08:23:31Z</time>
      </trkpt>
      <trkpt lat="44.58133" lon="3.85394">
        <ele>1297.92</ele>
        <time>2011-08-03T08:23:47Z</time>
      </trkpt>
      <trkpt lat="44.58121" lon="3.85356">
        <ele>1298.88</ele>
        <time>2011-08-03T08:24:02Z</time>
      </trkpt>
      <trkpt lat="44.58098" lon="3.85313">
        <ele>1301.76</ele>
        <time>2011-08-03T08:24:19Z</time>
      </trkpt>
      <trkpt lat="44.58078" lon="3.85265">
        <ele>1301.76</ele>
        <time>2011-08-03T08:24:37Z</time>
      </trkpt>
      <trkpt lat="44.58062" lon="3.85233">
        <ele>1301.76</ele>
        <time>2011-08-03T08:24:50Z</time>
      </trkpt>
      <trkpt lat="44.58045" lon="3.85186">
        <ele>1301.28</ele>
        <time>2011-08-03T08:25:06Z</time>
      </trkpt>
      <trkpt lat="44.58034" lon="3.85124">
        <ele>1303.2</ele>
        <time>2011-08-03T08:25:23Z</time>
      </trkpt>
      <trkpt lat="44.58026" lon="3.85071">
        <ele>1304.17</ele>
        <time>2011-08-03T08:25:38Z</time>
      </trkpt>
      <trkpt lat="44.58014" lon="3.85022">
        <ele>1305.61</ele>
        <time>2011-08-03T08:25:53Z</time>
      </trkpt>
      <trkpt lat="44.58007" lon="3.8497">
        <ele>1305.61</ele>
        <time>2011-08-03T08:26:07Z</time>
      </trkpt>
      <trkpt lat="44.58007" lon="3.84914">
        <ele>1305.61</ele>
        <time>2011-08-03T08:26:21Z</time>
      </trkpt>
      <trkpt lat="44.58003" lon="3.84872">
        <ele>1304.17</ele>
        <time>2011-08-03T08:26:34Z</time>
      </trkpt>
      <trkpt lat="44.57979" lon="3.84834">
        <ele>1303.69</ele>
        <time>2011-08-03T08:26:49Z</time>
      </trkpt>
      <trkpt lat="44.57948" lon="3.84797">
        <ele>1305.61</ele>
        <time>2011-08-03T08:27:05Z</time>
      </trkpt>
      <trkpt lat="44.57922" lon="3.84791">
        <ele>1305.61</ele>
        <time>2011-08-03T08:27:19Z</time>
      </trkpt>
      <trkpt lat="44.57891" lon="3.84819">
        <ele>1303.69</ele>
        <time>2011-08-03T08:27:29Z</time>
      </trkpt>
      <trkpt lat="44.57821" lon="3.8485">
        <ele>1298.4</ele>
        <time>2011-08-03T08:27:41Z</time>
      </trkpt>
      <trkpt lat="44.57724" lon="3.84877">
        <ele>1290.23</ele>
        <time>2011-08-03T08:27:52Z</time>
      </trkpt>
      <trkpt lat="44.57654" lon="3.84894">
        <ele>1283.02</ele>
        <time>2011-08-03T08:27:59Z</time>
      </trkpt>
      <trkpt lat="44.57642" lon="3.84895">
        <ele>1282.06</ele>
        <time>2011-08-03T08:28:00Z</time>
      </trkpt>
      <trkpt lat="44.5763" lon="3.84895">
        <ele>1280.61</ele>
        <time>2011-08-03T08:28:01Z</time>
      </trkpt>
      <trkpt lat="44.57581" lon="3.84896">
        <ele>1272.44</ele>
        <time>2011-08-03T08:28:07Z</time>
      </trkpt>
      <trkpt lat="44.57565" lon="3.849">
        <ele>1269.56</ele>
        <time>2011-08-03T08:28:09Z</time>
      </trkpt>
      <trkpt lat="44.57531" lon="3.84919">
        <ele>1265.23</ele>
        <time>2011-08-03T08:28:13Z</time>
      </trkpt>
      <trkpt lat="44.57521" lon="3.84922">
        <ele>1264.27</ele>
        <time>2011-08-03T08:28:14Z</time>
      </trkpt>
      <trkpt lat="44.57511" lon="3.84926">
        <ele>1263.31</ele>
        <time>2011-08-03T08:28:15Z</time>
      </trkpt>
      <trkpt lat="44.57489" lon="3.84933">
        <ele>1261.39</ele>
        <time>2011-08-03T08:28:17Z</time>
      </trkpt>
      <trkpt lat="44.57446" lon="3.84949">
        <ele>1257.54</ele>
        <time>2011-08-03T08:28:21Z</time>
      </trkpt>
      <trkpt lat="44.57436" lon="3.84954">
        <ele>1256.58</ele>
        <time>2011-08-03T08:28:22Z</time>
      </trkpt>
      <trkpt lat="44.57415" lon="3.84963">
        <ele>1254.66</ele>
        <time>2011-08-03T08:28:24Z</time>
      </trkpt>
      <trkpt lat="44.57404" lon="3.84966">
        <ele>1253.22</ele>
        <time>2011-08-03T08:28:25Z</time>
      </trkpt>
      <trkpt lat="44.57348" lon="3.84967">
        <ele>1246.49</ele>
        <time>2011-08-03T08:28:30Z</time>
      </trkpt>
      <trkpt lat="44.57305" lon="3.8496">
        <ele>1242.16</ele>
        <time>2011-08-03T08:28:34Z</time>
      </trkpt>
      <trkpt lat="44.57295" lon="3.84955">
        <ele>1241.2</ele>
        <time>2011-08-03T08:28:35Z</time>
      </trkpt>
      <trkpt lat="44.57256" lon="3.84925">
        <ele>1236.87</ele>
        <time>2011-08-03T08:28:39Z</time>
      </trkpt>
      <trkpt lat="44.57246" lon="3.84914">
        <ele>1235.91</ele>
        <time>2011-08-03T08:28:40Z</time>
      </trkpt>
      <trkpt lat="44.5717" lon="3.84821">
        <ele>1226.3</ele>
        <time>2011-08-03T08:28:49Z</time>
      </trkpt>
      <trkpt lat="44.57127" lon="3.84774">
        <ele>1220.53</ele>
        <time>2011-08-03T08:28:54Z</time>
      </trkpt>
      <trkpt lat="44.57117" lon="3.84767">
        <ele>1219.09</ele>
        <time>2011-08-03T08:28:55Z</time>
      </trkpt>
      <trkpt lat="44.57106" lon="3.84762">
        <ele>1217.65</ele>
        <time>2011-08-03T08:28:56Z</time>
      </trkpt>
      <trkpt lat="44.57095" lon="3.84759">
        <ele>1216.21</ele>
        <time>2011-08-03T08:28:57Z</time>
      </trkpt>
      <trkpt lat="44.57083" lon="3.84757">
        <ele>1214.76</ele>
        <time>2011-08-03T08:28:58Z</time>
      </trkpt>
      <trkpt lat="44.57001" lon="3.84741">
        <ele>1204.67</ele>
        <time>2011-08-03T08:29:05Z</time>
      </trkpt>
      <trkpt lat="44.5699" lon="3.84737">
        <ele>1203.23</ele>
        <time>2011-08-03T08:29:06Z</time>
      </trkpt>
      <trkpt lat="44.56981" lon="3.8473">
        <ele>1202.27</ele>
        <time>2011-08-03T08:29:07Z</time>
      </trkpt>
      <trkpt lat="44.56961" lon="3.84718">
        <ele>1199.38</ele>
        <time>2011-08-03T08:29:09Z</time>
      </trkpt>
      <trkpt lat="44.56847" lon="3.8466">
        <ele>1185.92</ele>
        <time>2011-08-03T08:29:20Z</time>
      </trkpt>
      <trkpt lat="44.56779" lon="3.84649">
        <ele>1179.67</ele>
        <time>2011-08-03T08:29:26Z</time>
      </trkpt>
      <trkpt lat="44.56758" lon="3.84652">
        <ele>1177.27</ele>
        <time>2011-08-03T08:29:28Z</time>
      </trkpt>
      <trkpt lat="44.56737" lon="3.8466">
        <ele>1174.39</ele>
        <time>2011-08-03T08:29:30Z</time>
      </trkpt>
      <trkpt lat="44.5669" lon="3.8469">
        <ele>1168.14</ele>
        <time>2011-08-03T08:29:35Z</time>
      </trkpt>
      <trkpt lat="44.56682" lon="3.847">
        <ele>1167.18</ele>
        <time>2011-08-03T08:29:36Z</time>
      </trkpt>
      <trkpt lat="44.56595" lon="3.84823">
        <ele>1154.2</ele>
        <time>2011-08-03T08:29:47Z</time>
      </trkpt>
      <trkpt lat="44.56585" lon="3.84832">
        <ele>1152.76</ele>
        <time>2011-08-03T08:29:48Z</time>
      </trkpt>
      <trkpt lat="44.56556" lon="3.84859">
        <ele>1149.39</ele>
        <time>2011-08-03T08:29:51Z</time>
      </trkpt>
      <trkpt lat="44.56548" lon="3.84871">
        <ele>1147.95</ele>
        <time>2011-08-03T08:29:52Z</time>
      </trkpt>
      <trkpt lat="44.5654" lon="3.84884">
        <ele>1146.99</ele>
        <time>2011-08-03T08:29:53Z</time>
      </trkpt>
      <trkpt lat="44.56534" lon="3.84898">
        <ele>1146.03</ele>
        <time>2011-08-03T08:29:54Z</time>
      </trkpt>
      <trkpt lat="44.56527" lon="3.84912">
        <ele>1145.07</ele>
        <time>2011-08-03T08:29:55Z</time>
      </trkpt>
      <trkpt lat="44.56522" lon="3.84927">
        <ele>1144.11</ele>
        <time>2011-08-03T08:29:56Z</time>
      </trkpt>
      <trkpt lat="44.56518" lon="3.8494">
        <ele>1143.14</ele>
        <time>2011-08-03T08:29:57Z</time>
      </trkpt>
      <trkpt lat="44.56516" lon="3.84954">
        <ele>1142.66</ele>
        <time>2011-08-03T08:29:58Z</time>
      </trkpt>
      <trkpt lat="44.56514" lon="3.84967">
        <ele>1141.7</ele>
        <time>2011-08-03T08:29:59Z</time>
      </trkpt>
      <trkpt lat="44.56514" lon="3.8498">
        <ele>1141.22</ele>
        <time>2011-08-03T08:30:00Z</time>
      </trkpt>
      <trkpt lat="44.56515" lon="3.84993">
        <ele>1140.74</ele>
        <time>2011-08-03T08:30:01Z</time>
      </trkpt>
      <trkpt lat="44.56518" lon="3.85004">
        <ele>1140.26</ele>
        <time>2011-08-03T08:30:02Z</time>
      </trkpt>
      <trkpt lat="44.56521" lon="3.85016">
        <ele>1139.78</ele>
        <time>2011-08-03T08:30:03Z</time>
      </trkpt>
      <trkpt lat="44.56525" lon="3.85026">
        <ele>1139.78</ele>
        <time>2011-08-03T08:30:04Z</time>
      </trkpt>
      <trkpt lat="44.56531" lon="3.85036">
        <ele>1139.3</ele>
        <time>2011-08-03T08:30:05Z</time>
      </trkpt>
      <trkpt lat="44.56537" lon="3.85046">
        <ele>1139.3</ele>
        <time>2011-08-03T08:30:06Z</time>
      </trkpt>
      <trkpt lat="44.56541" lon="3.85056">
        <ele>1138.82</ele>
        <time>2011-08-03T08:30:07Z</time>
      </trkpt>
      <trkpt lat="44.56545" lon="3.85066">
        <ele>1138.82</ele>
        <time>2011-08-03T08:30:08Z</time>
      </trkpt>
      <trkpt lat="44.56548" lon="3.85078">
        <ele>1138.34</ele>
        <time>2011-08-03T08:30:09Z</time>
      </trkpt>
      <trkpt lat="44.56571" lon="3.85193">
        <ele>1135.94</ele>
        <time>2011-08-03T08:30:21Z</time>
      </trkpt>
      <trkpt lat="44.56572" lon="3.85202">
        <ele>1135.45</ele>
        <time>2011-08-03T08:30:22Z</time>
      </trkpt>
      <trkpt lat="44.56572" lon="3.85267">
        <ele>1135.94</ele>
        <time>2011-08-03T08:30:29Z</time>
      </trkpt>
      <trkpt lat="44.56571" lon="3.85275">
        <ele>1135.94</ele>
        <time>2011-08-03T08:30:30Z</time>
      </trkpt>
      <trkpt lat="44.56569" lon="3.85283">
        <ele>1135.94</ele>
        <time>2011-08-03T08:30:31Z</time>
      </trkpt>
      <trkpt lat="44.56569" lon="3.85291">
        <ele>1135.45</ele>
        <time>2011-08-03T08:30:32Z</time>
      </trkpt>
      <trkpt lat="44.56568" lon="3.85298">
        <ele>1134.97</ele>
        <time>2011-08-03T08:30:33Z</time>
      </trkpt>
      <trkpt lat="44.56566" lon="3.85315">
        <ele>1134.01</ele>
        <time>2011-08-03T08:30:37Z</time>
      </trkpt>
      <trkpt lat="44.56564" lon="3.85316">
        <ele>1133.53</ele>
        <time>2011-08-03T08:30:38Z</time>
      </trkpt>
      <trkpt lat="44.56562" lon="3.85316">
        <ele>1133.53</ele>
        <time>2011-08-03T08:30:39Z</time>
      </trkpt>
      <trkpt lat="44.56559" lon="3.85315">
        <ele>1133.05</ele>
        <time>2011-08-03T08:30:51Z</time>
      </trkpt>
      <trkpt lat="44.56559" lon="3.85315">
        <ele>1133.05</ele>
        <time>2011-08-03T08:31:21Z</time>
      </trkpt>
      <trkpt lat="44.56557" lon="3.85316">
        <ele>1133.53</ele>
        <time>2011-08-03T08:31:32Z</time>
      </trkpt>
      <trkpt lat="44.56556" lon="3.85317">
        <ele>1133.53</ele>
        <time>2011-08-03T08:31:33Z</time>
      </trkpt>
      <trkpt lat="44.56555" lon="3.85319">
        <ele>1133.53</ele>
        <time>2011-08-03T08:31:34Z</time>
      </trkpt>
      <trkpt lat="44.56555" lon="3.8532">
        <ele>1133.53</ele>
        <time>2011-08-03T08:31:35Z</time>
      </trkpt>
      <trkpt lat="44.56556" lon="3.85322">
        <ele>1134.01</ele>
        <time>2011-08-03T08:31:36Z</time>
      </trkpt>
      <trkpt lat="44.56558" lon="3.85322">
        <ele>1134.01</ele>
        <time>2011-08-03T08:31:37Z</time>
      </trkpt>
      <trkpt lat="44.5656" lon="3.85322">
        <ele>1134.49</ele>
        <time>2011-08-03T08:31:38Z</time>
      </trkpt>
      <trkpt lat="44.56562" lon="3.85321">
        <ele>1134.49</ele>
        <time>2011-08-03T08:31:39Z</time>
      </trkpt>
      <trkpt lat="44.56562" lon="3.85319">
        <ele>1134.97</ele>
        <time>2011-08-03T08:31:40Z</time>
      </trkpt>
      <trkpt lat="44.56561" lon="3.85317">
        <ele>1135.45</ele>
        <time>2011-08-03T08:31:41Z</time>
      </trkpt>
      <trkpt lat="44.56561" lon="3.85315">
        <ele>1135.94</ele>
        <time>2011-08-03T08:31:54Z</time>
      </trkpt>
      <trkpt lat="44.56561" lon="3.85315">
        <ele>1135.94</ele>
        <time>2011-08-03T08:32:20Z</time>
      </trkpt>
      <trkpt lat="44.56561" lon="3.85315">
        <ele>1135.94</ele>
        <time>2011-08-03T08:32:43Z</time>
      </trkpt>
      <trkpt lat="44.5656" lon="3.85315">
        <ele>1135.94</ele>
        <time>2011-08-03T08:33:09Z</time>
      </trkpt>
      <trkpt lat="44.5656" lon="3.85315">
        <ele>1135.94</ele>
        <time>2011-08-03T08:33:35Z</time>
      </trkpt>
      <trkpt lat="44.5656" lon="3.85315">
        <ele>1135.94</ele>
        <time>2011-08-03T08:33:57Z</time>
      </trkpt>
      <trkpt lat="44.56559" lon="3.85315">
        <ele>1135.94</ele>
        <time>2011-08-03T08:34:24Z</time>
      </trkpt>
      <trkpt lat="44.56558" lon="3.85315">
        <ele>1135.45</ele>
        <time>2011-08-03T08:34:25Z</time>
      </trkpt>
      <trkpt lat="44.56556" lon="3.85313">
        <ele>1135.45</ele>
        <time>2011-08-03T08:34:26Z</time>
      </trkpt>
      <trkpt lat="44.56554" lon="3.85311">
        <ele>1134.97</ele>
        <time>2011-08-03T08:34:27Z</time>
      </trkpt>
      <trkpt lat="44.56552" lon="3.85308">
        <ele>1134.97</ele>
        <time>2011-08-03T08:34:28Z</time>
      </trkpt>
      <trkpt lat="44.56551" lon="3.85304">
        <ele>1134.97</ele>
        <time>2011-08-03T08:34:29Z</time>
      </trkpt>
      <trkpt lat="44.5655" lon="3.85299">
        <ele>1134.97</ele>
        <time>2011-08-03T08:34:30Z</time>
      </trkpt>
      <trkpt lat="44.56548" lon="3.85294">
        <ele>1134.97</ele>
        <time>2011-08-03T08:34:31Z</time>
      </trkpt>
      <trkpt lat="44.56546" lon="3.85288">
        <ele>1134.97</ele>
        <time>2011-08-03T08:34:32Z</time>
      </trkpt>
      <trkpt lat="44.56544" lon="3.85275">
        <ele>1134.01</ele>
        <time>2011-08-03T08:34:34Z</time>
      </trkpt>
      <trkpt lat="44.56533" lon="3.85177">
        <ele>1129.21</ele>
        <time>2011-08-03T08:34:44Z</time>
      </trkpt>
      <trkpt lat="44.5653" lon="3.85167">
        <ele>1128.73</ele>
        <time>2011-08-03T08:34:45Z</time>
      </trkpt>
      <trkpt lat="44.56498" lon="3.8511">
        <ele>1124.4</ele>
        <time>2011-08-03T08:34:50Z</time>
      </trkpt>
      <trkpt lat="44.5649" lon="3.851">
        <ele>1123.44</ele>
        <time>2011-08-03T08:34:51Z</time>
      </trkpt>
      <trkpt lat="44.56482" lon="3.85091">
        <ele>1122.96</ele>
        <time>2011-08-03T08:34:52Z</time>
      </trkpt>
      <trkpt lat="44.56473" lon="3.85082">
        <ele>1122.48</ele>
        <time>2011-08-03T08:34:53Z</time>
      </trkpt>
      <trkpt lat="44.56463" lon="3.85075">
        <ele>1121.52</ele>
        <time>2011-08-03T08:34:54Z</time>
      </trkpt>
      <trkpt lat="44.56453" lon="3.85069">
        <ele>1121.03</ele>
        <time>2011-08-03T08:34:55Z</time>
      </trkpt>
      <trkpt lat="44.56442" lon="3.85064">
        <ele>1119.59</ele>
        <time>2011-08-03T08:34:56Z</time>
      </trkpt>
      <trkpt lat="44.56431" lon="3.85059">
        <ele>1118.63</ele>
        <time>2011-08-03T08:34:57Z</time>
      </trkpt>
      <trkpt lat="44.56388" lon="3.85041">
        <ele>1116.23</ele>
        <time>2011-08-03T08:35:01Z</time>
      </trkpt>
      <trkpt lat="44.56379" lon="3.8504">
        <ele>1116.23</ele>
        <time>2011-08-03T08:35:02Z</time>
      </trkpt>
      <trkpt lat="44.5637" lon="3.8504">
        <ele>1116.23</ele>
        <time>2011-08-03T08:35:03Z</time>
      </trkpt>
      <trkpt lat="44.56362" lon="3.85041">
        <ele>1116.23</ele>
        <time>2011-08-03T08:35:04Z</time>
      </trkpt>
      <trkpt lat="44.56355" lon="3.85042">
        <ele>1116.23</ele>
        <time>2011-08-03T08:35:05Z</time>
      </trkpt>
      <trkpt lat="44.56348" lon="3.85042">
        <ele>1116.23</ele>
        <time>2011-08-03T08:35:06Z</time>
      </trkpt>
      <trkpt lat="44.56327" lon="3.85044">
        <ele>1117.19</ele>
        <time>2011-08-03T08:35:10Z</time>
      </trkpt>
      <trkpt lat="44.56324" lon="3.85042">
        <ele>1117.19</ele>
        <time>2011-08-03T08:35:11Z</time>
      </trkpt>
      <trkpt lat="44.56321" lon="3.85039">
        <ele>1117.67</ele>
        <time>2011-08-03T08:35:12Z</time>
      </trkpt>
      <trkpt lat="44.56318" lon="3.85036">
        <ele>1118.15</ele>
        <time>2011-08-03T08:35:13Z</time>
      </trkpt>
      <trkpt lat="44.56316" lon="3.85033">
        <ele>1118.63</ele>
        <time>2011-08-03T08:35:14Z</time>
      </trkpt>
      <trkpt lat="44.56296" lon="3.84998">
        <ele>1122</ele>
        <time>2011-08-03T08:35:28Z</time>
      </trkpt>
      <trkpt lat="44.56271" lon="3.84968">
        <ele>1127.28</ele>
        <time>2011-08-03T08:35:44Z</time>
      </trkpt>
      <trkpt lat="44.56245" lon="3.84956">
        <ele>1131.13</ele>
        <time>2011-08-03T08:35:57Z</time>
      </trkpt>
      <trkpt lat="44.56222" lon="3.84948">
        <ele>1128.24</ele>
        <time>2011-08-03T08:36:12Z</time>
      </trkpt>
      <trkpt lat="44.5619" lon="3.84937">
        <ele>1125.84</ele>
        <time>2011-08-03T08:36:27Z</time>
      </trkpt>
      <trkpt lat="44.56175" lon="3.84921">
        <ele>1125.36</ele>
        <time>2011-08-03T08:36:38Z</time>
      </trkpt>
      <trkpt lat="44.56165" lon="3.84914">
        <ele>1125.84</ele>
        <time>2011-08-03T08:36:46Z</time>
      </trkpt>
      <trkpt lat="44.56163" lon="3.84913">
        <ele>1125.84</ele>
        <time>2011-08-03T08:36:47Z</time>
      </trkpt>
      <trkpt lat="44.56136" lon="3.84883">
        <ele>1128.24</ele>
        <time>2011-08-03T08:37:05Z</time>
      </trkpt>
      <trkpt lat="44.56107" lon="3.84863">
        <ele>1130.17</ele>
        <time>2011-08-03T08:37:21Z</time>
      </trkpt>
      <trkpt lat="44.56079" lon="3.84841">
        <ele>1134.49</ele>
        <time>2011-08-03T08:37:38Z</time>
      </trkpt>
      <trkpt lat="44.56072" lon="3.84835">
        <ele>1134.49</ele>
        <time>2011-08-03T08:37:43Z</time>
      </trkpt>
      <trkpt lat="44.56071" lon="3.84833">
        <ele>1134.49</ele>
        <time>2011-08-03T08:37:44Z</time>
      </trkpt>
      <trkpt lat="44.5607" lon="3.84831">
        <ele>1134.49</ele>
        <time>2011-08-03T08:37:45Z</time>
      </trkpt>
      <trkpt lat="44.56068" lon="3.84829">
        <ele>1134.49</ele>
        <time>2011-08-03T08:37:46Z</time>
      </trkpt>
      <trkpt lat="44.56067" lon="3.84827">
        <ele>1134.49</ele>
        <time>2011-08-03T08:37:47Z</time>
      </trkpt>
      <trkpt lat="44.56067" lon="3.84825">
        <ele>1134.01</ele>
        <time>2011-08-03T08:37:48Z</time>
      </trkpt>
      <trkpt lat="44.56066" lon="3.84823">
        <ele>1134.49</ele>
        <time>2011-08-03T08:37:49Z</time>
      </trkpt>
      <trkpt lat="44.56065" lon="3.84821">
        <ele>1134.49</ele>
        <time>2011-08-03T08:37:50Z</time>
      </trkpt>
      <trkpt lat="44.56064" lon="3.84819">
        <ele>1134.97</ele>
        <time>2011-08-03T08:37:51Z</time>
      </trkpt>
      <trkpt lat="44.56064" lon="3.84817">
        <ele>1134.97</ele>
        <time>2011-08-03T08:37:52Z</time>
      </trkpt>
      <trkpt lat="44.56063" lon="3.84816">
        <ele>1134.97</ele>
        <time>2011-08-03T08:37:53Z</time>
      </trkpt>
      <trkpt lat="44.56049" lon="3.8478">
        <ele>1137.38</ele>
        <time>2011-08-03T08:38:11Z</time>
      </trkpt>
      <trkpt lat="44.5603" lon="3.84758">
        <ele>1138.82</ele>
        <time>2011-08-03T08:38:28Z</time>
      </trkpt>
      <trkpt lat="44.56012" lon="3.84741">
        <ele>1142.18</ele>
        <time>2011-08-03T08:38:44Z</time>
      </trkpt>
      <trkpt lat="44.5599" lon="3.84724">
        <ele>1143.63</ele>
        <time>2011-08-03T08:39:01Z</time>
      </trkpt>
      <trkpt lat="44.55967" lon="3.84716">
        <ele>1146.99</ele>
        <time>2011-08-03T08:39:17Z</time>
      </trkpt>
      <trkpt lat="44.55944" lon="3.84711">
        <ele>1148.91</ele>
        <time>2011-08-03T08:39:31Z</time>
      </trkpt>
      <trkpt lat="44.55922" lon="3.84706">
        <ele>1151.32</ele>
        <time>2011-08-03T08:39:46Z</time>
      </trkpt>
      <trkpt lat="44.55895" lon="3.84707">
        <ele>1151.32</ele>
        <time>2011-08-03T08:40:04Z</time>
      </trkpt>
      <trkpt lat="44.55875" lon="3.84706">
        <ele>1153.72</ele>
        <time>2011-08-03T08:40:19Z</time>
      </trkpt>
      <trkpt lat="44.55853" lon="3.84702">
        <ele>1155.64</ele>
        <time>2011-08-03T08:40:34Z</time>
      </trkpt>
      <trkpt lat="44.55832" lon="3.84692">
        <ele>1157.08</ele>
        <time>2011-08-03T08:40:50Z</time>
      </trkpt>
      <trkpt lat="44.55818" lon="3.84683">
        <ele>1157.08</ele>
        <time>2011-08-03T08:41:01Z</time>
      </trkpt>
      <trkpt lat="44.55802" lon="3.8467">
        <ele>1158.53</ele>
        <time>2011-08-03T08:41:15Z</time>
      </trkpt>
      <trkpt lat="44.55782" lon="3.84652">
        <ele>1160.45</ele>
        <time>2011-08-03T08:41:32Z</time>
      </trkpt>
      <trkpt lat="44.55761" lon="3.84636">
        <ele>1164.29</ele>
        <time>2011-08-03T08:41:49Z</time>
      </trkpt>
      <trkpt lat="44.55745" lon="3.84615">
        <ele>1166.7</ele>
        <time>2011-08-03T08:42:05Z</time>
      </trkpt>
      <trkpt lat="44.55731" lon="3.8459">
        <ele>1167.18</ele>
        <time>2011-08-03T08:42:21Z</time>
      </trkpt>
      <trkpt lat="44.55726" lon="3.84581">
        <ele>1168.14</ele>
        <time>2011-08-03T08:42:27Z</time>
      </trkpt>
      <trkpt lat="44.55725" lon="3.8458">
        <ele>1167.66</ele>
        <time>2011-08-03T08:42:28Z</time>
      </trkpt>
      <trkpt lat="44.55724" lon="3.84579">
        <ele>1167.66</ele>
        <time>2011-08-03T08:42:29Z</time>
      </trkpt>
      <trkpt lat="44.55722" lon="3.84575">
        <ele>1167.66</ele>
        <time>2011-08-03T08:42:32Z</time>
      </trkpt>
      <trkpt lat="44.55722" lon="3.84575">
        <ele>1167.66</ele>
        <time>2011-08-03T08:42:33Z</time>
      </trkpt>
      <trkpt lat="44.55721" lon="3.84574">
        <ele>1167.66</ele>
        <time>2011-08-03T08:42:51Z</time>
      </trkpt>
      <trkpt lat="44.55721" lon="3.84573">
        <ele>1168.14</ele>
        <time>2011-08-03T08:43:32Z</time>
      </trkpt>
      <trkpt lat="44.55721" lon="3.84573">
        <ele>1168.14</ele>
        <time>2011-08-03T08:43:45Z</time>
      </trkpt>
      <trkpt lat="44.55721" lon="3.84573">
        <ele>1168.14</ele>
        <time>2011-08-03T08:44:08Z</time>
      </trkpt>
      <trkpt lat="44.55721" lon="3.84573">
        <ele>1168.14</ele>
        <time>2011-08-03T08:44:35Z</time>
      </trkpt>
      <trkpt lat="44.55721" lon="3.84573">
        <ele>1167.66</ele>
        <time>2011-08-03T08:44:54Z</time>
      </trkpt>
      <trkpt lat="44.55721" lon="3.84571">
        <ele>1167.18</ele>
        <time>2011-08-03T08:45:06Z</time>
      </trkpt>
      <trkpt lat="44.5572" lon="3.84569">
        <ele>1167.18</ele>
        <time>2011-08-03T08:45:07Z</time>
      </trkpt>
      <trkpt lat="44.55708" lon="3.84531">
        <ele>1166.7</ele>
        <time>2011-08-03T08:45:17Z</time>
      </trkpt>
      <trkpt lat="44.55704" lon="3.84514">
        <ele>1166.22</ele>
        <time>2011-08-03T08:45:20Z</time>
      </trkpt>
      <trkpt lat="44.55703" lon="3.84508">
        <ele>1165.74</ele>
        <time>2011-08-03T08:45:21Z</time>
      </trkpt>
      <trkpt lat="44.55702" lon="3.84489">
        <ele>1165.74</ele>
        <time>2011-08-03T08:45:24Z</time>
      </trkpt>
      <trkpt lat="44.55697" lon="3.84399">
        <ele>1164.29</ele>
        <time>2011-08-03T08:45:40Z</time>
      </trkpt>
      <trkpt lat="44.5569" lon="3.8433">
        <ele>1164.29</ele>
        <time>2011-08-03T08:45:55Z</time>
      </trkpt>
      <trkpt lat="44.55676" lon="3.84258">
        <ele>1165.26</ele>
        <time>2011-08-03T08:46:11Z</time>
      </trkpt>
      <trkpt lat="44.55664" lon="3.84184">
        <ele>1165.74</ele>
        <time>2011-08-03T08:46:28Z</time>
      </trkpt>
      <trkpt lat="44.55665" lon="3.84144">
        <ele>1168.62</ele>
        <time>2011-08-03T08:46:43Z</time>
      </trkpt>
      <trkpt lat="44.55664" lon="3.84108">
        <ele>1171.5</ele>
        <time>2011-08-03T08:46:58Z</time>
      </trkpt>
      <trkpt lat="44.55667" lon="3.84071">
        <ele>1172.47</ele>
        <time>2011-08-03T08:47:13Z</time>
      </trkpt>
      <trkpt lat="44.55669" lon="3.84038">
        <ele>1172.47</ele>
        <time>2011-08-03T08:47:26Z</time>
      </trkpt>
      <trkpt lat="44.5566" lon="3.83997">
        <ele>1172.95</ele>
        <time>2011-08-03T08:47:42Z</time>
      </trkpt>
      <trkpt lat="44.5565" lon="3.83949">
        <ele>1171.5</ele>
        <time>2011-08-03T08:47:57Z</time>
      </trkpt>
      <trkpt lat="44.55629" lon="3.83895">
        <ele>1171.02</ele>
        <time>2011-08-03T08:48:11Z</time>
      </trkpt>
      <trkpt lat="44.55617" lon="3.83842">
        <ele>1171.5</ele>
        <time>2011-08-03T08:48:25Z</time>
      </trkpt>
      <trkpt lat="44.55607" lon="3.8379">
        <ele>1171.5</ele>
        <time>2011-08-03T08:48:40Z</time>
      </trkpt>
      <trkpt lat="44.55596" lon="3.83794">
        <ele>1171.02</ele>
        <time>2011-08-03T08:48:44Z</time>
      </trkpt>
      <trkpt lat="44.55593" lon="3.83796">
        <ele>1171.02</ele>
        <time>2011-08-03T08:48:45Z</time>
      </trkpt>
      <trkpt lat="44.55592" lon="3.83799">
        <ele>1171.02</ele>
        <time>2011-08-03T08:48:46Z</time>
      </trkpt>
      <trkpt lat="44.55563" lon="3.83835">
        <ele>1170.54</ele>
        <time>2011-08-03T08:49:01Z</time>
      </trkpt>
      <trkpt lat="44.55523" lon="3.83879">
        <ele>1169.1</ele>
        <time>2011-08-03T08:49:15Z</time>
      </trkpt>
      <trkpt lat="44.55473" lon="3.8392">
        <ele>1168.14</ele>
        <time>2011-08-03T08:49:30Z</time>
      </trkpt>
      <trkpt lat="44.55448" lon="3.83935">
        <ele>1169.1</ele>
        <time>2011-08-03T08:49:40Z</time>
      </trkpt>
      <trkpt lat="44.55447" lon="3.83934">
        <ele>1168.62</ele>
        <time>2011-08-03T08:49:41Z</time>
      </trkpt>
      <trkpt lat="44.55446" lon="3.83932">
        <ele>1169.1</ele>
        <time>2011-08-03T08:49:42Z</time>
      </trkpt>
      <trkpt lat="44.55424" lon="3.83873">
        <ele>1168.62</ele>
        <time>2011-08-03T08:49:59Z</time>
      </trkpt>
      <trkpt lat="44.55404" lon="3.83818">
        <ele>1168.62</ele>
        <time>2011-08-03T08:50:15Z</time>
      </trkpt>
      <trkpt lat="44.55402" lon="3.83811">
        <ele>1168.62</ele>
        <time>2011-08-03T08:50:27Z</time>
      </trkpt>
      <trkpt lat="44.55402" lon="3.83811">
        <ele>1168.62</ele>
        <time>2011-08-03T08:50:54Z</time>
      </trkpt>
      <trkpt lat="44.55401" lon="3.83811">
        <ele>1168.62</ele>
        <time>2011-08-03T08:51:20Z</time>
      </trkpt>
      <trkpt lat="44.55401" lon="3.83811">
        <ele>1168.62</ele>
        <time>2011-08-03T08:51:53Z</time>
      </trkpt>
      <trkpt lat="44.55401" lon="3.83811">
        <ele>1168.62</ele>
        <time>2011-08-03T08:52:15Z</time>
      </trkpt>
      <trkpt lat="44.55401" lon="3.83812">
        <ele>1169.58</ele>
        <time>2011-08-03T08:52:42Z</time>
      </trkpt>
      <trkpt lat="44.55401" lon="3.83812">
        <ele>1169.1</ele>
        <time>2011-08-03T08:53:02Z</time>
      </trkpt>
      <trkpt lat="44.55401" lon="3.83812">
        <ele>1169.1</ele>
        <time>2011-08-03T08:53:38Z</time>
      </trkpt>
      <trkpt lat="44.55401" lon="3.83812">
        <ele>1169.1</ele>
        <time>2011-08-03T08:54:09Z</time>
      </trkpt>
      <trkpt lat="44.55393" lon="3.83792">
        <ele>1170.06</ele>
        <time>2011-08-03T08:54:28Z</time>
      </trkpt>
      <trkpt lat="44.5537" lon="3.83734">
        <ele>1170.54</ele>
        <time>2011-08-03T08:54:45Z</time>
      </trkpt>
      <trkpt lat="44.55343" lon="3.83664">
        <ele>1171.02</ele>
        <time>2011-08-03T08:55:02Z</time>
      </trkpt>
      <trkpt lat="44.55326" lon="3.83614">
        <ele>1171.5</ele>
        <time>2011-08-03T08:55:11Z</time>
      </trkpt>
      <trkpt lat="44.55324" lon="3.83608">
        <ele>1171.5</ele>
        <time>2011-08-03T08:55:12Z</time>
      </trkpt>
      <trkpt lat="44.55302" lon="3.83543">
        <ele>1170.06</ele>
        <time>2011-08-03T08:55:22Z</time>
      </trkpt>
      <trkpt lat="44.55296" lon="3.83534">
        <ele>1169.1</ele>
        <time>2011-08-03T08:55:23Z</time>
      </trkpt>
      <trkpt lat="44.5529" lon="3.83526">
        <ele>1168.62</ele>
        <time>2011-08-03T08:55:24Z</time>
      </trkpt>
      <trkpt lat="44.55283" lon="3.83519">
        <ele>1168.14</ele>
        <time>2011-08-03T08:55:25Z</time>
      </trkpt>
      <trkpt lat="44.55278" lon="3.83514">
        <ele>1167.66</ele>
        <time>2011-08-03T08:55:26Z</time>
      </trkpt>
      <trkpt lat="44.55272" lon="3.83509">
        <ele>1167.18</ele>
        <time>2011-08-03T08:55:27Z</time>
      </trkpt>
      <trkpt lat="44.55265" lon="3.83505">
        <ele>1166.7</ele>
        <time>2011-08-03T08:55:28Z</time>
      </trkpt>
      <trkpt lat="44.55259" lon="3.83502">
        <ele>1166.7</ele>
        <time>2011-08-03T08:55:29Z</time>
      </trkpt>
      <trkpt lat="44.55212" lon="3.83478">
        <ele>1163.81</ele>
        <time>2011-08-03T08:55:36Z</time>
      </trkpt>
      <trkpt lat="44.55206" lon="3.83472">
        <ele>1163.33</ele>
        <time>2011-08-03T08:55:37Z</time>
      </trkpt>
      <trkpt lat="44.55199" lon="3.83466">
        <ele>1163.33</ele>
        <time>2011-08-03T08:55:38Z</time>
      </trkpt>
      <trkpt lat="44.55194" lon="3.83458">
        <ele>1162.85</ele>
        <time>2011-08-03T08:55:39Z</time>
      </trkpt>
      <trkpt lat="44.5519" lon="3.83448">
        <ele>1162.85</ele>
        <time>2011-08-03T08:55:40Z</time>
      </trkpt>
      <trkpt lat="44.55186" lon="3.83438">
        <ele>1162.85</ele>
        <time>2011-08-03T08:55:41Z</time>
      </trkpt>
      <trkpt lat="44.55184" lon="3.83427">
        <ele>1162.37</ele>
        <time>2011-08-03T08:55:42Z</time>
      </trkpt>
      <trkpt lat="44.55183" lon="3.83415">
        <ele>1162.37</ele>
        <time>2011-08-03T08:55:43Z</time>
      </trkpt>
      <trkpt lat="44.55183" lon="3.83404">
        <ele>1161.89</ele>
        <time>2011-08-03T08:55:44Z</time>
      </trkpt>
      <trkpt lat="44.55175" lon="3.83334">
        <ele>1159.49</ele>
        <time>2011-08-03T08:55:51Z</time>
      </trkpt>
      <trkpt lat="44.55172" lon="3.83326">
        <ele>1159.49</ele>
        <time>2011-08-03T08:55:52Z</time>
      </trkpt>
      <trkpt lat="44.55166" lon="3.83312">
        <ele>1159.49</ele>
        <time>2011-08-03T08:55:54Z</time>
      </trkpt>
      <trkpt lat="44.55162" lon="3.83307">
        <ele>1159.49</ele>
        <time>2011-08-03T08:55:55Z</time>
      </trkpt>
      <trkpt lat="44.55151" lon="3.83293">
        <ele>1159.49</ele>
        <time>2011-08-03T08:55:58Z</time>
      </trkpt>
      <trkpt lat="44.55146" lon="3.8329">
        <ele>1159.49</ele>
        <time>2011-08-03T08:55:59Z</time>
      </trkpt>
      <trkpt lat="44.55081" lon="3.83265">
        <ele>1159.97</ele>
        <time>2011-08-03T08:56:15Z</time>
      </trkpt>
      <trkpt lat="44.55027" lon="3.8324">
        <ele>1160.93</ele>
        <time>2011-08-03T08:56:30Z</time>
      </trkpt>
      <trkpt lat="44.54994" lon="3.8318">
        <ele>1162.85</ele>
        <time>2011-08-03T08:56:46Z</time>
      </trkpt>
      <trkpt lat="44.54988" lon="3.8314">
        <ele>1163.81</ele>
        <time>2011-08-03T08:56:56Z</time>
      </trkpt>
      <trkpt lat="44.54988" lon="3.83137">
        <ele>1163.81</ele>
        <time>2011-08-03T08:56:57Z</time>
      </trkpt>
      <trkpt lat="44.54988" lon="3.83133">
        <ele>1163.81</ele>
        <time>2011-08-03T08:56:58Z</time>
      </trkpt>
      <trkpt lat="44.54988" lon="3.8313">
        <ele>1163.81</ele>
        <time>2011-08-03T08:56:59Z</time>
      </trkpt>
      <trkpt lat="44.54988" lon="3.83126">
        <ele>1164.29</ele>
        <time>2011-08-03T08:57:00Z</time>
      </trkpt>
      <trkpt lat="44.54988" lon="3.83123">
        <ele>1164.29</ele>
        <time>2011-08-03T08:57:01Z</time>
      </trkpt>
      <trkpt lat="44.54988" lon="3.8312">
        <ele>1163.81</ele>
        <time>2011-08-03T08:57:02Z</time>
      </trkpt>
      <trkpt lat="44.54984" lon="3.83076">
        <ele>1163.81</ele>
        <time>2011-08-03T08:57:15Z</time>
      </trkpt>
      <trkpt lat="44.54979" lon="3.83">
        <ele>1164.29</ele>
        <time>2011-08-03T08:57:31Z</time>
      </trkpt>
      <trkpt lat="44.54982" lon="3.82919">
        <ele>1163.81</ele>
        <time>2011-08-03T08:57:46Z</time>
      </trkpt>
      <trkpt lat="44.54983" lon="3.82913">
        <ele>1163.81</ele>
        <time>2011-08-03T08:57:47Z</time>
      </trkpt>
      <trkpt lat="44.54995" lon="3.82861">
        <ele>1162.85</ele>
        <time>2011-08-03T08:57:55Z</time>
      </trkpt>
      <trkpt lat="44.54996" lon="3.82853">
        <ele>1162.37</ele>
        <time>2011-08-03T08:57:56Z</time>
      </trkpt>
      <trkpt lat="44.54997" lon="3.82845">
        <ele>1161.89</ele>
        <time>2011-08-03T08:57:57Z</time>
      </trkpt>
      <trkpt lat="44.54996" lon="3.82836">
        <ele>1161.41</ele>
        <time>2011-08-03T08:57:58Z</time>
      </trkpt>
      <trkpt lat="44.54995" lon="3.82826">
        <ele>1160.93</ele>
        <time>2011-08-03T08:57:59Z</time>
      </trkpt>
      <trkpt lat="44.54993" lon="3.82817">
        <ele>1160.45</ele>
        <time>2011-08-03T08:58:00Z</time>
      </trkpt>
      <trkpt lat="44.54991" lon="3.82808">
        <ele>1159.97</ele>
        <time>2011-08-03T08:58:01Z</time>
      </trkpt>
      <trkpt lat="44.5499" lon="3.82801">
        <ele>1159.49</ele>
        <time>2011-08-03T08:58:02Z</time>
      </trkpt>
      <trkpt lat="44.5499" lon="3.82797">
        <ele>1159.49</ele>
        <time>2011-08-03T08:58:03Z</time>
      </trkpt>
      <trkpt lat="44.54992" lon="3.82795">
        <ele>1159.49</ele>
        <time>2011-08-03T08:58:04Z</time>
      </trkpt>
      <trkpt lat="44.54994" lon="3.82794">
        <ele>1159.49</ele>
        <time>2011-08-03T08:58:05Z</time>
      </trkpt>
      <trkpt lat="44.54997" lon="3.82794">
        <ele>1159.01</ele>
        <time>2011-08-03T08:58:06Z</time>
      </trkpt>
      <trkpt lat="44.54999" lon="3.82794">
        <ele>1159.49</ele>
        <time>2011-08-03T08:58:07Z</time>
      </trkpt>
      <trkpt lat="44.55001" lon="3.82795">
        <ele>1159.01</ele>
        <time>2011-08-03T08:58:08Z</time>
      </trkpt>
      <trkpt lat="44.55004" lon="3.82796">
        <ele>1159.01</ele>
        <time>2011-08-03T08:58:09Z</time>
      </trkpt>
      <trkpt lat="44.55006" lon="3.82796">
        <ele>1159.01</ele>
        <time>2011-08-03T08:58:10Z</time>
      </trkpt>
      <trkpt lat="44.5501" lon="3.82794">
        <ele>1159.01</ele>
        <time>2011-08-03T08:58:12Z</time>
      </trkpt>
      <trkpt lat="44.55011" lon="3.82792">
        <ele>1159.01</ele>
        <time>2011-08-03T08:58:13Z</time>
      </trkpt>
      <trkpt lat="44.55031" lon="3.82758">
        <ele>1161.89</ele>
        <time>2011-08-03T08:58:29Z</time>
      </trkpt>
      <trkpt lat="44.55053" lon="3.82724">
        <ele>1162.37</ele>
        <time>2011-08-03T08:58:44Z</time>
      </trkpt>
      <trkpt lat="44.55077" lon="3.82658">
        <ele>1162.37</ele>
        <time>2011-08-03T08:59:00Z</time>
      </trkpt>
      <trkpt lat="44.55089" lon="3.82593">
        <ele>1162.37</ele>
        <time>2011-08-03T08:59:15Z</time>
      </trkpt>
      <trkpt lat="44.55067" lon="3.82551">
        <ele>1163.81</ele>
        <time>2011-08-03T08:59:27Z</time>
      </trkpt>
      <trkpt lat="44.55079" lon="3.82536">
        <ele>1164.77</ele>
        <time>2011-08-03T08:59:38Z</time>
      </trkpt>
      <trkpt lat="44.55092" lon="3.82542">
        <ele>1165.26</ele>
        <time>2011-08-03T08:59:41Z</time>
      </trkpt>
      <trkpt lat="44.55108" lon="3.82556">
        <ele>1166.22</ele>
        <time>2011-08-03T08:59:45Z</time>
      </trkpt>
      <trkpt lat="44.55121" lon="3.82551">
        <ele>1167.66</ele>
        <time>2011-08-03T08:59:52Z</time>
      </trkpt>
      <trkpt lat="44.55137" lon="3.82568">
        <ele>1169.1</ele>
        <time>2011-08-03T09:00:00Z</time>
      </trkpt>
      <trkpt lat="44.55142" lon="3.82572">
        <ele>1169.58</ele>
        <time>2011-08-03T09:00:01Z</time>
      </trkpt>
      <trkpt lat="44.55153" lon="3.8258">
        <ele>1170.06</ele>
        <time>2011-08-03T09:00:03Z</time>
      </trkpt>
      <trkpt lat="44.55178" lon="3.8261">
        <ele>1170.54</ele>
        <time>2011-08-03T09:00:13Z</time>
      </trkpt>
      <trkpt lat="44.55179" lon="3.82609">
        <ele>1170.54</ele>
        <time>2011-08-03T09:00:26Z</time>
      </trkpt>
      <trkpt lat="44.55179" lon="3.82609">
        <ele>1170.54</ele>
        <time>2011-08-03T09:00:50Z</time>
      </trkpt>
      <trkpt lat="44.55179" lon="3.8261">
        <ele>1170.54</ele>
        <time>2011-08-03T09:01:15Z</time>
      </trkpt>
      <trkpt lat="44.55179" lon="3.8261">
        <ele>1170.54</ele>
        <time>2011-08-03T09:01:39Z</time>
      </trkpt>
      <trkpt lat="44.55179" lon="3.8261">
        <ele>1170.54</ele>
        <time>2011-08-03T09:02:04Z</time>
      </trkpt>
      <trkpt lat="44.55179" lon="3.8261">
        <ele>1171.5</ele>
        <time>2011-08-03T09:02:33Z</time>
      </trkpt>
      <trkpt lat="44.55179" lon="3.8261">
        <ele>1171.02</ele>
        <time>2011-08-03T09:03:02Z</time>
      </trkpt>
      <trkpt lat="44.55179" lon="3.8261">
        <ele>1171.02</ele>
        <time>2011-08-03T09:03:25Z</time>
      </trkpt>
      <trkpt lat="44.55179" lon="3.8261">
        <ele>1171.5</ele>
        <time>2011-08-03T09:03:52Z</time>
      </trkpt>
      <trkpt lat="44.55177" lon="3.82609">
        <ele>1171.02</ele>
        <time>2011-08-03T09:04:20Z</time>
      </trkpt>
      <trkpt lat="44.5517" lon="3.82601">
        <ele>1167.66</ele>
        <time>2011-08-03T09:04:43Z</time>
      </trkpt>
      <trkpt lat="44.55169" lon="3.82604">
        <ele>1166.22</ele>
        <time>2011-08-03T09:04:57Z</time>
      </trkpt>
      <trkpt lat="44.5517" lon="3.82608">
        <ele>1166.22</ele>
        <time>2011-08-03T09:05:12Z</time>
      </trkpt>
      <trkpt lat="44.55166" lon="3.82603">
        <ele>1166.7</ele>
        <time>2011-08-03T09:05:26Z</time>
      </trkpt>
      <trkpt lat="44.55164" lon="3.82603">
        <ele>1167.18</ele>
        <time>2011-08-03T09:05:39Z</time>
      </trkpt>
      <trkpt lat="44.55162" lon="3.82601">
        <ele>1167.66</ele>
        <time>2011-08-03T09:05:50Z</time>
      </trkpt>
      <trkpt lat="44.55161" lon="3.82599">
        <ele>1167.66</ele>
        <time>2011-08-03T09:05:51Z</time>
      </trkpt>
      <trkpt lat="44.55155" lon="3.8259">
        <ele>1168.14</ele>
        <time>2011-08-03T09:05:58Z</time>
      </trkpt>
      <trkpt lat="44.55154" lon="3.82588">
        <ele>1168.14</ele>
        <time>2011-08-03T09:05:59Z</time>
      </trkpt>
      <trkpt lat="44.55154" lon="3.82586">
        <ele>1168.14</ele>
        <time>2011-08-03T09:06:00Z</time>
      </trkpt>
      <trkpt lat="44.55136" lon="3.8257">
        <ele>1169.58</ele>
        <time>2011-08-03T09:06:15Z</time>
      </trkpt>
      <trkpt lat="44.55116" lon="3.82549">
        <ele>1171.5</ele>
        <time>2011-08-03T09:06:32Z</time>
      </trkpt>
      <trkpt lat="44.5511" lon="3.82532">
        <ele>1173.43</ele>
        <time>2011-08-03T09:06:42Z</time>
      </trkpt>
      <trkpt lat="44.5511" lon="3.8253">
        <ele>1172.95</ele>
        <time>2011-08-03T09:06:43Z</time>
      </trkpt>
      <trkpt lat="44.55111" lon="3.82522">
        <ele>1172.95</ele>
        <time>2011-08-03T09:06:48Z</time>
      </trkpt>
      <trkpt lat="44.55112" lon="3.82521">
        <ele>1172.95</ele>
        <time>2011-08-03T09:06:49Z</time>
      </trkpt>
      <trkpt lat="44.55113" lon="3.8252">
        <ele>1172.95</ele>
        <time>2011-08-03T09:06:50Z</time>
      </trkpt>
      <trkpt lat="44.5512" lon="3.82493">
        <ele>1173.43</ele>
        <time>2011-08-03T09:07:08Z</time>
      </trkpt>
      <trkpt lat="44.55119" lon="3.82492">
        <ele>1173.43</ele>
        <time>2011-08-03T09:07:09Z</time>
      </trkpt>
      <trkpt lat="44.55119" lon="3.8249">
        <ele>1173.43</ele>
        <time>2011-08-03T09:07:10Z</time>
      </trkpt>
      <trkpt lat="44.55119" lon="3.82488">
        <ele>1173.43</ele>
        <time>2011-08-03T09:07:11Z</time>
      </trkpt>
      <trkpt lat="44.55124" lon="3.82463">
        <ele>1176.31</ele>
        <time>2011-08-03T09:07:26Z</time>
      </trkpt>
      <trkpt lat="44.55122" lon="3.82451">
        <ele>1177.27</ele>
        <time>2011-08-03T09:07:33Z</time>
      </trkpt>
      <trkpt lat="44.55122" lon="3.82449">
        <ele>1177.27</ele>
        <time>2011-08-03T09:07:34Z</time>
      </trkpt>
      <trkpt lat="44.55121" lon="3.82448">
        <ele>1177.75</ele>
        <time>2011-08-03T09:07:35Z</time>
      </trkpt>
      <trkpt lat="44.5512" lon="3.82446">
        <ele>1177.75</ele>
        <time>2011-08-03T09:07:36Z</time>
      </trkpt>
      <trkpt lat="44.55119" lon="3.82444">
        <ele>1177.75</ele>
        <time>2011-08-03T09:07:37Z</time>
      </trkpt>
      <trkpt lat="44.55119" lon="3.82442">
        <ele>1177.75</ele>
        <time>2011-08-03T09:07:38Z</time>
      </trkpt>
      <trkpt lat="44.55118" lon="3.8244">
        <ele>1178.23</ele>
        <time>2011-08-03T09:07:39Z</time>
      </trkpt>
      <trkpt lat="44.55107" lon="3.82417">
        <ele>1177.75</ele>
        <time>2011-08-03T09:07:52Z</time>
      </trkpt>
      <trkpt lat="44.55103" lon="3.8238">
        <ele>1179.19</ele>
        <time>2011-08-03T09:08:08Z</time>
      </trkpt>
      <trkpt lat="44.551" lon="3.82334">
        <ele>1180.64</ele>
        <time>2011-08-03T09:08:26Z</time>
      </trkpt>
      <trkpt lat="44.55095" lon="3.8229">
        <ele>1181.12</ele>
        <time>2011-08-03T09:08:40Z</time>
      </trkpt>
      <trkpt lat="44.55089" lon="3.82234">
        <ele>1180.16</ele>
        <time>2011-08-03T09:08:50Z</time>
      </trkpt>
      <trkpt lat="44.55093" lon="3.82111">
        <ele>1171.98</ele>
        <time>2011-08-03T09:09:01Z</time>
      </trkpt>
      <trkpt lat="44.55094" lon="3.81968">
        <ele>1161.89</ele>
        <time>2011-08-03T09:09:09Z</time>
      </trkpt>
      <trkpt lat="44.5509" lon="3.81951">
        <ele>1160.45</ele>
        <time>2011-08-03T09:09:10Z</time>
      </trkpt>
      <trkpt lat="44.55084" lon="3.81935">
        <ele>1159.01</ele>
        <time>2011-08-03T09:09:11Z</time>
      </trkpt>
      <trkpt lat="44.55078" lon="3.81921">
        <ele>1157.56</ele>
        <time>2011-08-03T09:09:12Z</time>
      </trkpt>
      <trkpt lat="44.5507" lon="3.81907">
        <ele>1156.12</ele>
        <time>2011-08-03T09:09:13Z</time>
      </trkpt>
      <trkpt lat="44.55061" lon="3.81895">
        <ele>1155.16</ele>
        <time>2011-08-03T09:09:14Z</time>
      </trkpt>
      <trkpt lat="44.54952" lon="3.8175">
        <ele>1140.74</ele>
        <time>2011-08-03T09:09:26Z</time>
      </trkpt>
      <trkpt lat="44.54948" lon="3.81739">
        <ele>1139.78</ele>
        <time>2011-08-03T09:09:27Z</time>
      </trkpt>
      <trkpt lat="44.54945" lon="3.81725">
        <ele>1138.82</ele>
        <time>2011-08-03T09:09:28Z</time>
      </trkpt>
      <trkpt lat="44.54943" lon="3.81711">
        <ele>1137.86</ele>
        <time>2011-08-03T09:09:29Z</time>
      </trkpt>
      <trkpt lat="44.54942" lon="3.81697">
        <ele>1137.38</ele>
        <time>2011-08-03T09:09:30Z</time>
      </trkpt>
      <trkpt lat="44.54938" lon="3.81642">
        <ele>1134.49</ele>
        <time>2011-08-03T09:09:34Z</time>
      </trkpt>
      <trkpt lat="44.54939" lon="3.81631">
        <ele>1133.53</ele>
        <time>2011-08-03T09:09:35Z</time>
      </trkpt>
      <trkpt lat="44.54942" lon="3.81623">
        <ele>1133.05</ele>
        <time>2011-08-03T09:09:36Z</time>
      </trkpt>
      <trkpt lat="44.54944" lon="3.81616">
        <ele>1132.09</ele>
        <time>2011-08-03T09:09:37Z</time>
      </trkpt>
      <trkpt lat="44.54945" lon="3.8161">
        <ele>1131.13</ele>
        <time>2011-08-03T09:09:38Z</time>
      </trkpt>
      <trkpt lat="44.54943" lon="3.81606">
        <ele>1129.69</ele>
        <time>2011-08-03T09:09:39Z</time>
      </trkpt>
      <trkpt lat="44.5494" lon="3.81604">
        <ele>1128.73</ele>
        <time>2011-08-03T09:09:40Z</time>
      </trkpt>
      <trkpt lat="44.54936" lon="3.81603">
        <ele>1127.76</ele>
        <time>2011-08-03T09:09:41Z</time>
      </trkpt>
      <trkpt lat="44.54932" lon="3.81604">
        <ele>1127.28</ele>
        <time>2011-08-03T09:09:42Z</time>
      </trkpt>
      <trkpt lat="44.54928" lon="3.81604">
        <ele>1126.32</ele>
        <time>2011-08-03T09:09:43Z</time>
      </trkpt>
      <trkpt lat="44.54924" lon="3.81602">
        <ele>1125.36</ele>
        <time>2011-08-03T09:09:44Z</time>
      </trkpt>
      <trkpt lat="44.54921" lon="3.81597">
        <ele>1124.4</ele>
        <time>2011-08-03T09:09:45Z</time>
      </trkpt>
      <trkpt lat="44.54918" lon="3.8159">
        <ele>1123.44</ele>
        <time>2011-08-03T09:09:46Z</time>
      </trkpt>
      <trkpt lat="44.54918" lon="3.81584">
        <ele>1122.48</ele>
        <time>2011-08-03T09:09:47Z</time>
      </trkpt>
      <trkpt lat="44.54919" lon="3.81578">
        <ele>1121.03</ele>
        <time>2011-08-03T09:09:48Z</time>
      </trkpt>
      <trkpt lat="44.54921" lon="3.81573">
        <ele>1120.07</ele>
        <time>2011-08-03T09:09:49Z</time>
      </trkpt>
      <trkpt lat="44.54924" lon="3.81569">
        <ele>1119.11</ele>
        <time>2011-08-03T09:09:50Z</time>
      </trkpt>
      <trkpt lat="44.54928" lon="3.81567">
        <ele>1118.63</ele>
        <time>2011-08-03T09:09:51Z</time>
      </trkpt>
      <trkpt lat="44.54931" lon="3.81565">
        <ele>1117.67</ele>
        <time>2011-08-03T09:09:52Z</time>
      </trkpt>
      <trkpt lat="44.54962" lon="3.81564">
        <ele>1113.34</ele>
        <time>2011-08-03T09:10:02Z</time>
      </trkpt>
      <trkpt lat="44.54968" lon="3.81563">
        <ele>1112.86</ele>
        <time>2011-08-03T09:10:03Z</time>
      </trkpt>
      <trkpt lat="44.54978" lon="3.8156">
        <ele>1111.42</ele>
        <time>2011-08-03T09:10:05Z</time>
      </trkpt>
      <trkpt lat="44.54981" lon="3.81557">
        <ele>1110.46</ele>
        <time>2011-08-03T09:10:06Z</time>
      </trkpt>
      <trkpt lat="44.54981" lon="3.81554">
        <ele>1109.5</ele>
        <time>2011-08-03T09:10:07Z</time>
      </trkpt>
      <trkpt lat="44.54981" lon="3.81553">
        <ele>1108.54</ele>
        <time>2011-08-03T09:10:08Z</time>
      </trkpt>
      <trkpt lat="44.54976" lon="3.81552">
        <ele>1106.61</ele>
        <time>2011-08-03T09:10:10Z</time>
      </trkpt>
      <trkpt lat="44.5494" lon="3.81539">
        <ele>1098.44</ele>
        <time>2011-08-03T09:10:21Z</time>
      </trkpt>
      <trkpt lat="44.54928" lon="3.81541">
        <ele>1096.04</ele>
        <time>2011-08-03T09:10:24Z</time>
      </trkpt>
      <trkpt lat="44.54919" lon="3.81537">
        <ele>1096.04</ele>
        <time>2011-08-03T09:10:25Z</time>
      </trkpt>
      <trkpt lat="44.54914" lon="3.81533">
        <ele>1095.08</ele>
        <time>2011-08-03T09:10:26Z</time>
      </trkpt>
      <trkpt lat="44.54909" lon="3.81527">
        <ele>1094.12</ele>
        <time>2011-08-03T09:10:27Z</time>
      </trkpt>
      <trkpt lat="44.54905" lon="3.8152">
        <ele>1093.64</ele>
        <time>2011-08-03T09:10:28Z</time>
      </trkpt>
      <trkpt lat="44.54903" lon="3.81513">
        <ele>1093.16</ele>
        <time>2011-08-03T09:10:29Z</time>
      </trkpt>
      <trkpt lat="44.54899" lon="3.81506">
        <ele>1092.68</ele>
        <time>2011-08-03T09:10:30Z</time>
      </trkpt>
      <trkpt lat="44.54894" lon="3.81501">
        <ele>1091.71</ele>
        <time>2011-08-03T09:10:31Z</time>
      </trkpt>
      <trkpt lat="44.54887" lon="3.81495">
        <ele>1090.75</ele>
        <time>2011-08-03T09:10:32Z</time>
      </trkpt>
      <trkpt lat="44.54849" lon="3.81457">
        <ele>1086.43</ele>
        <time>2011-08-03T09:10:40Z</time>
      </trkpt>
      <trkpt lat="44.54844" lon="3.81452">
        <ele>1084.99</ele>
        <time>2011-08-03T09:10:45Z</time>
      </trkpt>
      <trkpt lat="44.54843" lon="3.81453">
        <ele>1084.5</ele>
        <time>2011-08-03T09:10:46Z</time>
      </trkpt>
      <trkpt lat="44.54841" lon="3.81454">
        <ele>1084.5</ele>
        <time>2011-08-03T09:10:47Z</time>
      </trkpt>
      <trkpt lat="44.54839" lon="3.81455">
        <ele>1084.02</ele>
        <time>2011-08-03T09:10:48Z</time>
      </trkpt>
      <trkpt lat="44.54836" lon="3.81456">
        <ele>1084.02</ele>
        <time>2011-08-03T09:10:49Z</time>
      </trkpt>
      <trkpt lat="44.54803" lon="3.81492">
        <ele>1085.95</ele>
        <time>2011-08-03T09:11:02Z</time>
      </trkpt>
      <trkpt lat="44.5479" lon="3.81521">
        <ele>1089.31</ele>
        <time>2011-08-03T09:11:12Z</time>
      </trkpt>
      <trkpt lat="44.54788" lon="3.81521">
        <ele>1089.31</ele>
        <time>2011-08-03T09:11:13Z</time>
      </trkpt>
      <trkpt lat="44.54786" lon="3.81521">
        <ele>1089.79</ele>
        <time>2011-08-03T09:11:14Z</time>
      </trkpt>
      <trkpt lat="44.54785" lon="3.81522">
        <ele>1089.79</ele>
        <time>2011-08-03T09:11:15Z</time>
      </trkpt>
      <trkpt lat="44.54784" lon="3.81523">
        <ele>1089.79</ele>
        <time>2011-08-03T09:11:16Z</time>
      </trkpt>
      <trkpt lat="44.54783" lon="3.81523">
        <ele>1089.79</ele>
        <time>2011-08-03T09:11:17Z</time>
      </trkpt>
      <trkpt lat="44.54774" lon="3.8153">
        <ele>1090.75</ele>
        <time>2011-08-03T09:11:24Z</time>
      </trkpt>
      <trkpt lat="44.54773" lon="3.81531">
        <ele>1090.75</ele>
        <time>2011-08-03T09:11:25Z</time>
      </trkpt>
      <trkpt lat="44.54752" lon="3.81541">
        <ele>1094.12</ele>
        <time>2011-08-03T09:11:39Z</time>
      </trkpt>
      <trkpt lat="44.54741" lon="3.81542">
        <ele>1097</ele>
        <time>2011-08-03T09:11:47Z</time>
      </trkpt>
      <trkpt lat="44.5474" lon="3.81541">
        <ele>1097.48</ele>
        <time>2011-08-03T09:11:48Z</time>
      </trkpt>
      <trkpt lat="44.54738" lon="3.81541">
        <ele>1097.48</ele>
        <time>2011-08-03T09:11:49Z</time>
      </trkpt>
      <trkpt lat="44.54737" lon="3.8154">
        <ele>1097.48</ele>
        <time>2011-08-03T09:11:50Z</time>
      </trkpt>
      <trkpt lat="44.54735" lon="3.81539">
        <ele>1097.48</ele>
        <time>2011-08-03T09:11:51Z</time>
      </trkpt>
      <trkpt lat="44.54718" lon="3.8153">
        <ele>1097</ele>
        <time>2011-08-03T09:12:07Z</time>
      </trkpt>
      <trkpt lat="44.54717" lon="3.81529">
        <ele>1097.48</ele>
        <time>2011-08-03T09:12:08Z</time>
      </trkpt>
      <trkpt lat="44.54713" lon="3.81528">
        <ele>1097.96</ele>
        <time>2011-08-03T09:12:11Z</time>
      </trkpt>
      <trkpt lat="44.54712" lon="3.81528">
        <ele>1097.96</ele>
        <time>2011-08-03T09:12:12Z</time>
      </trkpt>
      <trkpt lat="44.54711" lon="3.81528">
        <ele>1098.44</ele>
        <time>2011-08-03T09:12:13Z</time>
      </trkpt>
      <trkpt lat="44.5471" lon="3.81527">
        <ele>1098.44</ele>
        <time>2011-08-03T09:12:14Z</time>
      </trkpt>
      <trkpt lat="44.54709" lon="3.81526">
        <ele>1098.92</ele>
        <time>2011-08-03T09:12:15Z</time>
      </trkpt>
      <trkpt lat="44.54707" lon="3.81525">
        <ele>1099.4</ele>
        <time>2011-08-03T09:12:16Z</time>
      </trkpt>
      <trkpt lat="44.54706" lon="3.81525">
        <ele>1099.4</ele>
        <time>2011-08-03T09:12:17Z</time>
      </trkpt>
      <trkpt lat="44.54704" lon="3.81524">
        <ele>1099.89</ele>
        <time>2011-08-03T09:12:18Z</time>
      </trkpt>
      <trkpt lat="44.54703" lon="3.81524">
        <ele>1099.89</ele>
        <time>2011-08-03T09:12:19Z</time>
      </trkpt>
      <trkpt lat="44.54702" lon="3.81524">
        <ele>1099.89</ele>
        <time>2011-08-03T09:12:20Z</time>
      </trkpt>
      <trkpt lat="44.54701" lon="3.81523">
        <ele>1100.37</ele>
        <time>2011-08-03T09:12:21Z</time>
      </trkpt>
      <trkpt lat="44.547" lon="3.81523">
        <ele>1100.37</ele>
        <time>2011-08-03T09:12:22Z</time>
      </trkpt>
      <trkpt lat="44.54699" lon="3.81523">
        <ele>1100.37</ele>
        <time>2011-08-03T09:12:23Z</time>
      </trkpt>
      <trkpt lat="44.54697" lon="3.81523">
        <ele>1100.37</ele>
        <time>2011-08-03T09:12:24Z</time>
      </trkpt>
      <trkpt lat="44.54696" lon="3.81523">
        <ele>1100.85</ele>
        <time>2011-08-03T09:12:25Z</time>
      </trkpt>
      <trkpt lat="44.54695" lon="3.81523">
        <ele>1101.33</ele>
        <time>2011-08-03T09:12:26Z</time>
      </trkpt>
      <trkpt lat="44.54694" lon="3.81522">
        <ele>1101.33</ele>
        <time>2011-08-03T09:12:27Z</time>
      </trkpt>
      <trkpt lat="44.54693" lon="3.81522">
        <ele>1101.81</ele>
        <time>2011-08-03T09:12:28Z</time>
      </trkpt>
      <trkpt lat="44.54691" lon="3.81522">
        <ele>1101.81</ele>
        <time>2011-08-03T09:12:29Z</time>
      </trkpt>
      <trkpt lat="44.5469" lon="3.81522">
        <ele>1101.81</ele>
        <time>2011-08-03T09:12:30Z</time>
      </trkpt>
      <trkpt lat="44.54689" lon="3.81522">
        <ele>1102.29</ele>
        <time>2011-08-03T09:12:31Z</time>
      </trkpt>
      <trkpt lat="44.54687" lon="3.81522">
        <ele>1102.29</ele>
        <time>2011-08-03T09:12:32Z</time>
      </trkpt>
      <trkpt lat="44.54686" lon="3.81523">
        <ele>1102.29</ele>
        <time>2011-08-03T09:12:33Z</time>
      </trkpt>
      <trkpt lat="44.54684" lon="3.81523">
        <ele>1102.29</ele>
        <time>2011-08-03T09:12:34Z</time>
      </trkpt>
      <trkpt lat="44.54683" lon="3.81523">
        <ele>1102.77</ele>
        <time>2011-08-03T09:12:35Z</time>
      </trkpt>
      <trkpt lat="44.54663" lon="3.81523">
        <ele>1106.13</ele>
        <time>2011-08-03T09:12:49Z</time>
      </trkpt>
      <trkpt lat="44.54647" lon="3.81526">
        <ele>1109.98</ele>
        <time>2011-08-03T09:13:02Z</time>
      </trkpt>
      <trkpt lat="44.54628" lon="3.81536">
        <ele>1113.34</ele>
        <time>2011-08-03T09:13:17Z</time>
      </trkpt>
      <trkpt lat="44.54609" lon="3.81545">
        <ele>1113.34</ele>
        <time>2011-08-03T09:13:32Z</time>
      </trkpt>
      <trkpt lat="44.54608" lon="3.8154">
        <ele>1112.38</ele>
        <time>2011-08-03T09:13:38Z</time>
      </trkpt>
      <trkpt lat="44.54609" lon="3.81539">
        <ele>1112.38</ele>
        <time>2011-08-03T09:13:39Z</time>
      </trkpt>
      <trkpt lat="44.5461" lon="3.81537">
        <ele>1111.9</ele>
        <time>2011-08-03T09:13:40Z</time>
      </trkpt>
      <trkpt lat="44.54611" lon="3.81536">
        <ele>1111.9</ele>
        <time>2011-08-03T09:13:41Z</time>
      </trkpt>
      <trkpt lat="44.54612" lon="3.81534">
        <ele>1111.9</ele>
        <time>2011-08-03T09:13:42Z</time>
      </trkpt>
      <trkpt lat="44.54613" lon="3.81534">
        <ele>1111.9</ele>
        <time>2011-08-03T09:13:43Z</time>
      </trkpt>
      <trkpt lat="44.54614" lon="3.81533">
        <ele>1111.9</ele>
        <time>2011-08-03T09:13:44Z</time>
      </trkpt>
      <trkpt lat="44.54615" lon="3.81532">
        <ele>1111.9</ele>
        <time>2011-08-03T09:13:45Z</time>
      </trkpt>
      <trkpt lat="44.54615" lon="3.81532">
        <ele>1111.9</ele>
        <time>2011-08-03T09:13:46Z</time>
      </trkpt>
      <trkpt lat="44.54627" lon="3.81518">
        <ele>1111.42</ele>
        <time>2011-08-03T09:13:59Z</time>
      </trkpt>
      <trkpt lat="44.54635" lon="3.8151">
        <ele>1111.9</ele>
        <time>2011-08-03T09:14:13Z</time>
      </trkpt>
      <trkpt lat="44.54634" lon="3.81511">
        <ele>1111.9</ele>
        <time>2011-08-03T09:14:21Z</time>
      </trkpt>
      <trkpt lat="44.54633" lon="3.81513">
        <ele>1111.9</ele>
        <time>2011-08-03T09:14:22Z</time>
      </trkpt>
      <trkpt lat="44.54625" lon="3.81516">
        <ele>1110.46</ele>
        <time>2011-08-03T09:14:26Z</time>
      </trkpt>
      <trkpt lat="44.54623" lon="3.81516">
        <ele>1110.46</ele>
        <time>2011-08-03T09:14:27Z</time>
      </trkpt>
      <trkpt lat="44.54621" lon="3.81515">
        <ele>1110.46</ele>
        <time>2011-08-03T09:14:28Z</time>
      </trkpt>
      <trkpt lat="44.54619" lon="3.81515">
        <ele>1110.46</ele>
        <time>2011-08-03T09:14:29Z</time>
      </trkpt>
      <trkpt lat="44.54618" lon="3.81514">
        <ele>1110.46</ele>
        <time>2011-08-03T09:14:30Z</time>
      </trkpt>
      <trkpt lat="44.54617" lon="3.81514">
        <ele>1109.98</ele>
        <time>2011-08-03T09:14:31Z</time>
      </trkpt>
      <trkpt lat="44.54601" lon="3.81505">
        <ele>1112.38</ele>
        <time>2011-08-03T09:14:46Z</time>
      </trkpt>
      <trkpt lat="44.54585" lon="3.81485">
        <ele>1115.27</ele>
        <time>2011-08-03T09:14:59Z</time>
      </trkpt>
      <trkpt lat="44.54579" lon="3.8148">
        <ele>1115.75</ele>
        <time>2011-08-03T09:15:04Z</time>
      </trkpt>
      <trkpt lat="44.54578" lon="3.8148">
        <ele>1115.75</ele>
        <time>2011-08-03T09:15:05Z</time>
      </trkpt>
      <trkpt lat="44.54577" lon="3.8148">
        <ele>1115.27</ele>
        <time>2011-08-03T09:15:06Z</time>
      </trkpt>
      <trkpt lat="44.54575" lon="3.81479">
        <ele>1115.75</ele>
        <time>2011-08-03T09:15:07Z</time>
      </trkpt>
      <trkpt lat="44.54574" lon="3.81477">
        <ele>1115.75</ele>
        <time>2011-08-03T09:15:08Z</time>
      </trkpt>
      <trkpt lat="44.54573" lon="3.81476">
        <ele>1115.75</ele>
        <time>2011-08-03T09:15:09Z</time>
      </trkpt>
      <trkpt lat="44.54572" lon="3.81475">
        <ele>1115.75</ele>
        <time>2011-08-03T09:15:10Z</time>
      </trkpt>
      <trkpt lat="44.54571" lon="3.81473">
        <ele>1116.23</ele>
        <time>2011-08-03T09:15:11Z</time>
      </trkpt>
      <trkpt lat="44.5457" lon="3.81472">
        <ele>1116.23</ele>
        <time>2011-08-03T09:15:12Z</time>
      </trkpt>
      <trkpt lat="44.54569" lon="3.81471">
        <ele>1116.23</ele>
        <time>2011-08-03T09:15:13Z</time>
      </trkpt>
      <trkpt lat="44.54568" lon="3.8147">
        <ele>1116.71</ele>
        <time>2011-08-03T09:15:14Z</time>
      </trkpt>
      <trkpt lat="44.54567" lon="3.81469">
        <ele>1116.71</ele>
        <time>2011-08-03T09:15:15Z</time>
      </trkpt>
      <trkpt lat="44.54565" lon="3.81467">
        <ele>1117.19</ele>
        <time>2011-08-03T09:15:17Z</time>
      </trkpt>
      <trkpt lat="44.54564" lon="3.81465">
        <ele>1117.67</ele>
        <time>2011-08-03T09:15:18Z</time>
      </trkpt>
      <trkpt lat="44.54564" lon="3.81464">
        <ele>1117.67</ele>
        <time>2011-08-03T09:15:19Z</time>
      </trkpt>
      <trkpt lat="44.54563" lon="3.81463">
        <ele>1117.67</ele>
        <time>2011-08-03T09:15:20Z</time>
      </trkpt>
      <trkpt lat="44.54562" lon="3.81462">
        <ele>1117.67</ele>
        <time>2011-08-03T09:15:21Z</time>
      </trkpt>
      <trkpt lat="44.54561" lon="3.81461">
        <ele>1118.15</ele>
        <time>2011-08-03T09:15:22Z</time>
      </trkpt>
      <trkpt lat="44.54543" lon="3.8145">
        <ele>1121.52</ele>
        <time>2011-08-03T09:15:38Z</time>
      </trkpt>
      <trkpt lat="44.54528" lon="3.81442">
        <ele>1123.92</ele>
        <time>2011-08-03T09:15:51Z</time>
      </trkpt>
      <trkpt lat="44.54516" lon="3.81435">
        <ele>1123.92</ele>
        <time>2011-08-03T09:16:01Z</time>
      </trkpt>
      <trkpt lat="44.54515" lon="3.81434">
        <ele>1123.92</ele>
        <time>2011-08-03T09:16:02Z</time>
      </trkpt>
      <trkpt lat="44.54514" lon="3.81433">
        <ele>1123.92</ele>
        <time>2011-08-03T09:16:03Z</time>
      </trkpt>
      <trkpt lat="44.54512" lon="3.81432">
        <ele>1124.4</ele>
        <time>2011-08-03T09:16:04Z</time>
      </trkpt>
      <trkpt lat="44.54511" lon="3.81431">
        <ele>1124.4</ele>
        <time>2011-08-03T09:16:05Z</time>
      </trkpt>
      <trkpt lat="44.54511" lon="3.8143">
        <ele>1124.4</ele>
        <time>2011-08-03T09:16:06Z</time>
      </trkpt>
      <trkpt lat="44.5451" lon="3.81429">
        <ele>1124.88</ele>
        <time>2011-08-03T09:16:07Z</time>
      </trkpt>
      <trkpt lat="44.54509" lon="3.81427">
        <ele>1124.88</ele>
        <time>2011-08-03T09:16:08Z</time>
      </trkpt>
      <trkpt lat="44.54508" lon="3.81426">
        <ele>1124.88</ele>
        <time>2011-08-03T09:16:09Z</time>
      </trkpt>
      <trkpt lat="44.54504" lon="3.81414">
        <ele>1124.88</ele>
        <time>2011-08-03T09:16:22Z</time>
      </trkpt>
      <trkpt lat="44.54499" lon="3.81402">
        <ele>1125.36</ele>
        <time>2011-08-03T09:16:32Z</time>
      </trkpt>
      <trkpt lat="44.54498" lon="3.81401">
        <ele>1125.36</ele>
        <time>2011-08-03T09:16:33Z</time>
      </trkpt>
      <trkpt lat="44.54484" lon="3.81389">
        <ele>1128.24</ele>
        <time>2011-08-03T09:16:50Z</time>
      </trkpt>
      <trkpt lat="44.54482" lon="3.81385">
        <ele>1129.69</ele>
        <time>2011-08-03T09:17:02Z</time>
      </trkpt>
      <trkpt lat="44.54482" lon="3.81382">
        <ele>1129.69</ele>
        <time>2011-08-03T09:17:17Z</time>
      </trkpt>
      <trkpt lat="44.54482" lon="3.81377">
        <ele>1130.65</ele>
        <time>2011-08-03T09:17:21Z</time>
      </trkpt>
      <trkpt lat="44.54483" lon="3.81372">
        <ele>1131.13</ele>
        <time>2011-08-03T09:17:35Z</time>
      </trkpt>
      <trkpt lat="44.54483" lon="3.81372">
        <ele>1131.13</ele>
        <time>2011-08-03T09:17:53Z</time>
      </trkpt>
      <trkpt lat="44.54483" lon="3.81372">
        <ele>1131.13</ele>
        <time>2011-08-03T09:18:16Z</time>
      </trkpt>
      <trkpt lat="44.54487" lon="3.81366">
        <ele>1131.13</ele>
        <time>2011-08-03T09:18:40Z</time>
      </trkpt>
      <trkpt lat="44.54488" lon="3.81362">
        <ele>1131.13</ele>
        <time>2011-08-03T09:18:55Z</time>
      </trkpt>
      <trkpt lat="44.54488" lon="3.81361">
        <ele>1131.13</ele>
        <time>2011-08-03T09:18:56Z</time>
      </trkpt>
      <trkpt lat="44.54488" lon="3.81358">
        <ele>1131.13</ele>
        <time>2011-08-03T09:18:57Z</time>
      </trkpt>
      <trkpt lat="44.54489" lon="3.81357">
        <ele>1131.61</ele>
        <time>2011-08-03T09:18:58Z</time>
      </trkpt>
      <trkpt lat="44.5449" lon="3.81355">
        <ele>1132.09</ele>
        <time>2011-08-03T09:18:59Z</time>
      </trkpt>
      <trkpt lat="44.54496" lon="3.81333">
        <ele>1131.61</ele>
        <time>2011-08-03T09:19:12Z</time>
      </trkpt>
      <trkpt lat="44.54519" lon="3.81279">
        <ele>1129.21</ele>
        <time>2011-08-03T09:19:23Z</time>
      </trkpt>
      <trkpt lat="44.54513" lon="3.81247">
        <ele>1128.73</ele>
        <time>2011-08-03T09:19:27Z</time>
      </trkpt>
      <trkpt lat="44.54509" lon="3.81238">
        <ele>1128.73</ele>
        <time>2011-08-03T09:19:28Z</time>
      </trkpt>
      <trkpt lat="44.54504" lon="3.81227">
        <ele>1128.24</ele>
        <time>2011-08-03T09:19:29Z</time>
      </trkpt>
      <trkpt lat="44.54498" lon="3.81216">
        <ele>1128.24</ele>
        <time>2011-08-03T09:19:30Z</time>
      </trkpt>
      <trkpt lat="44.54491" lon="3.81207">
        <ele>1127.76</ele>
        <time>2011-08-03T09:19:31Z</time>
      </trkpt>
      <trkpt lat="44.54485" lon="3.81198">
        <ele>1127.28</ele>
        <time>2011-08-03T09:19:32Z</time>
      </trkpt>
      <trkpt lat="44.5448" lon="3.81189">
        <ele>1127.28</ele>
        <time>2011-08-03T09:19:33Z</time>
      </trkpt>
      <trkpt lat="44.54475" lon="3.81182">
        <ele>1126.8</ele>
        <time>2011-08-03T09:19:34Z</time>
      </trkpt>
      <trkpt lat="44.5447" lon="3.81175">
        <ele>1126.8</ele>
        <time>2011-08-03T09:19:35Z</time>
      </trkpt>
      <trkpt lat="44.54465" lon="3.8117">
        <ele>1126.32</ele>
        <time>2011-08-03T09:19:36Z</time>
      </trkpt>
      <trkpt lat="44.54457" lon="3.81164">
        <ele>1125.84</ele>
        <time>2011-08-03T09:19:37Z</time>
      </trkpt>
      <trkpt lat="44.54449" lon="3.81159">
        <ele>1125.36</ele>
        <time>2011-08-03T09:19:38Z</time>
      </trkpt>
      <trkpt lat="44.5444" lon="3.81155">
        <ele>1125.36</ele>
        <time>2011-08-03T09:19:39Z</time>
      </trkpt>
      <trkpt lat="44.54432" lon="3.81152">
        <ele>1125.36</ele>
        <time>2011-08-03T09:19:40Z</time>
      </trkpt>
      <trkpt lat="44.54417" lon="3.81152">
        <ele>1123.44</ele>
        <time>2011-08-03T09:19:41Z</time>
      </trkpt>
      <trkpt lat="44.54398" lon="3.81146">
        <ele>1122</ele>
        <time>2011-08-03T09:19:43Z</time>
      </trkpt>
      <trkpt lat="44.54389" lon="3.81141">
        <ele>1121.03</ele>
        <time>2011-08-03T09:19:44Z</time>
      </trkpt>
      <trkpt lat="44.54382" lon="3.81135">
        <ele>1120.07</ele>
        <time>2011-08-03T09:19:45Z</time>
      </trkpt>
      <trkpt lat="44.54378" lon="3.81128">
        <ele>1119.59</ele>
        <time>2011-08-03T09:19:46Z</time>
      </trkpt>
      <trkpt lat="44.54377" lon="3.8112">
        <ele>1118.63</ele>
        <time>2011-08-03T09:19:47Z</time>
      </trkpt>
      <trkpt lat="44.54378" lon="3.81113">
        <ele>1118.15</ele>
        <time>2011-08-03T09:19:48Z</time>
      </trkpt>
      <trkpt lat="44.54379" lon="3.81107">
        <ele>1117.67</ele>
        <time>2011-08-03T09:19:49Z</time>
      </trkpt>
      <trkpt lat="44.5438" lon="3.81102">
        <ele>1117.67</ele>
        <time>2011-08-03T09:19:50Z</time>
      </trkpt>
      <trkpt lat="44.54383" lon="3.81099">
        <ele>1117.67</ele>
        <time>2011-08-03T09:19:51Z</time>
      </trkpt>
      <trkpt lat="44.54385" lon="3.81095">
        <ele>1117.19</ele>
        <time>2011-08-03T09:19:52Z</time>
      </trkpt>
      <trkpt lat="44.54386" lon="3.81092">
        <ele>1117.19</ele>
        <time>2011-08-03T09:19:53Z</time>
      </trkpt>
      <trkpt lat="44.54388" lon="3.8109">
        <ele>1117.19</ele>
        <time>2011-08-03T09:19:54Z</time>
      </trkpt>
      <trkpt lat="44.54389" lon="3.81088">
        <ele>1116.71</ele>
        <time>2011-08-03T09:19:55Z</time>
      </trkpt>
      <trkpt lat="44.5439" lon="3.81085">
        <ele>1116.71</ele>
        <time>2011-08-03T09:19:56Z</time>
      </trkpt>
      <trkpt lat="44.54392" lon="3.81084">
        <ele>1116.23</ele>
        <time>2011-08-03T09:19:57Z</time>
      </trkpt>
      <trkpt lat="44.54393" lon="3.81082">
        <ele>1115.75</ele>
        <time>2011-08-03T09:19:58Z</time>
      </trkpt>
      <trkpt lat="44.54394" lon="3.81081">
        <ele>1115.75</ele>
        <time>2011-08-03T09:19:59Z</time>
      </trkpt>
      <trkpt lat="44.54417" lon="3.81061">
        <ele>1116.71</ele>
        <time>2011-08-03T09:20:16Z</time>
      </trkpt>
      <trkpt lat="44.54436" lon="3.81047">
        <ele>1116.23</ele>
        <time>2011-08-03T09:20:30Z</time>
      </trkpt>
      <trkpt lat="44.54457" lon="3.81028">
        <ele>1118.15</ele>
        <time>2011-08-03T09:20:50Z</time>
      </trkpt>
      <trkpt lat="44.54473" lon="3.81016">
        <ele>1120.07</ele>
        <time>2011-08-03T09:21:04Z</time>
      </trkpt>
      <trkpt lat="44.54489" lon="3.80997">
        <ele>1123.44</ele>
        <time>2011-08-03T09:21:20Z</time>
      </trkpt>
      <trkpt lat="44.54505" lon="3.80982">
        <ele>1126.32</ele>
        <time>2011-08-03T09:21:36Z</time>
      </trkpt>
      <trkpt lat="44.54511" lon="3.8096">
        <ele>1128.73</ele>
        <time>2011-08-03T09:21:49Z</time>
      </trkpt>
      <trkpt lat="44.54512" lon="3.80959">
        <ele>1128.73</ele>
        <time>2011-08-03T09:21:50Z</time>
      </trkpt>
      <trkpt lat="44.54513" lon="3.80958">
        <ele>1129.21</ele>
        <time>2011-08-03T09:21:51Z</time>
      </trkpt>
      <trkpt lat="44.54513" lon="3.80956">
        <ele>1129.21</ele>
        <time>2011-08-03T09:21:52Z</time>
      </trkpt>
      <trkpt lat="44.54514" lon="3.80954">
        <ele>1129.69</ele>
        <time>2011-08-03T09:21:53Z</time>
      </trkpt>
      <trkpt lat="44.54514" lon="3.80953">
        <ele>1129.69</ele>
        <time>2011-08-03T09:21:54Z</time>
      </trkpt>
      <trkpt lat="44.54516" lon="3.8092">
        <ele>1132.57</ele>
        <time>2011-08-03T09:22:12Z</time>
      </trkpt>
      <trkpt lat="44.54515" lon="3.80906">
        <ele>1134.01</ele>
        <time>2011-08-03T09:22:20Z</time>
      </trkpt>
      <trkpt lat="44.54515" lon="3.80904">
        <ele>1134.01</ele>
        <time>2011-08-03T09:22:21Z</time>
      </trkpt>
      <trkpt lat="44.54515" lon="3.80902">
        <ele>1134.49</ele>
        <time>2011-08-03T09:22:22Z</time>
      </trkpt>
      <trkpt lat="44.54515" lon="3.809">
        <ele>1134.49</ele>
        <time>2011-08-03T09:22:23Z</time>
      </trkpt>
      <trkpt lat="44.54515" lon="3.80898">
        <ele>1134.49</ele>
        <time>2011-08-03T09:22:24Z</time>
      </trkpt>
      <trkpt lat="44.54515" lon="3.80896">
        <ele>1134.97</ele>
        <time>2011-08-03T09:22:25Z</time>
      </trkpt>
      <trkpt lat="44.54519" lon="3.80857">
        <ele>1134.01</ele>
        <time>2011-08-03T09:22:41Z</time>
      </trkpt>
      <trkpt lat="44.54524" lon="3.80808">
        <ele>1134.49</ele>
        <time>2011-08-03T09:22:54Z</time>
      </trkpt>
      <trkpt lat="44.54532" lon="3.8074">
        <ele>1135.94</ele>
        <time>2011-08-03T09:23:15Z</time>
      </trkpt>
      <trkpt lat="44.54536" lon="3.8068">
        <ele>1137.38</ele>
        <time>2011-08-03T09:23:33Z</time>
      </trkpt>
      <trkpt lat="44.54538" lon="3.80627">
        <ele>1136.42</ele>
        <time>2011-08-03T09:23:46Z</time>
      </trkpt>
      <trkpt lat="44.54536" lon="3.80585">
        <ele>1133.53</ele>
        <time>2011-08-03T09:23:50Z</time>
      </trkpt>
      <trkpt lat="44.54535" lon="3.80574">
        <ele>1133.05</ele>
        <time>2011-08-03T09:23:51Z</time>
      </trkpt>
      <trkpt lat="44.54533" lon="3.80566">
        <ele>1132.57</ele>
        <time>2011-08-03T09:23:52Z</time>
      </trkpt>
      <trkpt lat="44.5453" lon="3.8056">
        <ele>1132.57</ele>
        <time>2011-08-03T09:23:53Z</time>
      </trkpt>
      <trkpt lat="44.54529" lon="3.80556">
        <ele>1132.09</ele>
        <time>2011-08-03T09:23:54Z</time>
      </trkpt>
      <trkpt lat="44.54522" lon="3.80533">
        <ele>1131.61</ele>
        <time>2011-08-03T09:24:05Z</time>
      </trkpt>
      <trkpt lat="44.54511" lon="3.80496">
        <ele>1132.57</ele>
        <time>2011-08-03T09:24:23Z</time>
      </trkpt>
      <trkpt lat="44.54496" lon="3.80471">
        <ele>1135.45</ele>
        <time>2011-08-03T09:24:38Z</time>
      </trkpt>
      <trkpt lat="44.54472" lon="3.80431">
        <ele>1134.01</ele>
        <time>2011-08-03T09:24:51Z</time>
      </trkpt>
      <trkpt lat="44.54448" lon="3.80401">
        <ele>1134.01</ele>
        <time>2011-08-03T09:25:03Z</time>
      </trkpt>
      <trkpt lat="44.5443" lon="3.80384">
        <ele>1136.9</ele>
        <time>2011-08-03T09:25:17Z</time>
      </trkpt>
      <trkpt lat="44.54409" lon="3.80372">
        <ele>1139.3</ele>
        <time>2011-08-03T09:25:34Z</time>
      </trkpt>
      <trkpt lat="44.54386" lon="3.80361">
        <ele>1142.66</ele>
        <time>2011-08-03T09:25:51Z</time>
      </trkpt>
      <trkpt lat="44.54385" lon="3.80361">
        <ele>1142.66</ele>
        <time>2011-08-03T09:25:52Z</time>
      </trkpt>
      <trkpt lat="44.54384" lon="3.80361">
        <ele>1142.66</ele>
        <time>2011-08-03T09:25:53Z</time>
      </trkpt>
      <trkpt lat="44.54382" lon="3.8036">
        <ele>1142.66</ele>
        <time>2011-08-03T09:25:54Z</time>
      </trkpt>
      <trkpt lat="44.54362" lon="3.80353">
        <ele>1145.07</ele>
        <time>2011-08-03T09:26:10Z</time>
      </trkpt>
      <trkpt lat="44.54338" lon="3.80346">
        <ele>1147.95</ele>
        <time>2011-08-03T09:26:29Z</time>
      </trkpt>
      <trkpt lat="44.54316" lon="3.8034">
        <ele>1150.84</ele>
        <time>2011-08-03T09:26:47Z</time>
      </trkpt>
      <trkpt lat="44.543" lon="3.80334">
        <ele>1152.76</ele>
        <time>2011-08-03T09:27:02Z</time>
      </trkpt>
      <trkpt lat="44.543" lon="3.80334">
        <ele>1152.76</ele>
        <time>2011-08-03T09:27:20Z</time>
      </trkpt>
      <trkpt lat="44.543" lon="3.80333">
        <ele>1152.76</ele>
        <time>2011-08-03T09:27:46Z</time>
      </trkpt>
      <trkpt lat="44.54299" lon="3.80333">
        <ele>1152.76</ele>
        <time>2011-08-03T09:27:59Z</time>
      </trkpt>
      <trkpt lat="44.54299" lon="3.80333">
        <ele>1152.76</ele>
        <time>2011-08-03T09:28:28Z</time>
      </trkpt>
      <trkpt lat="44.54299" lon="3.80333">
        <ele>1152.76</ele>
        <time>2011-08-03T09:28:53Z</time>
      </trkpt>
      <trkpt lat="44.54299" lon="3.80333">
        <ele>1152.76</ele>
        <time>2011-08-03T09:29:21Z</time>
      </trkpt>
      <trkpt lat="44.54299" lon="3.80333">
        <ele>1152.76</ele>
        <time>2011-08-03T09:29:41Z</time>
      </trkpt>
      <trkpt lat="44.54299" lon="3.8033">
        <ele>1152.28</ele>
        <time>2011-08-03T09:30:04Z</time>
      </trkpt>
      <trkpt lat="44.54298" lon="3.80328">
        <ele>1152.76</ele>
        <time>2011-08-03T09:30:05Z</time>
      </trkpt>
      <trkpt lat="44.54296" lon="3.80326">
        <ele>1152.76</ele>
        <time>2011-08-03T09:30:06Z</time>
      </trkpt>
      <trkpt lat="44.54294" lon="3.80325">
        <ele>1152.76</ele>
        <time>2011-08-03T09:30:07Z</time>
      </trkpt>
      <trkpt lat="44.54292" lon="3.80322">
        <ele>1152.76</ele>
        <time>2011-08-03T09:30:08Z</time>
      </trkpt>
      <trkpt lat="44.54276" lon="3.80313">
        <ele>1151.8</ele>
        <time>2011-08-03T09:30:12Z</time>
      </trkpt>
      <trkpt lat="44.54218" lon="3.80289">
        <ele>1148.43</ele>
        <time>2011-08-03T09:30:22Z</time>
      </trkpt>
      <trkpt lat="44.54163" lon="3.80285">
        <ele>1144.59</ele>
        <time>2011-08-03T09:30:32Z</time>
      </trkpt>
      <trkpt lat="44.54119" lon="3.80286">
        <ele>1146.99</ele>
        <time>2011-08-03T09:30:46Z</time>
      </trkpt>
      <trkpt lat="44.541" lon="3.80279">
        <ele>1148.91</ele>
        <time>2011-08-03T09:30:55Z</time>
      </trkpt>
      <trkpt lat="44.54085" lon="3.80247">
        <ele>1152.76</ele>
        <time>2011-08-03T09:31:10Z</time>
      </trkpt>
      <trkpt lat="44.54064" lon="3.80224">
        <ele>1155.16</ele>
        <time>2011-08-03T09:31:25Z</time>
      </trkpt>
      <trkpt lat="44.54044" lon="3.802">
        <ele>1156.12</ele>
        <time>2011-08-03T09:31:40Z</time>
      </trkpt>
      <trkpt lat="44.54042" lon="3.80196">
        <ele>1156.6</ele>
        <time>2011-08-03T09:31:42Z</time>
      </trkpt>
      <trkpt lat="44.5404" lon="3.80159">
        <ele>1158.05</ele>
        <time>2011-08-03T09:31:57Z</time>
      </trkpt>
      <trkpt lat="44.54025" lon="3.80117">
        <ele>1160.45</ele>
        <time>2011-08-03T09:32:16Z</time>
      </trkpt>
      <trkpt lat="44.54014" lon="3.80089">
        <ele>1161.89</ele>
        <time>2011-08-03T09:32:30Z</time>
      </trkpt>
      <trkpt lat="44.54004" lon="3.80056">
        <ele>1164.29</ele>
        <time>2011-08-03T09:32:44Z</time>
      </trkpt>
      <trkpt lat="44.54001" lon="3.80009">
        <ele>1164.29</ele>
        <time>2011-08-03T09:33:02Z</time>
      </trkpt>
      <trkpt lat="44.54002" lon="3.80007">
        <ele>1164.29</ele>
        <time>2011-08-03T09:33:03Z</time>
      </trkpt>
      <trkpt lat="44.54014" lon="3.79991">
        <ele>1164.77</ele>
        <time>2011-08-03T09:33:13Z</time>
      </trkpt>
      <trkpt lat="44.54016" lon="3.79991">
        <ele>1164.77</ele>
        <time>2011-08-03T09:33:14Z</time>
      </trkpt>
      <trkpt lat="44.54018" lon="3.79991">
        <ele>1165.26</ele>
        <time>2011-08-03T09:33:15Z</time>
      </trkpt>
      <trkpt lat="44.54019" lon="3.79991">
        <ele>1165.26</ele>
        <time>2011-08-03T09:33:16Z</time>
      </trkpt>
      <trkpt lat="44.54021" lon="3.79991">
        <ele>1165.26</ele>
        <time>2011-08-03T09:33:17Z</time>
      </trkpt>
      <trkpt lat="44.5405" lon="3.80008">
        <ele>1167.66</ele>
        <time>2011-08-03T09:33:35Z</time>
      </trkpt>
      <trkpt lat="44.54067" lon="3.80032">
        <ele>1170.54</ele>
        <time>2011-08-03T09:33:50Z</time>
      </trkpt>
      <trkpt lat="44.54092" lon="3.80059">
        <ele>1173.43</ele>
        <time>2011-08-03T09:34:07Z</time>
      </trkpt>
      <trkpt lat="44.541" lon="3.80062">
        <ele>1173.43</ele>
        <time>2011-08-03T09:34:12Z</time>
      </trkpt>
      <trkpt lat="44.54102" lon="3.80061">
        <ele>1173.43</ele>
        <time>2011-08-03T09:34:13Z</time>
      </trkpt>
      <trkpt lat="44.54104" lon="3.80061">
        <ele>1173.43</ele>
        <time>2011-08-03T09:34:14Z</time>
      </trkpt>
      <trkpt lat="44.54105" lon="3.80061">
        <ele>1173.43</ele>
        <time>2011-08-03T09:34:15Z</time>
      </trkpt>
      <trkpt lat="44.54106" lon="3.80059">
        <ele>1173.91</ele>
        <time>2011-08-03T09:34:16Z</time>
      </trkpt>
      <trkpt lat="44.54107" lon="3.80058">
        <ele>1173.43</ele>
        <time>2011-08-03T09:34:17Z</time>
      </trkpt>
      <trkpt lat="44.54109" lon="3.80057">
        <ele>1173.43</ele>
        <time>2011-08-03T09:34:18Z</time>
      </trkpt>
      <trkpt lat="44.54127" lon="3.80026">
        <ele>1174.87</ele>
        <time>2011-08-03T09:34:35Z</time>
      </trkpt>
      <trkpt lat="44.54139" lon="3.8">
        <ele>1175.35</ele>
        <time>2011-08-03T09:34:49Z</time>
      </trkpt>
      <trkpt lat="44.54148" lon="3.79958">
        <ele>1177.75</ele>
        <time>2011-08-03T09:35:06Z</time>
      </trkpt>
      <trkpt lat="44.54145" lon="3.79918">
        <ele>1179.67</ele>
        <time>2011-08-03T09:35:22Z</time>
      </trkpt>
      <trkpt lat="44.54135" lon="3.79882">
        <ele>1181.6</ele>
        <time>2011-08-03T09:35:39Z</time>
      </trkpt>
      <trkpt lat="44.54119" lon="3.7985">
        <ele>1183.04</ele>
        <time>2011-08-03T09:35:55Z</time>
      </trkpt>
      <trkpt lat="44.54098" lon="3.79812">
        <ele>1185.44</ele>
        <time>2011-08-03T09:36:16Z</time>
      </trkpt>
      <trkpt lat="44.54083" lon="3.79778">
        <ele>1186.88</ele>
        <time>2011-08-03T09:36:33Z</time>
      </trkpt>
      <trkpt lat="44.54069" lon="3.79733">
        <ele>1189.77</ele>
        <time>2011-08-03T09:36:53Z</time>
      </trkpt>
      <trkpt lat="44.54055" lon="3.797">
        <ele>1191.69</ele>
        <time>2011-08-03T09:37:09Z</time>
      </trkpt>
      <trkpt lat="44.54027" lon="3.797">
        <ele>1193.61</ele>
        <time>2011-08-03T09:37:26Z</time>
      </trkpt>
      <trkpt lat="44.54017" lon="3.79708">
        <ele>1194.58</ele>
        <time>2011-08-03T09:37:33Z</time>
      </trkpt>
      <trkpt lat="44.54016" lon="3.79709">
        <ele>1194.58</ele>
        <time>2011-08-03T09:37:34Z</time>
      </trkpt>
      <trkpt lat="44.54014" lon="3.7971">
        <ele>1195.06</ele>
        <time>2011-08-03T09:37:35Z</time>
      </trkpt>
      <trkpt lat="44.5399" lon="3.79734">
        <ele>1197.94</ele>
        <time>2011-08-03T09:37:54Z</time>
      </trkpt>
      <trkpt lat="44.53964" lon="3.7976">
        <ele>1199.38</ele>
        <time>2011-08-03T09:38:15Z</time>
      </trkpt>
      <trkpt lat="44.53946" lon="3.79775">
        <ele>1201.3</ele>
        <time>2011-08-03T09:38:29Z</time>
      </trkpt>
      <trkpt lat="44.53926" lon="3.79779">
        <ele>1202.75</ele>
        <time>2011-08-03T09:38:44Z</time>
      </trkpt>
      <trkpt lat="44.53925" lon="3.79775">
        <ele>1202.75</ele>
        <time>2011-08-03T09:38:46Z</time>
      </trkpt>
      <trkpt lat="44.53925" lon="3.79773">
        <ele>1202.75</ele>
        <time>2011-08-03T09:38:47Z</time>
      </trkpt>
      <trkpt lat="44.53925" lon="3.79771">
        <ele>1202.75</ele>
        <time>2011-08-03T09:38:48Z</time>
      </trkpt>
      <trkpt lat="44.53925" lon="3.79769">
        <ele>1202.75</ele>
        <time>2011-08-03T09:38:49Z</time>
      </trkpt>
      <trkpt lat="44.53925" lon="3.79768">
        <ele>1202.75</ele>
        <time>2011-08-03T09:38:50Z</time>
      </trkpt>
      <trkpt lat="44.53925" lon="3.79766">
        <ele>1202.75</ele>
        <time>2011-08-03T09:38:51Z</time>
      </trkpt>
      <trkpt lat="44.53925" lon="3.79764">
        <ele>1202.75</ele>
        <time>2011-08-03T09:38:52Z</time>
      </trkpt>
      <trkpt lat="44.53925" lon="3.79742">
        <ele>1203.71</ele>
        <time>2011-08-03T09:39:09Z</time>
      </trkpt>
      <trkpt lat="44.53925" lon="3.7974">
        <ele>1204.19</ele>
        <time>2011-08-03T09:39:10Z</time>
      </trkpt>
      <trkpt lat="44.53924" lon="3.79739">
        <ele>1204.19</ele>
        <time>2011-08-03T09:39:11Z</time>
      </trkpt>
      <trkpt lat="44.53919" lon="3.79717">
        <ele>1205.63</ele>
        <time>2011-08-03T09:39:27Z</time>
      </trkpt>
      <trkpt lat="44.53919" lon="3.79712">
        <ele>1205.63</ele>
        <time>2011-08-03T09:39:41Z</time>
      </trkpt>
      <trkpt lat="44.53919" lon="3.79712">
        <ele>1205.63</ele>
        <time>2011-08-03T09:40:07Z</time>
      </trkpt>
      <trkpt lat="44.53919" lon="3.79712">
        <ele>1205.63</ele>
        <time>2011-08-03T09:40:37Z</time>
      </trkpt>
      <trkpt lat="44.53917" lon="3.79711">
        <ele>1205.63</ele>
        <time>2011-08-03T09:40:56Z</time>
      </trkpt>
      <trkpt lat="44.53917" lon="3.79709">
        <ele>1206.11</ele>
        <time>2011-08-03T09:40:57Z</time>
      </trkpt>
      <trkpt lat="44.53916" lon="3.79707">
        <ele>1206.11</ele>
        <time>2011-08-03T09:40:58Z</time>
      </trkpt>
      <trkpt lat="44.53916" lon="3.79706">
        <ele>1206.11</ele>
        <time>2011-08-03T09:40:59Z</time>
      </trkpt>
      <trkpt lat="44.53915" lon="3.79704">
        <ele>1206.59</ele>
        <time>2011-08-03T09:41:00Z</time>
      </trkpt>
      <trkpt lat="44.53915" lon="3.79703">
        <ele>1206.59</ele>
        <time>2011-08-03T09:41:01Z</time>
      </trkpt>
      <trkpt lat="44.53914" lon="3.79702">
        <ele>1206.59</ele>
        <time>2011-08-03T09:41:02Z</time>
      </trkpt>
      <trkpt lat="44.53908" lon="3.79693">
        <ele>1208.03</ele>
        <time>2011-08-03T09:41:17Z</time>
      </trkpt>
      <trkpt lat="44.53908" lon="3.79693">
        <ele>1208.03</ele>
        <time>2011-08-03T09:41:56Z</time>
      </trkpt>
      <trkpt lat="44.53901" lon="3.79683">
        <ele>1209</ele>
        <time>2011-08-03T09:42:09Z</time>
      </trkpt>
      <trkpt lat="44.53885" lon="3.7966">
        <ele>1211.4</ele>
        <time>2011-08-03T09:42:29Z</time>
      </trkpt>
      <trkpt lat="44.53867" lon="3.79642">
        <ele>1213.8</ele>
        <time>2011-08-03T09:42:49Z</time>
      </trkpt>
      <trkpt lat="44.53847" lon="3.7963">
        <ele>1214.76</ele>
        <time>2011-08-03T09:43:06Z</time>
      </trkpt>
      <trkpt lat="44.53828" lon="3.79612">
        <ele>1216.69</ele>
        <time>2011-08-03T09:43:25Z</time>
      </trkpt>
      <trkpt lat="44.53814" lon="3.79592">
        <ele>1219.09</ele>
        <time>2011-08-03T09:43:42Z</time>
      </trkpt>
      <trkpt lat="44.538" lon="3.79575">
        <ele>1222.93</ele>
        <time>2011-08-03T09:43:57Z</time>
      </trkpt>
      <trkpt lat="44.53795" lon="3.79567">
        <ele>1223.9</ele>
        <time>2011-08-03T09:44:03Z</time>
      </trkpt>
      <trkpt lat="44.53791" lon="3.7956">
        <ele>1225.34</ele>
        <time>2011-08-03T09:44:09Z</time>
      </trkpt>
      <trkpt lat="44.5379" lon="3.7956">
        <ele>1225.82</ele>
        <time>2011-08-03T09:44:10Z</time>
      </trkpt>
      <trkpt lat="44.53776" lon="3.79543">
        <ele>1229.66</ele>
        <time>2011-08-03T09:44:26Z</time>
      </trkpt>
      <trkpt lat="44.5376" lon="3.79531">
        <ele>1232.55</ele>
        <time>2011-08-03T09:44:43Z</time>
      </trkpt>
      <trkpt lat="44.53749" lon="3.79521">
        <ele>1236.87</ele>
        <time>2011-08-03T09:44:55Z</time>
      </trkpt>
      <trkpt lat="44.53748" lon="3.7952">
        <ele>1236.87</ele>
        <time>2011-08-03T09:44:56Z</time>
      </trkpt>
      <trkpt lat="44.53746" lon="3.7952">
        <ele>1236.87</ele>
        <time>2011-08-03T09:44:57Z</time>
      </trkpt>
      <trkpt lat="44.53729" lon="3.79508">
        <ele>1239.28</ele>
        <time>2011-08-03T09:45:13Z</time>
      </trkpt>
      <trkpt lat="44.53714" lon="3.79491">
        <ele>1242.64</ele>
        <time>2011-08-03T09:45:29Z</time>
      </trkpt>
      <trkpt lat="44.53708" lon="3.79483">
        <ele>1243.6</ele>
        <time>2011-08-03T09:45:36Z</time>
      </trkpt>
      <trkpt lat="44.53707" lon="3.79482">
        <ele>1244.08</ele>
        <time>2011-08-03T09:45:37Z</time>
      </trkpt>
      <trkpt lat="44.53706" lon="3.79481">
        <ele>1245.04</ele>
        <time>2011-08-03T09:45:38Z</time>
      </trkpt>
      <trkpt lat="44.53705" lon="3.79481">
        <ele>1245.53</ele>
        <time>2011-08-03T09:45:39Z</time>
      </trkpt>
      <trkpt lat="44.53704" lon="3.7948">
        <ele>1246.01</ele>
        <time>2011-08-03T09:45:40Z</time>
      </trkpt>
      <trkpt lat="44.53703" lon="3.7948">
        <ele>1246.49</ele>
        <time>2011-08-03T09:45:41Z</time>
      </trkpt>
      <trkpt lat="44.53702" lon="3.79481">
        <ele>1246.49</ele>
        <time>2011-08-03T09:45:42Z</time>
      </trkpt>
      <trkpt lat="44.53701" lon="3.79481">
        <ele>1246.97</ele>
        <time>2011-08-03T09:45:43Z</time>
      </trkpt>
      <trkpt lat="44.53695" lon="3.79478">
        <ele>1250.81</ele>
        <time>2011-08-03T09:45:56Z</time>
      </trkpt>
      <trkpt lat="44.53685" lon="3.79473">
        <ele>1254.66</ele>
        <time>2011-08-03T09:46:14Z</time>
      </trkpt>
      <trkpt lat="44.53675" lon="3.79471">
        <ele>1259.46</ele>
        <time>2011-08-03T09:46:30Z</time>
      </trkpt>
      <trkpt lat="44.53671" lon="3.79472">
        <ele>1259.94</ele>
        <time>2011-08-03T09:46:43Z</time>
      </trkpt>
      <trkpt lat="44.5366" lon="3.79469">
        <ele>1260.43</ele>
        <time>2011-08-03T09:46:58Z</time>
      </trkpt>
      <trkpt lat="44.5365" lon="3.79462">
        <ele>1261.39</ele>
        <time>2011-08-03T09:47:13Z</time>
      </trkpt>
      <trkpt lat="44.5364" lon="3.79455">
        <ele>1263.79</ele>
        <time>2011-08-03T09:47:28Z</time>
      </trkpt>
      <trkpt lat="44.53629" lon="3.79443">
        <ele>1265.71</ele>
        <time>2011-08-03T09:47:44Z</time>
      </trkpt>
      <trkpt lat="44.53624" lon="3.79439">
        <ele>1268.12</ele>
        <time>2011-08-03T09:47:56Z</time>
      </trkpt>
      <trkpt lat="44.5362" lon="3.79436">
        <ele>1269.08</ele>
        <time>2011-08-03T09:48:03Z</time>
      </trkpt>
      <trkpt lat="44.53616" lon="3.79434">
        <ele>1270.04</ele>
        <time>2011-08-03T09:48:07Z</time>
      </trkpt>
      <trkpt lat="44.53615" lon="3.79434">
        <ele>1270.04</ele>
        <time>2011-08-03T09:48:08Z</time>
      </trkpt>
      <trkpt lat="44.53608" lon="3.79431">
        <ele>1273.4</ele>
        <time>2011-08-03T09:48:24Z</time>
      </trkpt>
      <trkpt lat="44.53604" lon="3.7943">
        <ele>1273.4</ele>
        <time>2011-08-03T09:48:32Z</time>
      </trkpt>
      <trkpt lat="44.53603" lon="3.7943">
        <ele>1273.4</ele>
        <time>2011-08-03T09:48:33Z</time>
      </trkpt>
      <trkpt lat="44.53592" lon="3.79427">
        <ele>1277.73</ele>
        <time>2011-08-03T09:48:49Z</time>
      </trkpt>
      <trkpt lat="44.53586" lon="3.79427">
        <ele>1280.13</ele>
        <time>2011-08-03T09:49:04Z</time>
      </trkpt>
      <trkpt lat="44.5358" lon="3.79429">
        <ele>1282.06</ele>
        <time>2011-08-03T09:49:19Z</time>
      </trkpt>
      <trkpt lat="44.5358" lon="3.79431">
        <ele>1282.54</ele>
        <time>2011-08-03T09:49:38Z</time>
      </trkpt>
      <trkpt lat="44.5358" lon="3.79431">
        <ele>1282.54</ele>
        <time>2011-08-03T09:50:09Z</time>
      </trkpt>
      <trkpt lat="44.5358" lon="3.79431">
        <ele>1282.54</ele>
        <time>2011-08-03T09:50:39Z</time>
      </trkpt>
      <trkpt lat="44.5358" lon="3.79432">
        <ele>1282.54</ele>
        <time>2011-08-03T09:51:03Z</time>
      </trkpt>
      <trkpt lat="44.53575" lon="3.79434">
        <ele>1283.5</ele>
        <time>2011-08-03T09:51:22Z</time>
      </trkpt>
      <trkpt lat="44.53574" lon="3.79434">
        <ele>1283.98</ele>
        <time>2011-08-03T09:51:23Z</time>
      </trkpt>
      <trkpt lat="44.53562" lon="3.79437">
        <ele>1286.86</ele>
        <time>2011-08-03T09:51:36Z</time>
      </trkpt>
      <trkpt lat="44.53552" lon="3.79441">
        <ele>1291.19</ele>
        <time>2011-08-03T09:51:54Z</time>
      </trkpt>
      <trkpt lat="44.53542" lon="3.79446">
        <ele>1294.55</ele>
        <time>2011-08-03T09:52:08Z</time>
      </trkpt>
      <trkpt lat="44.53536" lon="3.79451">
        <ele>1296.48</ele>
        <time>2011-08-03T09:52:22Z</time>
      </trkpt>
      <trkpt lat="44.53531" lon="3.79452">
        <ele>1298.88</ele>
        <time>2011-08-03T09:52:36Z</time>
      </trkpt>
      <trkpt lat="44.53519" lon="3.79458">
        <ele>1299.36</ele>
        <time>2011-08-03T09:52:52Z</time>
      </trkpt>
      <trkpt lat="44.53506" lon="3.79461">
        <ele>1303.69</ele>
        <time>2011-08-03T09:53:08Z</time>
      </trkpt>
      <trkpt lat="44.53501" lon="3.79464">
        <ele>1305.13</ele>
        <time>2011-08-03T09:53:14Z</time>
      </trkpt>
      <trkpt lat="44.5349" lon="3.79467">
        <ele>1308.49</ele>
        <time>2011-08-03T09:53:30Z</time>
      </trkpt>
      <trkpt lat="44.53481" lon="3.79469">
        <ele>1311.86</ele>
        <time>2011-08-03T09:53:42Z</time>
      </trkpt>
      <trkpt lat="44.53466" lon="3.79469">
        <ele>1312.82</ele>
        <time>2011-08-03T09:53:59Z</time>
      </trkpt>
      <trkpt lat="44.53455" lon="3.79468">
        <ele>1312.34</ele>
        <time>2011-08-03T09:54:13Z</time>
      </trkpt>
      <trkpt lat="44.53444" lon="3.79469">
        <ele>1313.3</ele>
        <time>2011-08-03T09:54:26Z</time>
      </trkpt>
      <trkpt lat="44.53435" lon="3.79474">
        <ele>1313.78</ele>
        <time>2011-08-03T09:54:40Z</time>
      </trkpt>
      <trkpt lat="44.53423" lon="3.79476">
        <ele>1316.18</ele>
        <time>2011-08-03T09:54:55Z</time>
      </trkpt>
      <trkpt lat="44.53413" lon="3.79475">
        <ele>1317.14</ele>
        <time>2011-08-03T09:55:09Z</time>
      </trkpt>
      <trkpt lat="44.53403" lon="3.79471">
        <ele>1317.62</ele>
        <time>2011-08-03T09:55:23Z</time>
      </trkpt>
      <trkpt lat="44.53401" lon="3.79472">
        <ele>1317.62</ele>
        <time>2011-08-03T09:55:38Z</time>
      </trkpt>
      <trkpt lat="44.5339" lon="3.79465">
        <ele>1318.1</ele>
        <time>2011-08-03T09:55:51Z</time>
      </trkpt>
      <trkpt lat="44.53384" lon="3.7946">
        <ele>1319.55</ele>
        <time>2011-08-03T09:55:56Z</time>
      </trkpt>
      <trkpt lat="44.53378" lon="3.79451">
        <ele>1321.47</ele>
        <time>2011-08-03T09:56:11Z</time>
      </trkpt>
      <trkpt lat="44.5337" lon="3.79439">
        <ele>1326.28</ele>
        <time>2011-08-03T09:56:27Z</time>
      </trkpt>
      <trkpt lat="44.53367" lon="3.79427">
        <ele>1327.24</ele>
        <time>2011-08-03T09:56:38Z</time>
      </trkpt>
      <trkpt lat="44.53363" lon="3.79412">
        <ele>1326.76</ele>
        <time>2011-08-03T09:56:44Z</time>
      </trkpt>
      <trkpt lat="44.53362" lon="3.7941">
        <ele>1326.76</ele>
        <time>2011-08-03T09:56:45Z</time>
      </trkpt>
      <trkpt lat="44.53361" lon="3.79409">
        <ele>1326.28</ele>
        <time>2011-08-03T09:56:46Z</time>
      </trkpt>
      <trkpt lat="44.53352" lon="3.794">
        <ele>1325.8</ele>
        <time>2011-08-03T09:56:54Z</time>
      </trkpt>
      <trkpt lat="44.53351" lon="3.79401">
        <ele>1326.28</ele>
        <time>2011-08-03T09:56:55Z</time>
      </trkpt>
      <trkpt lat="44.5335" lon="3.79405">
        <ele>1326.28</ele>
        <time>2011-08-03T09:56:57Z</time>
      </trkpt>
      <trkpt lat="44.5335" lon="3.79406">
        <ele>1326.28</ele>
        <time>2011-08-03T09:56:58Z</time>
      </trkpt>
      <trkpt lat="44.53351" lon="3.79408">
        <ele>1326.28</ele>
        <time>2011-08-03T09:56:59Z</time>
      </trkpt>
      <trkpt lat="44.53352" lon="3.7942">
        <ele>1329.64</ele>
        <time>2011-08-03T09:57:07Z</time>
      </trkpt>
      <trkpt lat="44.53352" lon="3.79422">
        <ele>1329.64</ele>
        <time>2011-08-03T09:57:08Z</time>
      </trkpt>
      <trkpt lat="44.53349" lon="3.79449">
        <ele>1333.49</ele>
        <time>2011-08-03T09:57:23Z</time>
      </trkpt>
      <trkpt lat="44.53352" lon="3.79454">
        <ele>1334.45</ele>
        <time>2011-08-03T09:57:36Z</time>
      </trkpt>
      <trkpt lat="44.53351" lon="3.79456">
        <ele>1333.49</ele>
        <time>2011-08-03T09:57:53Z</time>
      </trkpt>
      <trkpt lat="44.53351" lon="3.79456">
        <ele>1333.49</ele>
        <time>2011-08-03T09:58:25Z</time>
      </trkpt>
      <trkpt lat="44.53351" lon="3.79456">
        <ele>1333.49</ele>
        <time>2011-08-03T09:58:57Z</time>
      </trkpt>
      <trkpt lat="44.53351" lon="3.79456">
        <ele>1333.49</ele>
        <time>2011-08-03T09:59:27Z</time>
      </trkpt>
      <trkpt lat="44.53351" lon="3.79456">
        <ele>1333.49</ele>
        <time>2011-08-03T10:00:02Z</time>
      </trkpt>
      <trkpt lat="44.53351" lon="3.79455">
        <ele>1333.49</ele>
        <time>2011-08-03T10:00:35Z</time>
      </trkpt>
      <trkpt lat="44.53351" lon="3.79455">
        <ele>1333.49</ele>
        <time>2011-08-03T10:01:11Z</time>
      </trkpt>
      <trkpt lat="44.5335" lon="3.79455">
        <ele>1333.49</ele>
        <time>2011-08-03T10:01:46Z</time>
      </trkpt>
      <trkpt lat="44.5335" lon="3.79455">
        <ele>1333.49</ele>
        <time>2011-08-03T10:02:14Z</time>
      </trkpt>
      <trkpt lat="44.53351" lon="3.79455">
        <ele>1333.49</ele>
        <time>2011-08-03T10:02:47Z</time>
      </trkpt>
      <trkpt lat="44.53351" lon="3.79454">
        <ele>1333.49</ele>
        <time>2011-08-03T10:03:25Z</time>
      </trkpt>
      <trkpt lat="44.53351" lon="3.79454">
        <ele>1333.49</ele>
        <time>2011-08-03T10:04:03Z</time>
      </trkpt>
      <trkpt lat="44.53351" lon="3.79454">
        <ele>1333.49</ele>
        <time>2011-08-03T10:04:38Z</time>
      </trkpt>
      <trkpt lat="44.5335" lon="3.79454">
        <ele>1333.01</ele>
        <time>2011-08-03T10:05:06Z</time>
      </trkpt>
      <trkpt lat="44.5335" lon="3.79454">
        <ele>1333.01</ele>
        <time>2011-08-03T10:05:40Z</time>
      </trkpt>
      <trkpt lat="44.5335" lon="3.79454">
        <ele>1332.52</ele>
        <time>2011-08-03T10:06:06Z</time>
      </trkpt>
      <trkpt lat="44.5335" lon="3.79453">
        <ele>1332.04</ele>
        <time>2011-08-03T10:06:39Z</time>
      </trkpt>
      <trkpt lat="44.5335" lon="3.79453">
        <ele>1332.04</ele>
        <time>2011-08-03T10:06:56Z</time>
      </trkpt>
      <trkpt lat="44.5335" lon="3.79454">
        <ele>1332.52</ele>
        <time>2011-08-03T10:07:26Z</time>
      </trkpt>
      <trkpt lat="44.5335" lon="3.79476">
        <ele>1333.01</ele>
        <time>2011-08-03T10:07:38Z</time>
      </trkpt>
      <trkpt lat="44.5335" lon="3.79478">
        <ele>1333.49</ele>
        <time>2011-08-03T10:07:39Z</time>
      </trkpt>
      <trkpt lat="44.5335" lon="3.7948">
        <ele>1333.49</ele>
        <time>2011-08-03T10:07:40Z</time>
      </trkpt>
      <trkpt lat="44.5335" lon="3.79481">
        <ele>1333.49</ele>
        <time>2011-08-03T10:07:41Z</time>
      </trkpt>
      <trkpt lat="44.53356" lon="3.79512">
        <ele>1333.49</ele>
        <time>2011-08-03T10:07:57Z</time>
      </trkpt>
      <trkpt lat="44.53376" lon="3.79536">
        <ele>1334.45</ele>
        <time>2011-08-03T10:08:15Z</time>
      </trkpt>
      <trkpt lat="44.53377" lon="3.79537">
        <ele>1334.45</ele>
        <time>2011-08-03T10:08:16Z</time>
      </trkpt>
      <trkpt lat="44.53378" lon="3.79538">
        <ele>1334.93</ele>
        <time>2011-08-03T10:08:17Z</time>
      </trkpt>
      <trkpt lat="44.53379" lon="3.79539">
        <ele>1335.41</ele>
        <time>2011-08-03T10:08:18Z</time>
      </trkpt>
      <trkpt lat="44.5338" lon="3.7954">
        <ele>1335.41</ele>
        <time>2011-08-03T10:08:19Z</time>
      </trkpt>
      <trkpt lat="44.53381" lon="3.79541">
        <ele>1335.41</ele>
        <time>2011-08-03T10:08:20Z</time>
      </trkpt>
      <trkpt lat="44.53387" lon="3.79549">
        <ele>1336.85</ele>
        <time>2011-08-03T10:08:28Z</time>
      </trkpt>
      <trkpt lat="44.53388" lon="3.7955">
        <ele>1337.33</ele>
        <time>2011-08-03T10:08:29Z</time>
      </trkpt>
      <trkpt lat="44.53389" lon="3.79551">
        <ele>1337.81</ele>
        <time>2011-08-03T10:08:30Z</time>
      </trkpt>
      <trkpt lat="44.5339" lon="3.79552">
        <ele>1337.81</ele>
        <time>2011-08-03T10:08:31Z</time>
      </trkpt>
      <trkpt lat="44.53391" lon="3.79554">
        <ele>1337.81</ele>
        <time>2011-08-03T10:08:32Z</time>
      </trkpt>
      <trkpt lat="44.53392" lon="3.79555">
        <ele>1337.81</ele>
        <time>2011-08-03T10:08:33Z</time>
      </trkpt>
      <trkpt lat="44.53393" lon="3.79556">
        <ele>1338.29</ele>
        <time>2011-08-03T10:08:34Z</time>
      </trkpt>
      <trkpt lat="44.53393" lon="3.79557">
        <ele>1338.29</ele>
        <time>2011-08-03T10:08:35Z</time>
      </trkpt>
      <trkpt lat="44.53409" lon="3.79573">
        <ele>1341.66</ele>
        <time>2011-08-03T10:08:51Z</time>
      </trkpt>
      <trkpt lat="44.53425" lon="3.79592">
        <ele>1343.1</ele>
        <time>2011-08-03T10:09:06Z</time>
      </trkpt>
      <trkpt lat="44.53437" lon="3.79616">
        <ele>1344.06</ele>
        <time>2011-08-03T10:09:22Z</time>
      </trkpt>
      <trkpt lat="44.53453" lon="3.79647">
        <ele>1343.58</ele>
        <time>2011-08-03T10:09:40Z</time>
      </trkpt>
      <trkpt lat="44.53452" lon="3.79655">
        <ele>1343.58</ele>
        <time>2011-08-03T10:09:44Z</time>
      </trkpt>
      <trkpt lat="44.5345" lon="3.79655">
        <ele>1343.58</ele>
        <time>2011-08-03T10:09:45Z</time>
      </trkpt>
      <trkpt lat="44.53449" lon="3.79652">
        <ele>1343.58</ele>
        <time>2011-08-03T10:09:47Z</time>
      </trkpt>
      <trkpt lat="44.53448" lon="3.7965">
        <ele>1343.58</ele>
        <time>2011-08-03T10:09:48Z</time>
      </trkpt>
      <trkpt lat="44.53448" lon="3.79648">
        <ele>1343.58</ele>
        <time>2011-08-03T10:09:49Z</time>
      </trkpt>
      <trkpt lat="44.53446" lon="3.79645">
        <ele>1343.58</ele>
        <time>2011-08-03T10:09:51Z</time>
      </trkpt>
      <trkpt lat="44.53445" lon="3.79644">
        <ele>1343.58</ele>
        <time>2011-08-03T10:09:52Z</time>
      </trkpt>
      <trkpt lat="44.53444" lon="3.79643">
        <ele>1343.58</ele>
        <time>2011-08-03T10:09:53Z</time>
      </trkpt>
      <trkpt lat="44.53443" lon="3.7964">
        <ele>1344.06</ele>
        <time>2011-08-03T10:09:55Z</time>
      </trkpt>
      <trkpt lat="44.53442" lon="3.79639">
        <ele>1344.06</ele>
        <time>2011-08-03T10:09:56Z</time>
      </trkpt>
      <trkpt lat="44.53441" lon="3.79637">
        <ele>1344.06</ele>
        <time>2011-08-03T10:09:57Z</time>
      </trkpt>
      <trkpt lat="44.5344" lon="3.79636">
        <ele>1344.54</ele>
        <time>2011-08-03T10:09:58Z</time>
      </trkpt>
      <trkpt lat="44.53439" lon="3.79635">
        <ele>1345.02</ele>
        <time>2011-08-03T10:09:59Z</time>
      </trkpt>
      <trkpt lat="44.53431" lon="3.79624">
        <ele>1345.98</ele>
        <time>2011-08-03T10:10:09Z</time>
      </trkpt>
      <trkpt lat="44.53429" lon="3.79623">
        <ele>1345.98</ele>
        <time>2011-08-03T10:10:10Z</time>
      </trkpt>
      <trkpt lat="44.53408" lon="3.79609">
        <ele>1347.91</ele>
        <time>2011-08-03T10:10:29Z</time>
      </trkpt>
      <trkpt lat="44.53386" lon="3.79602">
        <ele>1349.35</ele>
        <time>2011-08-03T10:10:45Z</time>
      </trkpt>
      <trkpt lat="44.53363" lon="3.79592">
        <ele>1349.83</ele>
        <time>2011-08-03T10:11:03Z</time>
      </trkpt>
      <trkpt lat="44.53344" lon="3.79578">
        <ele>1350.79</ele>
        <time>2011-08-03T10:11:18Z</time>
      </trkpt>
      <trkpt lat="44.53342" lon="3.79577">
        <ele>1350.79</ele>
        <time>2011-08-03T10:11:19Z</time>
      </trkpt>
      <trkpt lat="44.53341" lon="3.79576">
        <ele>1351.27</ele>
        <time>2011-08-03T10:11:20Z</time>
      </trkpt>
      <trkpt lat="44.53322" lon="3.79557">
        <ele>1351.27</ele>
        <time>2011-08-03T10:11:35Z</time>
      </trkpt>
      <trkpt lat="44.53302" lon="3.79532">
        <ele>1354.15</ele>
        <time>2011-08-03T10:11:52Z</time>
      </trkpt>
      <trkpt lat="44.53285" lon="3.79505">
        <ele>1356.56</ele>
        <time>2011-08-03T10:12:08Z</time>
      </trkpt>
      <trkpt lat="44.53267" lon="3.79477">
        <ele>1360.88</ele>
        <time>2011-08-03T10:12:24Z</time>
      </trkpt>
      <trkpt lat="44.53249" lon="3.79444">
        <ele>1362.81</ele>
        <time>2011-08-03T10:12:42Z</time>
      </trkpt>
      <trkpt lat="44.53236" lon="3.79417">
        <ele>1362.81</ele>
        <time>2011-08-03T10:12:56Z</time>
      </trkpt>
      <trkpt lat="44.53218" lon="3.79382">
        <ele>1365.21</ele>
        <time>2011-08-03T10:13:14Z</time>
      </trkpt>
      <trkpt lat="44.53207" lon="3.79347">
        <ele>1368.57</ele>
        <time>2011-08-03T10:13:31Z</time>
      </trkpt>
      <trkpt lat="44.53218" lon="3.79319">
        <ele>1368.09</ele>
        <time>2011-08-03T10:13:47Z</time>
      </trkpt>
      <trkpt lat="44.53235" lon="3.79291">
        <ele>1368.09</ele>
        <time>2011-08-03T10:14:03Z</time>
      </trkpt>
      <trkpt lat="44.53245" lon="3.79253">
        <ele>1369.05</ele>
        <time>2011-08-03T10:14:21Z</time>
      </trkpt>
      <trkpt lat="44.53251" lon="3.79219">
        <ele>1371.46</ele>
        <time>2011-08-03T10:14:37Z</time>
      </trkpt>
      <trkpt lat="44.53253" lon="3.79182">
        <ele>1371.46</ele>
        <time>2011-08-03T10:14:52Z</time>
      </trkpt>
      <trkpt lat="44.53254" lon="3.79176">
        <ele>1370.98</ele>
        <time>2011-08-03T10:14:55Z</time>
      </trkpt>
      <trkpt lat="44.53253" lon="3.79174">
        <ele>1370.98</ele>
        <time>2011-08-03T10:14:56Z</time>
      </trkpt>
      <trkpt lat="44.53253" lon="3.79172">
        <ele>1370.98</ele>
        <time>2011-08-03T10:14:57Z</time>
      </trkpt>
      <trkpt lat="44.53251" lon="3.79136">
        <ele>1370.02</ele>
        <time>2011-08-03T10:15:13Z</time>
      </trkpt>
      <trkpt lat="44.53249" lon="3.79099">
        <ele>1374.34</ele>
        <time>2011-08-03T10:15:29Z</time>
      </trkpt>
      <trkpt lat="44.53247" lon="3.79065">
        <ele>1373.86</ele>
        <time>2011-08-03T10:15:44Z</time>
      </trkpt>
      <trkpt lat="44.53245" lon="3.79028">
        <ele>1375.78</ele>
        <time>2011-08-03T10:16:01Z</time>
      </trkpt>
      <trkpt lat="44.53245" lon="3.78988">
        <ele>1377.23</ele>
        <time>2011-08-03T10:16:19Z</time>
      </trkpt>
      <trkpt lat="44.53241" lon="3.7895">
        <ele>1380.11</ele>
        <time>2011-08-03T10:16:35Z</time>
      </trkpt>
      <trkpt lat="44.53236" lon="3.78914">
        <ele>1382.99</ele>
        <time>2011-08-03T10:16:50Z</time>
      </trkpt>
      <trkpt lat="44.53234" lon="3.7888">
        <ele>1383.96</ele>
        <time>2011-08-03T10:17:06Z</time>
      </trkpt>
      <trkpt lat="44.53235" lon="3.7884">
        <ele>1385.88</ele>
        <time>2011-08-03T10:17:23Z</time>
      </trkpt>
      <trkpt lat="44.53234" lon="3.78798">
        <ele>1387.32</ele>
        <time>2011-08-03T10:17:40Z</time>
      </trkpt>
      <trkpt lat="44.53228" lon="3.78759">
        <ele>1390.2</ele>
        <time>2011-08-03T10:17:56Z</time>
      </trkpt>
      <trkpt lat="44.53212" lon="3.78725">
        <ele>1394.53</ele>
        <time>2011-08-03T10:18:13Z</time>
      </trkpt>
      <trkpt lat="44.53188" lon="3.78697">
        <ele>1401.74</ele>
        <time>2011-08-03T10:18:31Z</time>
      </trkpt>
      <trkpt lat="44.53166" lon="3.78677">
        <ele>1404.62</ele>
        <time>2011-08-03T10:18:47Z</time>
      </trkpt>
      <trkpt lat="44.53139" lon="3.78654">
        <ele>1408.47</ele>
        <time>2011-08-03T10:19:06Z</time>
      </trkpt>
      <trkpt lat="44.53116" lon="3.78636">
        <ele>1411.83</ele>
        <time>2011-08-03T10:19:22Z</time>
      </trkpt>
      <trkpt lat="44.53111" lon="3.78631">
        <ele>1412.79</ele>
        <time>2011-08-03T10:19:26Z</time>
      </trkpt>
      <trkpt lat="44.5311" lon="3.7863">
        <ele>1412.79</ele>
        <time>2011-08-03T10:19:27Z</time>
      </trkpt>
      <trkpt lat="44.53108" lon="3.78629">
        <ele>1413.28</ele>
        <time>2011-08-03T10:19:28Z</time>
      </trkpt>
      <trkpt lat="44.53107" lon="3.78628">
        <ele>1413.28</ele>
        <time>2011-08-03T10:19:29Z</time>
      </trkpt>
      <trkpt lat="44.53105" lon="3.78627">
        <ele>1412.79</ele>
        <time>2011-08-03T10:19:30Z</time>
      </trkpt>
      <trkpt lat="44.53104" lon="3.78626">
        <ele>1412.79</ele>
        <time>2011-08-03T10:19:31Z</time>
      </trkpt>
      <trkpt lat="44.53103" lon="3.78625">
        <ele>1412.79</ele>
        <time>2011-08-03T10:19:32Z</time>
      </trkpt>
      <trkpt lat="44.53085" lon="3.7861">
        <ele>1414.72</ele>
        <time>2011-08-03T10:19:43Z</time>
      </trkpt>
      <trkpt lat="44.5307" lon="3.78595">
        <ele>1416.64</ele>
        <time>2011-08-03T10:19:56Z</time>
      </trkpt>
      <trkpt lat="44.53053" lon="3.78577">
        <ele>1419.04</ele>
        <time>2011-08-03T10:20:10Z</time>
      </trkpt>
      <trkpt lat="44.53044" lon="3.78565">
        <ele>1419.52</ele>
        <time>2011-08-03T10:20:18Z</time>
      </trkpt>
      <trkpt lat="44.53043" lon="3.78564">
        <ele>1419.52</ele>
        <time>2011-08-03T10:20:19Z</time>
      </trkpt>
      <trkpt lat="44.53025" lon="3.78536">
        <ele>1420.49</ele>
        <time>2011-08-03T10:20:35Z</time>
      </trkpt>
      <trkpt lat="44.53017" lon="3.78533">
        <ele>1419.04</ele>
        <time>2011-08-03T10:20:40Z</time>
      </trkpt>
      <trkpt lat="44.53005" lon="3.78541">
        <ele>1417.6</ele>
        <time>2011-08-03T10:20:55Z</time>
      </trkpt>
      <trkpt lat="44.53005" lon="3.7854">
        <ele>1417.6</ele>
        <time>2011-08-03T10:21:23Z</time>
      </trkpt>
      <trkpt lat="44.53005" lon="3.7854">
        <ele>1417.6</ele>
        <time>2011-08-03T10:21:50Z</time>
      </trkpt>
      <trkpt lat="44.53005" lon="3.7854">
        <ele>1417.12</ele>
        <time>2011-08-03T10:22:22Z</time>
      </trkpt>
      <trkpt lat="44.53005" lon="3.7854">
        <ele>1417.12</ele>
        <time>2011-08-03T10:23:02Z</time>
      </trkpt>
      <trkpt lat="44.53005" lon="3.78539">
        <ele>1416.64</ele>
        <time>2011-08-03T10:23:41Z</time>
      </trkpt>
      <trkpt lat="44.53005" lon="3.78539">
        <ele>1415.68</ele>
        <time>2011-08-03T10:24:18Z</time>
      </trkpt>
      <trkpt lat="44.53005" lon="3.78539">
        <ele>1415.2</ele>
        <time>2011-08-03T10:24:52Z</time>
      </trkpt>
      <trkpt lat="44.53005" lon="3.78538">
        <ele>1414.72</ele>
        <time>2011-08-03T10:25:32Z</time>
      </trkpt>
      <trkpt lat="44.53005" lon="3.78538">
        <ele>1414.72</ele>
        <time>2011-08-03T10:26:07Z</time>
      </trkpt>
      <trkpt lat="44.53005" lon="3.78538">
        <ele>1414.24</ele>
        <time>2011-08-03T10:26:50Z</time>
      </trkpt>
      <trkpt lat="44.53005" lon="3.78538">
        <ele>1413.76</ele>
        <time>2011-08-03T10:27:32Z</time>
      </trkpt>
      <trkpt lat="44.53005" lon="3.78538">
        <ele>1413.28</ele>
        <time>2011-08-03T10:28:11Z</time>
      </trkpt>
      <trkpt lat="44.53005" lon="3.78538">
        <ele>1413.76</ele>
        <time>2011-08-03T10:28:48Z</time>
      </trkpt>
      <trkpt lat="44.53005" lon="3.78537">
        <ele>1413.28</ele>
        <time>2011-08-03T10:29:26Z</time>
      </trkpt>
      <trkpt lat="44.53005" lon="3.78538">
        <ele>1413.76</ele>
        <time>2011-08-03T10:30:05Z</time>
      </trkpt>
      <trkpt lat="44.53006" lon="3.78538">
        <ele>1413.76</ele>
        <time>2011-08-03T10:30:44Z</time>
      </trkpt>
      <trkpt lat="44.53005" lon="3.78538">
        <ele>1413.76</ele>
        <time>2011-08-03T10:31:20Z</time>
      </trkpt>
      <trkpt lat="44.53005" lon="3.78538">
        <ele>1413.76</ele>
        <time>2011-08-03T10:31:55Z</time>
      </trkpt>
      <trkpt lat="44.53005" lon="3.78537">
        <ele>1413.28</ele>
        <time>2011-08-03T10:32:37Z</time>
      </trkpt>
      <trkpt lat="44.53005" lon="3.78538">
        <ele>1412.79</ele>
        <time>2011-08-03T10:33:17Z</time>
      </trkpt>
      <trkpt lat="44.53005" lon="3.78538">
        <ele>1412.79</ele>
        <time>2011-08-03T10:33:56Z</time>
      </trkpt>
      <trkpt lat="44.53005" lon="3.78538">
        <ele>1412.79</ele>
        <time>2011-08-03T10:34:41Z</time>
      </trkpt>
      <trkpt lat="44.53005" lon="3.78538">
        <ele>1412.79</ele>
        <time>2011-08-03T10:35:19Z</time>
      </trkpt>
      <trkpt lat="44.53005" lon="3.78539">
        <ele>1412.79</ele>
        <time>2011-08-03T10:35:45Z</time>
      </trkpt>
      <trkpt lat="44.52988" lon="3.78549">
        <ele>1412.31</ele>
        <time>2011-08-03T10:35:56Z</time>
      </trkpt>
      <trkpt lat="44.52962" lon="3.78595">
        <ele>1409.43</ele>
        <time>2011-08-03T10:36:07Z</time>
      </trkpt>
      <trkpt lat="44.52934" lon="3.78634">
        <ele>1407.03</ele>
        <time>2011-08-03T10:36:14Z</time>
      </trkpt>
      <trkpt lat="44.529" lon="3.78675">
        <ele>1403.18</ele>
        <time>2011-08-03T10:36:21Z</time>
      </trkpt>
      <trkpt lat="44.52877" lon="3.78701">
        <ele>1401.26</ele>
        <time>2011-08-03T10:36:25Z</time>
      </trkpt>
      <trkpt lat="44.52833" lon="3.78804">
        <ele>1395.01</ele>
        <time>2011-08-03T10:36:36Z</time>
      </trkpt>
      <trkpt lat="44.52819" lon="3.78862">
        <ele>1392.13</ele>
        <time>2011-08-03T10:36:41Z</time>
      </trkpt>
      <trkpt lat="44.52814" lon="3.78873">
        <ele>1392.13</ele>
        <time>2011-08-03T10:36:42Z</time>
      </trkpt>
      <trkpt lat="44.52768" lon="3.78953">
        <ele>1387.32</ele>
        <time>2011-08-03T10:36:50Z</time>
      </trkpt>
      <trkpt lat="44.52745" lon="3.78975">
        <ele>1385.4</ele>
        <time>2011-08-03T10:36:53Z</time>
      </trkpt>
      <trkpt lat="44.52704" lon="3.78999">
        <ele>1382.51</ele>
        <time>2011-08-03T10:36:58Z</time>
      </trkpt>
      <trkpt lat="44.52696" lon="3.79001">
        <ele>1382.03</ele>
        <time>2011-08-03T10:36:59Z</time>
      </trkpt>
      <trkpt lat="44.52688" lon="3.79002">
        <ele>1381.07</ele>
        <time>2011-08-03T10:37:00Z</time>
      </trkpt>
      <trkpt lat="44.52681" lon="3.79002">
        <ele>1380.59</ele>
        <time>2011-08-03T10:37:01Z</time>
      </trkpt>
      <trkpt lat="44.52674" lon="3.79002">
        <ele>1380.11</ele>
        <time>2011-08-03T10:37:02Z</time>
      </trkpt>
      <trkpt lat="44.52622" lon="3.79005">
        <ele>1378.19</ele>
        <time>2011-08-03T10:37:10Z</time>
      </trkpt>
      <trkpt lat="44.52565" lon="3.79028">
        <ele>1379.63</ele>
        <time>2011-08-03T10:37:23Z</time>
      </trkpt>
      <trkpt lat="44.52552" lon="3.79035">
        <ele>1381.07</ele>
        <time>2011-08-03T10:37:26Z</time>
      </trkpt>
      <trkpt lat="44.52541" lon="3.79042">
        <ele>1382.51</ele>
        <time>2011-08-03T10:37:29Z</time>
      </trkpt>
      <trkpt lat="44.52537" lon="3.79045">
        <ele>1382.99</ele>
        <time>2011-08-03T10:37:30Z</time>
      </trkpt>
      <trkpt lat="44.52534" lon="3.79048">
        <ele>1383.47</ele>
        <time>2011-08-03T10:37:31Z</time>
      </trkpt>
      <trkpt lat="44.52517" lon="3.79062">
        <ele>1384.92</ele>
        <time>2011-08-03T10:37:36Z</time>
      </trkpt>
      <trkpt lat="44.5246" lon="3.79121">
        <ele>1385.88</ele>
        <time>2011-08-03T10:37:51Z</time>
      </trkpt>
      <trkpt lat="44.52443" lon="3.7915">
        <ele>1385.4</ele>
        <time>2011-08-03T10:37:56Z</time>
      </trkpt>
      <trkpt lat="44.5244" lon="3.79157">
        <ele>1385.4</ele>
        <time>2011-08-03T10:37:57Z</time>
      </trkpt>
      <trkpt lat="44.52437" lon="3.79165">
        <ele>1385.4</ele>
        <time>2011-08-03T10:37:58Z</time>
      </trkpt>
      <trkpt lat="44.52435" lon="3.79172">
        <ele>1385.4</ele>
        <time>2011-08-03T10:37:59Z</time>
      </trkpt>
      <trkpt lat="44.52432" lon="3.7918">
        <ele>1385.4</ele>
        <time>2011-08-03T10:38:00Z</time>
      </trkpt>
      <trkpt lat="44.52406" lon="3.79253">
        <ele>1384.44</ele>
        <time>2011-08-03T10:38:09Z</time>
      </trkpt>
      <trkpt lat="44.52403" lon="3.7926">
        <ele>1384.44</ele>
        <time>2011-08-03T10:38:10Z</time>
      </trkpt>
      <trkpt lat="44.52399" lon="3.79268">
        <ele>1383.96</ele>
        <time>2011-08-03T10:38:11Z</time>
      </trkpt>
      <trkpt lat="44.52374" lon="3.79331">
        <ele>1382.03</ele>
        <time>2011-08-03T10:38:20Z</time>
      </trkpt>
      <trkpt lat="44.52372" lon="3.79337">
        <ele>1382.03</ele>
        <time>2011-08-03T10:38:21Z</time>
      </trkpt>
      <trkpt lat="44.52371" lon="3.79344">
        <ele>1382.03</ele>
        <time>2011-08-03T10:38:22Z</time>
      </trkpt>
      <trkpt lat="44.52367" lon="3.79394">
        <ele>1382.03</ele>
        <time>2011-08-03T10:38:32Z</time>
      </trkpt>
      <trkpt lat="44.52367" lon="3.79396">
        <ele>1382.51</ele>
        <time>2011-08-03T10:38:41Z</time>
      </trkpt>
      <trkpt lat="44.52367" lon="3.79396">
        <ele>1382.51</ele>
        <time>2011-08-03T10:39:00Z</time>
      </trkpt>
      <trkpt lat="44.52367" lon="3.79396">
        <ele>1382.51</ele>
        <time>2011-08-03T10:39:17Z</time>
      </trkpt>
      <trkpt lat="44.52366" lon="3.79398">
        <ele>1382.51</ele>
        <time>2011-08-03T10:39:34Z</time>
      </trkpt>
      <trkpt lat="44.52366" lon="3.79401">
        <ele>1382.99</ele>
        <time>2011-08-03T10:39:35Z</time>
      </trkpt>
      <trkpt lat="44.52365" lon="3.79404">
        <ele>1382.51</ele>
        <time>2011-08-03T10:39:36Z</time>
      </trkpt>
      <trkpt lat="44.52365" lon="3.79407">
        <ele>1382.51</ele>
        <time>2011-08-03T10:39:37Z</time>
      </trkpt>
      <trkpt lat="44.52364" lon="3.79412">
        <ele>1382.51</ele>
        <time>2011-08-03T10:39:38Z</time>
      </trkpt>
      <trkpt lat="44.52363" lon="3.79417">
        <ele>1382.03</ele>
        <time>2011-08-03T10:39:39Z</time>
      </trkpt>
      <trkpt lat="44.52358" lon="3.79449">
        <ele>1379.15</ele>
        <time>2011-08-03T10:39:44Z</time>
      </trkpt>
      <trkpt lat="44.52345" lon="3.79493">
        <ele>1376.26</ele>
        <time>2011-08-03T10:39:49Z</time>
      </trkpt>
      <trkpt lat="44.52307" lon="3.79589">
        <ele>1370.98</ele>
        <time>2011-08-03T10:39:58Z</time>
      </trkpt>
      <trkpt lat="44.523" lon="3.796">
        <ele>1370.02</ele>
        <time>2011-08-03T10:39:59Z</time>
      </trkpt>
      <trkpt lat="44.52292" lon="3.7961">
        <ele>1369.54</ele>
        <time>2011-08-03T10:40:00Z</time>
      </trkpt>
      <trkpt lat="44.52276" lon="3.79628">
        <ele>1368.09</ele>
        <time>2011-08-03T10:40:02Z</time>
      </trkpt>
      <trkpt lat="44.52269" lon="3.79634">
        <ele>1367.13</ele>
        <time>2011-08-03T10:40:03Z</time>
      </trkpt>
      <trkpt lat="44.5226" lon="3.79637">
        <ele>1366.17</ele>
        <time>2011-08-03T10:40:04Z</time>
      </trkpt>
      <trkpt lat="44.52251" lon="3.79637">
        <ele>1365.21</ele>
        <time>2011-08-03T10:40:05Z</time>
      </trkpt>
      <trkpt lat="44.52242" lon="3.79635">
        <ele>1364.25</ele>
        <time>2011-08-03T10:40:06Z</time>
      </trkpt>
      <trkpt lat="44.52232" lon="3.79632">
        <ele>1363.29</ele>
        <time>2011-08-03T10:40:07Z</time>
      </trkpt>
      <trkpt lat="44.52119" lon="3.79603">
        <ele>1350.31</ele>
        <time>2011-08-03T10:40:17Z</time>
      </trkpt>
      <trkpt lat="44.52077" lon="3.79586">
        <ele>1343.58</ele>
        <time>2011-08-03T10:40:21Z</time>
      </trkpt>
      <trkpt lat="44.52068" lon="3.79585">
        <ele>1342.14</ele>
        <time>2011-08-03T10:40:22Z</time>
      </trkpt>
      <trkpt lat="44.52023" lon="3.79582">
        <ele>1330.6</ele>
        <time>2011-08-03T10:40:29Z</time>
      </trkpt>
      <trkpt lat="44.52017" lon="3.79584">
        <ele>1329.64</ele>
        <time>2011-08-03T10:40:30Z</time>
      </trkpt>
      <trkpt lat="44.51948" lon="3.79618">
        <ele>1316.18</ele>
        <time>2011-08-03T10:40:39Z</time>
      </trkpt>
      <trkpt lat="44.51926" lon="3.7964">
        <ele>1311.38</ele>
        <time>2011-08-03T10:40:42Z</time>
      </trkpt>
      <trkpt lat="44.51901" lon="3.7967">
        <ele>1306.57</ele>
        <time>2011-08-03T10:40:45Z</time>
      </trkpt>
      <trkpt lat="44.51811" lon="3.79739">
        <ele>1291.19</ele>
        <time>2011-08-03T10:40:53Z</time>
      </trkpt>
      <trkpt lat="44.51801" lon="3.79746">
        <ele>1288.78</ele>
        <time>2011-08-03T10:40:54Z</time>
      </trkpt>
      <trkpt lat="44.51697" lon="3.79806">
        <ele>1271.48</ele>
        <time>2011-08-03T10:41:03Z</time>
      </trkpt>
      <trkpt lat="44.51601" lon="3.79853">
        <ele>1254.66</ele>
        <time>2011-08-03T10:41:11Z</time>
      </trkpt>
      <trkpt lat="44.51591" lon="3.7986">
        <ele>1253.22</ele>
        <time>2011-08-03T10:41:12Z</time>
      </trkpt>
      <trkpt lat="44.51525" lon="3.79922">
        <ele>1243.6</ele>
        <time>2011-08-03T10:41:19Z</time>
      </trkpt>
      <trkpt lat="44.51521" lon="3.79931">
        <ele>1242.16</ele>
        <time>2011-08-03T10:41:20Z</time>
      </trkpt>
      <trkpt lat="44.51516" lon="3.7994">
        <ele>1241.2</ele>
        <time>2011-08-03T10:41:21Z</time>
      </trkpt>
      <trkpt lat="44.51512" lon="3.7995">
        <ele>1240.24</ele>
        <time>2011-08-03T10:41:22Z</time>
      </trkpt>
      <trkpt lat="44.51508" lon="3.79961">
        <ele>1238.8</ele>
        <time>2011-08-03T10:41:23Z</time>
      </trkpt>
      <trkpt lat="44.51504" lon="3.79973">
        <ele>1237.83</ele>
        <time>2011-08-03T10:41:24Z</time>
      </trkpt>
      <trkpt lat="44.51444" lon="3.80114">
        <ele>1230.14</ele>
        <time>2011-08-03T10:41:36Z</time>
      </trkpt>
      <trkpt lat="44.51395" lon="3.80193">
        <ele>1225.34</ele>
        <time>2011-08-03T10:41:43Z</time>
      </trkpt>
      <trkpt lat="44.51391" lon="3.80205">
        <ele>1224.38</ele>
        <time>2011-08-03T10:41:44Z</time>
      </trkpt>
      <trkpt lat="44.51387" lon="3.80218">
        <ele>1223.9</ele>
        <time>2011-08-03T10:41:45Z</time>
      </trkpt>
      <trkpt lat="44.51377" lon="3.80268">
        <ele>1221.97</ele>
        <time>2011-08-03T10:41:49Z</time>
      </trkpt>
      <trkpt lat="44.51377" lon="3.80281">
        <ele>1221.49</ele>
        <time>2011-08-03T10:41:50Z</time>
      </trkpt>
      <trkpt lat="44.51377" lon="3.80294">
        <ele>1221.01</ele>
        <time>2011-08-03T10:41:51Z</time>
      </trkpt>
      <trkpt lat="44.51378" lon="3.80306">
        <ele>1220.53</ele>
        <time>2011-08-03T10:41:52Z</time>
      </trkpt>
      <trkpt lat="44.51379" lon="3.80317">
        <ele>1220.05</ele>
        <time>2011-08-03T10:41:53Z</time>
      </trkpt>
      <trkpt lat="44.51383" lon="3.80338">
        <ele>1220.05</ele>
        <time>2011-08-03T10:41:55Z</time>
      </trkpt>
      <trkpt lat="44.51386" lon="3.80346">
        <ele>1219.57</ele>
        <time>2011-08-03T10:41:56Z</time>
      </trkpt>
      <trkpt lat="44.51388" lon="3.80354">
        <ele>1219.57</ele>
        <time>2011-08-03T10:41:57Z</time>
      </trkpt>
      <trkpt lat="44.51393" lon="3.80388">
        <ele>1220.05</ele>
        <time>2011-08-03T10:42:05Z</time>
      </trkpt>
      <trkpt lat="44.51393" lon="3.80409">
        <ele>1220.53</ele>
        <time>2011-08-03T10:42:12Z</time>
      </trkpt>
      <trkpt lat="44.51392" lon="3.80408">
        <ele>1220.53</ele>
        <time>2011-08-03T10:42:31Z</time>
      </trkpt>
      <trkpt lat="44.51392" lon="3.80406">
        <ele>1221.01</ele>
        <time>2011-08-03T10:42:32Z</time>
      </trkpt>
      <trkpt lat="44.51391" lon="3.80405">
        <ele>1221.01</ele>
        <time>2011-08-03T10:42:46Z</time>
      </trkpt>
      <trkpt lat="44.51391" lon="3.80402">
        <ele>1221.49</ele>
        <time>2011-08-03T10:42:48Z</time>
      </trkpt>
      <trkpt lat="44.51392" lon="3.80399">
        <ele>1221.97</ele>
        <time>2011-08-03T10:42:49Z</time>
      </trkpt>
      <trkpt lat="44.51392" lon="3.80395">
        <ele>1221.97</ele>
        <time>2011-08-03T10:42:50Z</time>
      </trkpt>
      <trkpt lat="44.51392" lon="3.80391">
        <ele>1221.49</ele>
        <time>2011-08-03T10:42:51Z</time>
      </trkpt>
      <trkpt lat="44.51392" lon="3.80387">
        <ele>1221.49</ele>
        <time>2011-08-03T10:42:52Z</time>
      </trkpt>
      <trkpt lat="44.51392" lon="3.80383">
        <ele>1221.01</ele>
        <time>2011-08-03T10:42:53Z</time>
      </trkpt>
      <trkpt lat="44.51393" lon="3.80378">
        <ele>1220.53</ele>
        <time>2011-08-03T10:42:54Z</time>
      </trkpt>
      <trkpt lat="44.51393" lon="3.80373">
        <ele>1220.53</ele>
        <time>2011-08-03T10:42:55Z</time>
      </trkpt>
      <trkpt lat="44.51393" lon="3.80367">
        <ele>1220.05</ele>
        <time>2011-08-03T10:42:56Z</time>
      </trkpt>
      <trkpt lat="44.51392" lon="3.80362">
        <ele>1220.05</ele>
        <time>2011-08-03T10:42:57Z</time>
      </trkpt>
      <trkpt lat="44.51391" lon="3.80355">
        <ele>1219.57</ele>
        <time>2011-08-03T10:42:58Z</time>
      </trkpt>
      <trkpt lat="44.51389" lon="3.80348">
        <ele>1219.57</ele>
        <time>2011-08-03T10:42:59Z</time>
      </trkpt>
      <trkpt lat="44.51385" lon="3.80331">
        <ele>1218.61</ele>
        <time>2011-08-03T10:43:01Z</time>
      </trkpt>
      <trkpt lat="44.5138" lon="3.80282">
        <ele>1216.69</ele>
        <time>2011-08-03T10:43:07Z</time>
      </trkpt>
      <trkpt lat="44.51383" lon="3.80254">
        <ele>1216.69</ele>
        <time>2011-08-03T10:43:11Z</time>
      </trkpt>
      <trkpt lat="44.51384" lon="3.80248">
        <ele>1217.17</ele>
        <time>2011-08-03T10:43:12Z</time>
      </trkpt>
      <trkpt lat="44.51387" lon="3.80236">
        <ele>1217.17</ele>
        <time>2011-08-03T10:43:14Z</time>
      </trkpt>
      <trkpt lat="44.51388" lon="3.80229">
        <ele>1217.65</ele>
        <time>2011-08-03T10:43:15Z</time>
      </trkpt>
      <trkpt lat="44.51403" lon="3.80181">
        <ele>1221.01</ele>
        <time>2011-08-03T10:43:26Z</time>
      </trkpt>
      <trkpt lat="44.51428" lon="3.80144">
        <ele>1227.26</ele>
        <time>2011-08-03T10:43:40Z</time>
      </trkpt>
      <trkpt lat="44.51458" lon="3.80093">
        <ele>1232.07</ele>
        <time>2011-08-03T10:43:56Z</time>
      </trkpt>
      <trkpt lat="44.51483" lon="3.80042">
        <ele>1237.83</ele>
        <time>2011-08-03T10:44:11Z</time>
      </trkpt>
      <trkpt lat="44.51505" lon="3.79983">
        <ele>1239.28</ele>
        <time>2011-08-03T10:44:28Z</time>
      </trkpt>
      <trkpt lat="44.5152" lon="3.79935">
        <ele>1243.6</ele>
        <time>2011-08-03T10:44:44Z</time>
      </trkpt>
      <trkpt lat="44.51539" lon="3.79909">
        <ele>1246.97</ele>
        <time>2011-08-03T10:44:59Z</time>
      </trkpt>
      <trkpt lat="44.51566" lon="3.79881">
        <ele>1247.93</ele>
        <time>2011-08-03T10:45:14Z</time>
      </trkpt>
      <trkpt lat="44.51591" lon="3.79859">
        <ele>1250.81</ele>
        <time>2011-08-03T10:45:31Z</time>
      </trkpt>
      <trkpt lat="44.5161" lon="3.79843">
        <ele>1252.74</ele>
        <time>2011-08-03T10:45:47Z</time>
      </trkpt>
      <trkpt lat="44.51622" lon="3.79828">
        <ele>1252.74</ele>
        <time>2011-08-03T10:46:01Z</time>
      </trkpt>
      <trkpt lat="44.51637" lon="3.79812">
        <ele>1251.77</ele>
        <time>2011-08-03T10:46:17Z</time>
      </trkpt>
      <trkpt lat="44.51654" lon="3.79789">
        <ele>1253.22</ele>
        <time>2011-08-03T10:46:31Z</time>
      </trkpt>
      <trkpt lat="44.5168" lon="3.7975">
        <ele>1254.66</ele>
        <time>2011-08-03T10:46:45Z</time>
      </trkpt>
      <trkpt lat="44.51701" lon="3.79703">
        <ele>1254.66</ele>
        <time>2011-08-03T10:46:58Z</time>
      </trkpt>
      <trkpt lat="44.5173" lon="3.79659">
        <ele>1256.1</ele>
        <time>2011-08-03T10:47:11Z</time>
      </trkpt>
      <trkpt lat="44.51756" lon="3.79618">
        <ele>1255.62</ele>
        <time>2011-08-03T10:47:24Z</time>
      </trkpt>
      <trkpt lat="44.51776" lon="3.79531">
        <ele>1252.25</ele>
        <time>2011-08-03T10:47:39Z</time>
      </trkpt>
      <trkpt lat="44.51778" lon="3.79523">
        <ele>1251.77</ele>
        <time>2011-08-03T10:47:40Z</time>
      </trkpt>
      <trkpt lat="44.51781" lon="3.79518">
        <ele>1251.77</ele>
        <time>2011-08-03T10:47:41Z</time>
      </trkpt>
      <trkpt lat="44.51811" lon="3.79437">
        <ele>1251.77</ele>
        <time>2011-08-03T10:47:54Z</time>
      </trkpt>
      <trkpt lat="44.51812" lon="3.79433">
        <ele>1251.29</ele>
        <time>2011-08-03T10:47:56Z</time>
      </trkpt>
      <trkpt lat="44.51812" lon="3.79429">
        <ele>1251.77</ele>
        <time>2011-08-03T10:47:58Z</time>
      </trkpt>
      <trkpt lat="44.51814" lon="3.79419">
        <ele>1252.25</ele>
        <time>2011-08-03T10:48:04Z</time>
      </trkpt>
      <trkpt lat="44.51815" lon="3.79416">
        <ele>1252.25</ele>
        <time>2011-08-03T10:48:05Z</time>
      </trkpt>
      <trkpt lat="44.51815" lon="3.79414">
        <ele>1252.25</ele>
        <time>2011-08-03T10:48:06Z</time>
      </trkpt>
      <trkpt lat="44.51817" lon="3.79386">
        <ele>1254.66</ele>
        <time>2011-08-03T10:48:22Z</time>
      </trkpt>
      <trkpt lat="44.51816" lon="3.79365">
        <ele>1260.91</ele>
        <time>2011-08-03T10:48:35Z</time>
      </trkpt>
      <trkpt lat="44.51814" lon="3.79364">
        <ele>1261.87</ele>
        <time>2011-08-03T10:48:36Z</time>
      </trkpt>
      <trkpt lat="44.51811" lon="3.79361">
        <ele>1262.35</ele>
        <time>2011-08-03T10:48:39Z</time>
      </trkpt>
      <trkpt lat="44.5181" lon="3.7936">
        <ele>1262.35</ele>
        <time>2011-08-03T10:48:40Z</time>
      </trkpt>
      <trkpt lat="44.51806" lon="3.79359">
        <ele>1263.31</ele>
        <time>2011-08-03T10:48:44Z</time>
      </trkpt>
      <trkpt lat="44.51806" lon="3.7936">
        <ele>1263.31</ele>
        <time>2011-08-03T10:48:45Z</time>
      </trkpt>
      <trkpt lat="44.51804" lon="3.79361">
        <ele>1263.79</ele>
        <time>2011-08-03T10:48:46Z</time>
      </trkpt>
      <trkpt lat="44.51792" lon="3.79377">
        <ele>1265.23</ele>
        <time>2011-08-03T10:49:01Z</time>
      </trkpt>
      <trkpt lat="44.5178" lon="3.79393">
        <ele>1267.64</ele>
        <time>2011-08-03T10:49:13Z</time>
      </trkpt>
      <trkpt lat="44.51767" lon="3.79409">
        <ele>1268.6</ele>
        <time>2011-08-03T10:49:28Z</time>
      </trkpt>
      <trkpt lat="44.51758" lon="3.79415">
        <ele>1268.6</ele>
        <time>2011-08-03T10:49:36Z</time>
      </trkpt>
      <trkpt lat="44.51747" lon="3.79426">
        <ele>1267.64</ele>
        <time>2011-08-03T10:49:44Z</time>
      </trkpt>
      <trkpt lat="44.51727" lon="3.79447">
        <ele>1266.19</ele>
        <time>2011-08-03T10:49:59Z</time>
      </trkpt>
      <trkpt lat="44.51719" lon="3.79451">
        <ele>1267.16</ele>
        <time>2011-08-03T10:50:08Z</time>
      </trkpt>
      <trkpt lat="44.51719" lon="3.79449">
        <ele>1267.16</ele>
        <time>2011-08-03T10:50:09Z</time>
      </trkpt>
      <trkpt lat="44.5172" lon="3.79448">
        <ele>1267.16</ele>
        <time>2011-08-03T10:50:10Z</time>
      </trkpt>
      <trkpt lat="44.51721" lon="3.79446">
        <ele>1267.16</ele>
        <time>2011-08-03T10:50:11Z</time>
      </trkpt>
      <trkpt lat="44.51722" lon="3.79444">
        <ele>1267.16</ele>
        <time>2011-08-03T10:50:12Z</time>
      </trkpt>
      <trkpt lat="44.51723" lon="3.79443">
        <ele>1267.16</ele>
        <time>2011-08-03T10:50:13Z</time>
      </trkpt>
      <trkpt lat="44.51737" lon="3.79418">
        <ele>1268.6</ele>
        <time>2011-08-03T10:50:28Z</time>
      </trkpt>
      <trkpt lat="44.51754" lon="3.79386">
        <ele>1269.08</ele>
        <time>2011-08-03T10:50:44Z</time>
      </trkpt>
      <trkpt lat="44.51767" lon="3.79355">
        <ele>1268.12</ele>
        <time>2011-08-03T10:50:59Z</time>
      </trkpt>
      <trkpt lat="44.5178" lon="3.79321">
        <ele>1270.04</ele>
        <time>2011-08-03T10:51:13Z</time>
      </trkpt>
      <trkpt lat="44.51795" lon="3.79288">
        <ele>1268.6</ele>
        <time>2011-08-03T10:51:29Z</time>
      </trkpt>
      <trkpt lat="44.5181" lon="3.79256">
        <ele>1273.88</ele>
        <time>2011-08-03T10:51:43Z</time>
      </trkpt>
      <trkpt lat="44.51821" lon="3.79221">
        <ele>1277.73</ele>
        <time>2011-08-03T10:51:57Z</time>
      </trkpt>
      <trkpt lat="44.51835" lon="3.79182">
        <ele>1279.65</ele>
        <time>2011-08-03T10:52:12Z</time>
      </trkpt>
      <trkpt lat="44.51851" lon="3.7914">
        <ele>1280.61</ele>
        <time>2011-08-03T10:52:28Z</time>
      </trkpt>
      <trkpt lat="44.51862" lon="3.79099">
        <ele>1282.06</ele>
        <time>2011-08-03T10:52:44Z</time>
      </trkpt>
      <trkpt lat="44.51873" lon="3.7907">
        <ele>1285.42</ele>
        <time>2011-08-03T10:52:56Z</time>
      </trkpt>
      <trkpt lat="44.51876" lon="3.79037">
        <ele>1288.3</ele>
        <time>2011-08-03T10:53:10Z</time>
      </trkpt>
      <trkpt lat="44.51873" lon="3.79001">
        <ele>1290.23</ele>
        <time>2011-08-03T10:53:25Z</time>
      </trkpt>
      <trkpt lat="44.51865" lon="3.78965">
        <ele>1295.51</ele>
        <time>2011-08-03T10:53:41Z</time>
      </trkpt>
      <trkpt lat="44.51869" lon="3.78953">
        <ele>1297.44</ele>
        <time>2011-08-03T10:53:48Z</time>
      </trkpt>
      <trkpt lat="44.5187" lon="3.78952">
        <ele>1296.96</ele>
        <time>2011-08-03T10:53:49Z</time>
      </trkpt>
      <trkpt lat="44.51872" lon="3.7895">
        <ele>1296.96</ele>
        <time>2011-08-03T10:53:50Z</time>
      </trkpt>
      <trkpt lat="44.51874" lon="3.7895">
        <ele>1296.96</ele>
        <time>2011-08-03T10:53:51Z</time>
      </trkpt>
      <trkpt lat="44.51876" lon="3.7895">
        <ele>1296.96</ele>
        <time>2011-08-03T10:53:52Z</time>
      </trkpt>
      <trkpt lat="44.51878" lon="3.7895">
        <ele>1296.96</ele>
        <time>2011-08-03T10:53:53Z</time>
      </trkpt>
      <trkpt lat="44.5188" lon="3.78951">
        <ele>1296.96</ele>
        <time>2011-08-03T10:53:54Z</time>
      </trkpt>
      <trkpt lat="44.51902" lon="3.78961">
        <ele>1297.92</ele>
        <time>2011-08-03T10:54:08Z</time>
      </trkpt>
      <trkpt lat="44.51912" lon="3.78964">
        <ele>1298.88</ele>
        <time>2011-08-03T10:54:15Z</time>
      </trkpt>
      <trkpt lat="44.51914" lon="3.78963">
        <ele>1298.88</ele>
        <time>2011-08-03T10:54:16Z</time>
      </trkpt>
      <trkpt lat="44.51936" lon="3.78943">
        <ele>1299.84</ele>
        <time>2011-08-03T10:54:31Z</time>
      </trkpt>
      <trkpt lat="44.51955" lon="3.78919">
        <ele>1300.32</ele>
        <time>2011-08-03T10:54:46Z</time>
      </trkpt>
      <trkpt lat="44.51974" lon="3.78884">
        <ele>1302.72</ele>
        <time>2011-08-03T10:55:00Z</time>
      </trkpt>
      <trkpt lat="44.51991" lon="3.78847">
        <ele>1301.76</ele>
        <time>2011-08-03T10:55:15Z</time>
      </trkpt>
      <trkpt lat="44.52014" lon="3.78799">
        <ele>1304.17</ele>
        <time>2011-08-03T10:55:31Z</time>
      </trkpt>
      <trkpt lat="44.52031" lon="3.78756">
        <ele>1303.2</ele>
        <time>2011-08-03T10:55:46Z</time>
      </trkpt>
      <trkpt lat="44.52047" lon="3.78715">
        <ele>1300.8</ele>
        <time>2011-08-03T10:56:01Z</time>
      </trkpt>
      <trkpt lat="44.52059" lon="3.78678">
        <ele>1304.17</ele>
        <time>2011-08-03T10:56:14Z</time>
      </trkpt>
      <trkpt lat="44.52065" lon="3.78645">
        <ele>1306.57</ele>
        <time>2011-08-03T10:56:26Z</time>
      </trkpt>
      <trkpt lat="44.52076" lon="3.78607">
        <ele>1309.93</ele>
        <time>2011-08-03T10:56:41Z</time>
      </trkpt>
      <trkpt lat="44.52092" lon="3.78571">
        <ele>1310.9</ele>
        <time>2011-08-03T10:56:54Z</time>
      </trkpt>
      <trkpt lat="44.521" lon="3.78542">
        <ele>1306.57</ele>
        <time>2011-08-03T10:57:09Z</time>
      </trkpt>
      <trkpt lat="44.52102" lon="3.78509">
        <ele>1304.17</ele>
        <time>2011-08-03T10:57:23Z</time>
      </trkpt>
      <trkpt lat="44.52127" lon="3.78467">
        <ele>1307.53</ele>
        <time>2011-08-03T10:57:38Z</time>
      </trkpt>
      <trkpt lat="44.52142" lon="3.78423">
        <ele>1310.41</ele>
        <time>2011-08-03T10:57:54Z</time>
      </trkpt>
      <trkpt lat="44.52139" lon="3.78403">
        <ele>1316.18</ele>
        <time>2011-08-03T10:58:07Z</time>
      </trkpt>
      <trkpt lat="44.52125" lon="3.78428">
        <ele>1320.03</ele>
        <time>2011-08-03T10:58:23Z</time>
      </trkpt>
      <trkpt lat="44.5211" lon="3.7845">
        <ele>1321.47</ele>
        <time>2011-08-03T10:58:37Z</time>
      </trkpt>
      <trkpt lat="44.52093" lon="3.78479">
        <ele>1322.91</ele>
        <time>2011-08-03T10:58:53Z</time>
      </trkpt>
      <trkpt lat="44.52079" lon="3.78504">
        <ele>1325.8</ele>
        <time>2011-08-03T10:59:08Z</time>
      </trkpt>
      <trkpt lat="44.52061" lon="3.78524">
        <ele>1330.6</ele>
        <time>2011-08-03T10:59:23Z</time>
      </trkpt>
      <trkpt lat="44.5206" lon="3.78525">
        <ele>1331.08</ele>
        <time>2011-08-03T10:59:24Z</time>
      </trkpt>
      <trkpt lat="44.52059" lon="3.78526">
        <ele>1331.56</ele>
        <time>2011-08-03T10:59:25Z</time>
      </trkpt>
      <trkpt lat="44.52058" lon="3.78527">
        <ele>1332.04</ele>
        <time>2011-08-03T10:59:26Z</time>
      </trkpt>
      <trkpt lat="44.52057" lon="3.78528">
        <ele>1332.52</ele>
        <time>2011-08-03T10:59:27Z</time>
      </trkpt>
      <trkpt lat="44.52055" lon="3.78528">
        <ele>1332.52</ele>
        <time>2011-08-03T10:59:28Z</time>
      </trkpt>
      <trkpt lat="44.52055" lon="3.78529">
        <ele>1333.01</ele>
        <time>2011-08-03T10:59:29Z</time>
      </trkpt>
      <trkpt lat="44.52054" lon="3.7853">
        <ele>1333.01</ele>
        <time>2011-08-03T10:59:30Z</time>
      </trkpt>
      <trkpt lat="44.52036" lon="3.78548">
        <ele>1333.49</ele>
        <time>2011-08-03T10:59:44Z</time>
      </trkpt>
      <trkpt lat="44.52023" lon="3.78562">
        <ele>1335.89</ele>
        <time>2011-08-03T10:59:58Z</time>
      </trkpt>
      <trkpt lat="44.52004" lon="3.78583">
        <ele>1341.18</ele>
        <time>2011-08-03T11:00:14Z</time>
      </trkpt>
      <trkpt lat="44.52" lon="3.78592">
        <ele>1341.66</ele>
        <time>2011-08-03T11:00:20Z</time>
      </trkpt>
      <trkpt lat="44.51979" lon="3.78615">
        <ele>1343.58</ele>
        <time>2011-08-03T11:00:38Z</time>
      </trkpt>
      <trkpt lat="44.51967" lon="3.78624">
        <ele>1345.02</ele>
        <time>2011-08-03T11:00:47Z</time>
      </trkpt>
      <trkpt lat="44.51955" lon="3.78632">
        <ele>1346.94</ele>
        <time>2011-08-03T11:00:57Z</time>
      </trkpt>
      <trkpt lat="44.51954" lon="3.78634">
        <ele>1346.94</ele>
        <time>2011-08-03T11:00:58Z</time>
      </trkpt>
      <trkpt lat="44.51929" lon="3.7865">
        <ele>1350.31</ele>
        <time>2011-08-03T11:01:15Z</time>
      </trkpt>
      <trkpt lat="44.51905" lon="3.78664">
        <ele>1351.75</ele>
        <time>2011-08-03T11:01:31Z</time>
      </trkpt>
      <trkpt lat="44.51886" lon="3.78677">
        <ele>1354.15</ele>
        <time>2011-08-03T11:01:46Z</time>
      </trkpt>
      <trkpt lat="44.51882" lon="3.78682">
        <ele>1354.63</ele>
        <time>2011-08-03T11:01:50Z</time>
      </trkpt>
      <trkpt lat="44.5188" lon="3.78684">
        <ele>1354.63</ele>
        <time>2011-08-03T11:01:51Z</time>
      </trkpt>
      <trkpt lat="44.51878" lon="3.78685">
        <ele>1354.63</ele>
        <time>2011-08-03T11:01:52Z</time>
      </trkpt>
      <trkpt lat="44.51876" lon="3.78686">
        <ele>1354.15</ele>
        <time>2011-08-03T11:01:53Z</time>
      </trkpt>
      <trkpt lat="44.51875" lon="3.78686">
        <ele>1354.15</ele>
        <time>2011-08-03T11:01:54Z</time>
      </trkpt>
      <trkpt lat="44.51873" lon="3.78687">
        <ele>1354.15</ele>
        <time>2011-08-03T11:01:55Z</time>
      </trkpt>
      <trkpt lat="44.51871" lon="3.78687">
        <ele>1354.15</ele>
        <time>2011-08-03T11:01:56Z</time>
      </trkpt>
      <trkpt lat="44.51869" lon="3.78688">
        <ele>1354.15</ele>
        <time>2011-08-03T11:01:57Z</time>
      </trkpt>
      <trkpt lat="44.51867" lon="3.78689">
        <ele>1353.67</ele>
        <time>2011-08-03T11:01:58Z</time>
      </trkpt>
      <trkpt lat="44.51866" lon="3.78689">
        <ele>1353.67</ele>
        <time>2011-08-03T11:01:59Z</time>
      </trkpt>
      <trkpt lat="44.51864" lon="3.7869">
        <ele>1353.67</ele>
        <time>2011-08-03T11:02:00Z</time>
      </trkpt>
      <trkpt lat="44.51841" lon="3.78694">
        <ele>1350.31</ele>
        <time>2011-08-03T11:02:15Z</time>
      </trkpt>
      <trkpt lat="44.51816" lon="3.78695">
        <ele>1350.31</ele>
        <time>2011-08-03T11:02:29Z</time>
      </trkpt>
      <trkpt lat="44.5179" lon="3.78685">
        <ele>1350.31</ele>
        <time>2011-08-03T11:02:44Z</time>
      </trkpt>
      <trkpt lat="44.51769" lon="3.78678">
        <ele>1349.83</ele>
        <time>2011-08-03T11:02:56Z</time>
      </trkpt>
      <trkpt lat="44.51742" lon="3.78667">
        <ele>1347.43</ele>
        <time>2011-08-03T11:03:09Z</time>
      </trkpt>
      <trkpt lat="44.517" lon="3.78654">
        <ele>1348.39</ele>
        <time>2011-08-03T11:03:22Z</time>
      </trkpt>
      <trkpt lat="44.51656" lon="3.78649">
        <ele>1352.71</ele>
        <time>2011-08-03T11:03:37Z</time>
      </trkpt>
      <trkpt lat="44.5161" lon="3.78641">
        <ele>1355.6</ele>
        <time>2011-08-03T11:03:51Z</time>
      </trkpt>
      <trkpt lat="44.5158" lon="3.78634">
        <ele>1357.04</ele>
        <time>2011-08-03T11:04:04Z</time>
      </trkpt>
      <trkpt lat="44.51555" lon="3.78623">
        <ele>1358</ele>
        <time>2011-08-03T11:04:18Z</time>
      </trkpt>
      <trkpt lat="44.51516" lon="3.78604">
        <ele>1359.44</ele>
        <time>2011-08-03T11:04:33Z</time>
      </trkpt>
      <trkpt lat="44.51504" lon="3.78591">
        <ele>1358.96</ele>
        <time>2011-08-03T11:04:41Z</time>
      </trkpt>
      <trkpt lat="44.51503" lon="3.78591">
        <ele>1358.96</ele>
        <time>2011-08-03T11:04:42Z</time>
      </trkpt>
      <trkpt lat="44.51502" lon="3.78592">
        <ele>1358.96</ele>
        <time>2011-08-03T11:04:43Z</time>
      </trkpt>
      <trkpt lat="44.51501" lon="3.78594">
        <ele>1358.48</ele>
        <time>2011-08-03T11:04:44Z</time>
      </trkpt>
      <trkpt lat="44.515" lon="3.78595">
        <ele>1358.48</ele>
        <time>2011-08-03T11:04:45Z</time>
      </trkpt>
      <trkpt lat="44.515" lon="3.78597">
        <ele>1358.48</ele>
        <time>2011-08-03T11:04:46Z</time>
      </trkpt>
      <trkpt lat="44.51501" lon="3.78599">
        <ele>1358</ele>
        <time>2011-08-03T11:04:47Z</time>
      </trkpt>
      <trkpt lat="44.51502" lon="3.786">
        <ele>1358</ele>
        <time>2011-08-03T11:04:48Z</time>
      </trkpt>
      <trkpt lat="44.51503" lon="3.78601">
        <ele>1357.52</ele>
        <time>2011-08-03T11:04:49Z</time>
      </trkpt>
      <trkpt lat="44.51504" lon="3.78602">
        <ele>1357.52</ele>
        <time>2011-08-03T11:04:50Z</time>
      </trkpt>
      <trkpt lat="44.51509" lon="3.78603">
        <ele>1357.04</ele>
        <time>2011-08-03T11:05:03Z</time>
      </trkpt>
      <trkpt lat="44.5151" lon="3.78602">
        <ele>1357.04</ele>
        <time>2011-08-03T11:05:18Z</time>
      </trkpt>
      <trkpt lat="44.5151" lon="3.78602">
        <ele>1357.04</ele>
        <time>2011-08-03T11:05:30Z</time>
      </trkpt>
      <trkpt lat="44.51506" lon="3.78599">
        <ele>1355.12</ele>
        <time>2011-08-03T11:15:13Z</time>
      </trkpt>
      <trkpt lat="44.51507" lon="3.78598">
        <ele>1363.29</ele>
        <time>2011-08-03T11:15:30Z</time>
      </trkpt>
      <trkpt lat="44.51507" lon="3.78588">
        <ele>1359.44</ele>
        <time>2011-08-03T11:15:39Z</time>
      </trkpt>
      <trkpt lat="44.51508" lon="3.78586">
        <ele>1361.84</ele>
        <time>2011-08-03T11:15:52Z</time>
      </trkpt>
      <trkpt lat="44.51511" lon="3.78581">
        <ele>1361.84</ele>
        <time>2011-08-03T11:15:56Z</time>
      </trkpt>
      <trkpt lat="44.51526" lon="3.78561">
        <ele>1360.88</ele>
        <time>2011-08-03T11:16:09Z</time>
      </trkpt>
      <trkpt lat="44.51537" lon="3.78546">
        <ele>1361.36</ele>
        <time>2011-08-03T11:16:20Z</time>
      </trkpt>
      <trkpt lat="44.51535" lon="3.78548">
        <ele>1360.88</ele>
        <time>2011-08-03T11:16:22Z</time>
      </trkpt>
      <trkpt lat="44.5151" lon="3.78559">
        <ele>1361.84</ele>
        <time>2011-08-03T11:16:34Z</time>
      </trkpt>
      <trkpt lat="44.51493" lon="3.78498">
        <ele>1360.88</ele>
        <time>2011-08-03T11:16:47Z</time>
      </trkpt>
      <trkpt lat="44.51465" lon="3.78384">
        <ele>1356.08</ele>
        <time>2011-08-03T11:16:58Z</time>
      </trkpt>
      <trkpt lat="44.51442" lon="3.78315">
        <ele>1351.27</ele>
        <time>2011-08-03T11:17:09Z</time>
      </trkpt>
      <trkpt lat="44.51421" lon="3.78253">
        <ele>1346.94</ele>
        <time>2011-08-03T11:17:15Z</time>
      </trkpt>
      <trkpt lat="44.51417" lon="3.78245">
        <ele>1345.98</ele>
        <time>2011-08-03T11:17:16Z</time>
      </trkpt>
      <trkpt lat="44.5141" lon="3.78231">
        <ele>1343.58</ele>
        <time>2011-08-03T11:17:18Z</time>
      </trkpt>
      <trkpt lat="44.51405" lon="3.78227">
        <ele>1342.62</ele>
        <time>2011-08-03T11:17:19Z</time>
      </trkpt>
      <trkpt lat="44.51401" lon="3.78223">
        <ele>1341.18</ele>
        <time>2011-08-03T11:17:20Z</time>
      </trkpt>
      <trkpt lat="44.51396" lon="3.78219">
        <ele>1340.22</ele>
        <time>2011-08-03T11:17:21Z</time>
      </trkpt>
      <trkpt lat="44.5139" lon="3.78216">
        <ele>1339.25</ele>
        <time>2011-08-03T11:17:22Z</time>
      </trkpt>
      <trkpt lat="44.51384" lon="3.78214">
        <ele>1338.29</ele>
        <time>2011-08-03T11:17:23Z</time>
      </trkpt>
      <trkpt lat="44.51379" lon="3.78211">
        <ele>1337.81</ele>
        <time>2011-08-03T11:17:24Z</time>
      </trkpt>
      <trkpt lat="44.51374" lon="3.78208">
        <ele>1336.85</ele>
        <time>2011-08-03T11:17:25Z</time>
      </trkpt>
      <trkpt lat="44.51369" lon="3.78205">
        <ele>1336.37</ele>
        <time>2011-08-03T11:17:26Z</time>
      </trkpt>
      <trkpt lat="44.51322" lon="3.78171">
        <ele>1326.76</ele>
        <time>2011-08-03T11:17:39Z</time>
      </trkpt>
      <trkpt lat="44.51289" lon="3.78146">
        <ele>1318.59</ele>
        <time>2011-08-03T11:17:54Z</time>
      </trkpt>
      <trkpt lat="44.5126" lon="3.78123">
        <ele>1314.74</ele>
        <time>2011-08-03T11:18:06Z</time>
      </trkpt>
      <trkpt lat="44.51243" lon="3.78104">
        <ele>1313.78</ele>
        <time>2011-08-03T11:18:12Z</time>
      </trkpt>
      <trkpt lat="44.5124" lon="3.781">
        <ele>1313.3</ele>
        <time>2011-08-03T11:18:13Z</time>
      </trkpt>
      <trkpt lat="44.51229" lon="3.78087">
        <ele>1312.82</ele>
        <time>2011-08-03T11:18:16Z</time>
      </trkpt>
      <trkpt lat="44.51172" lon="3.78015">
        <ele>1308.49</ele>
        <time>2011-08-03T11:18:29Z</time>
      </trkpt>
      <trkpt lat="44.51152" lon="3.77984">
        <ele>1306.57</ele>
        <time>2011-08-03T11:18:33Z</time>
      </trkpt>
      <trkpt lat="44.51146" lon="3.77978">
        <ele>1306.09</ele>
        <time>2011-08-03T11:18:34Z</time>
      </trkpt>
      <trkpt lat="44.51139" lon="3.77973">
        <ele>1305.61</ele>
        <time>2011-08-03T11:18:35Z</time>
      </trkpt>
      <trkpt lat="44.51132" lon="3.77968">
        <ele>1305.13</ele>
        <time>2011-08-03T11:18:36Z</time>
      </trkpt>
      <trkpt lat="44.51125" lon="3.77964">
        <ele>1304.65</ele>
        <time>2011-08-03T11:18:37Z</time>
      </trkpt>
      <trkpt lat="44.51117" lon="3.77961">
        <ele>1304.17</ele>
        <time>2011-08-03T11:18:38Z</time>
      </trkpt>
      <trkpt lat="44.5111" lon="3.77959">
        <ele>1303.69</ele>
        <time>2011-08-03T11:18:39Z</time>
      </trkpt>
      <trkpt lat="44.51097" lon="3.77955">
        <ele>1300.8</ele>
        <time>2011-08-03T11:18:44Z</time>
      </trkpt>
      <trkpt lat="44.51096" lon="3.77953">
        <ele>1300.32</ele>
        <time>2011-08-03T11:18:45Z</time>
      </trkpt>
      <trkpt lat="44.51094" lon="3.77948">
        <ele>1299.84</ele>
        <time>2011-08-03T11:18:57Z</time>
      </trkpt>
      <trkpt lat="44.51094" lon="3.77948">
        <ele>1299.84</ele>
        <time>2011-08-03T11:19:26Z</time>
      </trkpt>
      <trkpt lat="44.51094" lon="3.77948">
        <ele>1299.36</ele>
        <time>2011-08-03T11:19:51Z</time>
      </trkpt>
      <trkpt lat="44.51093" lon="3.77947">
        <ele>1299.36</ele>
        <time>2011-08-03T11:19:52Z</time>
      </trkpt>
      <trkpt lat="44.5109" lon="3.77945">
        <ele>1298.88</ele>
        <time>2011-08-03T11:19:53Z</time>
      </trkpt>
      <trkpt lat="44.51088" lon="3.77942">
        <ele>1298.88</ele>
        <time>2011-08-03T11:19:54Z</time>
      </trkpt>
      <trkpt lat="44.51086" lon="3.77938">
        <ele>1298.4</ele>
        <time>2011-08-03T11:19:55Z</time>
      </trkpt>
      <trkpt lat="44.51084" lon="3.77934">
        <ele>1297.92</ele>
        <time>2011-08-03T11:19:56Z</time>
      </trkpt>
      <trkpt lat="44.51081" lon="3.77928">
        <ele>1297.44</ele>
        <time>2011-08-03T11:19:57Z</time>
      </trkpt>
      <trkpt lat="44.51078" lon="3.77922">
        <ele>1296.96</ele>
        <time>2011-08-03T11:19:58Z</time>
      </trkpt>
      <trkpt lat="44.51074" lon="3.77914">
        <ele>1295.99</ele>
        <time>2011-08-03T11:19:59Z</time>
      </trkpt>
      <trkpt lat="44.51019" lon="3.7781">
        <ele>1285.9</ele>
        <time>2011-08-03T11:20:10Z</time>
      </trkpt>
      <trkpt lat="44.51002" lon="3.77778">
        <ele>1281.09</ele>
        <time>2011-08-03T11:20:16Z</time>
      </trkpt>
      <trkpt lat="44.51002" lon="3.77778">
        <ele>1281.09</ele>
        <time>2011-08-03T11:20:17Z</time>
      </trkpt>
      <trkpt lat="44.51022" lon="3.77773">
        <ele>1280.13</ele>
        <time>2011-08-03T11:20:27Z</time>
      </trkpt>
      <trkpt lat="44.51023" lon="3.77773">
        <ele>1280.13</ele>
        <time>2011-08-03T11:20:28Z</time>
      </trkpt>
      <trkpt lat="44.51025" lon="3.77772">
        <ele>1280.13</ele>
        <time>2011-08-03T11:20:29Z</time>
      </trkpt>
      <trkpt lat="44.51027" lon="3.77771">
        <ele>1279.65</ele>
        <time>2011-08-03T11:20:30Z</time>
      </trkpt>
      <trkpt lat="44.51057" lon="3.77769">
        <ele>1275.33</ele>
        <time>2011-08-03T11:20:40Z</time>
      </trkpt>
      <trkpt lat="44.51072" lon="3.77764">
        <ele>1273.4</ele>
        <time>2011-08-03T11:20:46Z</time>
      </trkpt>
      <trkpt lat="44.51131" lon="3.77771">
        <ele>1271.96</ele>
        <time>2011-08-03T11:20:58Z</time>
      </trkpt>
      <trkpt lat="44.51184" lon="3.77781">
        <ele>1270.04</ele>
        <time>2011-08-03T11:21:09Z</time>
      </trkpt>
      <trkpt lat="44.51205" lon="3.77783">
        <ele>1267.64</ele>
        <time>2011-08-03T11:21:13Z</time>
      </trkpt>
      <trkpt lat="44.51223" lon="3.77783">
        <ele>1266.19</ele>
        <time>2011-08-03T11:21:16Z</time>
      </trkpt>
      <trkpt lat="44.5125" lon="3.77788">
        <ele>1262.35</ele>
        <time>2011-08-03T11:21:21Z</time>
      </trkpt>
      <trkpt lat="44.51256" lon="3.77789">
        <ele>1261.39</ele>
        <time>2011-08-03T11:21:22Z</time>
      </trkpt>
      <trkpt lat="44.51262" lon="3.77791">
        <ele>1260.43</ele>
        <time>2011-08-03T11:21:23Z</time>
      </trkpt>
      <trkpt lat="44.51267" lon="3.77794">
        <ele>1259.46</ele>
        <time>2011-08-03T11:21:24Z</time>
      </trkpt>
      <trkpt lat="44.51271" lon="3.77797">
        <ele>1258.98</ele>
        <time>2011-08-03T11:21:25Z</time>
      </trkpt>
      <trkpt lat="44.51273" lon="3.77797">
        <ele>1258.02</ele>
        <time>2011-08-03T11:21:26Z</time>
      </trkpt>
      <trkpt lat="44.51274" lon="3.77796">
        <ele>1257.06</ele>
        <time>2011-08-03T11:21:27Z</time>
      </trkpt>
      <trkpt lat="44.51274" lon="3.77793">
        <ele>1255.62</ele>
        <time>2011-08-03T11:21:28Z</time>
      </trkpt>
      <trkpt lat="44.51274" lon="3.77789">
        <ele>1254.66</ele>
        <time>2011-08-03T11:21:29Z</time>
      </trkpt>
      <trkpt lat="44.51273" lon="3.77784">
        <ele>1253.7</ele>
        <time>2011-08-03T11:21:30Z</time>
      </trkpt>
      <trkpt lat="44.51273" lon="3.77781">
        <ele>1252.74</ele>
        <time>2011-08-03T11:21:31Z</time>
      </trkpt>
      <trkpt lat="44.51272" lon="3.7778">
        <ele>1251.77</ele>
        <time>2011-08-03T11:21:32Z</time>
      </trkpt>
      <trkpt lat="44.51271" lon="3.77777">
        <ele>1250.33</ele>
        <time>2011-08-03T11:21:43Z</time>
      </trkpt>
      <trkpt lat="44.51271" lon="3.77777">
        <ele>1250.33</ele>
        <time>2011-08-03T11:22:11Z</time>
      </trkpt>
      <trkpt lat="44.51271" lon="3.77776">
        <ele>1250.33</ele>
        <time>2011-08-03T11:22:28Z</time>
      </trkpt>
      <trkpt lat="44.51272" lon="3.77774">
        <ele>1250.33</ele>
        <time>2011-08-03T11:22:44Z</time>
      </trkpt>
      <trkpt lat="44.51268" lon="3.77744">
        <ele>1248.89</ele>
        <time>2011-08-03T11:22:55Z</time>
      </trkpt>
      <trkpt lat="44.51264" lon="3.77727">
        <ele>1246.97</ele>
        <time>2011-08-03T11:22:58Z</time>
      </trkpt>
      <trkpt lat="44.51262" lon="3.77721">
        <ele>1246.49</ele>
        <time>2011-08-03T11:22:59Z</time>
      </trkpt>
      <trkpt lat="44.5126" lon="3.77713">
        <ele>1245.53</ele>
        <time>2011-08-03T11:23:00Z</time>
      </trkpt>
      <trkpt lat="44.51257" lon="3.77707">
        <ele>1244.56</ele>
        <time>2011-08-03T11:23:01Z</time>
      </trkpt>
      <trkpt lat="44.51255" lon="3.77701">
        <ele>1243.6</ele>
        <time>2011-08-03T11:23:02Z</time>
      </trkpt>
      <trkpt lat="44.51252" lon="3.77694">
        <ele>1242.64</ele>
        <time>2011-08-03T11:23:03Z</time>
      </trkpt>
      <trkpt lat="44.51249" lon="3.77688">
        <ele>1242.16</ele>
        <time>2011-08-03T11:23:04Z</time>
      </trkpt>
      <trkpt lat="44.51246" lon="3.77683">
        <ele>1241.2</ele>
        <time>2011-08-03T11:23:05Z</time>
      </trkpt>
      <trkpt lat="44.51243" lon="3.77679">
        <ele>1240.72</ele>
        <time>2011-08-03T11:23:06Z</time>
      </trkpt>
      <trkpt lat="44.51213" lon="3.77645">
        <ele>1237.83</ele>
        <time>2011-08-03T11:23:13Z</time>
      </trkpt>
      <trkpt lat="44.51205" lon="3.77633">
        <ele>1236.87</ele>
        <time>2011-08-03T11:23:15Z</time>
      </trkpt>
      <trkpt lat="44.51185" lon="3.77611">
        <ele>1234.47</ele>
        <time>2011-08-03T11:23:19Z</time>
      </trkpt>
      <trkpt lat="44.51181" lon="3.77606">
        <ele>1233.99</ele>
        <time>2011-08-03T11:23:20Z</time>
      </trkpt>
      <trkpt lat="44.51177" lon="3.77599">
        <ele>1233.03</ele>
        <time>2011-08-03T11:23:21Z</time>
      </trkpt>
      <trkpt lat="44.51149" lon="3.77566">
        <ele>1230.14</ele>
        <time>2011-08-03T11:23:26Z</time>
      </trkpt>
      <trkpt lat="44.5113" lon="3.77549">
        <ele>1228.7</ele>
        <time>2011-08-03T11:23:29Z</time>
      </trkpt>
      <trkpt lat="44.51116" lon="3.77541">
        <ele>1227.26</ele>
        <time>2011-08-03T11:23:31Z</time>
      </trkpt>
      <trkpt lat="44.51109" lon="3.77538">
        <ele>1226.78</ele>
        <time>2011-08-03T11:23:32Z</time>
      </trkpt>
      <trkpt lat="44.51101" lon="3.77535">
        <ele>1225.82</ele>
        <time>2011-08-03T11:23:33Z</time>
      </trkpt>
      <trkpt lat="44.51086" lon="3.77528">
        <ele>1224.38</ele>
        <time>2011-08-03T11:23:35Z</time>
      </trkpt>
      <trkpt lat="44.51079" lon="3.77525">
        <ele>1223.9</ele>
        <time>2011-08-03T11:23:36Z</time>
      </trkpt>
      <trkpt lat="44.51044" lon="3.77511">
        <ele>1221.01</ele>
        <time>2011-08-03T11:23:41Z</time>
      </trkpt>
      <trkpt lat="44.51032" lon="3.77504">
        <ele>1219.57</ele>
        <time>2011-08-03T11:23:43Z</time>
      </trkpt>
      <trkpt lat="44.51015" lon="3.7749">
        <ele>1218.13</ele>
        <time>2011-08-03T11:23:46Z</time>
      </trkpt>
      <trkpt lat="44.50988" lon="3.77457">
        <ele>1216.69</ele>
        <time>2011-08-03T11:23:52Z</time>
      </trkpt>
      <trkpt lat="44.50985" lon="3.77451">
        <ele>1216.21</ele>
        <time>2011-08-03T11:23:53Z</time>
      </trkpt>
      <trkpt lat="44.50982" lon="3.77445">
        <ele>1215.72</ele>
        <time>2011-08-03T11:23:54Z</time>
      </trkpt>
      <trkpt lat="44.50961" lon="3.77375">
        <ele>1211.88</ele>
        <time>2011-08-03T11:24:01Z</time>
      </trkpt>
      <trkpt lat="44.50938" lon="3.77227">
        <ele>1206.59</ele>
        <time>2011-08-03T11:24:13Z</time>
      </trkpt>
      <trkpt lat="44.50932" lon="3.77206">
        <ele>1205.63</ele>
        <time>2011-08-03T11:24:15Z</time>
      </trkpt>
      <trkpt lat="44.50929" lon="3.77195">
        <ele>1205.15</ele>
        <time>2011-08-03T11:24:16Z</time>
      </trkpt>
      <trkpt lat="44.50913" lon="3.77144">
        <ele>1202.75</ele>
        <time>2011-08-03T11:24:21Z</time>
      </trkpt>
      <trkpt lat="44.5091" lon="3.77136">
        <ele>1201.79</ele>
        <time>2011-08-03T11:24:22Z</time>
      </trkpt>
      <trkpt lat="44.50908" lon="3.77132">
        <ele>1201.79</ele>
        <time>2011-08-03T11:24:23Z</time>
      </trkpt>
      <trkpt lat="44.50906" lon="3.77131">
        <ele>1201.3</ele>
        <time>2011-08-03T11:24:24Z</time>
      </trkpt>
      <trkpt lat="44.50906" lon="3.77128">
        <ele>1200.82</ele>
        <time>2011-08-03T11:24:39Z</time>
      </trkpt>
      <trkpt lat="44.50906" lon="3.77128">
        <ele>1200.82</ele>
        <time>2011-08-03T11:25:01Z</time>
      </trkpt>
      <trkpt lat="44.50906" lon="3.77128">
        <ele>1200.34</ele>
        <time>2011-08-03T11:25:24Z</time>
      </trkpt>
      <trkpt lat="44.50906" lon="3.77128">
        <ele>1200.34</ele>
        <time>2011-08-03T11:25:50Z</time>
      </trkpt>
      <trkpt lat="44.50893" lon="3.77099">
        <ele>1197.94</ele>
        <time>2011-08-03T11:25:57Z</time>
      </trkpt>
      <trkpt lat="44.5087" lon="3.7706">
        <ele>1194.58</ele>
        <time>2011-08-03T11:26:02Z</time>
      </trkpt>
      <trkpt lat="44.50838" lon="3.77008">
        <ele>1189.29</ele>
        <time>2011-08-03T11:26:08Z</time>
      </trkpt>
      <trkpt lat="44.50831" lon="3.77001">
        <ele>1188.33</ele>
        <time>2011-08-03T11:26:09Z</time>
      </trkpt>
      <trkpt lat="44.50824" lon="3.76995">
        <ele>1187.37</ele>
        <time>2011-08-03T11:26:10Z</time>
      </trkpt>
      <trkpt lat="44.50816" lon="3.76989">
        <ele>1185.92</ele>
        <time>2011-08-03T11:26:11Z</time>
      </trkpt>
      <trkpt lat="44.50808" lon="3.76984">
        <ele>1184.48</ele>
        <time>2011-08-03T11:26:12Z</time>
      </trkpt>
      <trkpt lat="44.50706" lon="3.7692">
        <ele>1177.27</ele>
        <time>2011-08-03T11:26:24Z</time>
      </trkpt>
      <trkpt lat="44.5062" lon="3.76884">
        <ele>1174.39</ele>
        <time>2011-08-03T11:26:32Z</time>
      </trkpt>
      <trkpt lat="44.50528" lon="3.76864">
        <ele>1171.02</ele>
        <time>2011-08-03T11:26:41Z</time>
      </trkpt>
      <trkpt lat="44.50521" lon="3.76861">
        <ele>1170.54</ele>
        <time>2011-08-03T11:26:42Z</time>
      </trkpt>
      <trkpt lat="44.50515" lon="3.76858">
        <ele>1170.54</ele>
        <time>2011-08-03T11:26:43Z</time>
      </trkpt>
      <trkpt lat="44.50504" lon="3.76855">
        <ele>1169.58</ele>
        <time>2011-08-03T11:26:45Z</time>
      </trkpt>
      <trkpt lat="44.50498" lon="3.76855">
        <ele>1169.58</ele>
        <time>2011-08-03T11:26:46Z</time>
      </trkpt>
      <trkpt lat="44.50492" lon="3.76854">
        <ele>1169.1</ele>
        <time>2011-08-03T11:26:47Z</time>
      </trkpt>
      <trkpt lat="44.50486" lon="3.76854">
        <ele>1169.1</ele>
        <time>2011-08-03T11:26:48Z</time>
      </trkpt>
      <trkpt lat="44.5048" lon="3.76853">
        <ele>1168.62</ele>
        <time>2011-08-03T11:26:49Z</time>
      </trkpt>
      <trkpt lat="44.50474" lon="3.76852">
        <ele>1168.14</ele>
        <time>2011-08-03T11:26:50Z</time>
      </trkpt>
      <trkpt lat="44.50468" lon="3.76851">
        <ele>1168.14</ele>
        <time>2011-08-03T11:26:51Z</time>
      </trkpt>
      <trkpt lat="44.50462" lon="3.76848">
        <ele>1167.66</ele>
        <time>2011-08-03T11:26:52Z</time>
      </trkpt>
      <trkpt lat="44.50457" lon="3.76845">
        <ele>1167.18</ele>
        <time>2011-08-03T11:26:53Z</time>
      </trkpt>
      <trkpt lat="44.50448" lon="3.76839">
        <ele>1166.7</ele>
        <time>2011-08-03T11:26:55Z</time>
      </trkpt>
      <trkpt lat="44.50444" lon="3.76835">
        <ele>1166.7</ele>
        <time>2011-08-03T11:26:56Z</time>
      </trkpt>
      <trkpt lat="44.50406" lon="3.76806">
        <ele>1163.81</ele>
        <time>2011-08-03T11:27:03Z</time>
      </trkpt>
      <trkpt lat="44.50401" lon="3.76803">
        <ele>1163.33</ele>
        <time>2011-08-03T11:27:04Z</time>
      </trkpt>
      <trkpt lat="44.50396" lon="3.76799">
        <ele>1162.37</ele>
        <time>2011-08-03T11:27:05Z</time>
      </trkpt>
      <trkpt lat="44.50359" lon="3.76769">
        <ele>1157.08</ele>
        <time>2011-08-03T11:27:14Z</time>
      </trkpt>
      <trkpt lat="44.50351" lon="3.76765">
        <ele>1155.64</ele>
        <time>2011-08-03T11:27:16Z</time>
      </trkpt>
      <trkpt lat="44.50337" lon="3.76762">
        <ele>1154.68</ele>
        <time>2011-08-03T11:27:19Z</time>
      </trkpt>
      <trkpt lat="44.50332" lon="3.76762">
        <ele>1154.2</ele>
        <time>2011-08-03T11:27:20Z</time>
      </trkpt>
      <trkpt lat="44.50327" lon="3.76761">
        <ele>1153.72</ele>
        <time>2011-08-03T11:27:21Z</time>
      </trkpt>
      <trkpt lat="44.50261" lon="3.7675">
        <ele>1149.87</ele>
        <time>2011-08-03T11:27:34Z</time>
      </trkpt>
      <trkpt lat="44.50251" lon="3.76748">
        <ele>1148.91</ele>
        <time>2011-08-03T11:27:36Z</time>
      </trkpt>
      <trkpt lat="44.5022" lon="3.7674">
        <ele>1146.03</ele>
        <time>2011-08-03T11:27:42Z</time>
      </trkpt>
      <trkpt lat="44.5018" lon="3.76712">
        <ele>1140.26</ele>
        <time>2011-08-03T11:27:52Z</time>
      </trkpt>
      <trkpt lat="44.50152" lon="3.76679">
        <ele>1136.42</ele>
        <time>2011-08-03T11:28:05Z</time>
      </trkpt>
      <trkpt lat="44.50129" lon="3.7666">
        <ele>1138.82</ele>
        <time>2011-08-03T11:28:15Z</time>
      </trkpt>
      <trkpt lat="44.50102" lon="3.76658">
        <ele>1143.14</ele>
        <time>2011-08-03T11:28:29Z</time>
      </trkpt>
      <trkpt lat="44.50088" lon="3.76656">
        <ele>1145.55</ele>
        <time>2011-08-03T11:28:39Z</time>
      </trkpt>
      <trkpt lat="44.50087" lon="3.76656">
        <ele>1145.55</ele>
        <time>2011-08-03T11:28:40Z</time>
      </trkpt>
      <trkpt lat="44.50085" lon="3.76655">
        <ele>1145.55</ele>
        <time>2011-08-03T11:28:41Z</time>
      </trkpt>
      <trkpt lat="44.50068" lon="3.76651">
        <ele>1148.43</ele>
        <time>2011-08-03T11:28:55Z</time>
      </trkpt>
      <trkpt lat="44.50042" lon="3.76647">
        <ele>1150.35</ele>
        <time>2011-08-03T11:29:11Z</time>
      </trkpt>
      <trkpt lat="44.50019" lon="3.76642">
        <ele>1151.32</ele>
        <time>2011-08-03T11:29:25Z</time>
      </trkpt>
      <trkpt lat="44.50003" lon="3.7664">
        <ele>1152.76</ele>
        <time>2011-08-03T11:29:37Z</time>
      </trkpt>
      <trkpt lat="44.49988" lon="3.76638">
        <ele>1155.64</ele>
        <time>2011-08-03T11:29:48Z</time>
      </trkpt>
      <trkpt lat="44.49983" lon="3.76637">
        <ele>1156.12</ele>
        <time>2011-08-03T11:29:52Z</time>
      </trkpt>
      <trkpt lat="44.49958" lon="3.76633">
        <ele>1158.53</ele>
        <time>2011-08-03T11:30:11Z</time>
      </trkpt>
      <trkpt lat="44.49934" lon="3.76635">
        <ele>1161.89</ele>
        <time>2011-08-03T11:30:28Z</time>
      </trkpt>
      <trkpt lat="44.49913" lon="3.76637">
        <ele>1162.85</ele>
        <time>2011-08-03T11:30:43Z</time>
      </trkpt>
      <trkpt lat="44.49912" lon="3.76637">
        <ele>1162.85</ele>
        <time>2011-08-03T11:31:01Z</time>
      </trkpt>
      <trkpt lat="44.49912" lon="3.76637">
        <ele>1162.85</ele>
        <time>2011-08-03T11:31:32Z</time>
      </trkpt>
      <trkpt lat="44.49912" lon="3.76637">
        <ele>1162.85</ele>
        <time>2011-08-03T11:31:56Z</time>
      </trkpt>
      <trkpt lat="44.49912" lon="3.76637">
        <ele>1162.85</ele>
        <time>2011-08-03T11:32:24Z</time>
      </trkpt>
      <trkpt lat="44.49912" lon="3.76637">
        <ele>1162.85</ele>
        <time>2011-08-03T11:32:48Z</time>
      </trkpt>
      <trkpt lat="44.4991" lon="3.76636">
        <ele>1163.33</ele>
        <time>2011-08-03T11:33:12Z</time>
      </trkpt>
      <trkpt lat="44.49889" lon="3.76639">
        <ele>1165.26</ele>
        <time>2011-08-03T11:33:27Z</time>
      </trkpt>
      <trkpt lat="44.4986" lon="3.76643">
        <ele>1166.22</ele>
        <time>2011-08-03T11:33:42Z</time>
      </trkpt>
      <trkpt lat="44.4983" lon="3.76647">
        <ele>1168.14</ele>
        <time>2011-08-03T11:33:58Z</time>
      </trkpt>
      <trkpt lat="44.49801" lon="3.76657">
        <ele>1170.06</ele>
        <time>2011-08-03T11:34:14Z</time>
      </trkpt>
      <trkpt lat="44.49778" lon="3.7666">
        <ele>1171.98</ele>
        <time>2011-08-03T11:34:29Z</time>
      </trkpt>
      <trkpt lat="44.49756" lon="3.76661">
        <ele>1174.39</ele>
        <time>2011-08-03T11:34:45Z</time>
      </trkpt>
      <trkpt lat="44.49753" lon="3.7666">
        <ele>1174.39</ele>
        <time>2011-08-03T11:34:47Z</time>
      </trkpt>
      <trkpt lat="44.49734" lon="3.76661">
        <ele>1176.31</ele>
        <time>2011-08-03T11:35:01Z</time>
      </trkpt>
      <trkpt lat="44.4971" lon="3.76658">
        <ele>1177.27</ele>
        <time>2011-08-03T11:35:16Z</time>
      </trkpt>
      <trkpt lat="44.49695" lon="3.76645">
        <ele>1178.23</ele>
        <time>2011-08-03T11:35:26Z</time>
      </trkpt>
      <trkpt lat="44.49691" lon="3.76636">
        <ele>1179.67</ele>
        <time>2011-08-03T11:35:33Z</time>
      </trkpt>
      <trkpt lat="44.49694" lon="3.76631">
        <ele>1180.64</ele>
        <time>2011-08-03T11:35:50Z</time>
      </trkpt>
      <trkpt lat="44.49694" lon="3.76631">
        <ele>1180.64</ele>
        <time>2011-08-03T11:36:15Z</time>
      </trkpt>
      <trkpt lat="44.49694" lon="3.76631">
        <ele>1180.16</ele>
        <time>2011-08-03T11:36:44Z</time>
      </trkpt>
      <trkpt lat="44.49695" lon="3.7663">
        <ele>1180.16</ele>
        <time>2011-08-03T11:36:47Z</time>
      </trkpt>
      <trkpt lat="44.49718" lon="3.76613">
        <ele>1180.64</ele>
        <time>2011-08-03T11:37:01Z</time>
      </trkpt>
      <trkpt lat="44.49741" lon="3.76589">
        <ele>1182.08</ele>
        <time>2011-08-03T11:37:15Z</time>
      </trkpt>
      <trkpt lat="44.49758" lon="3.76567">
        <ele>1184</ele>
        <time>2011-08-03T11:37:28Z</time>
      </trkpt>
      <trkpt lat="44.49781" lon="3.76536">
        <ele>1185.44</ele>
        <time>2011-08-03T11:37:46Z</time>
      </trkpt>
      <trkpt lat="44.49791" lon="3.76501">
        <ele>1186.88</ele>
        <time>2011-08-03T11:38:02Z</time>
      </trkpt>
      <trkpt lat="44.49805" lon="3.76467">
        <ele>1187.85</ele>
        <time>2011-08-03T11:38:19Z</time>
      </trkpt>
      <trkpt lat="44.49825" lon="3.76441">
        <ele>1189.77</ele>
        <time>2011-08-03T11:38:34Z</time>
      </trkpt>
      <trkpt lat="44.49851" lon="3.76411">
        <ele>1190.73</ele>
        <time>2011-08-03T11:38:49Z</time>
      </trkpt>
      <trkpt lat="44.49875" lon="3.76368">
        <ele>1191.69</ele>
        <time>2011-08-03T11:39:03Z</time>
      </trkpt>
      <trkpt lat="44.49891" lon="3.7631">
        <ele>1193.61</ele>
        <time>2011-08-03T11:39:18Z</time>
      </trkpt>
      <trkpt lat="44.49897" lon="3.76244">
        <ele>1196.02</ele>
        <time>2011-08-03T11:39:33Z</time>
      </trkpt>
      <trkpt lat="44.4989" lon="3.76172">
        <ele>1198.9</ele>
        <time>2011-08-03T11:39:48Z</time>
      </trkpt>
      <trkpt lat="44.49891" lon="3.76107">
        <ele>1200.34</ele>
        <time>2011-08-03T11:40:02Z</time>
      </trkpt>
      <trkpt lat="44.49893" lon="3.76067">
        <ele>1199.86</ele>
        <time>2011-08-03T11:40:14Z</time>
      </trkpt>
      <trkpt lat="44.49896" lon="3.76041">
        <ele>1197.94</ele>
        <time>2011-08-03T11:40:27Z</time>
      </trkpt>
      <trkpt lat="44.49894" lon="3.76022">
        <ele>1196.5</ele>
        <time>2011-08-03T11:40:35Z</time>
      </trkpt>
      <trkpt lat="44.49895" lon="3.7602">
        <ele>1196.5</ele>
        <time>2011-08-03T11:40:36Z</time>
      </trkpt>
      <trkpt lat="44.49899" lon="3.75989">
        <ele>1196.02</ele>
        <time>2011-08-03T11:40:49Z</time>
      </trkpt>
      <trkpt lat="44.49899" lon="3.75987">
        <ele>1196.02</ele>
        <time>2011-08-03T11:40:50Z</time>
      </trkpt>
      <trkpt lat="44.49898" lon="3.75985">
        <ele>1196.02</ele>
        <time>2011-08-03T11:40:51Z</time>
      </trkpt>
      <trkpt lat="44.49897" lon="3.75983">
        <ele>1196.02</ele>
        <time>2011-08-03T11:40:52Z</time>
      </trkpt>
      <trkpt lat="44.49897" lon="3.75981">
        <ele>1196.02</ele>
        <time>2011-08-03T11:41:05Z</time>
      </trkpt>
      <trkpt lat="44.49897" lon="3.75981">
        <ele>1196.02</ele>
        <time>2011-08-03T11:41:38Z</time>
      </trkpt>
      <trkpt lat="44.49897" lon="3.75981">
        <ele>1196.02</ele>
        <time>2011-08-03T11:42:03Z</time>
      </trkpt>
      <trkpt lat="44.49897" lon="3.75981">
        <ele>1195.54</ele>
        <time>2011-08-03T11:42:24Z</time>
      </trkpt>
      <trkpt lat="44.49898" lon="3.75979">
        <ele>1196.02</ele>
        <time>2011-08-03T11:42:28Z</time>
      </trkpt>
      <trkpt lat="44.49899" lon="3.75977">
        <ele>1196.02</ele>
        <time>2011-08-03T11:42:29Z</time>
      </trkpt>
      <trkpt lat="44.49899" lon="3.75975">
        <ele>1196.02</ele>
        <time>2011-08-03T11:42:30Z</time>
      </trkpt>
      <trkpt lat="44.49915" lon="3.75933">
        <ele>1195.06</ele>
        <time>2011-08-03T11:42:41Z</time>
      </trkpt>
      <trkpt lat="44.49951" lon="3.75884">
        <ele>1191.69</ele>
        <time>2011-08-03T11:42:53Z</time>
      </trkpt>
      <trkpt lat="44.49967" lon="3.75871">
        <ele>1190.73</ele>
        <time>2011-08-03T11:42:56Z</time>
      </trkpt>
      <trkpt lat="44.49973" lon="3.75869">
        <ele>1190.73</ele>
        <time>2011-08-03T11:42:57Z</time>
      </trkpt>
      <trkpt lat="44.4998" lon="3.75868">
        <ele>1190.25</ele>
        <time>2011-08-03T11:42:58Z</time>
      </trkpt>
      <trkpt lat="44.49987" lon="3.75869">
        <ele>1189.77</ele>
        <time>2011-08-03T11:42:59Z</time>
      </trkpt>
      <trkpt lat="44.49994" lon="3.7587">
        <ele>1189.29</ele>
        <time>2011-08-03T11:43:00Z</time>
      </trkpt>
      <trkpt lat="44.5001" lon="3.75871">
        <ele>1188.33</ele>
        <time>2011-08-03T11:43:02Z</time>
      </trkpt>
      <trkpt lat="44.50017" lon="3.7587">
        <ele>1187.85</ele>
        <time>2011-08-03T11:43:03Z</time>
      </trkpt>
      <trkpt lat="44.50025" lon="3.75868">
        <ele>1186.88</ele>
        <time>2011-08-03T11:43:04Z</time>
      </trkpt>
      <trkpt lat="44.50033" lon="3.75864">
        <ele>1186.4</ele>
        <time>2011-08-03T11:43:05Z</time>
      </trkpt>
      <trkpt lat="44.5004" lon="3.75858">
        <ele>1185.92</ele>
        <time>2011-08-03T11:43:06Z</time>
      </trkpt>
      <trkpt lat="44.50046" lon="3.75851">
        <ele>1185.44</ele>
        <time>2011-08-03T11:43:07Z</time>
      </trkpt>
      <trkpt lat="44.50051" lon="3.75842">
        <ele>1184.96</ele>
        <time>2011-08-03T11:43:08Z</time>
      </trkpt>
      <trkpt lat="44.50056" lon="3.75833">
        <ele>1184</ele>
        <time>2011-08-03T11:43:09Z</time>
      </trkpt>
      <trkpt lat="44.50063" lon="3.75817">
        <ele>1182.56</ele>
        <time>2011-08-03T11:43:11Z</time>
      </trkpt>
      <trkpt lat="44.50066" lon="3.75809">
        <ele>1182.08</ele>
        <time>2011-08-03T11:43:12Z</time>
      </trkpt>
      <trkpt lat="44.50069" lon="3.75799">
        <ele>1181.6</ele>
        <time>2011-08-03T11:43:13Z</time>
      </trkpt>
      <trkpt lat="44.50083" lon="3.75726">
        <ele>1177.75</ele>
        <time>2011-08-03T11:43:20Z</time>
      </trkpt>
      <trkpt lat="44.50088" lon="3.75708">
        <ele>1176.31</ele>
        <time>2011-08-03T11:43:22Z</time>
      </trkpt>
      <trkpt lat="44.5009" lon="3.75692">
        <ele>1175.35</ele>
        <time>2011-08-03T11:43:24Z</time>
      </trkpt>
      <trkpt lat="44.50092" lon="3.75685">
        <ele>1174.87</ele>
        <time>2011-08-03T11:43:25Z</time>
      </trkpt>
      <trkpt lat="44.50095" lon="3.75674">
        <ele>1173.91</ele>
        <time>2011-08-03T11:43:27Z</time>
      </trkpt>
      <trkpt lat="44.50095" lon="3.75667">
        <ele>1173.43</ele>
        <time>2011-08-03T11:43:28Z</time>
      </trkpt>
      <trkpt lat="44.50093" lon="3.75661">
        <ele>1172.47</ele>
        <time>2011-08-03T11:43:29Z</time>
      </trkpt>
      <trkpt lat="44.50088" lon="3.75656">
        <ele>1171.98</ele>
        <time>2011-08-03T11:43:30Z</time>
      </trkpt>
      <trkpt lat="44.50083" lon="3.75654">
        <ele>1171.98</ele>
        <time>2011-08-03T11:43:31Z</time>
      </trkpt>
      <trkpt lat="44.50079" lon="3.75652">
        <ele>1171.98</ele>
        <time>2011-08-03T11:43:32Z</time>
      </trkpt>
      <trkpt lat="44.50076" lon="3.7565">
        <ele>1171.98</ele>
        <time>2011-08-03T11:43:33Z</time>
      </trkpt>
      <trkpt lat="44.50073" lon="3.75646">
        <ele>1171.5</ele>
        <time>2011-08-03T11:43:34Z</time>
      </trkpt>
      <trkpt lat="44.50071" lon="3.7564">
        <ele>1171.5</ele>
        <time>2011-08-03T11:43:35Z</time>
      </trkpt>
      <trkpt lat="44.5007" lon="3.75633">
        <ele>1171.02</ele>
        <time>2011-08-03T11:43:36Z</time>
      </trkpt>
      <trkpt lat="44.50066" lon="3.75608">
        <ele>1170.06</ele>
        <time>2011-08-03T11:43:39Z</time>
      </trkpt>
      <trkpt lat="44.50063" lon="3.75601">
        <ele>1169.58</ele>
        <time>2011-08-03T11:43:40Z</time>
      </trkpt>
      <trkpt lat="44.5006" lon="3.75596">
        <ele>1169.1</ele>
        <time>2011-08-03T11:43:41Z</time>
      </trkpt>
      <trkpt lat="44.50054" lon="3.75591">
        <ele>1168.62</ele>
        <time>2011-08-03T11:43:42Z</time>
      </trkpt>
      <trkpt lat="44.50047" lon="3.75586">
        <ele>1168.14</ele>
        <time>2011-08-03T11:43:43Z</time>
      </trkpt>
      <trkpt lat="44.5004" lon="3.75582">
        <ele>1167.18</ele>
        <time>2011-08-03T11:43:44Z</time>
      </trkpt>
      <trkpt lat="44.50003" lon="3.75554">
        <ele>1165.26</ele>
        <time>2011-08-03T11:43:50Z</time>
      </trkpt>
      <trkpt lat="44.49993" lon="3.75542">
        <ele>1164.29</ele>
        <time>2011-08-03T11:43:52Z</time>
      </trkpt>
      <trkpt lat="44.49989" lon="3.75535">
        <ele>1164.29</ele>
        <time>2011-08-03T11:43:53Z</time>
      </trkpt>
      <trkpt lat="44.49985" lon="3.75528">
        <ele>1163.81</ele>
        <time>2011-08-03T11:43:54Z</time>
      </trkpt>
      <trkpt lat="44.49983" lon="3.75521">
        <ele>1163.81</ele>
        <time>2011-08-03T11:43:55Z</time>
      </trkpt>
      <trkpt lat="44.49981" lon="3.75513">
        <ele>1163.81</ele>
        <time>2011-08-03T11:43:56Z</time>
      </trkpt>
      <trkpt lat="44.49981" lon="3.75505">
        <ele>1163.33</ele>
        <time>2011-08-03T11:43:57Z</time>
      </trkpt>
      <trkpt lat="44.4998" lon="3.75498">
        <ele>1163.33</ele>
        <time>2011-08-03T11:43:58Z</time>
      </trkpt>
      <trkpt lat="44.4998" lon="3.75491">
        <ele>1163.33</ele>
        <time>2011-08-03T11:43:59Z</time>
      </trkpt>
      <trkpt lat="44.4998" lon="3.75435">
        <ele>1162.37</ele>
        <time>2011-08-03T11:44:09Z</time>
      </trkpt>
      <trkpt lat="44.49987" lon="3.75394">
        <ele>1160.45</ele>
        <time>2011-08-03T11:44:15Z</time>
      </trkpt>
      <trkpt lat="44.49991" lon="3.7538">
        <ele>1159.49</ele>
        <time>2011-08-03T11:44:17Z</time>
      </trkpt>
      <trkpt lat="44.49999" lon="3.75356">
        <ele>1158.53</ele>
        <time>2011-08-03T11:44:20Z</time>
      </trkpt>
      <trkpt lat="44.50001" lon="3.7534">
        <ele>1158.05</ele>
        <time>2011-08-03T11:44:22Z</time>
      </trkpt>
      <trkpt lat="44.50001" lon="3.75332">
        <ele>1157.56</ele>
        <time>2011-08-03T11:44:23Z</time>
      </trkpt>
      <trkpt lat="44.49997" lon="3.75317">
        <ele>1156.6</ele>
        <time>2011-08-03T11:44:25Z</time>
      </trkpt>
      <trkpt lat="44.49994" lon="3.75311">
        <ele>1156.12</ele>
        <time>2011-08-03T11:44:26Z</time>
      </trkpt>
      <trkpt lat="44.4999" lon="3.75306">
        <ele>1156.12</ele>
        <time>2011-08-03T11:44:27Z</time>
      </trkpt>
      <trkpt lat="44.49986" lon="3.75301">
        <ele>1156.12</ele>
        <time>2011-08-03T11:44:28Z</time>
      </trkpt>
      <trkpt lat="44.49983" lon="3.75297">
        <ele>1156.12</ele>
        <time>2011-08-03T11:44:29Z</time>
      </trkpt>
      <trkpt lat="44.49938" lon="3.75248">
        <ele>1157.08</ele>
        <time>2011-08-03T11:44:42Z</time>
      </trkpt>
      <trkpt lat="44.49902" lon="3.7524">
        <ele>1157.08</ele>
        <time>2011-08-03T11:44:51Z</time>
      </trkpt>
      <trkpt lat="44.49898" lon="3.7524">
        <ele>1157.08</ele>
        <time>2011-08-03T11:44:52Z</time>
      </trkpt>
      <trkpt lat="44.49841" lon="3.75252">
        <ele>1160.45</ele>
        <time>2011-08-03T11:45:07Z</time>
      </trkpt>
      <trkpt lat="44.49838" lon="3.75251">
        <ele>1160.93</ele>
        <time>2011-08-03T11:45:08Z</time>
      </trkpt>
      <trkpt lat="44.49817" lon="3.75236">
        <ele>1163.81</ele>
        <time>2011-08-03T11:45:20Z</time>
      </trkpt>
      <trkpt lat="44.49804" lon="3.75221">
        <ele>1164.29</ele>
        <time>2011-08-03T11:45:30Z</time>
      </trkpt>
      <trkpt lat="44.49791" lon="3.752">
        <ele>1164.29</ele>
        <time>2011-08-03T11:45:44Z</time>
      </trkpt>
      <trkpt lat="44.49773" lon="3.75165">
        <ele>1164.77</ele>
        <time>2011-08-03T11:45:59Z</time>
      </trkpt>
      <trkpt lat="44.49752" lon="3.75146">
        <ele>1163.33</ele>
        <time>2011-08-03T11:46:13Z</time>
      </trkpt>
      <trkpt lat="44.49751" lon="3.75144">
        <ele>1163.81</ele>
        <time>2011-08-03T11:46:14Z</time>
      </trkpt>
      <trkpt lat="44.4975" lon="3.75142">
        <ele>1163.33</ele>
        <time>2011-08-03T11:46:15Z</time>
      </trkpt>
      <trkpt lat="44.49736" lon="3.75124">
        <ele>1161.89</ele>
        <time>2011-08-03T11:46:28Z</time>
      </trkpt>
      <trkpt lat="44.49731" lon="3.75109">
        <ele>1161.89</ele>
        <time>2011-08-03T11:46:39Z</time>
      </trkpt>
      <trkpt lat="44.49731" lon="3.75108">
        <ele>1161.89</ele>
        <time>2011-08-03T11:46:56Z</time>
      </trkpt>
      <trkpt lat="44.49729" lon="3.75095">
        <ele>1160.93</ele>
        <time>2011-08-03T11:47:17Z</time>
      </trkpt>
      <trkpt lat="44.49722" lon="3.75045">
        <ele>1159.97</ele>
        <time>2011-08-03T11:47:26Z</time>
      </trkpt>
      <trkpt lat="44.4972" lon="3.75038">
        <ele>1159.49</ele>
        <time>2011-08-03T11:47:27Z</time>
      </trkpt>
      <trkpt lat="44.49716" lon="3.7503">
        <ele>1159.01</ele>
        <time>2011-08-03T11:47:28Z</time>
      </trkpt>
      <trkpt lat="44.49711" lon="3.75022">
        <ele>1159.01</ele>
        <time>2011-08-03T11:47:29Z</time>
      </trkpt>
      <trkpt lat="44.49706" lon="3.75014">
        <ele>1158.05</ele>
        <time>2011-08-03T11:47:30Z</time>
      </trkpt>
      <trkpt lat="44.49618" lon="3.74923">
        <ele>1149.87</ele>
        <time>2011-08-03T11:47:43Z</time>
      </trkpt>
      <trkpt lat="44.49537" lon="3.74827">
        <ele>1142.18</ele>
        <time>2011-08-03T11:47:57Z</time>
      </trkpt>
      <trkpt lat="44.49515" lon="3.74794">
        <ele>1140.26</ele>
        <time>2011-08-03T11:48:02Z</time>
      </trkpt>
      <trkpt lat="44.49505" lon="3.74774">
        <ele>1139.3</ele>
        <time>2011-08-03T11:48:05Z</time>
      </trkpt>
      <trkpt lat="44.4948" lon="3.74737">
        <ele>1136.9</ele>
        <time>2011-08-03T11:48:11Z</time>
      </trkpt>
      <trkpt lat="44.49465" lon="3.74718">
        <ele>1135.45</ele>
        <time>2011-08-03T11:48:14Z</time>
      </trkpt>
      <trkpt lat="44.49459" lon="3.74713">
        <ele>1134.97</ele>
        <time>2011-08-03T11:48:15Z</time>
      </trkpt>
      <trkpt lat="44.49452" lon="3.74708">
        <ele>1134.49</ele>
        <time>2011-08-03T11:48:16Z</time>
      </trkpt>
      <trkpt lat="44.49427" lon="3.74683">
        <ele>1132.57</ele>
        <time>2011-08-03T11:48:20Z</time>
      </trkpt>
      <trkpt lat="44.49422" lon="3.74674">
        <ele>1132.09</ele>
        <time>2011-08-03T11:48:21Z</time>
      </trkpt>
      <trkpt lat="44.49417" lon="3.74664">
        <ele>1131.13</ele>
        <time>2011-08-03T11:48:22Z</time>
      </trkpt>
      <trkpt lat="44.49413" lon="3.74654">
        <ele>1130.65</ele>
        <time>2011-08-03T11:48:23Z</time>
      </trkpt>
      <trkpt lat="44.4941" lon="3.74643">
        <ele>1129.69</ele>
        <time>2011-08-03T11:48:24Z</time>
      </trkpt>
      <trkpt lat="44.49395" lon="3.74599">
        <ele>1127.28</ele>
        <time>2011-08-03T11:48:28Z</time>
      </trkpt>
      <trkpt lat="44.49368" lon="3.74528">
        <ele>1123.44</ele>
        <time>2011-08-03T11:48:34Z</time>
      </trkpt>
      <trkpt lat="44.49358" lon="3.74494">
        <ele>1121.52</ele>
        <time>2011-08-03T11:48:37Z</time>
      </trkpt>
      <trkpt lat="44.49354" lon="3.74485">
        <ele>1120.55</ele>
        <time>2011-08-03T11:48:38Z</time>
      </trkpt>
      <trkpt lat="44.49349" lon="3.74478">
        <ele>1119.59</ele>
        <time>2011-08-03T11:48:39Z</time>
      </trkpt>
      <trkpt lat="44.49344" lon="3.7447">
        <ele>1119.11</ele>
        <time>2011-08-03T11:48:40Z</time>
      </trkpt>
      <trkpt lat="44.4934" lon="3.74462">
        <ele>1118.15</ele>
        <time>2011-08-03T11:48:41Z</time>
      </trkpt>
      <trkpt lat="44.49314" lon="3.74404">
        <ele>1112.86</ele>
        <time>2011-08-03T11:48:49Z</time>
      </trkpt>
      <trkpt lat="44.49311" lon="3.74397">
        <ele>1112.86</ele>
        <time>2011-08-03T11:48:50Z</time>
      </trkpt>
      <trkpt lat="44.49305" lon="3.74383">
        <ele>1112.38</ele>
        <time>2011-08-03T11:48:52Z</time>
      </trkpt>
      <trkpt lat="44.493" lon="3.74378">
        <ele>1111.9</ele>
        <time>2011-08-03T11:48:53Z</time>
      </trkpt>
      <trkpt lat="44.49297" lon="3.74372">
        <ele>1111.9</ele>
        <time>2011-08-03T11:48:54Z</time>
      </trkpt>
      <trkpt lat="44.49293" lon="3.74367">
        <ele>1111.42</ele>
        <time>2011-08-03T11:48:55Z</time>
      </trkpt>
      <trkpt lat="44.49291" lon="3.74363">
        <ele>1111.42</ele>
        <time>2011-08-03T11:48:56Z</time>
      </trkpt>
      <trkpt lat="44.49289" lon="3.74361">
        <ele>1111.42</ele>
        <time>2011-08-03T11:48:57Z</time>
      </trkpt>
      <trkpt lat="44.49288" lon="3.74359">
        <ele>1110.94</ele>
        <time>2011-08-03T11:48:58Z</time>
      </trkpt>
      <trkpt lat="44.49286" lon="3.74357">
        <ele>1110.94</ele>
        <time>2011-08-03T11:48:59Z</time>
      </trkpt>
      <trkpt lat="44.49284" lon="3.74355">
        <ele>1110.94</ele>
        <time>2011-08-03T11:49:00Z</time>
      </trkpt>
      <trkpt lat="44.49281" lon="3.74354">
        <ele>1110.94</ele>
        <time>2011-08-03T11:49:01Z</time>
      </trkpt>
      <trkpt lat="44.49277" lon="3.74352">
        <ele>1110.94</ele>
        <time>2011-08-03T11:49:02Z</time>
      </trkpt>
      <trkpt lat="44.49273" lon="3.74349">
        <ele>1111.42</ele>
        <time>2011-08-03T11:49:03Z</time>
      </trkpt>
      <trkpt lat="44.4927" lon="3.74345">
        <ele>1110.94</ele>
        <time>2011-08-03T11:49:04Z</time>
      </trkpt>
      <trkpt lat="44.49266" lon="3.74341">
        <ele>1110.46</ele>
        <time>2011-08-03T11:49:05Z</time>
      </trkpt>
      <trkpt lat="44.49263" lon="3.74337">
        <ele>1110.46</ele>
        <time>2011-08-03T11:49:06Z</time>
      </trkpt>
      <trkpt lat="44.49254" lon="3.74323">
        <ele>1109.02</ele>
        <time>2011-08-03T11:49:09Z</time>
      </trkpt>
      <trkpt lat="44.49248" lon="3.74312">
        <ele>1107.58</ele>
        <time>2011-08-03T11:49:11Z</time>
      </trkpt>
      <trkpt lat="44.49245" lon="3.74308">
        <ele>1107.1</ele>
        <time>2011-08-03T11:49:12Z</time>
      </trkpt>
      <trkpt lat="44.49238" lon="3.74298">
        <ele>1106.13</ele>
        <time>2011-08-03T11:49:14Z</time>
      </trkpt>
      <trkpt lat="44.49235" lon="3.74292">
        <ele>1105.65</ele>
        <time>2011-08-03T11:49:15Z</time>
      </trkpt>
      <trkpt lat="44.4923" lon="3.7428">
        <ele>1105.17</ele>
        <time>2011-08-03T11:49:17Z</time>
      </trkpt>
      <trkpt lat="44.49227" lon="3.74275">
        <ele>1104.69</ele>
        <time>2011-08-03T11:49:18Z</time>
      </trkpt>
      <trkpt lat="44.49219" lon="3.74266">
        <ele>1103.73</ele>
        <time>2011-08-03T11:49:20Z</time>
      </trkpt>
      <trkpt lat="44.49215" lon="3.74261">
        <ele>1102.77</ele>
        <time>2011-08-03T11:49:21Z</time>
      </trkpt>
      <trkpt lat="44.49211" lon="3.74255">
        <ele>1102.29</ele>
        <time>2011-08-03T11:49:22Z</time>
      </trkpt>
      <trkpt lat="44.49201" lon="3.74236">
        <ele>1100.85</ele>
        <time>2011-08-03T11:49:25Z</time>
      </trkpt>
      <trkpt lat="44.49198" lon="3.74229">
        <ele>1099.89</ele>
        <time>2011-08-03T11:49:26Z</time>
      </trkpt>
      <trkpt lat="44.49192" lon="3.74216">
        <ele>1097.96</ele>
        <time>2011-08-03T11:49:28Z</time>
      </trkpt>
      <trkpt lat="44.49189" lon="3.74212">
        <ele>1097</ele>
        <time>2011-08-03T11:49:29Z</time>
      </trkpt>
      <trkpt lat="44.49186" lon="3.74208">
        <ele>1096.04</ele>
        <time>2011-08-03T11:49:30Z</time>
      </trkpt>
      <trkpt lat="44.49176" lon="3.74194">
        <ele>1092.2</ele>
        <time>2011-08-03T11:49:36Z</time>
      </trkpt>
      <trkpt lat="44.49175" lon="3.74191">
        <ele>1091.23</ele>
        <time>2011-08-03T11:49:37Z</time>
      </trkpt>
      <trkpt lat="44.49173" lon="3.74187">
        <ele>1090.75</ele>
        <time>2011-08-03T11:49:38Z</time>
      </trkpt>
      <trkpt lat="44.49171" lon="3.74182">
        <ele>1089.79</ele>
        <time>2011-08-03T11:49:39Z</time>
      </trkpt>
      <trkpt lat="44.49169" lon="3.74177">
        <ele>1089.31</ele>
        <time>2011-08-03T11:49:40Z</time>
      </trkpt>
      <trkpt lat="44.49167" lon="3.74172">
        <ele>1088.83</ele>
        <time>2011-08-03T11:49:41Z</time>
      </trkpt>
      <trkpt lat="44.49165" lon="3.74167">
        <ele>1087.87</ele>
        <time>2011-08-03T11:49:42Z</time>
      </trkpt>
      <trkpt lat="44.49163" lon="3.74161">
        <ele>1087.39</ele>
        <time>2011-08-03T11:49:43Z</time>
      </trkpt>
      <trkpt lat="44.49162" lon="3.74156">
        <ele>1086.43</ele>
        <time>2011-08-03T11:49:44Z</time>
      </trkpt>
      <trkpt lat="44.4916" lon="3.7415">
        <ele>1085.95</ele>
        <time>2011-08-03T11:49:45Z</time>
      </trkpt>
      <trkpt lat="44.49159" lon="3.74143">
        <ele>1085.47</ele>
        <time>2011-08-03T11:49:46Z</time>
      </trkpt>
      <trkpt lat="44.49157" lon="3.74137">
        <ele>1084.99</ele>
        <time>2011-08-03T11:49:47Z</time>
      </trkpt>
      <trkpt lat="44.49155" lon="3.74133">
        <ele>1084.02</ele>
        <time>2011-08-03T11:49:48Z</time>
      </trkpt>
      <trkpt lat="44.49153" lon="3.7413">
        <ele>1083.54</ele>
        <time>2011-08-03T11:49:49Z</time>
      </trkpt>
      <trkpt lat="44.49151" lon="3.74131">
        <ele>1083.06</ele>
        <time>2011-08-03T11:49:55Z</time>
      </trkpt>
      <trkpt lat="44.4915" lon="3.74135">
        <ele>1082.1</ele>
        <time>2011-08-03T11:50:06Z</time>
      </trkpt>
      <trkpt lat="44.49151" lon="3.74133">
        <ele>1082.58</ele>
        <time>2011-08-03T11:50:18Z</time>
      </trkpt>
      <trkpt lat="44.49152" lon="3.74132">
        <ele>1083.06</ele>
        <time>2011-08-03T11:50:34Z</time>
      </trkpt>
      <trkpt lat="44.49152" lon="3.74132">
        <ele>1083.06</ele>
        <time>2011-08-03T11:51:00Z</time>
      </trkpt>
      <trkpt lat="44.49152" lon="3.74132">
        <ele>1084.02</ele>
        <time>2011-08-03T11:51:36Z</time>
      </trkpt>
      <trkpt lat="44.49152" lon="3.74132">
        <ele>1084.02</ele>
        <time>2011-08-03T11:52:04Z</time>
      </trkpt>
      <trkpt lat="44.49152" lon="3.74133">
        <ele>1084.99</ele>
        <time>2011-08-03T11:52:35Z</time>
      </trkpt>
      <trkpt lat="44.4915" lon="3.74144">
        <ele>1084.5</ele>
        <time>2011-08-03T11:52:55Z</time>
      </trkpt>
      <trkpt lat="44.49144" lon="3.74154">
        <ele>1083.06</ele>
        <time>2011-08-03T11:52:58Z</time>
      </trkpt>
      <trkpt lat="44.49143" lon="3.74159">
        <ele>1082.58</ele>
        <time>2011-08-03T11:52:59Z</time>
      </trkpt>
      <trkpt lat="44.49143" lon="3.7417">
        <ele>1081.62</ele>
        <time>2011-08-03T11:53:01Z</time>
      </trkpt>
      <trkpt lat="44.49144" lon="3.74226">
        <ele>1075.85</ele>
        <time>2011-08-03T11:53:12Z</time>
      </trkpt>
      <trkpt lat="44.49143" lon="3.74232">
        <ele>1075.37</ele>
        <time>2011-08-03T11:53:14Z</time>
      </trkpt>
      <trkpt lat="44.49141" lon="3.74232">
        <ele>1074.89</ele>
        <time>2011-08-03T11:53:15Z</time>
      </trkpt>
      <trkpt lat="44.49139" lon="3.7423">
        <ele>1074.89</ele>
        <time>2011-08-03T11:53:16Z</time>
      </trkpt>
      <trkpt lat="44.49123" lon="3.74169">
        <ele>1070.08</ele>
        <time>2011-08-03T11:53:29Z</time>
      </trkpt>
      <trkpt lat="44.49113" lon="3.74102">
        <ele>1069.12</ele>
        <time>2011-08-03T11:53:47Z</time>
      </trkpt>
      <trkpt lat="44.49085" lon="3.74058">
        <ele>1067.68</ele>
        <time>2011-08-03T11:54:00Z</time>
      </trkpt>
      <trkpt lat="44.49076" lon="3.74041">
        <ele>1067.68</ele>
        <time>2011-08-03T11:54:08Z</time>
      </trkpt>
      <trkpt lat="44.49075" lon="3.7404">
        <ele>1067.68</ele>
        <time>2011-08-03T11:54:09Z</time>
      </trkpt>
      <trkpt lat="44.49073" lon="3.74039">
        <ele>1068.16</ele>
        <time>2011-08-03T11:54:10Z</time>
      </trkpt>
      <trkpt lat="44.49072" lon="3.74039">
        <ele>1068.16</ele>
        <time>2011-08-03T11:54:11Z</time>
      </trkpt>
      <trkpt lat="44.4907" lon="3.74039">
        <ele>1068.64</ele>
        <time>2011-08-03T11:54:12Z</time>
      </trkpt>
      <trkpt lat="44.49048" lon="3.74018">
        <ele>1067.68</ele>
        <time>2011-08-03T11:54:24Z</time>
      </trkpt>
      <trkpt lat="44.49029" lon="3.73981">
        <ele>1066.24</ele>
        <time>2011-08-03T11:54:38Z</time>
      </trkpt>
      <trkpt lat="44.49027" lon="3.73979">
        <ele>1065.76</ele>
        <time>2011-08-03T11:54:41Z</time>
      </trkpt>
      <trkpt lat="44.49027" lon="3.73978">
        <ele>1065.76</ele>
        <time>2011-08-03T11:54:42Z</time>
      </trkpt>
      <trkpt lat="44.49025" lon="3.73975">
        <ele>1065.76</ele>
        <time>2011-08-03T11:54:43Z</time>
      </trkpt>
      <trkpt lat="44.49025" lon="3.73971">
        <ele>1066.24</ele>
        <time>2011-08-03T11:54:44Z</time>
      </trkpt>
      <trkpt lat="44.49024" lon="3.73967">
        <ele>1066.24</ele>
        <time>2011-08-03T11:54:45Z</time>
      </trkpt>
      <trkpt lat="44.49024" lon="3.73963">
        <ele>1066.72</ele>
        <time>2011-08-03T11:54:46Z</time>
      </trkpt>
      <trkpt lat="44.49024" lon="3.73959">
        <ele>1066.72</ele>
        <time>2011-08-03T11:54:47Z</time>
      </trkpt>
      <trkpt lat="44.49023" lon="3.73955">
        <ele>1066.72</ele>
        <time>2011-08-03T11:54:48Z</time>
      </trkpt>
      <trkpt lat="44.49025" lon="3.73906">
        <ele>1066.24</ele>
        <time>2011-08-03T11:55:02Z</time>
      </trkpt>
      <trkpt lat="44.49032" lon="3.73877">
        <ele>1066.72</ele>
        <time>2011-08-03T11:55:15Z</time>
      </trkpt>
      <trkpt lat="44.49033" lon="3.7388">
        <ele>1066.72</ele>
        <time>2011-08-03T11:55:17Z</time>
      </trkpt>
      <trkpt lat="44.49033" lon="3.73882">
        <ele>1066.72</ele>
        <time>2011-08-03T11:55:18Z</time>
      </trkpt>
      <trkpt lat="44.49023" lon="3.73918">
        <ele>1067.68</ele>
        <time>2011-08-03T11:55:28Z</time>
      </trkpt>
      <trkpt lat="44.4902" lon="3.73966">
        <ele>1069.12</ele>
        <time>2011-08-03T11:55:44Z</time>
      </trkpt>
      <trkpt lat="44.4903" lon="3.73998">
        <ele>1069.6</ele>
        <time>2011-08-03T11:55:57Z</time>
      </trkpt>
      <trkpt lat="44.4903" lon="3.74001">
        <ele>1069.6</ele>
        <time>2011-08-03T11:55:59Z</time>
      </trkpt>
      <trkpt lat="44.49031" lon="3.74002">
        <ele>1069.6</ele>
        <time>2011-08-03T11:56:00Z</time>
      </trkpt>
      <trkpt lat="44.49032" lon="3.74001">
        <ele>1069.6</ele>
        <time>2011-08-03T11:56:01Z</time>
      </trkpt>
      <trkpt lat="44.49033" lon="3.74">
        <ele>1070.08</ele>
        <time>2011-08-03T11:56:02Z</time>
      </trkpt>
      <trkpt lat="44.49034" lon="3.73998">
        <ele>1070.08</ele>
        <time>2011-08-03T11:56:03Z</time>
      </trkpt>
      <trkpt lat="44.49035" lon="3.73996">
        <ele>1070.08</ele>
        <time>2011-08-03T11:56:04Z</time>
      </trkpt>
      <trkpt lat="44.49034" lon="3.73993">
        <ele>1070.08</ele>
        <time>2011-08-03T11:56:05Z</time>
      </trkpt>
      <trkpt lat="44.49033" lon="3.73989">
        <ele>1069.6</ele>
        <time>2011-08-03T11:56:06Z</time>
      </trkpt>
      <trkpt lat="44.49031" lon="3.73987">
        <ele>1069.6</ele>
        <time>2011-08-03T11:56:07Z</time>
      </trkpt>
      <trkpt lat="44.4903" lon="3.73984">
        <ele>1069.6</ele>
        <time>2011-08-03T11:56:08Z</time>
      </trkpt>
      <trkpt lat="44.49029" lon="3.73982">
        <ele>1069.12</ele>
        <time>2011-08-03T11:56:09Z</time>
      </trkpt>
      <trkpt lat="44.49022" lon="3.73938">
        <ele>1068.16</ele>
        <time>2011-08-03T11:56:25Z</time>
      </trkpt>
      <trkpt lat="44.49031" lon="3.73891">
        <ele>1066.72</ele>
        <time>2011-08-03T11:56:39Z</time>
      </trkpt>
      <trkpt lat="44.49032" lon="3.73885">
        <ele>1066.72</ele>
        <time>2011-08-03T11:56:41Z</time>
      </trkpt>
      <trkpt lat="44.49032" lon="3.73883">
        <ele>1066.72</ele>
        <time>2011-08-03T11:56:42Z</time>
      </trkpt>
      <trkpt lat="44.49031" lon="3.73881">
        <ele>1066.72</ele>
        <time>2011-08-03T11:56:43Z</time>
      </trkpt>
      <trkpt lat="44.49031" lon="3.73879">
        <ele>1066.72</ele>
        <time>2011-08-03T11:56:44Z</time>
      </trkpt>
      <trkpt lat="44.49028" lon="3.73877">
        <ele>1066.72</ele>
        <time>2011-08-03T11:56:48Z</time>
      </trkpt>
      <trkpt lat="44.49026" lon="3.73803">
        <ele>1065.76</ele>
        <time>2011-08-03T11:57:02Z</time>
      </trkpt>
      <trkpt lat="44.49027" lon="3.73793">
        <ele>1064.8</ele>
        <time>2011-08-03T11:57:05Z</time>
      </trkpt>
      <trkpt lat="44.49023" lon="3.73793">
        <ele>1063.84</ele>
        <time>2011-08-03T11:57:09Z</time>
      </trkpt>
      <trkpt lat="44.49023" lon="3.73813">
        <ele>1061.91</ele>
        <time>2011-08-03T11:57:16Z</time>
      </trkpt>
      <trkpt lat="44.49027" lon="3.7388">
        <ele>1063.84</ele>
        <time>2011-08-03T11:57:31Z</time>
      </trkpt>
      <trkpt lat="44.49022" lon="3.73911">
        <ele>1065.76</ele>
        <time>2011-08-03T11:57:43Z</time>
      </trkpt>
      <trkpt lat="44.49022" lon="3.73912">
        <ele>1066.24</ele>
        <time>2011-08-03T11:58:01Z</time>
      </trkpt>
      <trkpt lat="44.4902" lon="3.73915">
        <ele>1067.2</ele>
        <time>2011-08-03T11:58:11Z</time>
      </trkpt>
      <trkpt lat="44.49013" lon="3.7395">
        <ele>1068.64</ele>
        <time>2011-08-03T11:58:22Z</time>
      </trkpt>
      <trkpt lat="44.4901" lon="3.7395">
        <ele>1068.64</ele>
        <time>2011-08-03T11:58:24Z</time>
      </trkpt>
      <trkpt lat="44.48966" lon="3.73937">
        <ele>1067.68</ele>
        <time>2011-08-03T11:58:35Z</time>
      </trkpt>
      <trkpt lat="44.4894" lon="3.73931">
        <ele>1065.76</ele>
        <time>2011-08-03T11:58:40Z</time>
      </trkpt>
      <trkpt lat="44.48935" lon="3.73929">
        <ele>1065.76</ele>
        <time>2011-08-03T11:58:41Z</time>
      </trkpt>
      <trkpt lat="44.48932" lon="3.73925">
        <ele>1065.76</ele>
        <time>2011-08-03T11:58:42Z</time>
      </trkpt>
      <trkpt lat="44.48928" lon="3.73922">
        <ele>1065.76</ele>
        <time>2011-08-03T11:58:43Z</time>
      </trkpt>
      <trkpt lat="44.48925" lon="3.73918">
        <ele>1065.76</ele>
        <time>2011-08-03T11:58:44Z</time>
      </trkpt>
      <trkpt lat="44.48923" lon="3.73914">
        <ele>1065.76</ele>
        <time>2011-08-03T11:58:45Z</time>
      </trkpt>
      <trkpt lat="44.48921" lon="3.73909">
        <ele>1065.76</ele>
        <time>2011-08-03T11:58:46Z</time>
      </trkpt>
      <trkpt lat="44.4892" lon="3.73906">
        <ele>1065.76</ele>
        <time>2011-08-03T11:58:47Z</time>
      </trkpt>
      <trkpt lat="44.48919" lon="3.73902">
        <ele>1065.28</ele>
        <time>2011-08-03T11:58:48Z</time>
      </trkpt>
      <trkpt lat="44.48917" lon="3.73899">
        <ele>1065.28</ele>
        <time>2011-08-03T11:58:49Z</time>
      </trkpt>
      <trkpt lat="44.48916" lon="3.73896">
        <ele>1065.28</ele>
        <time>2011-08-03T11:58:50Z</time>
      </trkpt>
      <trkpt lat="44.48902" lon="3.73837">
        <ele>1067.2</ele>
        <time>2011-08-03T11:59:07Z</time>
      </trkpt>
      <trkpt lat="44.48885" lon="3.73815">
        <ele>1069.6</ele>
        <time>2011-08-03T11:59:20Z</time>
      </trkpt>
      <trkpt lat="44.48885" lon="3.73813">
        <ele>1070.08</ele>
        <time>2011-08-03T11:59:21Z</time>
      </trkpt>
      <trkpt lat="44.48875" lon="3.73792">
        <ele>1069.6</ele>
        <time>2011-08-03T11:59:34Z</time>
      </trkpt>
      <trkpt lat="44.48853" lon="3.73772">
        <ele>1071.53</ele>
        <time>2011-08-03T11:59:50Z</time>
      </trkpt>
      <trkpt lat="44.48828" lon="3.73745">
        <ele>1074.41</ele>
        <time>2011-08-03T12:00:08Z</time>
      </trkpt>
      <trkpt lat="44.4881" lon="3.73709">
        <ele>1076.81</ele>
        <time>2011-08-03T12:00:25Z</time>
      </trkpt>
      <trkpt lat="44.48789" lon="3.73673">
        <ele>1078.26</ele>
        <time>2011-08-03T12:00:42Z</time>
      </trkpt>
      <trkpt lat="44.48774" lon="3.73647">
        <ele>1079.7</ele>
        <time>2011-08-03T12:00:56Z</time>
      </trkpt>
      <trkpt lat="44.48755" lon="3.73626">
        <ele>1078.26</ele>
        <time>2011-08-03T12:01:12Z</time>
      </trkpt>
      <trkpt lat="44.48751" lon="3.73624">
        <ele>1080.66</ele>
        <time>2011-08-03T12:01:22Z</time>
      </trkpt>
      <trkpt lat="44.48753" lon="3.73625">
        <ele>1080.66</ele>
        <time>2011-08-03T12:01:23Z</time>
      </trkpt>
      <trkpt lat="44.48754" lon="3.73626">
        <ele>1081.14</ele>
        <time>2011-08-03T12:01:24Z</time>
      </trkpt>
      <trkpt lat="44.48759" lon="3.7363">
        <ele>1082.1</ele>
        <time>2011-08-03T12:01:35Z</time>
      </trkpt>
      <trkpt lat="44.48759" lon="3.73632">
        <ele>1082.1</ele>
        <time>2011-08-03T12:01:39Z</time>
      </trkpt>
      <trkpt lat="44.48758" lon="3.73634">
        <ele>1082.58</ele>
        <time>2011-08-03T12:01:40Z</time>
      </trkpt>
      <trkpt lat="44.48758" lon="3.73636">
        <ele>1082.58</ele>
        <time>2011-08-03T12:01:41Z</time>
      </trkpt>
      <trkpt lat="44.48758" lon="3.73639">
        <ele>1082.58</ele>
        <time>2011-08-03T12:01:42Z</time>
      </trkpt>
      <trkpt lat="44.48758" lon="3.73641">
        <ele>1082.58</ele>
        <time>2011-08-03T12:01:43Z</time>
      </trkpt>
      <trkpt lat="44.48758" lon="3.73645">
        <ele>1082.58</ele>
        <time>2011-08-03T12:01:44Z</time>
      </trkpt>
      <trkpt lat="44.48762" lon="3.73681">
        <ele>1085.95</ele>
        <time>2011-08-03T12:01:56Z</time>
      </trkpt>
      <trkpt lat="44.48753" lon="3.73681">
        <ele>1087.87</ele>
        <time>2011-08-03T12:02:06Z</time>
      </trkpt>
      <trkpt lat="44.48753" lon="3.73679">
        <ele>1088.35</ele>
        <time>2011-08-03T12:02:19Z</time>
      </trkpt>
      <trkpt lat="44.48755" lon="3.73682">
        <ele>1098.44</ele>
        <time>2011-08-03T12:57:48Z</time>
      </trkpt>
      <trkpt lat="44.4875" lon="3.73677">
        <ele>1096.52</ele>
        <time>2011-08-03T12:58:09Z</time>
      </trkpt>
      <trkpt lat="44.48751" lon="3.73674">
        <ele>1097</ele>
        <time>2011-08-03T12:58:25Z</time>
      </trkpt>
      <trkpt lat="44.48747" lon="3.73668">
        <ele>1096.04</ele>
        <time>2011-08-03T12:58:33Z</time>
      </trkpt>
      <trkpt lat="44.4874" lon="3.73663">
        <ele>1096.04</ele>
        <time>2011-08-03T12:58:39Z</time>
      </trkpt>
      <trkpt lat="44.48736" lon="3.73659">
        <ele>1095.56</ele>
        <time>2011-08-03T12:58:44Z</time>
      </trkpt>
      <trkpt lat="44.48725" lon="3.73656">
        <ele>1094.6</ele>
        <time>2011-08-03T12:58:54Z</time>
      </trkpt>
      <trkpt lat="44.48708" lon="3.73655">
        <ele>1094.12</ele>
        <time>2011-08-03T12:59:10Z</time>
      </trkpt>
      <trkpt lat="44.48702" lon="3.73656">
        <ele>1095.56</ele>
        <time>2011-08-03T12:59:16Z</time>
      </trkpt>
      <trkpt lat="44.48686" lon="3.73659">
        <ele>1096.52</ele>
        <time>2011-08-03T12:59:32Z</time>
      </trkpt>
      <trkpt lat="44.48673" lon="3.73669">
        <ele>1097.48</ele>
        <time>2011-08-03T12:59:47Z</time>
      </trkpt>
      <trkpt lat="44.48656" lon="3.73683">
        <ele>1101.33</ele>
        <time>2011-08-03T13:00:05Z</time>
      </trkpt>
      <trkpt lat="44.4864" lon="3.73699">
        <ele>1102.77</ele>
        <time>2011-08-03T13:00:22Z</time>
      </trkpt>
      <trkpt lat="44.48626" lon="3.73714">
        <ele>1104.69</ele>
        <time>2011-08-03T13:00:38Z</time>
      </trkpt>
      <trkpt lat="44.48619" lon="3.73731">
        <ele>1107.1</ele>
        <time>2011-08-03T13:00:51Z</time>
      </trkpt>
      <trkpt lat="44.48618" lon="3.73735">
        <ele>1107.1</ele>
        <time>2011-08-03T13:00:54Z</time>
      </trkpt>
      <trkpt lat="44.48626" lon="3.73752">
        <ele>1109.02</ele>
        <time>2011-08-03T13:01:07Z</time>
      </trkpt>
      <trkpt lat="44.48622" lon="3.7377">
        <ele>1111.42</ele>
        <time>2011-08-03T13:01:20Z</time>
      </trkpt>
      <trkpt lat="44.48606" lon="3.73785">
        <ele>1114.79</ele>
        <time>2011-08-03T13:01:36Z</time>
      </trkpt>
      <trkpt lat="44.48586" lon="3.73794">
        <ele>1117.19</ele>
        <time>2011-08-03T13:01:54Z</time>
      </trkpt>
      <trkpt lat="44.48567" lon="3.73808">
        <ele>1119.59</ele>
        <time>2011-08-03T13:02:12Z</time>
      </trkpt>
      <trkpt lat="44.4855" lon="3.73822">
        <ele>1122</ele>
        <time>2011-08-03T13:02:30Z</time>
      </trkpt>
      <trkpt lat="44.48542" lon="3.7383">
        <ele>1122.96</ele>
        <time>2011-08-03T13:02:41Z</time>
      </trkpt>
      <trkpt lat="44.48526" lon="3.73847">
        <ele>1122.48</ele>
        <time>2011-08-03T13:02:55Z</time>
      </trkpt>
      <trkpt lat="44.48504" lon="3.73869">
        <ele>1122.96</ele>
        <time>2011-08-03T13:03:12Z</time>
      </trkpt>
      <trkpt lat="44.48481" lon="3.7389">
        <ele>1123.92</ele>
        <time>2011-08-03T13:03:30Z</time>
      </trkpt>
      <trkpt lat="44.48459" lon="3.73913">
        <ele>1125.36</ele>
        <time>2011-08-03T13:03:46Z</time>
      </trkpt>
      <trkpt lat="44.48433" lon="3.73936">
        <ele>1126.8</ele>
        <time>2011-08-03T13:04:03Z</time>
      </trkpt>
      <trkpt lat="44.48412" lon="3.7396">
        <ele>1126.8</ele>
        <time>2011-08-03T13:04:18Z</time>
      </trkpt>
      <trkpt lat="44.48391" lon="3.73984">
        <ele>1126.8</ele>
        <time>2011-08-03T13:04:35Z</time>
      </trkpt>
      <trkpt lat="44.48373" lon="3.74002">
        <ele>1128.24</ele>
        <time>2011-08-03T13:04:50Z</time>
      </trkpt>
      <trkpt lat="44.48355" lon="3.74018">
        <ele>1130.17</ele>
        <time>2011-08-03T13:05:07Z</time>
      </trkpt>
      <trkpt lat="44.4835" lon="3.74019">
        <ele>1130.65</ele>
        <time>2011-08-03T13:05:11Z</time>
      </trkpt>
      <trkpt lat="44.48331" lon="3.74012">
        <ele>1134.49</ele>
        <time>2011-08-03T13:05:27Z</time>
      </trkpt>
      <trkpt lat="44.48321" lon="3.73988">
        <ele>1138.82</ele>
        <time>2011-08-03T13:05:44Z</time>
      </trkpt>
      <trkpt lat="44.48312" lon="3.73964">
        <ele>1141.7</ele>
        <time>2011-08-03T13:06:01Z</time>
      </trkpt>
      <trkpt lat="44.48302" lon="3.73938">
        <ele>1145.55</ele>
        <time>2011-08-03T13:06:18Z</time>
      </trkpt>
      <trkpt lat="44.48299" lon="3.73931">
        <ele>1146.99</ele>
        <time>2011-08-03T13:06:22Z</time>
      </trkpt>
      <trkpt lat="44.48288" lon="3.73909">
        <ele>1148.91</ele>
        <time>2011-08-03T13:06:39Z</time>
      </trkpt>
      <trkpt lat="44.48279" lon="3.73898">
        <ele>1149.39</ele>
        <time>2011-08-03T13:06:49Z</time>
      </trkpt>
      <trkpt lat="44.48273" lon="3.73893">
        <ele>1150.35</ele>
        <time>2011-08-03T13:06:55Z</time>
      </trkpt>
      <trkpt lat="44.48253" lon="3.73892">
        <ele>1150.35</ele>
        <time>2011-08-03T13:07:13Z</time>
      </trkpt>
      <trkpt lat="44.48234" lon="3.73895">
        <ele>1150.35</ele>
        <time>2011-08-03T13:07:28Z</time>
      </trkpt>
      <trkpt lat="44.48231" lon="3.73896">
        <ele>1150.84</ele>
        <time>2011-08-03T13:07:30Z</time>
      </trkpt>
      <trkpt lat="44.48209" lon="3.73905">
        <ele>1153.24</ele>
        <time>2011-08-03T13:07:48Z</time>
      </trkpt>
      <trkpt lat="44.48187" lon="3.73919">
        <ele>1156.12</ele>
        <time>2011-08-03T13:08:07Z</time>
      </trkpt>
      <trkpt lat="44.48169" lon="3.73935">
        <ele>1159.01</ele>
        <time>2011-08-03T13:08:25Z</time>
      </trkpt>
      <trkpt lat="44.48154" lon="3.73942">
        <ele>1161.89</ele>
        <time>2011-08-03T13:08:38Z</time>
      </trkpt>
      <trkpt lat="44.4815" lon="3.73945">
        <ele>1162.85</ele>
        <time>2011-08-03T13:08:43Z</time>
      </trkpt>
      <trkpt lat="44.4813" lon="3.73954">
        <ele>1164.77</ele>
        <time>2011-08-03T13:09:01Z</time>
      </trkpt>
      <trkpt lat="44.48122" lon="3.73959">
        <ele>1166.22</ele>
        <time>2011-08-03T13:09:09Z</time>
      </trkpt>
      <trkpt lat="44.48117" lon="3.7396">
        <ele>1167.18</ele>
        <time>2011-08-03T13:09:13Z</time>
      </trkpt>
      <trkpt lat="44.48115" lon="3.73961">
        <ele>1167.66</ele>
        <time>2011-08-03T13:09:15Z</time>
      </trkpt>
      <trkpt lat="44.48111" lon="3.73961">
        <ele>1168.14</ele>
        <time>2011-08-03T13:09:19Z</time>
      </trkpt>
      <trkpt lat="44.48102" lon="3.73963">
        <ele>1168.62</ele>
        <time>2011-08-03T13:09:26Z</time>
      </trkpt>
      <trkpt lat="44.48099" lon="3.73965">
        <ele>1169.1</ele>
        <time>2011-08-03T13:09:30Z</time>
      </trkpt>
      <trkpt lat="44.4808" lon="3.73966">
        <ele>1169.1</ele>
        <time>2011-08-03T13:09:47Z</time>
      </trkpt>
      <trkpt lat="44.48057" lon="3.73976">
        <ele>1172.47</ele>
        <time>2011-08-03T13:10:06Z</time>
      </trkpt>
      <trkpt lat="44.48039" lon="3.73987">
        <ele>1174.87</ele>
        <time>2011-08-03T13:10:22Z</time>
      </trkpt>
      <trkpt lat="44.48039" lon="3.73988">
        <ele>1175.35</ele>
        <time>2011-08-03T13:10:23Z</time>
      </trkpt>
      <trkpt lat="44.48035" lon="3.73991">
        <ele>1175.35</ele>
        <time>2011-08-03T13:10:27Z</time>
      </trkpt>
      <trkpt lat="44.48013" lon="3.73998">
        <ele>1177.27</ele>
        <time>2011-08-03T13:10:44Z</time>
      </trkpt>
      <trkpt lat="44.48012" lon="3.73998">
        <ele>1177.27</ele>
        <time>2011-08-03T13:10:45Z</time>
      </trkpt>
      <trkpt lat="44.47995" lon="3.74008">
        <ele>1178.23</ele>
        <time>2011-08-03T13:11:00Z</time>
      </trkpt>
      <trkpt lat="44.47975" lon="3.7402">
        <ele>1180.16</ele>
        <time>2011-08-03T13:11:16Z</time>
      </trkpt>
      <trkpt lat="44.47956" lon="3.7403">
        <ele>1181.12</ele>
        <time>2011-08-03T13:11:31Z</time>
      </trkpt>
      <trkpt lat="44.47936" lon="3.74042">
        <ele>1184</ele>
        <time>2011-08-03T13:11:47Z</time>
      </trkpt>
      <trkpt lat="44.47914" lon="3.74044">
        <ele>1184.48</ele>
        <time>2011-08-03T13:12:03Z</time>
      </trkpt>
      <trkpt lat="44.47889" lon="3.74045">
        <ele>1184.48</ele>
        <time>2011-08-03T13:12:20Z</time>
      </trkpt>
      <trkpt lat="44.47866" lon="3.74048">
        <ele>1184.96</ele>
        <time>2011-08-03T13:12:36Z</time>
      </trkpt>
      <trkpt lat="44.47843" lon="3.74048">
        <ele>1185.44</ele>
        <time>2011-08-03T13:12:50Z</time>
      </trkpt>
      <trkpt lat="44.47812" lon="3.7405">
        <ele>1184.48</ele>
        <time>2011-08-03T13:13:06Z</time>
      </trkpt>
      <trkpt lat="44.47768" lon="3.74045">
        <ele>1183.52</ele>
        <time>2011-08-03T13:13:26Z</time>
      </trkpt>
      <trkpt lat="44.47743" lon="3.74036">
        <ele>1183.52</ele>
        <time>2011-08-03T13:13:41Z</time>
      </trkpt>
      <trkpt lat="44.47737" lon="3.74033">
        <ele>1183.52</ele>
        <time>2011-08-03T13:13:46Z</time>
      </trkpt>
      <trkpt lat="44.47735" lon="3.74033">
        <ele>1183.52</ele>
        <time>2011-08-03T13:13:59Z</time>
      </trkpt>
      <trkpt lat="44.47735" lon="3.74033">
        <ele>1183.04</ele>
        <time>2011-08-03T13:14:31Z</time>
      </trkpt>
      <trkpt lat="44.47735" lon="3.74033">
        <ele>1183.04</ele>
        <time>2011-08-03T13:15:05Z</time>
      </trkpt>
      <trkpt lat="44.47735" lon="3.74033">
        <ele>1182.56</ele>
        <time>2011-08-03T13:15:40Z</time>
      </trkpt>
      <trkpt lat="44.47735" lon="3.74033">
        <ele>1182.56</ele>
        <time>2011-08-03T13:16:10Z</time>
      </trkpt>
      <trkpt lat="44.47734" lon="3.74032">
        <ele>1182.56</ele>
        <time>2011-08-03T13:16:11Z</time>
      </trkpt>
      <trkpt lat="44.4773" lon="3.7403">
        <ele>1183.04</ele>
        <time>2011-08-03T13:16:15Z</time>
      </trkpt>
      <trkpt lat="44.47709" lon="3.74022">
        <ele>1182.56</ele>
        <time>2011-08-03T13:16:33Z</time>
      </trkpt>
      <trkpt lat="44.47707" lon="3.7402">
        <ele>1182.08</ele>
        <time>2011-08-03T13:16:35Z</time>
      </trkpt>
      <trkpt lat="44.47685" lon="3.74014">
        <ele>1182.56</ele>
        <time>2011-08-03T13:16:51Z</time>
      </trkpt>
      <trkpt lat="44.47657" lon="3.74006">
        <ele>1183.04</ele>
        <time>2011-08-03T13:17:07Z</time>
      </trkpt>
      <trkpt lat="44.47626" lon="3.74003">
        <ele>1184.96</ele>
        <time>2011-08-03T13:17:23Z</time>
      </trkpt>
      <trkpt lat="44.47601" lon="3.73999">
        <ele>1186.88</ele>
        <time>2011-08-03T13:17:39Z</time>
      </trkpt>
      <trkpt lat="44.47575" lon="3.73992">
        <ele>1190.73</ele>
        <time>2011-08-03T13:17:58Z</time>
      </trkpt>
      <trkpt lat="44.47554" lon="3.73985">
        <ele>1193.13</ele>
        <time>2011-08-03T13:18:13Z</time>
      </trkpt>
      <trkpt lat="44.4753" lon="3.73966">
        <ele>1194.58</ele>
        <time>2011-08-03T13:18:32Z</time>
      </trkpt>
      <trkpt lat="44.4751" lon="3.73941">
        <ele>1196.02</ele>
        <time>2011-08-03T13:18:49Z</time>
      </trkpt>
      <trkpt lat="44.47483" lon="3.73901">
        <ele>1195.06</ele>
        <time>2011-08-03T13:19:04Z</time>
      </trkpt>
      <trkpt lat="44.47442" lon="3.7386">
        <ele>1193.13</ele>
        <time>2011-08-03T13:19:21Z</time>
      </trkpt>
      <trkpt lat="44.47399" lon="3.73846">
        <ele>1192.65</ele>
        <time>2011-08-03T13:19:40Z</time>
      </trkpt>
      <trkpt lat="44.47372" lon="3.73841">
        <ele>1194.09</ele>
        <time>2011-08-03T13:19:57Z</time>
      </trkpt>
      <trkpt lat="44.47356" lon="3.73835">
        <ele>1195.54</ele>
        <time>2011-08-03T13:20:10Z</time>
      </trkpt>
      <trkpt lat="44.47343" lon="3.73835">
        <ele>1196.98</ele>
        <time>2011-08-03T13:20:21Z</time>
      </trkpt>
      <trkpt lat="44.47317" lon="3.73835">
        <ele>1199.38</ele>
        <time>2011-08-03T13:20:42Z</time>
      </trkpt>
      <trkpt lat="44.47298" lon="3.73835">
        <ele>1203.23</ele>
        <time>2011-08-03T13:20:57Z</time>
      </trkpt>
      <trkpt lat="44.47278" lon="3.73831">
        <ele>1208.51</ele>
        <time>2011-08-03T13:21:14Z</time>
      </trkpt>
      <trkpt lat="44.4726" lon="3.73823">
        <ele>1212.84</ele>
        <time>2011-08-03T13:21:29Z</time>
      </trkpt>
      <trkpt lat="44.47241" lon="3.73811">
        <ele>1216.21</ele>
        <time>2011-08-03T13:21:44Z</time>
      </trkpt>
      <trkpt lat="44.47231" lon="3.73805">
        <ele>1217.65</ele>
        <time>2011-08-03T13:21:53Z</time>
      </trkpt>
      <trkpt lat="44.47214" lon="3.73807">
        <ele>1221.49</ele>
        <time>2011-08-03T13:22:10Z</time>
      </trkpt>
      <trkpt lat="44.47198" lon="3.73808">
        <ele>1223.9</ele>
        <time>2011-08-03T13:22:25Z</time>
      </trkpt>
      <trkpt lat="44.4718" lon="3.73812">
        <ele>1225.82</ele>
        <time>2011-08-03T13:22:39Z</time>
      </trkpt>
      <trkpt lat="44.47161" lon="3.73818">
        <ele>1227.74</ele>
        <time>2011-08-03T13:22:54Z</time>
      </trkpt>
      <trkpt lat="44.47142" lon="3.7383">
        <ele>1231.11</ele>
        <time>2011-08-03T13:23:10Z</time>
      </trkpt>
      <trkpt lat="44.47125" lon="3.73844">
        <ele>1232.55</ele>
        <time>2011-08-03T13:23:26Z</time>
      </trkpt>
      <trkpt lat="44.47124" lon="3.73844">
        <ele>1232.55</ele>
        <time>2011-08-03T13:23:27Z</time>
      </trkpt>
      <trkpt lat="44.47106" lon="3.7385">
        <ele>1235.91</ele>
        <time>2011-08-03T13:23:41Z</time>
      </trkpt>
      <trkpt lat="44.47091" lon="3.7387">
        <ele>1238.32</ele>
        <time>2011-08-03T13:23:56Z</time>
      </trkpt>
      <trkpt lat="44.47084" lon="3.73893">
        <ele>1241.68</ele>
        <time>2011-08-03T13:24:11Z</time>
      </trkpt>
      <trkpt lat="44.47075" lon="3.73911">
        <ele>1243.12</ele>
        <time>2011-08-03T13:24:22Z</time>
      </trkpt>
      <trkpt lat="44.47065" lon="3.73929">
        <ele>1246.01</ele>
        <time>2011-08-03T13:24:34Z</time>
      </trkpt>
      <trkpt lat="44.47054" lon="3.73952">
        <ele>1248.41</ele>
        <time>2011-08-03T13:24:49Z</time>
      </trkpt>
      <trkpt lat="44.47048" lon="3.73962">
        <ele>1248.89</ele>
        <time>2011-08-03T13:24:56Z</time>
      </trkpt>
      <trkpt lat="44.47033" lon="3.73977">
        <ele>1249.85</ele>
        <time>2011-08-03T13:25:09Z</time>
      </trkpt>
      <trkpt lat="44.47031" lon="3.73981">
        <ele>1250.33</ele>
        <time>2011-08-03T13:25:12Z</time>
      </trkpt>
      <trkpt lat="44.47017" lon="3.7401">
        <ele>1250.81</ele>
        <time>2011-08-03T13:25:30Z</time>
      </trkpt>
      <trkpt lat="44.46999" lon="3.74031">
        <ele>1252.74</ele>
        <time>2011-08-03T13:25:46Z</time>
      </trkpt>
      <trkpt lat="44.46981" lon="3.74047">
        <ele>1253.22</ele>
        <time>2011-08-03T13:26:01Z</time>
      </trkpt>
      <trkpt lat="44.4696" lon="3.74064">
        <ele>1253.22</ele>
        <time>2011-08-03T13:26:18Z</time>
      </trkpt>
      <trkpt lat="44.46945" lon="3.74082">
        <ele>1254.66</ele>
        <time>2011-08-03T13:26:32Z</time>
      </trkpt>
      <trkpt lat="44.46944" lon="3.74083">
        <ele>1255.14</ele>
        <time>2011-08-03T13:26:33Z</time>
      </trkpt>
      <trkpt lat="44.46939" lon="3.7409">
        <ele>1256.1</ele>
        <time>2011-08-03T13:26:38Z</time>
      </trkpt>
      <trkpt lat="44.46922" lon="3.74111">
        <ele>1258.02</ele>
        <time>2011-08-03T13:26:55Z</time>
      </trkpt>
      <trkpt lat="44.4692" lon="3.74113">
        <ele>1258.02</ele>
        <time>2011-08-03T13:26:57Z</time>
      </trkpt>
      <trkpt lat="44.46906" lon="3.74133">
        <ele>1257.06</ele>
        <time>2011-08-03T13:27:12Z</time>
      </trkpt>
      <trkpt lat="44.46906" lon="3.74134">
        <ele>1257.06</ele>
        <time>2011-08-03T13:27:13Z</time>
      </trkpt>
      <trkpt lat="44.469" lon="3.74141">
        <ele>1257.06</ele>
        <time>2011-08-03T13:27:18Z</time>
      </trkpt>
      <trkpt lat="44.46882" lon="3.74162">
        <ele>1259.46</ele>
        <time>2011-08-03T13:27:35Z</time>
      </trkpt>
      <trkpt lat="44.46867" lon="3.74185">
        <ele>1262.83</ele>
        <time>2011-08-03T13:27:51Z</time>
      </trkpt>
      <trkpt lat="44.46863" lon="3.74196">
        <ele>1263.79</ele>
        <time>2011-08-03T13:27:58Z</time>
      </trkpt>
      <trkpt lat="44.46855" lon="3.74222">
        <ele>1262.35</ele>
        <time>2011-08-03T13:28:14Z</time>
      </trkpt>
      <trkpt lat="44.46849" lon="3.74243">
        <ele>1262.35</ele>
        <time>2011-08-03T13:28:27Z</time>
      </trkpt>
      <trkpt lat="44.46847" lon="3.74251">
        <ele>1262.83</ele>
        <time>2011-08-03T13:28:32Z</time>
      </trkpt>
      <trkpt lat="44.46841" lon="3.7428">
        <ele>1266.19</ele>
        <time>2011-08-03T13:28:46Z</time>
      </trkpt>
      <trkpt lat="44.46846" lon="3.74303">
        <ele>1271</ele>
        <time>2011-08-03T13:28:58Z</time>
      </trkpt>
      <trkpt lat="44.46849" lon="3.74335">
        <ele>1272.92</ele>
        <time>2011-08-03T13:29:12Z</time>
      </trkpt>
      <trkpt lat="44.46857" lon="3.74365">
        <ele>1273.4</ele>
        <time>2011-08-03T13:29:26Z</time>
      </trkpt>
      <trkpt lat="44.46859" lon="3.74402">
        <ele>1275.81</ele>
        <time>2011-08-03T13:29:43Z</time>
      </trkpt>
      <trkpt lat="44.46857" lon="3.74434">
        <ele>1278.69</ele>
        <time>2011-08-03T13:29:59Z</time>
      </trkpt>
      <trkpt lat="44.4685" lon="3.7446">
        <ele>1279.65</ele>
        <time>2011-08-03T13:30:13Z</time>
      </trkpt>
      <trkpt lat="44.46845" lon="3.74471">
        <ele>1280.13</ele>
        <time>2011-08-03T13:30:20Z</time>
      </trkpt>
      <trkpt lat="44.4683" lon="3.74488">
        <ele>1283.02</ele>
        <time>2011-08-03T13:30:34Z</time>
      </trkpt>
      <trkpt lat="44.46816" lon="3.7451">
        <ele>1287.34</ele>
        <time>2011-08-03T13:30:49Z</time>
      </trkpt>
      <trkpt lat="44.46803" lon="3.74528">
        <ele>1290.23</ele>
        <time>2011-08-03T13:31:03Z</time>
      </trkpt>
      <trkpt lat="44.46795" lon="3.74542">
        <ele>1293.11</ele>
        <time>2011-08-03T13:31:14Z</time>
      </trkpt>
      <trkpt lat="44.46778" lon="3.74553">
        <ele>1295.51</ele>
        <time>2011-08-03T13:31:28Z</time>
      </trkpt>
      <trkpt lat="44.46768" lon="3.74558">
        <ele>1296.96</ele>
        <time>2011-08-03T13:31:42Z</time>
      </trkpt>
      <trkpt lat="44.46761" lon="3.74567">
        <ele>1300.32</ele>
        <time>2011-08-03T13:31:56Z</time>
      </trkpt>
      <trkpt lat="44.46753" lon="3.74578">
        <ele>1302.72</ele>
        <time>2011-08-03T13:32:11Z</time>
      </trkpt>
      <trkpt lat="44.46749" lon="3.74582">
        <ele>1303.2</ele>
        <time>2011-08-03T13:32:16Z</time>
      </trkpt>
      <trkpt lat="44.46738" lon="3.74592">
        <ele>1306.57</ele>
        <time>2011-08-03T13:32:31Z</time>
      </trkpt>
      <trkpt lat="44.46728" lon="3.746">
        <ele>1308.49</ele>
        <time>2011-08-03T13:32:43Z</time>
      </trkpt>
      <trkpt lat="44.46718" lon="3.74609">
        <ele>1309.45</ele>
        <time>2011-08-03T13:32:57Z</time>
      </trkpt>
      <trkpt lat="44.46706" lon="3.74618">
        <ele>1311.86</ele>
        <time>2011-08-03T13:33:14Z</time>
      </trkpt>
      <trkpt lat="44.46695" lon="3.74626">
        <ele>1312.34</ele>
        <time>2011-08-03T13:33:28Z</time>
      </trkpt>
      <trkpt lat="44.46682" lon="3.74637">
        <ele>1312.82</ele>
        <time>2011-08-03T13:33:43Z</time>
      </trkpt>
      <trkpt lat="44.46671" lon="3.74641">
        <ele>1313.3</ele>
        <time>2011-08-03T13:33:55Z</time>
      </trkpt>
      <trkpt lat="44.4666" lon="3.74646">
        <ele>1315.22</ele>
        <time>2011-08-03T13:34:08Z</time>
      </trkpt>
      <trkpt lat="44.46644" lon="3.74653">
        <ele>1320.03</ele>
        <time>2011-08-03T13:34:24Z</time>
      </trkpt>
      <trkpt lat="44.46638" lon="3.74654">
        <ele>1324.35</ele>
        <time>2011-08-03T13:34:33Z</time>
      </trkpt>
      <trkpt lat="44.46624" lon="3.74653">
        <ele>1325.31</ele>
        <time>2011-08-03T13:34:48Z</time>
      </trkpt>
      <trkpt lat="44.46616" lon="3.74656">
        <ele>1328.2</ele>
        <time>2011-08-03T13:34:59Z</time>
      </trkpt>
      <trkpt lat="44.4661" lon="3.7466">
        <ele>1329.64</ele>
        <time>2011-08-03T13:35:05Z</time>
      </trkpt>
      <trkpt lat="44.46605" lon="3.74663">
        <ele>1330.12</ele>
        <time>2011-08-03T13:35:13Z</time>
      </trkpt>
      <trkpt lat="44.46601" lon="3.74664">
        <ele>1332.04</ele>
        <time>2011-08-03T13:35:18Z</time>
      </trkpt>
      <trkpt lat="44.46586" lon="3.74664">
        <ele>1334.93</ele>
        <time>2011-08-03T13:35:33Z</time>
      </trkpt>
      <trkpt lat="44.46576" lon="3.74671">
        <ele>1336.37</ele>
        <time>2011-08-03T13:35:45Z</time>
      </trkpt>
      <trkpt lat="44.46563" lon="3.74688">
        <ele>1339.73</ele>
        <time>2011-08-03T13:36:01Z</time>
      </trkpt>
      <trkpt lat="44.46553" lon="3.74705">
        <ele>1339.25</ele>
        <time>2011-08-03T13:36:17Z</time>
      </trkpt>
      <trkpt lat="44.46538" lon="3.74724">
        <ele>1341.18</ele>
        <time>2011-08-03T13:36:34Z</time>
      </trkpt>
      <trkpt lat="44.46524" lon="3.74735">
        <ele>1341.66</ele>
        <time>2011-08-03T13:36:48Z</time>
      </trkpt>
      <trkpt lat="44.4651" lon="3.74744">
        <ele>1343.58</ele>
        <time>2011-08-03T13:37:03Z</time>
      </trkpt>
      <trkpt lat="44.46498" lon="3.74755">
        <ele>1346.94</ele>
        <time>2011-08-03T13:37:18Z</time>
      </trkpt>
      <trkpt lat="44.46488" lon="3.74767">
        <ele>1350.31</ele>
        <time>2011-08-03T13:37:31Z</time>
      </trkpt>
      <trkpt lat="44.46474" lon="3.74777">
        <ele>1352.71</ele>
        <time>2011-08-03T13:37:46Z</time>
      </trkpt>
      <trkpt lat="44.46465" lon="3.74783">
        <ele>1352.71</ele>
        <time>2011-08-03T13:38:01Z</time>
      </trkpt>
      <trkpt lat="44.46458" lon="3.74788">
        <ele>1353.67</ele>
        <time>2011-08-03T13:38:13Z</time>
      </trkpt>
      <trkpt lat="44.46448" lon="3.74792">
        <ele>1356.56</ele>
        <time>2011-08-03T13:38:27Z</time>
      </trkpt>
      <trkpt lat="44.46436" lon="3.74798">
        <ele>1359.44</ele>
        <time>2011-08-03T13:38:44Z</time>
      </trkpt>
      <trkpt lat="44.46426" lon="3.74807">
        <ele>1360.4</ele>
        <time>2011-08-03T13:38:58Z</time>
      </trkpt>
      <trkpt lat="44.46417" lon="3.7482">
        <ele>1364.73</ele>
        <time>2011-08-03T13:39:13Z</time>
      </trkpt>
      <trkpt lat="44.46404" lon="3.7483">
        <ele>1369.05</ele>
        <time>2011-08-03T13:39:31Z</time>
      </trkpt>
      <trkpt lat="44.46394" lon="3.74833">
        <ele>1372.42</ele>
        <time>2011-08-03T13:39:45Z</time>
      </trkpt>
      <trkpt lat="44.46383" lon="3.74834">
        <ele>1373.86</ele>
        <time>2011-08-03T13:40:00Z</time>
      </trkpt>
      <trkpt lat="44.46372" lon="3.74832">
        <ele>1376.75</ele>
        <time>2011-08-03T13:40:16Z</time>
      </trkpt>
      <trkpt lat="44.46361" lon="3.74834">
        <ele>1379.15</ele>
        <time>2011-08-03T13:40:31Z</time>
      </trkpt>
      <trkpt lat="44.46347" lon="3.74832">
        <ele>1381.55</ele>
        <time>2011-08-03T13:40:46Z</time>
      </trkpt>
      <trkpt lat="44.46335" lon="3.74834">
        <ele>1382.99</ele>
        <time>2011-08-03T13:41:00Z</time>
      </trkpt>
      <trkpt lat="44.4632" lon="3.74836">
        <ele>1385.4</ele>
        <time>2011-08-03T13:41:17Z</time>
      </trkpt>
      <trkpt lat="44.46302" lon="3.7483">
        <ele>1387.32</ele>
        <time>2011-08-03T13:41:33Z</time>
      </trkpt>
      <trkpt lat="44.46297" lon="3.74828">
        <ele>1387.8</ele>
        <time>2011-08-03T13:41:39Z</time>
      </trkpt>
      <trkpt lat="44.46293" lon="3.74827">
        <ele>1387.8</ele>
        <time>2011-08-03T13:41:43Z</time>
      </trkpt>
      <trkpt lat="44.46287" lon="3.74822">
        <ele>1388.28</ele>
        <time>2011-08-03T13:41:50Z</time>
      </trkpt>
      <trkpt lat="44.46273" lon="3.74818">
        <ele>1391.65</ele>
        <time>2011-08-03T13:42:06Z</time>
      </trkpt>
      <trkpt lat="44.46272" lon="3.74817">
        <ele>1392.13</ele>
        <time>2011-08-03T13:42:08Z</time>
      </trkpt>
      <trkpt lat="44.46254" lon="3.74816">
        <ele>1392.61</ele>
        <time>2011-08-03T13:42:24Z</time>
      </trkpt>
      <trkpt lat="44.46246" lon="3.74813">
        <ele>1393.09</ele>
        <time>2011-08-03T13:42:36Z</time>
      </trkpt>
      <trkpt lat="44.46228" lon="3.74806">
        <ele>1395.01</ele>
        <time>2011-08-03T13:42:51Z</time>
      </trkpt>
      <trkpt lat="44.46204" lon="3.74798">
        <ele>1397.41</ele>
        <time>2011-08-03T13:43:09Z</time>
      </trkpt>
      <trkpt lat="44.46185" lon="3.74793">
        <ele>1399.34</ele>
        <time>2011-08-03T13:43:23Z</time>
      </trkpt>
      <trkpt lat="44.46162" lon="3.74791">
        <ele>1400.78</ele>
        <time>2011-08-03T13:43:38Z</time>
      </trkpt>
      <trkpt lat="44.46141" lon="3.74792">
        <ele>1402.7</ele>
        <time>2011-08-03T13:43:52Z</time>
      </trkpt>
      <trkpt lat="44.46116" lon="3.74803">
        <ele>1405.58</ele>
        <time>2011-08-03T13:44:11Z</time>
      </trkpt>
      <trkpt lat="44.46108" lon="3.74803">
        <ele>1407.51</ele>
        <time>2011-08-03T13:44:21Z</time>
      </trkpt>
      <trkpt lat="44.4611" lon="3.74798">
        <ele>1408.47</ele>
        <time>2011-08-03T13:44:37Z</time>
      </trkpt>
      <trkpt lat="44.4611" lon="3.74798">
        <ele>1407.99</ele>
        <time>2011-08-03T13:45:17Z</time>
      </trkpt>
      <trkpt lat="44.4611" lon="3.74798">
        <ele>1407.99</ele>
        <time>2011-08-03T13:45:51Z</time>
      </trkpt>
      <trkpt lat="44.4611" lon="3.74798">
        <ele>1407.99</ele>
        <time>2011-08-03T13:46:24Z</time>
      </trkpt>
      <trkpt lat="44.4611" lon="3.74798">
        <ele>1408.47</ele>
        <time>2011-08-03T13:46:49Z</time>
      </trkpt>
      <trkpt lat="44.4611" lon="3.74798">
        <ele>1407.99</ele>
        <time>2011-08-03T13:47:13Z</time>
      </trkpt>
      <trkpt lat="44.4611" lon="3.74798">
        <ele>1407.99</ele>
        <time>2011-08-03T13:47:38Z</time>
      </trkpt>
      <trkpt lat="44.4611" lon="3.74798">
        <ele>1407.51</ele>
        <time>2011-08-03T13:48:06Z</time>
      </trkpt>
      <trkpt lat="44.4611" lon="3.74798">
        <ele>1407.99</ele>
        <time>2011-08-03T13:48:42Z</time>
      </trkpt>
      <trkpt lat="44.4611" lon="3.74798">
        <ele>1407.99</ele>
        <time>2011-08-03T13:49:17Z</time>
      </trkpt>
      <trkpt lat="44.46111" lon="3.74798">
        <ele>1407.99</ele>
        <time>2011-08-03T13:49:52Z</time>
      </trkpt>
      <trkpt lat="44.46111" lon="3.74798">
        <ele>1407.99</ele>
        <time>2011-08-03T13:50:30Z</time>
      </trkpt>
      <trkpt lat="44.46111" lon="3.74798">
        <ele>1407.99</ele>
        <time>2011-08-03T13:51:02Z</time>
      </trkpt>
      <trkpt lat="44.46111" lon="3.74798">
        <ele>1407.99</ele>
        <time>2011-08-03T13:51:38Z</time>
      </trkpt>
      <trkpt lat="44.46111" lon="3.74798">
        <ele>1407.99</ele>
        <time>2011-08-03T13:52:20Z</time>
      </trkpt>
      <trkpt lat="44.46111" lon="3.74798">
        <ele>1407.99</ele>
        <time>2011-08-03T13:52:50Z</time>
      </trkpt>
      <trkpt lat="44.46111" lon="3.74798">
        <ele>1407.51</ele>
        <time>2011-08-03T13:53:25Z</time>
      </trkpt>
      <trkpt lat="44.46111" lon="3.74798">
        <ele>1407.03</ele>
        <time>2011-08-03T13:54:07Z</time>
      </trkpt>
      <trkpt lat="44.46111" lon="3.74798">
        <ele>1407.51</ele>
        <time>2011-08-03T13:54:47Z</time>
      </trkpt>
      <trkpt lat="44.46111" lon="3.74798">
        <ele>1407.51</ele>
        <time>2011-08-03T13:55:22Z</time>
      </trkpt>
      <trkpt lat="44.46111" lon="3.74798">
        <ele>1407.51</ele>
        <time>2011-08-03T13:56:01Z</time>
      </trkpt>
      <trkpt lat="44.46111" lon="3.74798">
        <ele>1407.51</ele>
        <time>2011-08-03T13:56:42Z</time>
      </trkpt>
      <trkpt lat="44.46112" lon="3.74797">
        <ele>1407.99</ele>
        <time>2011-08-03T13:57:26Z</time>
      </trkpt>
      <trkpt lat="44.46111" lon="3.74797">
        <ele>1407.51</ele>
        <time>2011-08-03T13:58:09Z</time>
      </trkpt>
      <trkpt lat="44.46112" lon="3.74797">
        <ele>1407.03</ele>
        <time>2011-08-03T13:58:47Z</time>
      </trkpt>
      <trkpt lat="44.46112" lon="3.74797">
        <ele>1407.51</ele>
        <time>2011-08-03T13:59:22Z</time>
      </trkpt>
      <trkpt lat="44.46112" lon="3.74797">
        <ele>1407.51</ele>
        <time>2011-08-03T13:59:53Z</time>
      </trkpt>
      <trkpt lat="44.46112" lon="3.74797">
        <ele>1407.51</ele>
        <time>2011-08-03T14:00:24Z</time>
      </trkpt>
      <trkpt lat="44.46112" lon="3.74797">
        <ele>1407.03</ele>
        <time>2011-08-03T14:00:56Z</time>
      </trkpt>
      <trkpt lat="44.46112" lon="3.74797">
        <ele>1407.03</ele>
        <time>2011-08-03T14:01:30Z</time>
      </trkpt>
      <trkpt lat="44.46113" lon="3.74797">
        <ele>1406.55</ele>
        <time>2011-08-03T14:02:00Z</time>
      </trkpt>
      <trkpt lat="44.46113" lon="3.74796">
        <ele>1406.07</ele>
        <time>2011-08-03T14:02:37Z</time>
      </trkpt>
      <trkpt lat="44.46113" lon="3.74796">
        <ele>1405.58</ele>
        <time>2011-08-03T14:03:12Z</time>
      </trkpt>
      <trkpt lat="44.46113" lon="3.74796">
        <ele>1405.58</ele>
        <time>2011-08-03T14:03:48Z</time>
      </trkpt>
      <trkpt lat="44.46113" lon="3.74796">
        <ele>1405.58</ele>
        <time>2011-08-03T14:04:18Z</time>
      </trkpt>
      <trkpt lat="44.46113" lon="3.74796">
        <ele>1405.1</ele>
        <time>2011-08-03T14:04:51Z</time>
      </trkpt>
      <trkpt lat="44.46113" lon="3.74796">
        <ele>1405.1</ele>
        <time>2011-08-03T14:05:26Z</time>
      </trkpt>
      <trkpt lat="44.46113" lon="3.74796">
        <ele>1405.1</ele>
        <time>2011-08-03T14:05:59Z</time>
      </trkpt>
      <trkpt lat="44.46113" lon="3.74797">
        <ele>1405.58</ele>
        <time>2011-08-03T14:06:29Z</time>
      </trkpt>
      <trkpt lat="44.46113" lon="3.74797">
        <ele>1405.58</ele>
        <time>2011-08-03T14:07:06Z</time>
      </trkpt>
      <trkpt lat="44.4611" lon="3.74794">
        <ele>1405.1</ele>
        <time>2011-08-03T14:07:25Z</time>
      </trkpt>
      <trkpt lat="44.46103" lon="3.748">
        <ele>1406.55</ele>
        <time>2011-08-03T14:07:38Z</time>
      </trkpt>
      <trkpt lat="44.46102" lon="3.74801">
        <ele>1406.55</ele>
        <time>2011-08-03T14:07:40Z</time>
      </trkpt>
      <trkpt lat="44.46098" lon="3.74806">
        <ele>1407.03</ele>
        <time>2011-08-03T14:07:46Z</time>
      </trkpt>
      <trkpt lat="44.46076" lon="3.74808">
        <ele>1408.47</ele>
        <time>2011-08-03T14:08:02Z</time>
      </trkpt>
      <trkpt lat="44.46051" lon="3.74817">
        <ele>1410.87</ele>
        <time>2011-08-03T14:08:17Z</time>
      </trkpt>
      <trkpt lat="44.46021" lon="3.74835">
        <ele>1412.31</ele>
        <time>2011-08-03T14:08:35Z</time>
      </trkpt>
      <trkpt lat="44.45998" lon="3.74843">
        <ele>1412.79</ele>
        <time>2011-08-03T14:08:49Z</time>
      </trkpt>
      <trkpt lat="44.45977" lon="3.74841">
        <ele>1411.83</ele>
        <time>2011-08-03T14:09:02Z</time>
      </trkpt>
      <trkpt lat="44.45957" lon="3.74841">
        <ele>1410.87</ele>
        <time>2011-08-03T14:09:14Z</time>
      </trkpt>
      <trkpt lat="44.45923" lon="3.7485">
        <ele>1410.39</ele>
        <time>2011-08-03T14:09:30Z</time>
      </trkpt>
      <trkpt lat="44.45878" lon="3.74867">
        <ele>1408.95</ele>
        <time>2011-08-03T14:09:44Z</time>
      </trkpt>
      <trkpt lat="44.45874" lon="3.74867">
        <ele>1408.95</ele>
        <time>2011-08-03T14:09:45Z</time>
      </trkpt>
      <trkpt lat="44.4587" lon="3.74869">
        <ele>1408.47</ele>
        <time>2011-08-03T14:09:46Z</time>
      </trkpt>
      <trkpt lat="44.45862" lon="3.74872">
        <ele>1407.99</ele>
        <time>2011-08-03T14:09:48Z</time>
      </trkpt>
      <trkpt lat="44.458" lon="3.749">
        <ele>1406.55</ele>
        <time>2011-08-03T14:10:04Z</time>
      </trkpt>
      <trkpt lat="44.45751" lon="3.74925">
        <ele>1404.14</ele>
        <time>2011-08-03T14:10:14Z</time>
      </trkpt>
      <trkpt lat="44.45746" lon="3.74927">
        <ele>1404.14</ele>
        <time>2011-08-03T14:10:15Z</time>
      </trkpt>
      <trkpt lat="44.45721" lon="3.74937">
        <ele>1402.7</ele>
        <time>2011-08-03T14:10:20Z</time>
      </trkpt>
      <trkpt lat="44.45717" lon="3.7494">
        <ele>1402.7</ele>
        <time>2011-08-03T14:10:21Z</time>
      </trkpt>
      <trkpt lat="44.45708" lon="3.74944">
        <ele>1402.7</ele>
        <time>2011-08-03T14:10:23Z</time>
      </trkpt>
      <trkpt lat="44.45704" lon="3.74946">
        <ele>1402.7</ele>
        <time>2011-08-03T14:10:24Z</time>
      </trkpt>
      <trkpt lat="44.457" lon="3.74948">
        <ele>1402.7</ele>
        <time>2011-08-03T14:10:25Z</time>
      </trkpt>
      <trkpt lat="44.45692" lon="3.74952">
        <ele>1402.7</ele>
        <time>2011-08-03T14:10:27Z</time>
      </trkpt>
      <trkpt lat="44.45689" lon="3.74953">
        <ele>1402.22</ele>
        <time>2011-08-03T14:10:28Z</time>
      </trkpt>
      <trkpt lat="44.45684" lon="3.74953">
        <ele>1402.22</ele>
        <time>2011-08-03T14:10:29Z</time>
      </trkpt>
      <trkpt lat="44.45681" lon="3.74952">
        <ele>1401.74</ele>
        <time>2011-08-03T14:10:30Z</time>
      </trkpt>
      <trkpt lat="44.45677" lon="3.74951">
        <ele>1401.74</ele>
        <time>2011-08-03T14:10:31Z</time>
      </trkpt>
      <trkpt lat="44.45673" lon="3.74949">
        <ele>1401.26</ele>
        <time>2011-08-03T14:10:32Z</time>
      </trkpt>
      <trkpt lat="44.4567" lon="3.74948">
        <ele>1401.26</ele>
        <time>2011-08-03T14:10:33Z</time>
      </trkpt>
      <trkpt lat="44.4565" lon="3.74945">
        <ele>1402.7</ele>
        <time>2011-08-03T14:10:40Z</time>
      </trkpt>
      <trkpt lat="44.45646" lon="3.74943">
        <ele>1402.22</ele>
        <time>2011-08-03T14:10:42Z</time>
      </trkpt>
      <trkpt lat="44.45644" lon="3.74943">
        <ele>1402.22</ele>
        <time>2011-08-03T14:10:43Z</time>
      </trkpt>
      <trkpt lat="44.4561" lon="3.74941">
        <ele>1403.18</ele>
        <time>2011-08-03T14:10:57Z</time>
      </trkpt>
      <trkpt lat="44.45572" lon="3.7494">
        <ele>1404.62</ele>
        <time>2011-08-03T14:11:13Z</time>
      </trkpt>
      <trkpt lat="44.45532" lon="3.74939">
        <ele>1407.03</ele>
        <time>2011-08-03T14:11:30Z</time>
      </trkpt>
      <trkpt lat="44.45494" lon="3.74935">
        <ele>1408.47</ele>
        <time>2011-08-03T14:11:47Z</time>
      </trkpt>
      <trkpt lat="44.45451" lon="3.74932">
        <ele>1410.87</ele>
        <time>2011-08-03T14:12:06Z</time>
      </trkpt>
      <trkpt lat="44.45409" lon="3.74927">
        <ele>1413.76</ele>
        <time>2011-08-03T14:12:26Z</time>
      </trkpt>
      <trkpt lat="44.45369" lon="3.74916">
        <ele>1414.72</ele>
        <time>2011-08-03T14:12:46Z</time>
      </trkpt>
      <trkpt lat="44.45343" lon="3.74896">
        <ele>1416.64</ele>
        <time>2011-08-03T14:13:02Z</time>
      </trkpt>
      <trkpt lat="44.45329" lon="3.7489">
        <ele>1417.6</ele>
        <time>2011-08-03T14:13:10Z</time>
      </trkpt>
      <trkpt lat="44.45328" lon="3.74891">
        <ele>1417.6</ele>
        <time>2011-08-03T14:13:11Z</time>
      </trkpt>
      <trkpt lat="44.45326" lon="3.74891">
        <ele>1417.6</ele>
        <time>2011-08-03T14:13:12Z</time>
      </trkpt>
      <trkpt lat="44.45324" lon="3.7489">
        <ele>1417.6</ele>
        <time>2011-08-03T14:13:13Z</time>
      </trkpt>
      <trkpt lat="44.45322" lon="3.74889">
        <ele>1417.6</ele>
        <time>2011-08-03T14:13:14Z</time>
      </trkpt>
      <trkpt lat="44.4532" lon="3.74888">
        <ele>1418.08</ele>
        <time>2011-08-03T14:13:15Z</time>
      </trkpt>
      <trkpt lat="44.45318" lon="3.74887">
        <ele>1418.08</ele>
        <time>2011-08-03T14:13:16Z</time>
      </trkpt>
      <trkpt lat="44.45316" lon="3.74885">
        <ele>1418.56</ele>
        <time>2011-08-03T14:13:17Z</time>
      </trkpt>
      <trkpt lat="44.45314" lon="3.74883">
        <ele>1418.56</ele>
        <time>2011-08-03T14:13:18Z</time>
      </trkpt>
      <trkpt lat="44.45313" lon="3.74882">
        <ele>1418.56</ele>
        <time>2011-08-03T14:13:19Z</time>
      </trkpt>
      <trkpt lat="44.45306" lon="3.74866">
        <ele>1420</ele>
        <time>2011-08-03T14:13:28Z</time>
      </trkpt>
      <trkpt lat="44.45305" lon="3.74865">
        <ele>1420</ele>
        <time>2011-08-03T14:13:29Z</time>
      </trkpt>
      <trkpt lat="44.45305" lon="3.74864">
        <ele>1420</ele>
        <time>2011-08-03T14:13:30Z</time>
      </trkpt>
      <trkpt lat="44.45304" lon="3.74862">
        <ele>1420</ele>
        <time>2011-08-03T14:13:31Z</time>
      </trkpt>
      <trkpt lat="44.45303" lon="3.74861">
        <ele>1419.52</ele>
        <time>2011-08-03T14:13:32Z</time>
      </trkpt>
      <trkpt lat="44.45301" lon="3.74859">
        <ele>1420</ele>
        <time>2011-08-03T14:13:33Z</time>
      </trkpt>
      <trkpt lat="44.45301" lon="3.74858">
        <ele>1420</ele>
        <time>2011-08-03T14:13:34Z</time>
      </trkpt>
      <trkpt lat="44.453" lon="3.74857">
        <ele>1420</ele>
        <time>2011-08-03T14:13:35Z</time>
      </trkpt>
      <trkpt lat="44.45298" lon="3.74856">
        <ele>1420.49</ele>
        <time>2011-08-03T14:13:36Z</time>
      </trkpt>
      <trkpt lat="44.45297" lon="3.74855">
        <ele>1420.97</ele>
        <time>2011-08-03T14:13:37Z</time>
      </trkpt>
      <trkpt lat="44.4528" lon="3.7485">
        <ele>1420.97</ele>
        <time>2011-08-03T14:13:52Z</time>
      </trkpt>
      <trkpt lat="44.45267" lon="3.74843">
        <ele>1420</ele>
        <time>2011-08-03T14:14:01Z</time>
      </trkpt>
      <trkpt lat="44.45266" lon="3.74841">
        <ele>1420</ele>
        <time>2011-08-03T14:14:02Z</time>
      </trkpt>
      <trkpt lat="44.45261" lon="3.74833">
        <ele>1419.52</ele>
        <time>2011-08-03T14:14:07Z</time>
      </trkpt>
      <trkpt lat="44.4526" lon="3.74832">
        <ele>1419.04</ele>
        <time>2011-08-03T14:14:08Z</time>
      </trkpt>
      <trkpt lat="44.45258" lon="3.74832">
        <ele>1419.04</ele>
        <time>2011-08-03T14:14:09Z</time>
      </trkpt>
      <trkpt lat="44.45256" lon="3.74832">
        <ele>1419.04</ele>
        <time>2011-08-03T14:14:10Z</time>
      </trkpt>
      <trkpt lat="44.45255" lon="3.74831">
        <ele>1419.04</ele>
        <time>2011-08-03T14:14:11Z</time>
      </trkpt>
      <trkpt lat="44.45253" lon="3.7483">
        <ele>1419.04</ele>
        <time>2011-08-03T14:14:12Z</time>
      </trkpt>
      <trkpt lat="44.45252" lon="3.74829">
        <ele>1418.56</ele>
        <time>2011-08-03T14:14:13Z</time>
      </trkpt>
      <trkpt lat="44.45251" lon="3.74828">
        <ele>1418.56</ele>
        <time>2011-08-03T14:14:14Z</time>
      </trkpt>
      <trkpt lat="44.45235" lon="3.74822">
        <ele>1417.6</ele>
        <time>2011-08-03T14:14:23Z</time>
      </trkpt>
      <trkpt lat="44.45234" lon="3.74821">
        <ele>1417.6</ele>
        <time>2011-08-03T14:14:24Z</time>
      </trkpt>
      <trkpt lat="44.45232" lon="3.7482">
        <ele>1417.12</ele>
        <time>2011-08-03T14:14:25Z</time>
      </trkpt>
      <trkpt lat="44.45231" lon="3.74819">
        <ele>1417.12</ele>
        <time>2011-08-03T14:14:26Z</time>
      </trkpt>
      <trkpt lat="44.45229" lon="3.74819">
        <ele>1417.12</ele>
        <time>2011-08-03T14:14:27Z</time>
      </trkpt>
      <trkpt lat="44.45227" lon="3.74818">
        <ele>1417.12</ele>
        <time>2011-08-03T14:14:28Z</time>
      </trkpt>
      <trkpt lat="44.45226" lon="3.74817">
        <ele>1417.12</ele>
        <time>2011-08-03T14:14:29Z</time>
      </trkpt>
      <trkpt lat="44.45224" lon="3.74817">
        <ele>1417.12</ele>
        <time>2011-08-03T14:14:30Z</time>
      </trkpt>
      <trkpt lat="44.45222" lon="3.74817">
        <ele>1416.64</ele>
        <time>2011-08-03T14:14:31Z</time>
      </trkpt>
      <trkpt lat="44.45219" lon="3.74817">
        <ele>1417.12</ele>
        <time>2011-08-03T14:14:33Z</time>
      </trkpt>
      <trkpt lat="44.45218" lon="3.74815">
        <ele>1417.12</ele>
        <time>2011-08-03T14:14:34Z</time>
      </trkpt>
      <trkpt lat="44.45216" lon="3.74814">
        <ele>1417.12</ele>
        <time>2011-08-03T14:14:35Z</time>
      </trkpt>
      <trkpt lat="44.45214" lon="3.74813">
        <ele>1417.12</ele>
        <time>2011-08-03T14:14:36Z</time>
      </trkpt>
      <trkpt lat="44.45213" lon="3.74811">
        <ele>1417.12</ele>
        <time>2011-08-03T14:14:37Z</time>
      </trkpt>
      <trkpt lat="44.45211" lon="3.74809">
        <ele>1417.12</ele>
        <time>2011-08-03T14:14:38Z</time>
      </trkpt>
      <trkpt lat="44.4521" lon="3.74807">
        <ele>1417.6</ele>
        <time>2011-08-03T14:14:39Z</time>
      </trkpt>
      <trkpt lat="44.45208" lon="3.74806">
        <ele>1417.12</ele>
        <time>2011-08-03T14:14:40Z</time>
      </trkpt>
      <trkpt lat="44.45206" lon="3.74805">
        <ele>1417.12</ele>
        <time>2011-08-03T14:14:41Z</time>
      </trkpt>
      <trkpt lat="44.45204" lon="3.74804">
        <ele>1417.12</ele>
        <time>2011-08-03T14:14:42Z</time>
      </trkpt>
      <trkpt lat="44.45202" lon="3.74802">
        <ele>1417.12</ele>
        <time>2011-08-03T14:14:43Z</time>
      </trkpt>
      <trkpt lat="44.452" lon="3.748">
        <ele>1417.12</ele>
        <time>2011-08-03T14:14:44Z</time>
      </trkpt>
      <trkpt lat="44.45198" lon="3.74798">
        <ele>1417.12</ele>
        <time>2011-08-03T14:14:45Z</time>
      </trkpt>
      <trkpt lat="44.45196" lon="3.74796">
        <ele>1417.12</ele>
        <time>2011-08-03T14:14:46Z</time>
      </trkpt>
      <trkpt lat="44.45188" lon="3.74774">
        <ele>1416.64</ele>
        <time>2011-08-03T14:15:00Z</time>
      </trkpt>
      <trkpt lat="44.45186" lon="3.74774">
        <ele>1416.64</ele>
        <time>2011-08-03T14:15:23Z</time>
      </trkpt>
      <trkpt lat="44.45185" lon="3.74775">
        <ele>1416.64</ele>
        <time>2011-08-03T14:15:24Z</time>
      </trkpt>
      <trkpt lat="44.45185" lon="3.74778">
        <ele>1416.16</ele>
        <time>2011-08-03T14:15:25Z</time>
      </trkpt>
      <trkpt lat="44.45186" lon="3.7478">
        <ele>1416.16</ele>
        <time>2011-08-03T14:15:26Z</time>
      </trkpt>
      <trkpt lat="44.45187" lon="3.74782">
        <ele>1416.16</ele>
        <time>2011-08-03T14:15:27Z</time>
      </trkpt>
      <trkpt lat="44.45193" lon="3.74788">
        <ele>1416.64</ele>
        <time>2011-08-03T14:15:36Z</time>
      </trkpt>
      <trkpt lat="44.45194" lon="3.74788">
        <ele>1416.64</ele>
        <time>2011-08-03T14:15:37Z</time>
      </trkpt>
      <trkpt lat="44.45195" lon="3.74789">
        <ele>1416.64</ele>
        <time>2011-08-03T14:15:38Z</time>
      </trkpt>
      <trkpt lat="44.45195" lon="3.7479">
        <ele>1416.64</ele>
        <time>2011-08-03T14:15:39Z</time>
      </trkpt>
      <trkpt lat="44.45196" lon="3.74792">
        <ele>1416.16</ele>
        <time>2011-08-03T14:15:40Z</time>
      </trkpt>
      <trkpt lat="44.45196" lon="3.74794">
        <ele>1416.16</ele>
        <time>2011-08-03T14:15:41Z</time>
      </trkpt>
      <trkpt lat="44.45195" lon="3.74795">
        <ele>1416.64</ele>
        <time>2011-08-03T14:15:42Z</time>
      </trkpt>
      <trkpt lat="44.45195" lon="3.74797">
        <ele>1416.64</ele>
        <time>2011-08-03T14:15:43Z</time>
      </trkpt>
      <trkpt lat="44.45196" lon="3.74799">
        <ele>1416.64</ele>
        <time>2011-08-03T14:15:44Z</time>
      </trkpt>
      <trkpt lat="44.45197" lon="3.748">
        <ele>1416.64</ele>
        <time>2011-08-03T14:15:45Z</time>
      </trkpt>
      <trkpt lat="44.45198" lon="3.74801">
        <ele>1416.64</ele>
        <time>2011-08-03T14:15:46Z</time>
      </trkpt>
      <trkpt lat="44.452" lon="3.74801">
        <ele>1416.64</ele>
        <time>2011-08-03T14:15:47Z</time>
      </trkpt>
      <trkpt lat="44.45216" lon="3.74812">
        <ele>1417.12</ele>
        <time>2011-08-03T14:15:58Z</time>
      </trkpt>
      <trkpt lat="44.45218" lon="3.74812">
        <ele>1417.12</ele>
        <time>2011-08-03T14:15:59Z</time>
      </trkpt>
      <trkpt lat="44.45219" lon="3.74812">
        <ele>1417.12</ele>
        <time>2011-08-03T14:16:00Z</time>
      </trkpt>
      <trkpt lat="44.45226" lon="3.74805">
        <ele>1417.12</ele>
        <time>2011-08-03T14:16:09Z</time>
      </trkpt>
      <trkpt lat="44.45229" lon="3.74806">
        <ele>1417.6</ele>
        <time>2011-08-03T14:16:18Z</time>
      </trkpt>
      <trkpt lat="44.4523" lon="3.74807">
        <ele>1417.12</ele>
        <time>2011-08-03T14:16:19Z</time>
      </trkpt>
      <trkpt lat="44.45236" lon="3.74807">
        <ele>1417.12</ele>
        <time>2011-08-03T14:16:32Z</time>
      </trkpt>
      <trkpt lat="44.45236" lon="3.74807">
        <ele>1417.12</ele>
        <time>2011-08-03T14:17:04Z</time>
      </trkpt>
      <trkpt lat="44.45236" lon="3.74807">
        <ele>1417.12</ele>
        <time>2011-08-03T14:17:31Z</time>
      </trkpt>
      <trkpt lat="44.45235" lon="3.74807">
        <ele>1416.64</ele>
        <time>2011-08-03T14:18:11Z</time>
      </trkpt>
      <trkpt lat="44.45229" lon="3.74807">
        <ele>1417.12</ele>
        <time>2011-08-03T14:18:23Z</time>
      </trkpt>
      <trkpt lat="44.45229" lon="3.74808">
        <ele>1417.12</ele>
        <time>2011-08-03T14:18:45Z</time>
      </trkpt>
      <trkpt lat="44.45229" lon="3.74807">
        <ele>1417.12</ele>
        <time>2011-08-03T14:19:09Z</time>
      </trkpt>
      <trkpt lat="44.45227" lon="3.74809">
        <ele>1417.6</ele>
        <time>2011-08-03T14:19:11Z</time>
      </trkpt>
      <trkpt lat="44.45226" lon="3.7481">
        <ele>1417.6</ele>
        <time>2011-08-03T14:19:12Z</time>
      </trkpt>
      <trkpt lat="44.45217" lon="3.74809">
        <ele>1417.12</ele>
        <time>2011-08-03T14:19:16Z</time>
      </trkpt>
      <trkpt lat="44.45216" lon="3.74808">
        <ele>1416.64</ele>
        <time>2011-08-03T14:19:17Z</time>
      </trkpt>
      <trkpt lat="44.45214" lon="3.74807">
        <ele>1416.64</ele>
        <time>2011-08-03T14:19:18Z</time>
      </trkpt>
      <trkpt lat="44.45212" lon="3.74805">
        <ele>1416.64</ele>
        <time>2011-08-03T14:19:19Z</time>
      </trkpt>
      <trkpt lat="44.4521" lon="3.74803">
        <ele>1416.64</ele>
        <time>2011-08-03T14:19:20Z</time>
      </trkpt>
      <trkpt lat="44.45208" lon="3.74802">
        <ele>1416.64</ele>
        <time>2011-08-03T14:19:21Z</time>
      </trkpt>
      <trkpt lat="44.45206" lon="3.74801">
        <ele>1416.64</ele>
        <time>2011-08-03T14:19:22Z</time>
      </trkpt>
      <trkpt lat="44.4516" lon="3.74779">
        <ele>1414.72</ele>
        <time>2011-08-03T14:19:39Z</time>
      </trkpt>
      <trkpt lat="44.45126" lon="3.74774">
        <ele>1415.68</ele>
        <time>2011-08-03T14:19:54Z</time>
      </trkpt>
      <trkpt lat="44.4509" lon="3.74769">
        <ele>1417.12</ele>
        <time>2011-08-03T14:20:12Z</time>
      </trkpt>
      <trkpt lat="44.4505" lon="3.74761">
        <ele>1419.52</ele>
        <time>2011-08-03T14:20:32Z</time>
      </trkpt>
      <trkpt lat="44.4502" lon="3.74757">
        <ele>1422.41</ele>
        <time>2011-08-03T14:20:49Z</time>
      </trkpt>
      <trkpt lat="44.45012" lon="3.74752">
        <ele>1422.89</ele>
        <time>2011-08-03T14:20:54Z</time>
      </trkpt>
      <trkpt lat="44.45011" lon="3.74751">
        <ele>1423.37</ele>
        <time>2011-08-03T14:20:55Z</time>
      </trkpt>
      <trkpt lat="44.4501" lon="3.74749">
        <ele>1423.37</ele>
        <time>2011-08-03T14:20:56Z</time>
      </trkpt>
      <trkpt lat="44.45009" lon="3.74748">
        <ele>1423.37</ele>
        <time>2011-08-03T14:20:57Z</time>
      </trkpt>
      <trkpt lat="44.45007" lon="3.74747">
        <ele>1423.85</ele>
        <time>2011-08-03T14:20:58Z</time>
      </trkpt>
      <trkpt lat="44.45005" lon="3.74746">
        <ele>1424.33</ele>
        <time>2011-08-03T14:20:59Z</time>
      </trkpt>
      <trkpt lat="44.45004" lon="3.74745">
        <ele>1424.33</ele>
        <time>2011-08-03T14:21:00Z</time>
      </trkpt>
      <trkpt lat="44.44977" lon="3.74734">
        <ele>1427.21</ele>
        <time>2011-08-03T14:21:18Z</time>
      </trkpt>
      <trkpt lat="44.44949" lon="3.74724">
        <ele>1430.1</ele>
        <time>2011-08-03T14:21:37Z</time>
      </trkpt>
      <trkpt lat="44.44917" lon="3.74715">
        <ele>1433.46</ele>
        <time>2011-08-03T14:21:57Z</time>
      </trkpt>
      <trkpt lat="44.44887" lon="3.74711">
        <ele>1435.87</ele>
        <time>2011-08-03T14:22:15Z</time>
      </trkpt>
      <trkpt lat="44.44857" lon="3.74705">
        <ele>1439.23</ele>
        <time>2011-08-03T14:22:34Z</time>
      </trkpt>
      <trkpt lat="44.44821" lon="3.74698">
        <ele>1441.15</ele>
        <time>2011-08-03T14:22:55Z</time>
      </trkpt>
      <trkpt lat="44.44793" lon="3.74696">
        <ele>1442.6</ele>
        <time>2011-08-03T14:23:12Z</time>
      </trkpt>
      <trkpt lat="44.4476" lon="3.74697">
        <ele>1445.48</ele>
        <time>2011-08-03T14:23:32Z</time>
      </trkpt>
      <trkpt lat="44.44756" lon="3.74697">
        <ele>1445.96</ele>
        <time>2011-08-03T14:23:34Z</time>
      </trkpt>
      <trkpt lat="44.44754" lon="3.74694">
        <ele>1446.44</ele>
        <time>2011-08-03T14:23:37Z</time>
      </trkpt>
      <trkpt lat="44.44753" lon="3.74692">
        <ele>1446.44</ele>
        <time>2011-08-03T14:23:38Z</time>
      </trkpt>
      <trkpt lat="44.44751" lon="3.74691">
        <ele>1446.44</ele>
        <time>2011-08-03T14:23:39Z</time>
      </trkpt>
      <trkpt lat="44.4475" lon="3.74691">
        <ele>1446.44</ele>
        <time>2011-08-03T14:23:40Z</time>
      </trkpt>
      <trkpt lat="44.44748" lon="3.74691">
        <ele>1446.44</ele>
        <time>2011-08-03T14:23:41Z</time>
      </trkpt>
      <trkpt lat="44.44732" lon="3.74694">
        <ele>1447.4</ele>
        <time>2011-08-03T14:23:55Z</time>
      </trkpt>
      <trkpt lat="44.44709" lon="3.74705">
        <ele>1449.32</ele>
        <time>2011-08-03T14:24:11Z</time>
      </trkpt>
      <trkpt lat="44.44696" lon="3.7471">
        <ele>1450.29</ele>
        <time>2011-08-03T14:24:21Z</time>
      </trkpt>
      <trkpt lat="44.44688" lon="3.74715">
        <ele>1450.77</ele>
        <time>2011-08-03T14:24:34Z</time>
      </trkpt>
      <trkpt lat="44.44691" lon="3.74726">
        <ele>1451.73</ele>
        <time>2011-08-03T14:24:45Z</time>
      </trkpt>
      <trkpt lat="44.44688" lon="3.74727">
        <ele>1452.21</ele>
        <time>2011-08-03T14:24:54Z</time>
      </trkpt>
      <trkpt lat="44.44683" lon="3.74729">
        <ele>1452.69</ele>
        <time>2011-08-03T14:24:59Z</time>
      </trkpt>
      <trkpt lat="44.44663" lon="3.74746">
        <ele>1455.57</ele>
        <time>2011-08-03T14:25:17Z</time>
      </trkpt>
      <trkpt lat="44.44639" lon="3.74763">
        <ele>1458.46</ele>
        <time>2011-08-03T14:25:35Z</time>
      </trkpt>
      <trkpt lat="44.44617" lon="3.74777">
        <ele>1462.3</ele>
        <time>2011-08-03T14:25:53Z</time>
      </trkpt>
      <trkpt lat="44.44593" lon="3.74792">
        <ele>1466.15</ele>
        <time>2011-08-03T14:26:13Z</time>
      </trkpt>
      <trkpt lat="44.44575" lon="3.74806">
        <ele>1468.07</ele>
        <time>2011-08-03T14:26:29Z</time>
      </trkpt>
      <trkpt lat="44.44553" lon="3.74823">
        <ele>1472.88</ele>
        <time>2011-08-03T14:26:47Z</time>
      </trkpt>
      <trkpt lat="44.44537" lon="3.7483">
        <ele>1472.88</ele>
        <time>2011-08-03T14:27:01Z</time>
      </trkpt>
      <trkpt lat="44.44534" lon="3.74828">
        <ele>1472.88</ele>
        <time>2011-08-03T14:27:05Z</time>
      </trkpt>
      <trkpt lat="44.4453" lon="3.74819">
        <ele>1473.84</ele>
        <time>2011-08-03T14:27:19Z</time>
      </trkpt>
      <trkpt lat="44.4453" lon="3.74819">
        <ele>1473.84</ele>
        <time>2011-08-03T14:27:28Z</time>
      </trkpt>
      <trkpt lat="44.44532" lon="3.74804">
        <ele>1474.8</ele>
        <time>2011-08-03T14:27:37Z</time>
      </trkpt>
      <trkpt lat="44.44531" lon="3.74797">
        <ele>1474.8</ele>
        <time>2011-08-03T14:27:54Z</time>
      </trkpt>
      <trkpt lat="44.44531" lon="3.74797">
        <ele>1474.8</ele>
        <time>2011-08-03T14:27:58Z</time>
      </trkpt>
      <trkpt lat="44.44522" lon="3.74789">
        <ele>1476.72</ele>
        <time>2011-08-03T14:28:11Z</time>
      </trkpt>
      <trkpt lat="44.44521" lon="3.74792">
        <ele>1476.72</ele>
        <time>2011-08-03T14:28:13Z</time>
      </trkpt>
      <trkpt lat="44.4452" lon="3.74798">
        <ele>1477.68</ele>
        <time>2011-08-03T14:28:27Z</time>
      </trkpt>
      <trkpt lat="44.4452" lon="3.74798">
        <ele>1477.68</ele>
        <time>2011-08-03T14:28:47Z</time>
      </trkpt>
      <trkpt lat="44.4452" lon="3.74798">
        <ele>1477.68</ele>
        <time>2011-08-03T14:29:05Z</time>
      </trkpt>
      <trkpt lat="44.44519" lon="3.74802">
        <ele>1477.68</ele>
        <time>2011-08-03T14:29:31Z</time>
      </trkpt>
      <trkpt lat="44.44506" lon="3.7481">
        <ele>1479.61</ele>
        <time>2011-08-03T14:29:43Z</time>
      </trkpt>
      <trkpt lat="44.445" lon="3.74811">
        <ele>1480.57</ele>
        <time>2011-08-03T14:29:48Z</time>
      </trkpt>
      <trkpt lat="44.44477" lon="3.74814">
        <ele>1483.93</ele>
        <time>2011-08-03T14:30:05Z</time>
      </trkpt>
      <trkpt lat="44.44462" lon="3.74819">
        <ele>1485.37</ele>
        <time>2011-08-03T14:30:17Z</time>
      </trkpt>
      <trkpt lat="44.44439" lon="3.74825">
        <ele>1488.26</ele>
        <time>2011-08-03T14:30:35Z</time>
      </trkpt>
      <trkpt lat="44.44423" lon="3.7483">
        <ele>1490.18</ele>
        <time>2011-08-03T14:30:48Z</time>
      </trkpt>
      <trkpt lat="44.44415" lon="3.7483">
        <ele>1491.14</ele>
        <time>2011-08-03T14:30:54Z</time>
      </trkpt>
      <trkpt lat="44.44395" lon="3.74841">
        <ele>1494.51</ele>
        <time>2011-08-03T14:31:11Z</time>
      </trkpt>
      <trkpt lat="44.44377" lon="3.74858">
        <ele>1496.91</ele>
        <time>2011-08-03T14:31:28Z</time>
      </trkpt>
      <trkpt lat="44.44375" lon="3.7486">
        <ele>1496.91</ele>
        <time>2011-08-03T14:31:30Z</time>
      </trkpt>
      <trkpt lat="44.44371" lon="3.74864">
        <ele>1497.87</ele>
        <time>2011-08-03T14:31:34Z</time>
      </trkpt>
      <trkpt lat="44.44353" lon="3.74882">
        <ele>1501.24</ele>
        <time>2011-08-03T14:31:52Z</time>
      </trkpt>
      <trkpt lat="44.44337" lon="3.74899">
        <ele>1503.64</ele>
        <time>2011-08-03T14:32:08Z</time>
      </trkpt>
      <trkpt lat="44.44316" lon="3.74909">
        <ele>1507.48</ele>
        <time>2011-08-03T14:32:26Z</time>
      </trkpt>
      <trkpt lat="44.44297" lon="3.7492">
        <ele>1509.89</ele>
        <time>2011-08-03T14:32:43Z</time>
      </trkpt>
      <trkpt lat="44.44292" lon="3.74922">
        <ele>1510.37</ele>
        <time>2011-08-03T14:32:47Z</time>
      </trkpt>
      <trkpt lat="44.44277" lon="3.74932">
        <ele>1511.81</ele>
        <time>2011-08-03T14:33:01Z</time>
      </trkpt>
      <trkpt lat="44.44257" lon="3.74944">
        <ele>1514.21</ele>
        <time>2011-08-03T14:33:17Z</time>
      </trkpt>
      <trkpt lat="44.44238" lon="3.74947">
        <ele>1516.62</ele>
        <time>2011-08-03T14:33:31Z</time>
      </trkpt>
      <trkpt lat="44.44221" lon="3.74951">
        <ele>1518.54</ele>
        <time>2011-08-03T14:33:45Z</time>
      </trkpt>
      <trkpt lat="44.44202" lon="3.7495">
        <ele>1519.5</ele>
        <time>2011-08-03T14:33:59Z</time>
      </trkpt>
      <trkpt lat="44.44191" lon="3.74951">
        <ele>1520.46</ele>
        <time>2011-08-03T14:34:07Z</time>
      </trkpt>
      <trkpt lat="44.44175" lon="3.74951">
        <ele>1522.39</ele>
        <time>2011-08-03T14:34:19Z</time>
      </trkpt>
      <trkpt lat="44.44169" lon="3.74952">
        <ele>1521.9</ele>
        <time>2011-08-03T14:34:23Z</time>
      </trkpt>
      <trkpt lat="44.44144" lon="3.74948">
        <ele>1523.35</ele>
        <time>2011-08-03T14:34:43Z</time>
      </trkpt>
      <trkpt lat="44.44134" lon="3.74948">
        <ele>1524.31</ele>
        <time>2011-08-03T14:34:52Z</time>
      </trkpt>
      <trkpt lat="44.44119" lon="3.74949">
        <ele>1525.75</ele>
        <time>2011-08-03T14:35:05Z</time>
      </trkpt>
      <trkpt lat="44.44101" lon="3.74945">
        <ele>1527.67</ele>
        <time>2011-08-03T14:35:20Z</time>
      </trkpt>
      <trkpt lat="44.44082" lon="3.74943">
        <ele>1529.59</ele>
        <time>2011-08-03T14:35:36Z</time>
      </trkpt>
      <trkpt lat="44.44077" lon="3.74944">
        <ele>1529.59</ele>
        <time>2011-08-03T14:35:40Z</time>
      </trkpt>
      <trkpt lat="44.4406" lon="3.74949">
        <ele>1530.56</ele>
        <time>2011-08-03T14:35:54Z</time>
      </trkpt>
      <trkpt lat="44.44054" lon="3.74949">
        <ele>1530.08</ele>
        <time>2011-08-03T14:36:08Z</time>
      </trkpt>
      <trkpt lat="44.44054" lon="3.74949">
        <ele>1530.08</ele>
        <time>2011-08-03T14:36:31Z</time>
      </trkpt>
      <trkpt lat="44.44054" lon="3.74949">
        <ele>1530.08</ele>
        <time>2011-08-03T14:36:58Z</time>
      </trkpt>
      <trkpt lat="44.44054" lon="3.74949">
        <ele>1530.08</ele>
        <time>2011-08-03T14:37:18Z</time>
      </trkpt>
      <trkpt lat="44.44054" lon="3.74949">
        <ele>1530.08</ele>
        <time>2011-08-03T14:37:40Z</time>
      </trkpt>
      <trkpt lat="44.44054" lon="3.74949">
        <ele>1530.08</ele>
        <time>2011-08-03T14:38:05Z</time>
      </trkpt>
      <trkpt lat="44.44054" lon="3.74949">
        <ele>1530.08</ele>
        <time>2011-08-03T14:38:29Z</time>
      </trkpt>
      <trkpt lat="44.44054" lon="3.74949">
        <ele>1530.08</ele>
        <time>2011-08-03T14:38:49Z</time>
      </trkpt>
      <trkpt lat="44.44054" lon="3.74949">
        <ele>1530.08</ele>
        <time>2011-08-03T14:39:24Z</time>
      </trkpt>
      <trkpt lat="44.44054" lon="3.74949">
        <ele>1530.08</ele>
        <time>2011-08-03T14:39:53Z</time>
      </trkpt>
      <trkpt lat="44.44054" lon="3.74949">
        <ele>1529.59</ele>
        <time>2011-08-03T14:40:17Z</time>
      </trkpt>
      <trkpt lat="44.44054" lon="3.74949">
        <ele>1529.59</ele>
        <time>2011-08-03T14:40:41Z</time>
      </trkpt>
      <trkpt lat="44.44054" lon="3.74949">
        <ele>1529.59</ele>
        <time>2011-08-03T14:40:59Z</time>
      </trkpt>
      <trkpt lat="44.44054" lon="3.74949">
        <ele>1529.59</ele>
        <time>2011-08-03T14:41:31Z</time>
      </trkpt>
      <trkpt lat="44.44036" lon="3.74947">
        <ele>1531.04</ele>
        <time>2011-08-03T14:41:46Z</time>
      </trkpt>
      <trkpt lat="44.44015" lon="3.74944">
        <ele>1532.48</ele>
        <time>2011-08-03T14:42:01Z</time>
      </trkpt>
      <trkpt lat="44.43992" lon="3.74942">
        <ele>1533.92</ele>
        <time>2011-08-03T14:42:18Z</time>
      </trkpt>
      <trkpt lat="44.43971" lon="3.74938">
        <ele>1535.36</ele>
        <time>2011-08-03T14:42:33Z</time>
      </trkpt>
      <trkpt lat="44.43946" lon="3.74937">
        <ele>1537.77</ele>
        <time>2011-08-03T14:42:49Z</time>
      </trkpt>
      <trkpt lat="44.43918" lon="3.74936">
        <ele>1538.25</ele>
        <time>2011-08-03T14:43:06Z</time>
      </trkpt>
      <trkpt lat="44.43887" lon="3.74933">
        <ele>1539.69</ele>
        <time>2011-08-03T14:43:24Z</time>
      </trkpt>
      <trkpt lat="44.43857" lon="3.7493">
        <ele>1542.09</ele>
        <time>2011-08-03T14:43:41Z</time>
      </trkpt>
      <trkpt lat="44.43825" lon="3.74929">
        <ele>1544.01</ele>
        <time>2011-08-03T14:43:59Z</time>
      </trkpt>
      <trkpt lat="44.43797" lon="3.74926">
        <ele>1546.42</ele>
        <time>2011-08-03T14:44:16Z</time>
      </trkpt>
      <trkpt lat="44.43784" lon="3.74925">
        <ele>1547.38</ele>
        <time>2011-08-03T14:44:29Z</time>
      </trkpt>
      <trkpt lat="44.43756" lon="3.74925">
        <ele>1549.78</ele>
        <time>2011-08-03T14:44:48Z</time>
      </trkpt>
      <trkpt lat="44.43742" lon="3.74925">
        <ele>1550.26</ele>
        <time>2011-08-03T14:44:57Z</time>
      </trkpt>
      <trkpt lat="44.43737" lon="3.74924">
        <ele>1550.26</ele>
        <time>2011-08-03T14:45:01Z</time>
      </trkpt>
      <trkpt lat="44.43723" lon="3.74923">
        <ele>1551.22</ele>
        <time>2011-08-03T14:45:14Z</time>
      </trkpt>
      <trkpt lat="44.43718" lon="3.74924">
        <ele>1551.71</ele>
        <time>2011-08-03T14:45:19Z</time>
      </trkpt>
      <trkpt lat="44.43692" lon="3.74924">
        <ele>1555.07</ele>
        <time>2011-08-03T14:45:37Z</time>
      </trkpt>
      <trkpt lat="44.43684" lon="3.74925">
        <ele>1555.55</ele>
        <time>2011-08-03T14:45:43Z</time>
      </trkpt>
      <trkpt lat="44.43679" lon="3.74926">
        <ele>1556.03</ele>
        <time>2011-08-03T14:45:47Z</time>
      </trkpt>
      <trkpt lat="44.4367" lon="3.74929">
        <ele>1556.51</ele>
        <time>2011-08-03T14:45:54Z</time>
      </trkpt>
      <trkpt lat="44.43653" lon="3.74926">
        <ele>1559.4</ele>
        <time>2011-08-03T14:46:07Z</time>
      </trkpt>
      <trkpt lat="44.43627" lon="3.74929">
        <ele>1561.32</ele>
        <time>2011-08-03T14:46:25Z</time>
      </trkpt>
      <trkpt lat="44.43603" lon="3.74932">
        <ele>1563.24</ele>
        <time>2011-08-03T14:46:41Z</time>
      </trkpt>
      <trkpt lat="44.43575" lon="3.74931">
        <ele>1564.68</ele>
        <time>2011-08-03T14:47:00Z</time>
      </trkpt>
      <trkpt lat="44.43552" lon="3.74928">
        <ele>1565.64</ele>
        <time>2011-08-03T14:47:14Z</time>
      </trkpt>
      <trkpt lat="44.43518" lon="3.74919">
        <ele>1566.12</ele>
        <time>2011-08-03T14:47:33Z</time>
      </trkpt>
      <trkpt lat="44.43495" lon="3.74911">
        <ele>1565.64</ele>
        <time>2011-08-03T14:47:47Z</time>
      </trkpt>
      <trkpt lat="44.43474" lon="3.74904">
        <ele>1565.16</ele>
        <time>2011-08-03T14:48:00Z</time>
      </trkpt>
      <trkpt lat="44.43444" lon="3.74897">
        <ele>1565.16</ele>
        <time>2011-08-03T14:48:18Z</time>
      </trkpt>
      <trkpt lat="44.43435" lon="3.74895">
        <ele>1565.64</ele>
        <time>2011-08-03T14:48:32Z</time>
      </trkpt>
      <trkpt lat="44.43424" lon="3.74893">
        <ele>1565.16</ele>
        <time>2011-08-03T14:48:44Z</time>
      </trkpt>
      <trkpt lat="44.4342" lon="3.74895">
        <ele>1565.64</ele>
        <time>2011-08-03T14:49:07Z</time>
      </trkpt>
      <trkpt lat="44.4342" lon="3.74895">
        <ele>1565.64</ele>
        <time>2011-08-03T14:49:49Z</time>
      </trkpt>
      <trkpt lat="44.4342" lon="3.74895">
        <ele>1565.64</ele>
        <time>2011-08-03T14:50:37Z</time>
      </trkpt>
      <trkpt lat="44.4342" lon="3.74895">
        <ele>1565.64</ele>
        <time>2011-08-03T14:51:20Z</time>
      </trkpt>
      <trkpt lat="44.4342" lon="3.74895">
        <ele>1565.64</ele>
        <time>2011-08-03T14:51:51Z</time>
      </trkpt>
      <trkpt lat="44.43419" lon="3.74904">
        <ele>1571.89</ele>
        <time>2011-08-03T14:55:43Z</time>
      </trkpt>
      <trkpt lat="44.43421" lon="3.74899">
        <ele>1568.53</ele>
        <time>2011-08-03T14:55:53Z</time>
      </trkpt>
      <trkpt lat="44.4342" lon="3.74897">
        <ele>1566.12</ele>
        <time>2011-08-03T14:56:15Z</time>
      </trkpt>
      <trkpt lat="44.4342" lon="3.74897">
        <ele>1565.64</ele>
        <time>2011-08-03T14:56:45Z</time>
      </trkpt>
      <trkpt lat="44.43423" lon="3.74894">
        <ele>1565.64</ele>
        <time>2011-08-03T14:57:06Z</time>
      </trkpt>
      <trkpt lat="44.43424" lon="3.74889">
        <ele>1565.64</ele>
        <time>2011-08-03T14:57:10Z</time>
      </trkpt>
      <trkpt lat="44.43416" lon="3.7489">
        <ele>1565.64</ele>
        <time>2011-08-03T14:57:16Z</time>
      </trkpt>
      <trkpt lat="44.43388" lon="3.74886">
        <ele>1566.61</ele>
        <time>2011-08-03T14:57:35Z</time>
      </trkpt>
      <trkpt lat="44.4336" lon="3.74882">
        <ele>1568.53</ele>
        <time>2011-08-03T14:57:53Z</time>
      </trkpt>
      <trkpt lat="44.43338" lon="3.74882">
        <ele>1570.45</ele>
        <time>2011-08-03T14:58:09Z</time>
      </trkpt>
      <trkpt lat="44.43332" lon="3.74883">
        <ele>1570.93</ele>
        <time>2011-08-03T14:58:13Z</time>
      </trkpt>
      <trkpt lat="44.43318" lon="3.74884">
        <ele>1572.37</ele>
        <time>2011-08-03T14:58:23Z</time>
      </trkpt>
      <trkpt lat="44.43311" lon="3.74884">
        <ele>1573.33</ele>
        <time>2011-08-03T14:58:28Z</time>
      </trkpt>
      <trkpt lat="44.43288" lon="3.74889">
        <ele>1575.26</ele>
        <time>2011-08-03T14:58:45Z</time>
      </trkpt>
      <trkpt lat="44.43259" lon="3.74894">
        <ele>1577.18</ele>
        <time>2011-08-03T14:59:06Z</time>
      </trkpt>
      <trkpt lat="44.43236" lon="3.74904">
        <ele>1579.1</ele>
        <time>2011-08-03T14:59:25Z</time>
      </trkpt>
      <trkpt lat="44.43234" lon="3.74905">
        <ele>1579.58</ele>
        <time>2011-08-03T14:59:27Z</time>
      </trkpt>
      <trkpt lat="44.43222" lon="3.74908">
        <ele>1581.03</ele>
        <time>2011-08-03T14:59:37Z</time>
      </trkpt>
      <trkpt lat="44.43199" lon="3.74912">
        <ele>1583.43</ele>
        <time>2011-08-03T14:59:56Z</time>
      </trkpt>
      <trkpt lat="44.43181" lon="3.74917">
        <ele>1585.83</ele>
        <time>2011-08-03T15:00:11Z</time>
      </trkpt>
      <trkpt lat="44.43161" lon="3.74922">
        <ele>1588.24</ele>
        <time>2011-08-03T15:00:26Z</time>
      </trkpt>
      <trkpt lat="44.43139" lon="3.74926">
        <ele>1589.68</ele>
        <time>2011-08-03T15:00:42Z</time>
      </trkpt>
      <trkpt lat="44.43115" lon="3.74935">
        <ele>1592.56</ele>
        <time>2011-08-03T15:01:00Z</time>
      </trkpt>
      <trkpt lat="44.43094" lon="3.74943">
        <ele>1594</ele>
        <time>2011-08-03T15:01:16Z</time>
      </trkpt>
      <trkpt lat="44.43072" lon="3.74949">
        <ele>1596.41</ele>
        <time>2011-08-03T15:01:33Z</time>
      </trkpt>
      <trkpt lat="44.43054" lon="3.74958">
        <ele>1598.81</ele>
        <time>2011-08-03T15:01:49Z</time>
      </trkpt>
      <trkpt lat="44.43033" lon="3.74966">
        <ele>1600.73</ele>
        <time>2011-08-03T15:02:06Z</time>
      </trkpt>
      <trkpt lat="44.43015" lon="3.74976">
        <ele>1603.14</ele>
        <time>2011-08-03T15:02:20Z</time>
      </trkpt>
      <trkpt lat="44.42992" lon="3.74987">
        <ele>1604.58</ele>
        <time>2011-08-03T15:02:38Z</time>
      </trkpt>
      <trkpt lat="44.42971" lon="3.74996">
        <ele>1608.42</ele>
        <time>2011-08-03T15:02:55Z</time>
      </trkpt>
      <trkpt lat="44.42948" lon="3.75007">
        <ele>1609.86</ele>
        <time>2011-08-03T15:03:13Z</time>
      </trkpt>
      <trkpt lat="44.42926" lon="3.75012">
        <ele>1612.75</ele>
        <time>2011-08-03T15:03:29Z</time>
      </trkpt>
      <trkpt lat="44.429" lon="3.75017">
        <ele>1617.07</ele>
        <time>2011-08-03T15:03:49Z</time>
      </trkpt>
      <trkpt lat="44.42879" lon="3.75023">
        <ele>1619.96</ele>
        <time>2011-08-03T15:04:05Z</time>
      </trkpt>
      <trkpt lat="44.42865" lon="3.75024">
        <ele>1621.4</ele>
        <time>2011-08-03T15:04:15Z</time>
      </trkpt>
      <trkpt lat="44.4286" lon="3.75025">
        <ele>1622.36</ele>
        <time>2011-08-03T15:04:19Z</time>
      </trkpt>
      <trkpt lat="44.42836" lon="3.75036">
        <ele>1625.73</ele>
        <time>2011-08-03T15:04:38Z</time>
      </trkpt>
      <trkpt lat="44.42815" lon="3.75049">
        <ele>1626.21</ele>
        <time>2011-08-03T15:04:55Z</time>
      </trkpt>
      <trkpt lat="44.4281" lon="3.75052">
        <ele>1627.17</ele>
        <time>2011-08-03T15:04:59Z</time>
      </trkpt>
      <trkpt lat="44.42799" lon="3.75058">
        <ele>1627.65</ele>
        <time>2011-08-03T15:05:07Z</time>
      </trkpt>
      <trkpt lat="44.42791" lon="3.75062">
        <ele>1628.13</ele>
        <time>2011-08-03T15:05:12Z</time>
      </trkpt>
      <trkpt lat="44.42757" lon="3.75086">
        <ele>1628.61</ele>
        <time>2011-08-03T15:05:30Z</time>
      </trkpt>
      <trkpt lat="44.4272" lon="3.75103">
        <ele>1630.05</ele>
        <time>2011-08-03T15:05:48Z</time>
      </trkpt>
      <trkpt lat="44.42693" lon="3.7512">
        <ele>1631.49</ele>
        <time>2011-08-03T15:06:03Z</time>
      </trkpt>
      <trkpt lat="44.42664" lon="3.75129">
        <ele>1632.94</ele>
        <time>2011-08-03T15:06:17Z</time>
      </trkpt>
      <trkpt lat="44.42657" lon="3.75133">
        <ele>1633.9</ele>
        <time>2011-08-03T15:06:28Z</time>
      </trkpt>
      <trkpt lat="44.42657" lon="3.75133">
        <ele>1633.9</ele>
        <time>2011-08-03T15:06:44Z</time>
      </trkpt>
      <trkpt lat="44.42644" lon="3.75143">
        <ele>1633.42</ele>
        <time>2011-08-03T15:06:59Z</time>
      </trkpt>
      <trkpt lat="44.42645" lon="3.75142">
        <ele>1633.42</ele>
        <time>2011-08-03T15:07:14Z</time>
      </trkpt>
      <trkpt lat="44.42645" lon="3.75142">
        <ele>1633.42</ele>
        <time>2011-08-03T15:07:26Z</time>
      </trkpt>
      <trkpt lat="44.42643" lon="3.75141">
        <ele>1633.42</ele>
        <time>2011-08-03T15:07:42Z</time>
      </trkpt>
      <trkpt lat="44.42642" lon="3.75141">
        <ele>1633.42</ele>
        <time>2011-08-03T15:08:18Z</time>
      </trkpt>
      <trkpt lat="44.42642" lon="3.7514">
        <ele>1633.9</ele>
        <time>2011-08-03T15:09:03Z</time>
      </trkpt>
      <trkpt lat="44.42641" lon="3.75141">
        <ele>1633.9</ele>
        <time>2011-08-03T15:09:49Z</time>
      </trkpt>
      <trkpt lat="44.42641" lon="3.75141">
        <ele>1633.42</ele>
        <time>2011-08-03T15:10:29Z</time>
      </trkpt>
      <trkpt lat="44.42641" lon="3.7514">
        <ele>1633.9</ele>
        <time>2011-08-03T15:11:10Z</time>
      </trkpt>
      <trkpt lat="44.42641" lon="3.7514">
        <ele>1633.9</ele>
        <time>2011-08-03T15:11:49Z</time>
      </trkpt>
      <trkpt lat="44.42641" lon="3.7514">
        <ele>1633.9</ele>
        <time>2011-08-03T15:12:33Z</time>
      </trkpt>
      <trkpt lat="44.42641" lon="3.7514">
        <ele>1633.9</ele>
        <time>2011-08-03T15:12:47Z</time>
      </trkpt>
      <trkpt lat="44.4264" lon="3.7514">
        <ele>1633.9</ele>
        <time>2011-08-03T15:13:08Z</time>
      </trkpt>
      <trkpt lat="44.4264" lon="3.75127">
        <ele>1634.38</ele>
        <time>2011-08-03T15:13:17Z</time>
      </trkpt>
      <trkpt lat="44.42642" lon="3.75108">
        <ele>1636.3</ele>
        <time>2011-08-03T15:13:28Z</time>
      </trkpt>
      <trkpt lat="44.42644" lon="3.75089">
        <ele>1637.26</ele>
        <time>2011-08-03T15:13:39Z</time>
      </trkpt>
      <trkpt lat="44.42645" lon="3.75084">
        <ele>1638.22</ele>
        <time>2011-08-03T15:13:42Z</time>
      </trkpt>
      <trkpt lat="44.42647" lon="3.75074">
        <ele>1639.67</ele>
        <time>2011-08-03T15:13:49Z</time>
      </trkpt>
      <trkpt lat="44.42653" lon="3.75047">
        <ele>1641.59</ele>
        <time>2011-08-03T15:14:04Z</time>
      </trkpt>
      <trkpt lat="44.42648" lon="3.75017">
        <ele>1643.99</ele>
        <time>2011-08-03T15:14:21Z</time>
      </trkpt>
      <trkpt lat="44.42648" lon="3.75006">
        <ele>1645.91</ele>
        <time>2011-08-03T15:14:27Z</time>
      </trkpt>
      <trkpt lat="44.42648" lon="3.74981">
        <ele>1649.28</ele>
        <time>2011-08-03T15:14:41Z</time>
      </trkpt>
      <trkpt lat="44.42651" lon="3.74954">
        <ele>1651.68</ele>
        <time>2011-08-03T15:14:57Z</time>
      </trkpt>
      <trkpt lat="44.42652" lon="3.7493">
        <ele>1653.6</ele>
        <time>2011-08-03T15:15:12Z</time>
      </trkpt>
      <trkpt lat="44.42653" lon="3.74928">
        <ele>1653.6</ele>
        <time>2011-08-03T15:15:13Z</time>
      </trkpt>
      <trkpt lat="44.42655" lon="3.74905">
        <ele>1656.49</ele>
        <time>2011-08-03T15:15:27Z</time>
      </trkpt>
      <trkpt lat="44.42656" lon="3.74881">
        <ele>1659.85</ele>
        <time>2011-08-03T15:15:41Z</time>
      </trkpt>
      <trkpt lat="44.42659" lon="3.74853">
        <ele>1664.18</ele>
        <time>2011-08-03T15:15:57Z</time>
      </trkpt>
      <trkpt lat="44.42663" lon="3.7483">
        <ele>1667.06</ele>
        <time>2011-08-03T15:16:11Z</time>
      </trkpt>
      <trkpt lat="44.42662" lon="3.7482">
        <ele>1668.51</ele>
        <time>2011-08-03T15:16:17Z</time>
      </trkpt>
      <trkpt lat="44.42663" lon="3.74808">
        <ele>1668.51</ele>
        <time>2011-08-03T15:16:24Z</time>
      </trkpt>
      <trkpt lat="44.42666" lon="3.74777">
        <ele>1669.47</ele>
        <time>2011-08-03T15:16:42Z</time>
      </trkpt>
      <trkpt lat="44.42667" lon="3.74769">
        <ele>1669.95</ele>
        <time>2011-08-03T15:16:46Z</time>
      </trkpt>
      <trkpt lat="44.42668" lon="3.74758">
        <ele>1670.91</ele>
        <time>2011-08-03T15:16:52Z</time>
      </trkpt>
      <trkpt lat="44.4267" lon="3.74728">
        <ele>1671.87</ele>
        <time>2011-08-03T15:17:08Z</time>
      </trkpt>
      <trkpt lat="44.42672" lon="3.74695">
        <ele>1672.35</ele>
        <time>2011-08-03T15:17:25Z</time>
      </trkpt>
      <trkpt lat="44.42675" lon="3.74667">
        <ele>1673.79</ele>
        <time>2011-08-03T15:17:40Z</time>
      </trkpt>
      <trkpt lat="44.42681" lon="3.74639">
        <ele>1675.72</ele>
        <time>2011-08-03T15:17:55Z</time>
      </trkpt>
      <trkpt lat="44.42688" lon="3.7461">
        <ele>1677.64</ele>
        <time>2011-08-03T15:18:11Z</time>
      </trkpt>
      <trkpt lat="44.42699" lon="3.7458">
        <ele>1680.52</ele>
        <time>2011-08-03T15:18:28Z</time>
      </trkpt>
      <trkpt lat="44.42716" lon="3.74559">
        <ele>1682.93</ele>
        <time>2011-08-03T15:18:44Z</time>
      </trkpt>
      <trkpt lat="44.4273" lon="3.74542">
        <ele>1684.37</ele>
        <time>2011-08-03T15:18:58Z</time>
      </trkpt>
      <trkpt lat="44.42743" lon="3.74523">
        <ele>1684.37</ele>
        <time>2011-08-03T15:19:14Z</time>
      </trkpt>
      <trkpt lat="44.42746" lon="3.7452">
        <ele>1684.37</ele>
        <time>2011-08-03T15:19:17Z</time>
      </trkpt>
      <trkpt lat="44.42747" lon="3.74509">
        <ele>1683.89</ele>
        <time>2011-08-03T15:19:32Z</time>
      </trkpt>
      <trkpt lat="44.42747" lon="3.74509">
        <ele>1683.41</ele>
        <time>2011-08-03T15:20:16Z</time>
      </trkpt>
      <trkpt lat="44.42747" lon="3.7451">
        <ele>1683.41</ele>
        <time>2011-08-03T15:21:04Z</time>
      </trkpt>
      <trkpt lat="44.42747" lon="3.7451">
        <ele>1683.41</ele>
        <time>2011-08-03T15:21:49Z</time>
      </trkpt>
      <trkpt lat="44.42747" lon="3.7451">
        <ele>1683.41</ele>
        <time>2011-08-03T15:22:33Z</time>
      </trkpt>
      <trkpt lat="44.42747" lon="3.7451">
        <ele>1682.93</ele>
        <time>2011-08-03T15:23:13Z</time>
      </trkpt>
      <trkpt lat="44.42746" lon="3.7451">
        <ele>1683.41</ele>
        <time>2011-08-03T15:24:00Z</time>
      </trkpt>
      <trkpt lat="44.42745" lon="3.74509">
        <ele>1683.89</ele>
        <time>2011-08-03T15:24:16Z</time>
      </trkpt>
      <trkpt lat="44.42729" lon="3.74489">
        <ele>1682.44</ele>
        <time>2011-08-03T15:24:31Z</time>
      </trkpt>
      <trkpt lat="44.42719" lon="3.74453">
        <ele>1680.04</ele>
        <time>2011-08-03T15:24:43Z</time>
      </trkpt>
      <trkpt lat="44.42707" lon="3.74419">
        <ele>1678.12</ele>
        <time>2011-08-03T15:24:50Z</time>
      </trkpt>
      <trkpt lat="44.42705" lon="3.74413">
        <ele>1678.12</ele>
        <time>2011-08-03T15:24:51Z</time>
      </trkpt>
      <trkpt lat="44.42703" lon="3.74408">
        <ele>1677.64</ele>
        <time>2011-08-03T15:24:52Z</time>
      </trkpt>
      <trkpt lat="44.42701" lon="3.74402">
        <ele>1677.16</ele>
        <time>2011-08-03T15:24:53Z</time>
      </trkpt>
      <trkpt lat="44.42699" lon="3.74396">
        <ele>1677.16</ele>
        <time>2011-08-03T15:24:54Z</time>
      </trkpt>
      <trkpt lat="44.42697" lon="3.7439">
        <ele>1676.68</ele>
        <time>2011-08-03T15:24:55Z</time>
      </trkpt>
      <trkpt lat="44.42696" lon="3.74384">
        <ele>1676.68</ele>
        <time>2011-08-03T15:24:56Z</time>
      </trkpt>
      <trkpt lat="44.42694" lon="3.74378">
        <ele>1676.2</ele>
        <time>2011-08-03T15:24:57Z</time>
      </trkpt>
      <trkpt lat="44.42693" lon="3.74371">
        <ele>1675.72</ele>
        <time>2011-08-03T15:24:58Z</time>
      </trkpt>
      <trkpt lat="44.42691" lon="3.74365">
        <ele>1675.72</ele>
        <time>2011-08-03T15:24:59Z</time>
      </trkpt>
      <trkpt lat="44.42675" lon="3.74298">
        <ele>1673.31</ele>
        <time>2011-08-03T15:25:13Z</time>
      </trkpt>
      <trkpt lat="44.42664" lon="3.74268">
        <ele>1674.27</ele>
        <time>2011-08-03T15:25:25Z</time>
      </trkpt>
      <trkpt lat="44.4266" lon="3.74231">
        <ele>1676.68</ele>
        <time>2011-08-03T15:25:41Z</time>
      </trkpt>
      <trkpt lat="44.42653" lon="3.742">
        <ele>1679.08</ele>
        <time>2011-08-03T15:25:57Z</time>
      </trkpt>
      <trkpt lat="44.42648" lon="3.74177">
        <ele>1679.56</ele>
        <time>2011-08-03T15:26:11Z</time>
      </trkpt>
      <trkpt lat="44.42645" lon="3.74165">
        <ele>1681</ele>
        <time>2011-08-03T15:26:18Z</time>
      </trkpt>
      <trkpt lat="44.42645" lon="3.74163">
        <ele>1681</ele>
        <time>2011-08-03T15:26:19Z</time>
      </trkpt>
      <trkpt lat="44.42645" lon="3.74162">
        <ele>1681.48</ele>
        <time>2011-08-03T15:26:20Z</time>
      </trkpt>
      <trkpt lat="44.42638" lon="3.74136">
        <ele>1684.37</ele>
        <time>2011-08-03T15:26:36Z</time>
      </trkpt>
      <trkpt lat="44.42637" lon="3.74134">
        <ele>1684.37</ele>
        <time>2011-08-03T15:26:37Z</time>
      </trkpt>
      <trkpt lat="44.42637" lon="3.74133">
        <ele>1684.37</ele>
        <time>2011-08-03T15:26:38Z</time>
      </trkpt>
      <trkpt lat="44.42637" lon="3.74131">
        <ele>1684.37</ele>
        <time>2011-08-03T15:26:39Z</time>
      </trkpt>
      <trkpt lat="44.42637" lon="3.74129">
        <ele>1684.85</ele>
        <time>2011-08-03T15:26:41Z</time>
      </trkpt>
      <trkpt lat="44.42637" lon="3.74127">
        <ele>1684.85</ele>
        <time>2011-08-03T15:26:42Z</time>
      </trkpt>
      <trkpt lat="44.42637" lon="3.74126">
        <ele>1685.33</ele>
        <time>2011-08-03T15:26:43Z</time>
      </trkpt>
      <trkpt lat="44.42637" lon="3.74124">
        <ele>1685.33</ele>
        <time>2011-08-03T15:26:44Z</time>
      </trkpt>
      <trkpt lat="44.42637" lon="3.74123">
        <ele>1685.33</ele>
        <time>2011-08-03T15:26:45Z</time>
      </trkpt>
      <trkpt lat="44.42632" lon="3.74093">
        <ele>1687.73</ele>
        <time>2011-08-03T15:27:02Z</time>
      </trkpt>
      <trkpt lat="44.42629" lon="3.74062">
        <ele>1690.62</ele>
        <time>2011-08-03T15:27:20Z</time>
      </trkpt>
      <trkpt lat="44.42625" lon="3.74042">
        <ele>1692.54</ele>
        <time>2011-08-03T15:27:31Z</time>
      </trkpt>
      <trkpt lat="44.4262" lon="3.74012">
        <ele>1694.46</ele>
        <time>2011-08-03T15:27:47Z</time>
      </trkpt>
      <trkpt lat="44.42613" lon="3.73981">
        <ele>1696.86</ele>
        <time>2011-08-03T15:28:05Z</time>
      </trkpt>
      <trkpt lat="44.4261" lon="3.73977">
        <ele>1697.34</ele>
        <time>2011-08-03T15:28:18Z</time>
      </trkpt>
      <trkpt lat="44.4261" lon="3.73977">
        <ele>1697.34</ele>
        <time>2011-08-03T15:28:43Z</time>
      </trkpt>
      <trkpt lat="44.4261" lon="3.73978">
        <ele>1697.34</ele>
        <time>2011-08-03T15:29:13Z</time>
      </trkpt>
      <trkpt lat="44.4261" lon="3.73978">
        <ele>1697.34</ele>
        <time>2011-08-03T15:30:02Z</time>
      </trkpt>
      <trkpt lat="44.4261" lon="3.73978">
        <ele>1697.34</ele>
        <time>2011-08-03T15:30:49Z</time>
      </trkpt>
      <trkpt lat="44.4261" lon="3.73978">
        <ele>1696.86</ele>
        <time>2011-08-03T15:31:33Z</time>
      </trkpt>
      <trkpt lat="44.4261" lon="3.73979">
        <ele>1696.86</ele>
        <time>2011-08-03T15:32:17Z</time>
      </trkpt>
      <trkpt lat="44.4261" lon="3.73979">
        <ele>1696.86</ele>
        <time>2011-08-03T15:32:59Z</time>
      </trkpt>
      <trkpt lat="44.4261" lon="3.73979">
        <ele>1696.86</ele>
        <time>2011-08-03T15:33:41Z</time>
      </trkpt>
      <trkpt lat="44.4261" lon="3.73979">
        <ele>1696.86</ele>
        <time>2011-08-03T15:34:14Z</time>
      </trkpt>
      <trkpt lat="44.4261" lon="3.73979">
        <ele>1696.86</ele>
        <time>2011-08-03T15:34:46Z</time>
      </trkpt>
      <trkpt lat="44.4261" lon="3.73979">
        <ele>1696.86</ele>
        <time>2011-08-03T15:35:07Z</time>
      </trkpt>
      <trkpt lat="44.4261" lon="3.73979">
        <ele>1696.86</ele>
        <time>2011-08-03T15:35:31Z</time>
      </trkpt>
      <trkpt lat="44.4261" lon="3.73979">
        <ele>1696.86</ele>
        <time>2011-08-03T15:35:57Z</time>
      </trkpt>
      <trkpt lat="44.4261" lon="3.73979">
        <ele>1696.86</ele>
        <time>2011-08-03T15:36:28Z</time>
      </trkpt>
      <trkpt lat="44.4261" lon="3.73979">
        <ele>1696.86</ele>
        <time>2011-08-03T15:36:59Z</time>
      </trkpt>
      <trkpt lat="44.4261" lon="3.73979">
        <ele>1696.86</ele>
        <time>2011-08-03T15:37:20Z</time>
      </trkpt>
      <trkpt lat="44.4261" lon="3.73979">
        <ele>1696.86</ele>
        <time>2011-08-03T15:37:49Z</time>
      </trkpt>
      <trkpt lat="44.4261" lon="3.73979">
        <ele>1696.86</ele>
        <time>2011-08-03T15:38:19Z</time>
      </trkpt>
      <trkpt lat="44.42611" lon="3.7398">
        <ele>1696.86</ele>
        <time>2011-08-03T15:38:23Z</time>
      </trkpt>
      <trkpt lat="44.42612" lon="3.73982">
        <ele>1696.86</ele>
        <time>2011-08-03T15:38:24Z</time>
      </trkpt>
      <trkpt lat="44.4262" lon="3.74024">
        <ele>1694.94</ele>
        <time>2011-08-03T15:38:36Z</time>
      </trkpt>
      <trkpt lat="44.42624" lon="3.74048">
        <ele>1693.02</ele>
        <time>2011-08-03T15:38:48Z</time>
      </trkpt>
      <trkpt lat="44.42622" lon="3.74044">
        <ele>1693.02</ele>
        <time>2011-08-03T15:38:54Z</time>
      </trkpt>
      <trkpt lat="44.42623" lon="3.74042">
        <ele>1693.02</ele>
        <time>2011-08-03T15:38:55Z</time>
      </trkpt>
      <trkpt lat="44.42623" lon="3.7404">
        <ele>1693.5</ele>
        <time>2011-08-03T15:38:56Z</time>
      </trkpt>
      <trkpt lat="44.42623" lon="3.74038">
        <ele>1693.5</ele>
        <time>2011-08-03T15:38:57Z</time>
      </trkpt>
      <trkpt lat="44.42623" lon="3.74036">
        <ele>1693.5</ele>
        <time>2011-08-03T15:38:58Z</time>
      </trkpt>
      <trkpt lat="44.42623" lon="3.74033">
        <ele>1693.98</ele>
        <time>2011-08-03T15:38:59Z</time>
      </trkpt>
      <trkpt lat="44.42623" lon="3.74031">
        <ele>1693.98</ele>
        <time>2011-08-03T15:39:00Z</time>
      </trkpt>
      <trkpt lat="44.42622" lon="3.74029">
        <ele>1693.98</ele>
        <time>2011-08-03T15:39:01Z</time>
      </trkpt>
      <trkpt lat="44.42622" lon="3.74027">
        <ele>1694.46</ele>
        <time>2011-08-03T15:39:02Z</time>
      </trkpt>
      <trkpt lat="44.42617" lon="3.73993">
        <ele>1696.86</ele>
        <time>2011-08-03T15:39:18Z</time>
      </trkpt>
      <trkpt lat="44.42613" lon="3.73954">
        <ele>1698.31</ele>
        <time>2011-08-03T15:39:33Z</time>
      </trkpt>
      <trkpt lat="44.42606" lon="3.7393">
        <ele>1698.79</ele>
        <time>2011-08-03T15:39:45Z</time>
      </trkpt>
      <trkpt lat="44.42602" lon="3.7392">
        <ele>1699.75</ele>
        <time>2011-08-03T15:39:51Z</time>
      </trkpt>
      <trkpt lat="44.42602" lon="3.73918">
        <ele>1699.75</ele>
        <time>2011-08-03T15:39:52Z</time>
      </trkpt>
      <trkpt lat="44.42601" lon="3.73916">
        <ele>1699.75</ele>
        <time>2011-08-03T15:39:53Z</time>
      </trkpt>
      <trkpt lat="44.42603" lon="3.73914">
        <ele>1700.23</ele>
        <time>2011-08-03T15:40:04Z</time>
      </trkpt>
      <trkpt lat="44.42603" lon="3.73914">
        <ele>1700.23</ele>
        <time>2011-08-03T15:40:18Z</time>
      </trkpt>
      <trkpt lat="44.42603" lon="3.73914">
        <ele>1700.23</ele>
        <time>2011-08-03T15:40:37Z</time>
      </trkpt>
      <trkpt lat="44.42603" lon="3.73914">
        <ele>1700.23</ele>
        <time>2011-08-03T15:41:05Z</time>
      </trkpt>
      <trkpt lat="44.42603" lon="3.73914">
        <ele>1700.23</ele>
        <time>2011-08-03T15:41:28Z</time>
      </trkpt>
      <trkpt lat="44.42603" lon="3.73914">
        <ele>1700.23</ele>
        <time>2011-08-03T15:41:47Z</time>
      </trkpt>
      <trkpt lat="44.42603" lon="3.73914">
        <ele>1700.23</ele>
        <time>2011-08-03T15:42:08Z</time>
      </trkpt>
      <trkpt lat="44.42603" lon="3.73914">
        <ele>1700.23</ele>
        <time>2011-08-03T15:42:22Z</time>
      </trkpt>
      <trkpt lat="44.42585" lon="3.73909">
        <ele>1700.23</ele>
        <time>2011-08-03T15:42:35Z</time>
      </trkpt>
      <trkpt lat="44.42558" lon="3.73901">
        <ele>1699.27</ele>
        <time>2011-08-03T15:42:48Z</time>
      </trkpt>
      <trkpt lat="44.42527" lon="3.73895">
        <ele>1697.34</ele>
        <time>2011-08-03T15:42:56Z</time>
      </trkpt>
      <trkpt lat="44.42458" lon="3.73876">
        <ele>1690.62</ele>
        <time>2011-08-03T15:43:08Z</time>
      </trkpt>
      <trkpt lat="44.42429" lon="3.73874">
        <ele>1686.77</ele>
        <time>2011-08-03T15:43:16Z</time>
      </trkpt>
      <trkpt lat="44.42407" lon="3.73873">
        <ele>1684.85</ele>
        <time>2011-08-03T15:43:21Z</time>
      </trkpt>
      <trkpt lat="44.42332" lon="3.73882">
        <ele>1677.16</ele>
        <time>2011-08-03T15:43:31Z</time>
      </trkpt>
      <trkpt lat="44.42273" lon="3.7389">
        <ele>1665.14</ele>
        <time>2011-08-03T15:43:40Z</time>
      </trkpt>
      <trkpt lat="44.42269" lon="3.73895">
        <ele>1662.26</ele>
        <time>2011-08-03T15:43:49Z</time>
      </trkpt>
      <trkpt lat="44.42269" lon="3.73895">
        <ele>1662.26</ele>
        <time>2011-08-03T15:44:09Z</time>
      </trkpt>
      <trkpt lat="44.42269" lon="3.73894">
        <ele>1661.78</ele>
        <time>2011-08-03T15:44:35Z</time>
      </trkpt>
      <trkpt lat="44.42269" lon="3.73895">
        <ele>1661.78</ele>
        <time>2011-08-03T15:45:00Z</time>
      </trkpt>
      <trkpt lat="44.4227" lon="3.73899">
        <ele>1661.78</ele>
        <time>2011-08-03T15:45:16Z</time>
      </trkpt>
      <trkpt lat="44.42265" lon="3.7394">
        <ele>1660.81</ele>
        <time>2011-08-03T15:45:25Z</time>
      </trkpt>
      <trkpt lat="44.42257" lon="3.73991">
        <ele>1659.85</ele>
        <time>2011-08-03T15:45:35Z</time>
      </trkpt>
      <trkpt lat="44.42256" lon="3.73997">
        <ele>1659.85</ele>
        <time>2011-08-03T15:45:36Z</time>
      </trkpt>
      <trkpt lat="44.42255" lon="3.74004">
        <ele>1659.85</ele>
        <time>2011-08-03T15:45:37Z</time>
      </trkpt>
      <trkpt lat="44.42252" lon="3.74018">
        <ele>1659.85</ele>
        <time>2011-08-03T15:45:39Z</time>
      </trkpt>
      <trkpt lat="44.42247" lon="3.74035">
        <ele>1659.85</ele>
        <time>2011-08-03T15:45:42Z</time>
      </trkpt>
      <trkpt lat="44.42245" lon="3.74041">
        <ele>1659.85</ele>
        <time>2011-08-03T15:45:43Z</time>
      </trkpt>
      <trkpt lat="44.42225" lon="3.74091">
        <ele>1657.93</ele>
        <time>2011-08-03T15:45:55Z</time>
      </trkpt>
      <trkpt lat="44.42225" lon="3.74088">
        <ele>1657.93</ele>
        <time>2011-08-03T15:46:10Z</time>
      </trkpt>
      <trkpt lat="44.42225" lon="3.74086">
        <ele>1657.93</ele>
        <time>2011-08-03T15:46:11Z</time>
      </trkpt>
      <trkpt lat="44.42225" lon="3.74083">
        <ele>1658.41</ele>
        <time>2011-08-03T15:46:12Z</time>
      </trkpt>
      <trkpt lat="44.42223" lon="3.74081">
        <ele>1658.41</ele>
        <time>2011-08-03T15:46:13Z</time>
      </trkpt>
      <trkpt lat="44.42222" lon="3.7408">
        <ele>1658.41</ele>
        <time>2011-08-03T15:46:14Z</time>
      </trkpt>
      <trkpt lat="44.42221" lon="3.74078">
        <ele>1657.93</ele>
        <time>2011-08-03T15:46:15Z</time>
      </trkpt>
      <trkpt lat="44.42219" lon="3.74076">
        <ele>1657.93</ele>
        <time>2011-08-03T15:46:16Z</time>
      </trkpt>
      <trkpt lat="44.42217" lon="3.74075">
        <ele>1657.45</ele>
        <time>2011-08-03T15:46:17Z</time>
      </trkpt>
      <trkpt lat="44.42199" lon="3.74052">
        <ele>1654.09</ele>
        <time>2011-08-03T15:46:27Z</time>
      </trkpt>
      <trkpt lat="44.42195" lon="3.74048">
        <ele>1653.6</ele>
        <time>2011-08-03T15:46:29Z</time>
      </trkpt>
      <trkpt lat="44.42193" lon="3.74047">
        <ele>1653.12</ele>
        <time>2011-08-03T15:46:30Z</time>
      </trkpt>
      <trkpt lat="44.42192" lon="3.74046">
        <ele>1652.64</ele>
        <time>2011-08-03T15:46:31Z</time>
      </trkpt>
      <trkpt lat="44.4219" lon="3.74043">
        <ele>1652.64</ele>
        <time>2011-08-03T15:46:32Z</time>
      </trkpt>
      <trkpt lat="44.42188" lon="3.74041">
        <ele>1652.16</ele>
        <time>2011-08-03T15:46:33Z</time>
      </trkpt>
      <trkpt lat="44.42185" lon="3.74039">
        <ele>1651.68</ele>
        <time>2011-08-03T15:46:34Z</time>
      </trkpt>
      <trkpt lat="44.42182" lon="3.74038">
        <ele>1651.2</ele>
        <time>2011-08-03T15:46:35Z</time>
      </trkpt>
      <trkpt lat="44.42179" lon="3.74036">
        <ele>1650.24</ele>
        <time>2011-08-03T15:46:36Z</time>
      </trkpt>
      <trkpt lat="44.42176" lon="3.74034">
        <ele>1649.76</ele>
        <time>2011-08-03T15:46:37Z</time>
      </trkpt>
      <trkpt lat="44.42172" lon="3.74032">
        <ele>1648.8</ele>
        <time>2011-08-03T15:46:38Z</time>
      </trkpt>
      <trkpt lat="44.42168" lon="3.74029">
        <ele>1648.32</ele>
        <time>2011-08-03T15:46:39Z</time>
      </trkpt>
      <trkpt lat="44.42147" lon="3.74015">
        <ele>1642.07</ele>
        <time>2011-08-03T15:46:48Z</time>
      </trkpt>
      <trkpt lat="44.42138" lon="3.74009">
        <ele>1640.15</ele>
        <time>2011-08-03T15:46:55Z</time>
      </trkpt>
      <trkpt lat="44.42121" lon="3.74004">
        <ele>1639.19</ele>
        <time>2011-08-03T15:47:08Z</time>
      </trkpt>
      <trkpt lat="44.42119" lon="3.74003">
        <ele>1638.7</ele>
        <time>2011-08-03T15:47:13Z</time>
      </trkpt>
      <trkpt lat="44.42118" lon="3.74002">
        <ele>1638.7</ele>
        <time>2011-08-03T15:47:14Z</time>
      </trkpt>
      <trkpt lat="44.42086" lon="3.73983">
        <ele>1634.38</ele>
        <time>2011-08-03T15:47:26Z</time>
      </trkpt>
      <trkpt lat="44.42065" lon="3.73975">
        <ele>1631.98</ele>
        <time>2011-08-03T15:47:31Z</time>
      </trkpt>
      <trkpt lat="44.42062" lon="3.73975">
        <ele>1631.01</ele>
        <time>2011-08-03T15:47:32Z</time>
      </trkpt>
      <trkpt lat="44.42056" lon="3.73973">
        <ele>1628.13</ele>
        <time>2011-08-03T15:47:37Z</time>
      </trkpt>
      <trkpt lat="44.42056" lon="3.73974">
        <ele>1628.13</ele>
        <time>2011-08-03T15:47:38Z</time>
      </trkpt>
      <trkpt lat="44.42044" lon="3.73973">
        <ele>1623.32</ele>
        <time>2011-08-03T15:47:50Z</time>
      </trkpt>
      <trkpt lat="44.42031" lon="3.73964">
        <ele>1619.48</ele>
        <time>2011-08-03T15:48:00Z</time>
      </trkpt>
      <trkpt lat="44.42011" lon="3.73952">
        <ele>1615.63</ele>
        <time>2011-08-03T15:48:11Z</time>
      </trkpt>
      <trkpt lat="44.41993" lon="3.73948">
        <ele>1611.79</ele>
        <time>2011-08-03T15:48:23Z</time>
      </trkpt>
      <trkpt lat="44.41987" lon="3.73948">
        <ele>1610.83</ele>
        <time>2011-08-03T15:48:27Z</time>
      </trkpt>
      <trkpt lat="44.41985" lon="3.73947">
        <ele>1610.83</ele>
        <time>2011-08-03T15:48:28Z</time>
      </trkpt>
      <trkpt lat="44.41983" lon="3.73947">
        <ele>1610.83</ele>
        <time>2011-08-03T15:48:29Z</time>
      </trkpt>
      <trkpt lat="44.41981" lon="3.73946">
        <ele>1610.83</ele>
        <time>2011-08-03T15:48:30Z</time>
      </trkpt>
      <trkpt lat="44.41979" lon="3.73945">
        <ele>1610.35</ele>
        <time>2011-08-03T15:48:31Z</time>
      </trkpt>
      <trkpt lat="44.41977" lon="3.73944">
        <ele>1609.86</ele>
        <time>2011-08-03T15:48:32Z</time>
      </trkpt>
      <trkpt lat="44.41975" lon="3.73942">
        <ele>1609.38</ele>
        <time>2011-08-03T15:48:33Z</time>
      </trkpt>
      <trkpt lat="44.41973" lon="3.73941">
        <ele>1608.9</ele>
        <time>2011-08-03T15:48:34Z</time>
      </trkpt>
      <trkpt lat="44.41971" lon="3.7394">
        <ele>1608.42</ele>
        <time>2011-08-03T15:48:35Z</time>
      </trkpt>
      <trkpt lat="44.4197" lon="3.73939">
        <ele>1608.42</ele>
        <time>2011-08-03T15:48:36Z</time>
      </trkpt>
      <trkpt lat="44.41968" lon="3.73938">
        <ele>1607.94</ele>
        <time>2011-08-03T15:48:37Z</time>
      </trkpt>
      <trkpt lat="44.41967" lon="3.73938">
        <ele>1607.46</ele>
        <time>2011-08-03T15:48:38Z</time>
      </trkpt>
      <trkpt lat="44.41966" lon="3.73938">
        <ele>1607.46</ele>
        <time>2011-08-03T15:48:39Z</time>
      </trkpt>
      <trkpt lat="44.41964" lon="3.73938">
        <ele>1606.98</ele>
        <time>2011-08-03T15:48:40Z</time>
      </trkpt>
      <trkpt lat="44.41962" lon="3.73939">
        <ele>1606.98</ele>
        <time>2011-08-03T15:48:41Z</time>
      </trkpt>
      <trkpt lat="44.41961" lon="3.73938">
        <ele>1606.5</ele>
        <time>2011-08-03T15:48:42Z</time>
      </trkpt>
      <trkpt lat="44.41959" lon="3.73937">
        <ele>1606.02</ele>
        <time>2011-08-03T15:48:43Z</time>
      </trkpt>
      <trkpt lat="44.41958" lon="3.73936">
        <ele>1605.54</ele>
        <time>2011-08-03T15:48:44Z</time>
      </trkpt>
      <trkpt lat="44.41956" lon="3.73935">
        <ele>1605.06</ele>
        <time>2011-08-03T15:48:45Z</time>
      </trkpt>
      <trkpt lat="44.41954" lon="3.73935">
        <ele>1604.58</ele>
        <time>2011-08-03T15:48:46Z</time>
      </trkpt>
      <trkpt lat="44.41952" lon="3.73935">
        <ele>1604.58</ele>
        <time>2011-08-03T15:48:47Z</time>
      </trkpt>
      <trkpt lat="44.4195" lon="3.73935">
        <ele>1604.1</ele>
        <time>2011-08-03T15:48:48Z</time>
      </trkpt>
      <trkpt lat="44.41947" lon="3.73935">
        <ele>1603.62</ele>
        <time>2011-08-03T15:48:49Z</time>
      </trkpt>
      <trkpt lat="44.41945" lon="3.73936">
        <ele>1603.62</ele>
        <time>2011-08-03T15:48:50Z</time>
      </trkpt>
      <trkpt lat="44.41943" lon="3.73937">
        <ele>1603.14</ele>
        <time>2011-08-03T15:48:51Z</time>
      </trkpt>
      <trkpt lat="44.4194" lon="3.73937">
        <ele>1602.66</ele>
        <time>2011-08-03T15:48:52Z</time>
      </trkpt>
      <trkpt lat="44.41938" lon="3.73937">
        <ele>1602.66</ele>
        <time>2011-08-03T15:48:53Z</time>
      </trkpt>
      <trkpt lat="44.41935" lon="3.73936">
        <ele>1602.17</ele>
        <time>2011-08-03T15:48:54Z</time>
      </trkpt>
      <trkpt lat="44.41933" lon="3.73935">
        <ele>1601.69</ele>
        <time>2011-08-03T15:48:55Z</time>
      </trkpt>
      <trkpt lat="44.4193" lon="3.73934">
        <ele>1601.69</ele>
        <time>2011-08-03T15:48:56Z</time>
      </trkpt>
      <trkpt lat="44.41912" lon="3.73929">
        <ele>1596.89</ele>
        <time>2011-08-03T15:49:07Z</time>
      </trkpt>
      <trkpt lat="44.41901" lon="3.73929">
        <ele>1594</ele>
        <time>2011-08-03T15:49:20Z</time>
      </trkpt>
      <trkpt lat="44.41897" lon="3.73928">
        <ele>1593.52</ele>
        <time>2011-08-03T15:49:25Z</time>
      </trkpt>
      <trkpt lat="44.41894" lon="3.73929">
        <ele>1592.56</ele>
        <time>2011-08-03T15:49:38Z</time>
      </trkpt>
      <trkpt lat="44.4189" lon="3.73929">
        <ele>1592.08</ele>
        <time>2011-08-03T15:49:41Z</time>
      </trkpt>
      <trkpt lat="44.41867" lon="3.73928">
        <ele>1589.2</ele>
        <time>2011-08-03T15:49:53Z</time>
      </trkpt>
      <trkpt lat="44.41851" lon="3.73928">
        <ele>1583.91</ele>
        <time>2011-08-03T15:50:04Z</time>
      </trkpt>
      <trkpt lat="44.41845" lon="3.73928">
        <ele>1581.03</ele>
        <time>2011-08-03T15:50:17Z</time>
      </trkpt>
      <trkpt lat="44.41842" lon="3.7393">
        <ele>1580.06</ele>
        <time>2011-08-03T15:50:26Z</time>
      </trkpt>
      <trkpt lat="44.4184" lon="3.73931">
        <ele>1580.54</ele>
        <time>2011-08-03T15:50:27Z</time>
      </trkpt>
      <trkpt lat="44.41839" lon="3.73933">
        <ele>1580.06</ele>
        <time>2011-08-03T15:50:28Z</time>
      </trkpt>
      <trkpt lat="44.41816" lon="3.73943">
        <ele>1577.66</ele>
        <time>2011-08-03T15:50:39Z</time>
      </trkpt>
      <trkpt lat="44.41808" lon="3.73947">
        <ele>1575.74</ele>
        <time>2011-08-03T15:50:46Z</time>
      </trkpt>
      <trkpt lat="44.41806" lon="3.73947">
        <ele>1575.26</ele>
        <time>2011-08-03T15:50:47Z</time>
      </trkpt>
      <trkpt lat="44.41805" lon="3.73948">
        <ele>1574.78</ele>
        <time>2011-08-03T15:50:48Z</time>
      </trkpt>
      <trkpt lat="44.41789" lon="3.73945">
        <ele>1571.89</ele>
        <time>2011-08-03T15:50:58Z</time>
      </trkpt>
      <trkpt lat="44.41787" lon="3.73945">
        <ele>1571.89</ele>
        <time>2011-08-03T15:50:59Z</time>
      </trkpt>
      <trkpt lat="44.41759" lon="3.73956">
        <ele>1567.09</ele>
        <time>2011-08-03T15:51:12Z</time>
      </trkpt>
      <trkpt lat="44.41755" lon="3.73951">
        <ele>1564.68</ele>
        <time>2011-08-03T15:51:23Z</time>
      </trkpt>
      <trkpt lat="44.41747" lon="3.7395">
        <ele>1561.8</ele>
        <time>2011-08-03T15:51:38Z</time>
      </trkpt>
      <trkpt lat="44.41742" lon="3.73943">
        <ele>1558.92</ele>
        <time>2011-08-03T15:51:50Z</time>
      </trkpt>
      <trkpt lat="44.41736" lon="3.73935">
        <ele>1555.55</ele>
        <time>2011-08-03T15:52:00Z</time>
      </trkpt>
      <trkpt lat="44.41735" lon="3.73934">
        <ele>1555.07</ele>
        <time>2011-08-03T15:52:01Z</time>
      </trkpt>
      <trkpt lat="44.41734" lon="3.73933">
        <ele>1555.07</ele>
        <time>2011-08-03T15:52:02Z</time>
      </trkpt>
      <trkpt lat="44.41732" lon="3.73931">
        <ele>1554.59</ele>
        <time>2011-08-03T15:52:03Z</time>
      </trkpt>
      <trkpt lat="44.41732" lon="3.7393">
        <ele>1554.11</ele>
        <time>2011-08-03T15:52:04Z</time>
      </trkpt>
      <trkpt lat="44.4173" lon="3.73928">
        <ele>1552.67</ele>
        <time>2011-08-03T15:52:19Z</time>
      </trkpt>
      <trkpt lat="44.4173" lon="3.73928">
        <ele>1552.19</ele>
        <time>2011-08-03T15:52:51Z</time>
      </trkpt>
      <trkpt lat="44.41728" lon="3.73928">
        <ele>1552.19</ele>
        <time>2011-08-03T15:52:55Z</time>
      </trkpt>
      <trkpt lat="44.41726" lon="3.73927">
        <ele>1551.71</ele>
        <time>2011-08-03T15:52:56Z</time>
      </trkpt>
      <trkpt lat="44.41724" lon="3.73926">
        <ele>1551.71</ele>
        <time>2011-08-03T15:52:57Z</time>
      </trkpt>
      <trkpt lat="44.41722" lon="3.73924">
        <ele>1551.22</ele>
        <time>2011-08-03T15:52:59Z</time>
      </trkpt>
      <trkpt lat="44.41721" lon="3.73922">
        <ele>1550.74</ele>
        <time>2011-08-03T15:53:00Z</time>
      </trkpt>
      <trkpt lat="44.4172" lon="3.73921">
        <ele>1550.74</ele>
        <time>2011-08-03T15:53:01Z</time>
      </trkpt>
      <trkpt lat="44.41718" lon="3.7392">
        <ele>1550.26</ele>
        <time>2011-08-03T15:53:02Z</time>
      </trkpt>
      <trkpt lat="44.41717" lon="3.73919">
        <ele>1549.78</ele>
        <time>2011-08-03T15:53:03Z</time>
      </trkpt>
      <trkpt lat="44.41711" lon="3.73917">
        <ele>1547.38</ele>
        <time>2011-08-03T15:53:15Z</time>
      </trkpt>
      <trkpt lat="44.41699" lon="3.73913">
        <ele>1544.5</ele>
        <time>2011-08-03T15:53:27Z</time>
      </trkpt>
      <trkpt lat="44.41696" lon="3.73912">
        <ele>1543.53</ele>
        <time>2011-08-03T15:53:30Z</time>
      </trkpt>
      <trkpt lat="44.41695" lon="3.73911">
        <ele>1543.05</ele>
        <time>2011-08-03T15:53:31Z</time>
      </trkpt>
      <trkpt lat="44.41689" lon="3.73907">
        <ele>1540.17</ele>
        <time>2011-08-03T15:53:41Z</time>
      </trkpt>
      <trkpt lat="44.4168" lon="3.73899">
        <ele>1538.73</ele>
        <time>2011-08-03T15:53:53Z</time>
      </trkpt>
      <trkpt lat="44.41679" lon="3.73898">
        <ele>1538.73</ele>
        <time>2011-08-03T15:53:54Z</time>
      </trkpt>
      <trkpt lat="44.41678" lon="3.73897">
        <ele>1538.73</ele>
        <time>2011-08-03T15:53:55Z</time>
      </trkpt>
      <trkpt lat="44.41676" lon="3.73895">
        <ele>1538.25</ele>
        <time>2011-08-03T15:53:57Z</time>
      </trkpt>
      <trkpt lat="44.41676" lon="3.73895">
        <ele>1538.25</ele>
        <time>2011-08-03T15:53:58Z</time>
      </trkpt>
      <trkpt lat="44.41662" lon="3.7389">
        <ele>1536.8</ele>
        <time>2011-08-03T15:54:12Z</time>
      </trkpt>
      <trkpt lat="44.41659" lon="3.7389">
        <ele>1536.32</ele>
        <time>2011-08-03T15:54:29Z</time>
      </trkpt>
      <trkpt lat="44.41658" lon="3.7389">
        <ele>1536.32</ele>
        <time>2011-08-03T15:54:51Z</time>
      </trkpt>
      <trkpt lat="44.41658" lon="3.7389">
        <ele>1536.32</ele>
        <time>2011-08-03T15:55:18Z</time>
      </trkpt>
      <trkpt lat="44.41658" lon="3.7389">
        <ele>1536.32</ele>
        <time>2011-08-03T15:55:45Z</time>
      </trkpt>
      <trkpt lat="44.41653" lon="3.73887">
        <ele>1536.32</ele>
        <time>2011-08-03T15:56:03Z</time>
      </trkpt>
      <trkpt lat="44.41643" lon="3.73883">
        <ele>1532.96</ele>
        <time>2011-08-03T15:56:18Z</time>
      </trkpt>
      <trkpt lat="44.41642" lon="3.73882">
        <ele>1532</ele>
        <time>2011-08-03T15:56:20Z</time>
      </trkpt>
      <trkpt lat="44.41636" lon="3.73879">
        <ele>1528.63</ele>
        <time>2011-08-03T15:56:30Z</time>
      </trkpt>
      <trkpt lat="44.4163" lon="3.73878">
        <ele>1526.71</ele>
        <time>2011-08-03T15:56:42Z</time>
      </trkpt>
      <trkpt lat="44.41619" lon="3.73871">
        <ele>1525.75</ele>
        <time>2011-08-03T15:56:56Z</time>
      </trkpt>
      <trkpt lat="44.41617" lon="3.73867">
        <ele>1524.79</ele>
        <time>2011-08-03T15:57:03Z</time>
      </trkpt>
      <trkpt lat="44.41611" lon="3.73861">
        <ele>1522.39</ele>
        <time>2011-08-03T15:57:14Z</time>
      </trkpt>
      <trkpt lat="44.41606" lon="3.73854">
        <ele>1520.94</ele>
        <time>2011-08-03T15:57:25Z</time>
      </trkpt>
      <trkpt lat="44.416" lon="3.73847">
        <ele>1519.02</ele>
        <time>2011-08-03T15:57:38Z</time>
      </trkpt>
      <trkpt lat="44.41596" lon="3.73843">
        <ele>1516.14</ele>
        <time>2011-08-03T15:57:51Z</time>
      </trkpt>
      <trkpt lat="44.41591" lon="3.73843">
        <ele>1513.73</ele>
        <time>2011-08-03T15:58:04Z</time>
      </trkpt>
      <trkpt lat="44.41586" lon="3.73839">
        <ele>1511.33</ele>
        <time>2011-08-03T15:58:18Z</time>
      </trkpt>
      <trkpt lat="44.41584" lon="3.73838">
        <ele>1510.85</ele>
        <time>2011-08-03T15:58:19Z</time>
      </trkpt>
      <trkpt lat="44.41583" lon="3.73836">
        <ele>1510.85</ele>
        <time>2011-08-03T15:58:21Z</time>
      </trkpt>
      <trkpt lat="44.41575" lon="3.73832">
        <ele>1507.48</ele>
        <time>2011-08-03T15:58:32Z</time>
      </trkpt>
      <trkpt lat="44.41565" lon="3.73829">
        <ele>1504.12</ele>
        <time>2011-08-03T15:58:43Z</time>
      </trkpt>
      <trkpt lat="44.41556" lon="3.73826">
        <ele>1503.16</ele>
        <time>2011-08-03T15:58:56Z</time>
      </trkpt>
      <trkpt lat="44.41554" lon="3.73824">
        <ele>1503.16</ele>
        <time>2011-08-03T15:59:12Z</time>
      </trkpt>
      <trkpt lat="44.41553" lon="3.73823">
        <ele>1503.16</ele>
        <time>2011-08-03T15:59:13Z</time>
      </trkpt>
      <trkpt lat="44.41544" lon="3.73813">
        <ele>1502.2</ele>
        <time>2011-08-03T15:59:25Z</time>
      </trkpt>
      <trkpt lat="44.41541" lon="3.73807">
        <ele>1501.72</ele>
        <time>2011-08-03T15:59:36Z</time>
      </trkpt>
      <trkpt lat="44.41538" lon="3.73806">
        <ele>1498.83</ele>
        <time>2011-08-03T15:59:40Z</time>
      </trkpt>
      <trkpt lat="44.41535" lon="3.73803">
        <ele>1497.87</ele>
        <time>2011-08-03T15:59:44Z</time>
      </trkpt>
      <trkpt lat="44.41532" lon="3.73801">
        <ele>1497.39</ele>
        <time>2011-08-03T15:59:47Z</time>
      </trkpt>
      <trkpt lat="44.41523" lon="3.73796">
        <ele>1494.51</ele>
        <time>2011-08-03T15:59:58Z</time>
      </trkpt>
      <trkpt lat="44.41522" lon="3.73795">
        <ele>1494.51</ele>
        <time>2011-08-03T15:59:59Z</time>
      </trkpt>
      <trkpt lat="44.41521" lon="3.73794">
        <ele>1494.03</ele>
        <time>2011-08-03T16:00:00Z</time>
      </trkpt>
      <trkpt lat="44.41517" lon="3.7379">
        <ele>1493.06</ele>
        <time>2011-08-03T16:00:04Z</time>
      </trkpt>
      <trkpt lat="44.41513" lon="3.73789">
        <ele>1493.06</ele>
        <time>2011-08-03T16:00:07Z</time>
      </trkpt>
      <trkpt lat="44.41512" lon="3.73789">
        <ele>1492.58</ele>
        <time>2011-08-03T16:00:08Z</time>
      </trkpt>
      <trkpt lat="44.4151" lon="3.73788">
        <ele>1492.58</ele>
        <time>2011-08-03T16:00:09Z</time>
      </trkpt>
      <trkpt lat="44.41509" lon="3.73788">
        <ele>1492.1</ele>
        <time>2011-08-03T16:00:10Z</time>
      </trkpt>
      <trkpt lat="44.41508" lon="3.73787">
        <ele>1491.62</ele>
        <time>2011-08-03T16:00:11Z</time>
      </trkpt>
      <trkpt lat="44.41507" lon="3.73786">
        <ele>1491.14</ele>
        <time>2011-08-03T16:00:12Z</time>
      </trkpt>
      <trkpt lat="44.41493" lon="3.73776">
        <ele>1486.34</ele>
        <time>2011-08-03T16:00:26Z</time>
      </trkpt>
      <trkpt lat="44.41484" lon="3.73769">
        <ele>1481.53</ele>
        <time>2011-08-03T16:00:39Z</time>
      </trkpt>
      <trkpt lat="44.41485" lon="3.73769">
        <ele>1481.53</ele>
        <time>2011-08-03T16:00:58Z</time>
      </trkpt>
      <trkpt lat="44.41485" lon="3.73769">
        <ele>1481.53</ele>
        <time>2011-08-03T16:01:22Z</time>
      </trkpt>
      <trkpt lat="44.41485" lon="3.73769">
        <ele>1481.53</ele>
        <time>2011-08-03T16:01:48Z</time>
      </trkpt>
      <trkpt lat="44.41485" lon="3.73769">
        <ele>1481.05</ele>
        <time>2011-08-03T16:02:18Z</time>
      </trkpt>
      <trkpt lat="44.41485" lon="3.73769">
        <ele>1481.05</ele>
        <time>2011-08-03T16:02:37Z</time>
      </trkpt>
      <trkpt lat="44.41485" lon="3.73769">
        <ele>1481.05</ele>
        <time>2011-08-03T16:03:06Z</time>
      </trkpt>
      <trkpt lat="44.41485" lon="3.73769">
        <ele>1481.05</ele>
        <time>2011-08-03T16:03:29Z</time>
      </trkpt>
      <trkpt lat="44.41485" lon="3.73769">
        <ele>1480.57</ele>
        <time>2011-08-03T16:04:01Z</time>
      </trkpt>
      <trkpt lat="44.41485" lon="3.73769">
        <ele>1480.57</ele>
        <time>2011-08-03T16:04:25Z</time>
      </trkpt>
      <trkpt lat="44.41485" lon="3.73769">
        <ele>1480.57</ele>
        <time>2011-08-03T16:04:47Z</time>
      </trkpt>
      <trkpt lat="44.41485" lon="3.73769">
        <ele>1480.57</ele>
        <time>2011-08-03T16:05:06Z</time>
      </trkpt>
      <trkpt lat="44.41485" lon="3.73769">
        <ele>1480.57</ele>
        <time>2011-08-03T16:05:28Z</time>
      </trkpt>
      <trkpt lat="44.41485" lon="3.73769">
        <ele>1480.57</ele>
        <time>2011-08-03T16:05:51Z</time>
      </trkpt>
      <trkpt lat="44.41485" lon="3.73769">
        <ele>1480.57</ele>
        <time>2011-08-03T16:06:13Z</time>
      </trkpt>
      <trkpt lat="44.41485" lon="3.73769">
        <ele>1480.57</ele>
        <time>2011-08-03T16:06:37Z</time>
      </trkpt>
      <trkpt lat="44.41485" lon="3.73769">
        <ele>1480.57</ele>
        <time>2011-08-03T16:07:03Z</time>
      </trkpt>
      <trkpt lat="44.41486" lon="3.73768">
        <ele>1480.09</ele>
        <time>2011-08-03T16:07:33Z</time>
      </trkpt>
      <trkpt lat="44.41509" lon="3.73727">
        <ele>1478.16</ele>
        <time>2011-08-03T16:07:45Z</time>
      </trkpt>
      <trkpt lat="44.41523" lon="3.73694">
        <ele>1474.32</ele>
        <time>2011-08-03T16:07:56Z</time>
      </trkpt>
      <trkpt lat="44.41519" lon="3.73692">
        <ele>1474.8</ele>
        <time>2011-08-03T16:08:01Z</time>
      </trkpt>
      <trkpt lat="44.41513" lon="3.73695">
        <ele>1473.84</ele>
        <time>2011-08-03T16:08:10Z</time>
      </trkpt>
      <trkpt lat="44.4149" lon="3.73709">
        <ele>1474.32</ele>
        <time>2011-08-03T16:08:22Z</time>
      </trkpt>
      <trkpt lat="44.41441" lon="3.73738">
        <ele>1475.76</ele>
        <time>2011-08-03T16:08:35Z</time>
      </trkpt>
      <trkpt lat="44.41437" lon="3.73741">
        <ele>1475.76</ele>
        <time>2011-08-03T16:08:36Z</time>
      </trkpt>
      <trkpt lat="44.41411" lon="3.73751">
        <ele>1475.28</ele>
        <time>2011-08-03T16:08:40Z</time>
      </trkpt>
      <trkpt lat="44.41406" lon="3.73755">
        <ele>1475.28</ele>
        <time>2011-08-03T16:08:41Z</time>
      </trkpt>
      <trkpt lat="44.41338" lon="3.73789">
        <ele>1474.8</ele>
        <time>2011-08-03T16:08:50Z</time>
      </trkpt>
      <trkpt lat="44.4133" lon="3.73795">
        <ele>1474.8</ele>
        <time>2011-08-03T16:08:51Z</time>
      </trkpt>
      <trkpt lat="44.41321" lon="3.73804">
        <ele>1474.32</ele>
        <time>2011-08-03T16:08:52Z</time>
      </trkpt>
      <trkpt lat="44.41312" lon="3.73816">
        <ele>1472.88</ele>
        <time>2011-08-03T16:08:53Z</time>
      </trkpt>
      <trkpt lat="44.41305" lon="3.73829">
        <ele>1471.44</ele>
        <time>2011-08-03T16:08:54Z</time>
      </trkpt>
      <trkpt lat="44.413" lon="3.73841">
        <ele>1470.47</ele>
        <time>2011-08-03T16:08:55Z</time>
      </trkpt>
      <trkpt lat="44.41288" lon="3.73867">
        <ele>1469.51</ele>
        <time>2011-08-03T16:08:58Z</time>
      </trkpt>
      <trkpt lat="44.41284" lon="3.73872">
        <ele>1469.03</ele>
        <time>2011-08-03T16:08:59Z</time>
      </trkpt>
      <trkpt lat="44.4128" lon="3.73874">
        <ele>1468.55</ele>
        <time>2011-08-03T16:09:00Z</time>
      </trkpt>
      <trkpt lat="44.41275" lon="3.73872">
        <ele>1468.07</ele>
        <time>2011-08-03T16:09:01Z</time>
      </trkpt>
      <trkpt lat="44.4127" lon="3.73867">
        <ele>1468.07</ele>
        <time>2011-08-03T16:09:02Z</time>
      </trkpt>
      <trkpt lat="44.41266" lon="3.73861">
        <ele>1467.59</ele>
        <time>2011-08-03T16:09:03Z</time>
      </trkpt>
      <trkpt lat="44.41226" lon="3.73774">
        <ele>1465.67</ele>
        <time>2011-08-03T16:09:13Z</time>
      </trkpt>
      <trkpt lat="44.41192" lon="3.73701">
        <ele>1464.23</ele>
        <time>2011-08-03T16:09:22Z</time>
      </trkpt>
      <trkpt lat="44.41158" lon="3.73617">
        <ele>1462.3</ele>
        <time>2011-08-03T16:09:34Z</time>
      </trkpt>
      <trkpt lat="44.41148" lon="3.73597">
        <ele>1462.3</ele>
        <time>2011-08-03T16:09:37Z</time>
      </trkpt>
      <trkpt lat="44.41144" lon="3.73591">
        <ele>1462.3</ele>
        <time>2011-08-03T16:09:38Z</time>
      </trkpt>
      <trkpt lat="44.4114" lon="3.73584">
        <ele>1462.3</ele>
        <time>2011-08-03T16:09:39Z</time>
      </trkpt>
      <trkpt lat="44.41113" lon="3.73529">
        <ele>1461.82</ele>
        <time>2011-08-03T16:09:46Z</time>
      </trkpt>
      <trkpt lat="44.41108" lon="3.73521">
        <ele>1461.82</ele>
        <time>2011-08-03T16:09:47Z</time>
      </trkpt>
      <trkpt lat="44.41061" lon="3.73435">
        <ele>1461.34</ele>
        <time>2011-08-03T16:09:57Z</time>
      </trkpt>
      <trkpt lat="44.41032" lon="3.73396">
        <ele>1460.86</ele>
        <time>2011-08-03T16:10:02Z</time>
      </trkpt>
      <trkpt lat="44.41025" lon="3.73389">
        <ele>1460.86</ele>
        <time>2011-08-03T16:10:03Z</time>
      </trkpt>
      <trkpt lat="44.4096" lon="3.73348">
        <ele>1459.42</ele>
        <time>2011-08-03T16:10:13Z</time>
      </trkpt>
      <trkpt lat="44.40953" lon="3.73345">
        <ele>1458.94</ele>
        <time>2011-08-03T16:10:14Z</time>
      </trkpt>
      <trkpt lat="44.40927" lon="3.7333">
        <ele>1457.98</ele>
        <time>2011-08-03T16:10:18Z</time>
      </trkpt>
      <trkpt lat="44.40921" lon="3.73325">
        <ele>1457.5</ele>
        <time>2011-08-03T16:10:19Z</time>
      </trkpt>
      <trkpt lat="44.40893" lon="3.7331">
        <ele>1455.57</ele>
        <time>2011-08-03T16:10:24Z</time>
      </trkpt>
      <trkpt lat="44.40855" lon="3.73283">
        <ele>1452.21</ele>
        <time>2011-08-03T16:10:32Z</time>
      </trkpt>
      <trkpt lat="44.40847" lon="3.73272">
        <ele>1450.77</ele>
        <time>2011-08-03T16:10:34Z</time>
      </trkpt>
      <trkpt lat="44.40835" lon="3.73256">
        <ele>1449.32</ele>
        <time>2011-08-03T16:10:37Z</time>
      </trkpt>
      <trkpt lat="44.40831" lon="3.73251">
        <ele>1449.32</ele>
        <time>2011-08-03T16:10:38Z</time>
      </trkpt>
      <trkpt lat="44.40813" lon="3.73231">
        <ele>1447.88</ele>
        <time>2011-08-03T16:10:42Z</time>
      </trkpt>
      <trkpt lat="44.40809" lon="3.73225">
        <ele>1447.4</ele>
        <time>2011-08-03T16:10:43Z</time>
      </trkpt>
      <trkpt lat="44.4077" lon="3.73165">
        <ele>1445</ele>
        <time>2011-08-03T16:10:52Z</time>
      </trkpt>
      <trkpt lat="44.40764" lon="3.7316">
        <ele>1445</ele>
        <time>2011-08-03T16:10:53Z</time>
      </trkpt>
      <trkpt lat="44.40727" lon="3.73136">
        <ele>1443.56</ele>
        <time>2011-08-03T16:10:59Z</time>
      </trkpt>
      <trkpt lat="44.40621" lon="3.73119">
        <ele>1434.91</ele>
        <time>2011-08-03T16:11:14Z</time>
      </trkpt>
      <trkpt lat="44.4057" lon="3.73127">
        <ele>1427.21</ele>
        <time>2011-08-03T16:11:21Z</time>
      </trkpt>
      <trkpt lat="44.40555" lon="3.73129">
        <ele>1421.45</ele>
        <time>2011-08-03T16:11:27Z</time>
      </trkpt>
      <trkpt lat="44.40554" lon="3.73127">
        <ele>1420.49</ele>
        <time>2011-08-03T16:11:28Z</time>
      </trkpt>
      <trkpt lat="44.40556" lon="3.73124">
        <ele>1420</ele>
        <time>2011-08-03T16:11:29Z</time>
      </trkpt>
      <trkpt lat="44.40556" lon="3.73122">
        <ele>1419.52</ele>
        <time>2011-08-03T16:11:30Z</time>
      </trkpt>
      <trkpt lat="44.40556" lon="3.7312">
        <ele>1419.04</ele>
        <time>2011-08-03T16:11:31Z</time>
      </trkpt>
      <trkpt lat="44.40556" lon="3.73117">
        <ele>1418.56</ele>
        <time>2011-08-03T16:11:32Z</time>
      </trkpt>
      <trkpt lat="44.40551" lon="3.73096">
        <ele>1413.28</ele>
        <time>2011-08-03T16:11:43Z</time>
      </trkpt>
      <trkpt lat="44.40551" lon="3.7309">
        <ele>1411.83</ele>
        <time>2011-08-03T16:11:57Z</time>
      </trkpt>
      <trkpt lat="44.40551" lon="3.73092">
        <ele>1410.87</ele>
        <time>2011-08-03T16:12:06Z</time>
      </trkpt>
      <trkpt lat="44.40551" lon="3.73098">
        <ele>1409.91</ele>
        <time>2011-08-03T16:12:18Z</time>
      </trkpt>
      <trkpt lat="44.40551" lon="3.73106">
        <ele>1414.24</ele>
        <time>2011-08-03T16:12:45Z</time>
      </trkpt>
      <trkpt lat="44.40554" lon="3.73098">
        <ele>1406.55</ele>
        <time>2011-08-03T16:12:51Z</time>
      </trkpt>
      <trkpt lat="44.40554" lon="3.73097">
        <ele>1403.18</ele>
        <time>2011-08-03T16:13:09Z</time>
      </trkpt>
      <trkpt lat="44.40556" lon="3.73095">
        <ele>1401.74</ele>
        <time>2011-08-03T16:13:17Z</time>
      </trkpt>
      <trkpt lat="44.40556" lon="3.73092">
        <ele>1401.74</ele>
        <time>2011-08-03T16:13:18Z</time>
      </trkpt>
      <trkpt lat="44.40555" lon="3.73089">
        <ele>1401.74</ele>
        <time>2011-08-03T16:13:19Z</time>
      </trkpt>
      <trkpt lat="44.40554" lon="3.73085">
        <ele>1401.74</ele>
        <time>2011-08-03T16:13:20Z</time>
      </trkpt>
      <trkpt lat="44.40552" lon="3.7308">
        <ele>1402.7</ele>
        <time>2011-08-03T16:13:21Z</time>
      </trkpt>
      <trkpt lat="44.40551" lon="3.73076">
        <ele>1402.7</ele>
        <time>2011-08-03T16:13:22Z</time>
      </trkpt>
      <trkpt lat="44.40551" lon="3.73072">
        <ele>1402.22</ele>
        <time>2011-08-03T16:13:23Z</time>
      </trkpt>
      <trkpt lat="44.4055" lon="3.73068">
        <ele>1402.7</ele>
        <time>2011-08-03T16:13:24Z</time>
      </trkpt>
      <trkpt lat="44.40551" lon="3.73064">
        <ele>1402.22</ele>
        <time>2011-08-03T16:13:25Z</time>
      </trkpt>
      <trkpt lat="44.40551" lon="3.7306">
        <ele>1402.7</ele>
        <time>2011-08-03T16:13:26Z</time>
      </trkpt>
      <trkpt lat="44.40551" lon="3.73056">
        <ele>1402.22</ele>
        <time>2011-08-03T16:13:27Z</time>
      </trkpt>
      <trkpt lat="44.40551" lon="3.73052">
        <ele>1401.74</ele>
        <time>2011-08-03T16:13:28Z</time>
      </trkpt>
      <trkpt lat="44.4055" lon="3.73047">
        <ele>1401.26</ele>
        <time>2011-08-03T16:13:29Z</time>
      </trkpt>
      <trkpt lat="44.40551" lon="3.73042">
        <ele>1400.3</ele>
        <time>2011-08-03T16:13:30Z</time>
      </trkpt>
      <trkpt lat="44.40548" lon="3.72989">
        <ele>1393.57</ele>
        <time>2011-08-03T16:13:40Z</time>
      </trkpt>
      <trkpt lat="44.40547" lon="3.72983">
        <ele>1393.57</ele>
        <time>2011-08-03T16:13:41Z</time>
      </trkpt>
      <trkpt lat="44.40546" lon="3.72977">
        <ele>1393.57</ele>
        <time>2011-08-03T16:13:42Z</time>
      </trkpt>
      <trkpt lat="44.40543" lon="3.72953">
        <ele>1396.93</ele>
        <time>2011-08-03T16:13:52Z</time>
      </trkpt>
      <trkpt lat="44.40523" lon="3.72944">
        <ele>1397.89</ele>
        <time>2011-08-03T16:14:04Z</time>
      </trkpt>
      <trkpt lat="44.40499" lon="3.72928">
        <ele>1395.01</ele>
        <time>2011-08-03T16:14:12Z</time>
      </trkpt>
      <trkpt lat="44.4047" lon="3.72915">
        <ele>1391.65</ele>
        <time>2011-08-03T16:14:18Z</time>
      </trkpt>
      <trkpt lat="44.40465" lon="3.72914">
        <ele>1391.17</ele>
        <time>2011-08-03T16:14:19Z</time>
      </trkpt>
      <trkpt lat="44.40449" lon="3.72909">
        <ele>1389.24</ele>
        <time>2011-08-03T16:14:22Z</time>
      </trkpt>
      <trkpt lat="44.40411" lon="3.72897">
        <ele>1383.96</ele>
        <time>2011-08-03T16:14:30Z</time>
      </trkpt>
      <trkpt lat="44.40407" lon="3.72897">
        <ele>1382.99</ele>
        <time>2011-08-03T16:14:31Z</time>
      </trkpt>
      <trkpt lat="44.40384" lon="3.72897">
        <ele>1380.11</ele>
        <time>2011-08-03T16:14:35Z</time>
      </trkpt>
      <trkpt lat="44.40377" lon="3.72897">
        <ele>1379.63</ele>
        <time>2011-08-03T16:14:36Z</time>
      </trkpt>
      <trkpt lat="44.40369" lon="3.72896">
        <ele>1378.19</ele>
        <time>2011-08-03T16:14:38Z</time>
      </trkpt>
      <trkpt lat="44.40366" lon="3.72894">
        <ele>1377.23</ele>
        <time>2011-08-03T16:14:39Z</time>
      </trkpt>
      <trkpt lat="44.40364" lon="3.72891">
        <ele>1376.26</ele>
        <time>2011-08-03T16:14:40Z</time>
      </trkpt>
      <trkpt lat="44.4036" lon="3.7289">
        <ele>1375.78</ele>
        <time>2011-08-03T16:14:41Z</time>
      </trkpt>
      <trkpt lat="44.40356" lon="3.72888">
        <ele>1375.78</ele>
        <time>2011-08-03T16:14:42Z</time>
      </trkpt>
      <trkpt lat="44.40348" lon="3.72885">
        <ele>1374.82</ele>
        <time>2011-08-03T16:14:50Z</time>
      </trkpt>
      <trkpt lat="44.40348" lon="3.72885">
        <ele>1374.82</ele>
        <time>2011-08-03T16:15:20Z</time>
      </trkpt>
      <trkpt lat="44.40348" lon="3.72885">
        <ele>1374.82</ele>
        <time>2011-08-03T16:15:46Z</time>
      </trkpt>
      <trkpt lat="44.40338" lon="3.72881">
        <ele>1373.86</ele>
        <time>2011-08-03T16:16:04Z</time>
      </trkpt>
      <trkpt lat="44.40334" lon="3.72881">
        <ele>1373.38</ele>
        <time>2011-08-03T16:16:05Z</time>
      </trkpt>
      <trkpt lat="44.40329" lon="3.72882">
        <ele>1372.9</ele>
        <time>2011-08-03T16:16:06Z</time>
      </trkpt>
      <trkpt lat="44.40325" lon="3.72882">
        <ele>1371.94</ele>
        <time>2011-08-03T16:16:07Z</time>
      </trkpt>
      <trkpt lat="44.4032" lon="3.72881">
        <ele>1371.46</ele>
        <time>2011-08-03T16:16:08Z</time>
      </trkpt>
      <trkpt lat="44.40316" lon="3.7288">
        <ele>1370.5</ele>
        <time>2011-08-03T16:16:09Z</time>
      </trkpt>
      <trkpt lat="44.40311" lon="3.72879">
        <ele>1369.54</ele>
        <time>2011-08-03T16:16:10Z</time>
      </trkpt>
      <trkpt lat="44.40307" lon="3.72879">
        <ele>1369.05</ele>
        <time>2011-08-03T16:16:11Z</time>
      </trkpt>
      <trkpt lat="44.40263" lon="3.72882">
        <ele>1360.88</ele>
        <time>2011-08-03T16:16:22Z</time>
      </trkpt>
      <trkpt lat="44.40245" lon="3.72885">
        <ele>1358</ele>
        <time>2011-08-03T16:16:26Z</time>
      </trkpt>
      <trkpt lat="44.4024" lon="3.72886">
        <ele>1357.04</ele>
        <time>2011-08-03T16:16:27Z</time>
      </trkpt>
      <trkpt lat="44.40235" lon="3.72888">
        <ele>1356.08</ele>
        <time>2011-08-03T16:16:28Z</time>
      </trkpt>
      <trkpt lat="44.40228" lon="3.7289">
        <ele>1355.12</ele>
        <time>2011-08-03T16:16:29Z</time>
      </trkpt>
      <trkpt lat="44.40222" lon="3.72893">
        <ele>1354.15</ele>
        <time>2011-08-03T16:16:30Z</time>
      </trkpt>
      <trkpt lat="44.40198" lon="3.72907">
        <ele>1351.27</ele>
        <time>2011-08-03T16:16:34Z</time>
      </trkpt>
      <trkpt lat="44.40196" lon="3.72911">
        <ele>1350.31</ele>
        <time>2011-08-03T16:16:35Z</time>
      </trkpt>
      <trkpt lat="44.40194" lon="3.72914">
        <ele>1349.83</ele>
        <time>2011-08-03T16:16:36Z</time>
      </trkpt>
      <trkpt lat="44.40193" lon="3.72916">
        <ele>1349.35</ele>
        <time>2011-08-03T16:16:37Z</time>
      </trkpt>
      <trkpt lat="44.40193" lon="3.72918">
        <ele>1349.35</ele>
        <time>2011-08-03T16:16:38Z</time>
      </trkpt>
      <trkpt lat="44.40195" lon="3.7292">
        <ele>1347.91</ele>
        <time>2011-08-03T16:16:52Z</time>
      </trkpt>
      <trkpt lat="44.40195" lon="3.7292">
        <ele>1347.91</ele>
        <time>2011-08-03T16:17:14Z</time>
      </trkpt>
      <trkpt lat="44.40196" lon="3.7294">
        <ele>1347.91</ele>
        <time>2011-08-03T16:17:33Z</time>
      </trkpt>
      <trkpt lat="44.40196" lon="3.72945">
        <ele>1347.43</ele>
        <time>2011-08-03T16:17:34Z</time>
      </trkpt>
      <trkpt lat="44.40196" lon="3.72952">
        <ele>1347.43</ele>
        <time>2011-08-03T16:17:35Z</time>
      </trkpt>
      <trkpt lat="44.402" lon="3.7301">
        <ele>1343.1</ele>
        <time>2011-08-03T16:17:42Z</time>
      </trkpt>
      <trkpt lat="44.40201" lon="3.73016">
        <ele>1342.14</ele>
        <time>2011-08-03T16:17:43Z</time>
      </trkpt>
      <trkpt lat="44.40201" lon="3.73022">
        <ele>1341.66</ele>
        <time>2011-08-03T16:17:44Z</time>
      </trkpt>
      <trkpt lat="44.40202" lon="3.73028">
        <ele>1340.7</ele>
        <time>2011-08-03T16:17:45Z</time>
      </trkpt>
      <trkpt lat="44.40203" lon="3.73034">
        <ele>1340.22</ele>
        <time>2011-08-03T16:17:46Z</time>
      </trkpt>
      <trkpt lat="44.40204" lon="3.73041">
        <ele>1339.25</ele>
        <time>2011-08-03T16:17:47Z</time>
      </trkpt>
      <trkpt lat="44.40206" lon="3.73057">
        <ele>1337.81</ele>
        <time>2011-08-03T16:17:49Z</time>
      </trkpt>
      <trkpt lat="44.40208" lon="3.73066">
        <ele>1337.33</ele>
        <time>2011-08-03T16:17:50Z</time>
      </trkpt>
      <trkpt lat="44.40208" lon="3.73076">
        <ele>1336.37</ele>
        <time>2011-08-03T16:17:51Z</time>
      </trkpt>
      <trkpt lat="44.40208" lon="3.73086">
        <ele>1335.41</ele>
        <time>2011-08-03T16:17:52Z</time>
      </trkpt>
      <trkpt lat="44.40205" lon="3.73096">
        <ele>1334.45</ele>
        <time>2011-08-03T16:17:53Z</time>
      </trkpt>
      <trkpt lat="44.40203" lon="3.73106">
        <ele>1333.49</ele>
        <time>2011-08-03T16:17:54Z</time>
      </trkpt>
      <trkpt lat="44.40201" lon="3.73117">
        <ele>1333.01</ele>
        <time>2011-08-03T16:17:55Z</time>
      </trkpt>
      <trkpt lat="44.40196" lon="3.73138">
        <ele>1332.52</ele>
        <time>2011-08-03T16:17:57Z</time>
      </trkpt>
      <trkpt lat="44.40195" lon="3.73149">
        <ele>1332.04</ele>
        <time>2011-08-03T16:17:58Z</time>
      </trkpt>
      <trkpt lat="44.40194" lon="3.7316">
        <ele>1331.56</ele>
        <time>2011-08-03T16:17:59Z</time>
      </trkpt>
      <trkpt lat="44.40182" lon="3.73215">
        <ele>1329.16</ele>
        <time>2011-08-03T16:18:04Z</time>
      </trkpt>
      <trkpt lat="44.40178" lon="3.73226">
        <ele>1328.68</ele>
        <time>2011-08-03T16:18:05Z</time>
      </trkpt>
      <trkpt lat="44.40173" lon="3.73237">
        <ele>1328.2</ele>
        <time>2011-08-03T16:18:06Z</time>
      </trkpt>
      <trkpt lat="44.40147" lon="3.73307">
        <ele>1322.91</ele>
        <time>2011-08-03T16:18:12Z</time>
      </trkpt>
      <trkpt lat="44.40142" lon="3.73329">
        <ele>1320.99</ele>
        <time>2011-08-03T16:18:14Z</time>
      </trkpt>
      <trkpt lat="44.40136" lon="3.73371">
        <ele>1316.66</ele>
        <time>2011-08-03T16:18:18Z</time>
      </trkpt>
      <trkpt lat="44.40135" lon="3.73383">
        <ele>1315.7</ele>
        <time>2011-08-03T16:18:19Z</time>
      </trkpt>
      <trkpt lat="44.40136" lon="3.73396">
        <ele>1314.74</ele>
        <time>2011-08-03T16:18:20Z</time>
      </trkpt>
      <trkpt lat="44.40137" lon="3.73421">
        <ele>1312.34</ele>
        <time>2011-08-03T16:18:22Z</time>
      </trkpt>
      <trkpt lat="44.40135" lon="3.73433">
        <ele>1311.38</ele>
        <time>2011-08-03T16:18:23Z</time>
      </trkpt>
      <trkpt lat="44.40133" lon="3.73443">
        <ele>1310.9</ele>
        <time>2011-08-03T16:18:24Z</time>
      </trkpt>
      <trkpt lat="44.40133" lon="3.7345">
        <ele>1310.41</ele>
        <time>2011-08-03T16:18:25Z</time>
      </trkpt>
      <trkpt lat="44.40134" lon="3.73455">
        <ele>1309.93</ele>
        <time>2011-08-03T16:18:26Z</time>
      </trkpt>
      <trkpt lat="44.40136" lon="3.73459">
        <ele>1309.93</ele>
        <time>2011-08-03T16:18:27Z</time>
      </trkpt>
      <trkpt lat="44.40137" lon="3.73463">
        <ele>1309.45</ele>
        <time>2011-08-03T16:18:28Z</time>
      </trkpt>
      <trkpt lat="44.40138" lon="3.73467">
        <ele>1309.45</ele>
        <time>2011-08-03T16:18:29Z</time>
      </trkpt>
      <trkpt lat="44.4014" lon="3.73471">
        <ele>1308.97</ele>
        <time>2011-08-03T16:18:30Z</time>
      </trkpt>
      <trkpt lat="44.40141" lon="3.73476">
        <ele>1308.49</ele>
        <time>2011-08-03T16:18:31Z</time>
      </trkpt>
      <trkpt lat="44.40142" lon="3.73481">
        <ele>1308.49</ele>
        <time>2011-08-03T16:18:32Z</time>
      </trkpt>
      <trkpt lat="44.40144" lon="3.73486">
        <ele>1308.01</ele>
        <time>2011-08-03T16:18:33Z</time>
      </trkpt>
      <trkpt lat="44.40146" lon="3.73492">
        <ele>1307.53</ele>
        <time>2011-08-03T16:18:34Z</time>
      </trkpt>
      <trkpt lat="44.40159" lon="3.73554">
        <ele>1304.65</ele>
        <time>2011-08-03T16:18:41Z</time>
      </trkpt>
      <trkpt lat="44.40159" lon="3.73565">
        <ele>1303.69</ele>
        <time>2011-08-03T16:18:42Z</time>
      </trkpt>
      <trkpt lat="44.40159" lon="3.73577">
        <ele>1303.2</ele>
        <time>2011-08-03T16:18:43Z</time>
      </trkpt>
      <trkpt lat="44.40149" lon="3.73713">
        <ele>1294.55</ele>
        <time>2011-08-03T16:18:53Z</time>
      </trkpt>
      <trkpt lat="44.4015" lon="3.7372">
        <ele>1294.07</ele>
        <time>2011-08-03T16:18:54Z</time>
      </trkpt>
      <trkpt lat="44.40151" lon="3.73724">
        <ele>1293.59</ele>
        <time>2011-08-03T16:18:55Z</time>
      </trkpt>
      <trkpt lat="44.40151" lon="3.73725">
        <ele>1293.11</ele>
        <time>2011-08-03T16:19:07Z</time>
      </trkpt>
      <trkpt lat="44.40151" lon="3.73725">
        <ele>1293.11</ele>
        <time>2011-08-03T16:19:33Z</time>
      </trkpt>
      <trkpt lat="44.40152" lon="3.73725">
        <ele>1293.11</ele>
        <time>2011-08-03T16:19:49Z</time>
      </trkpt>
      <trkpt lat="44.40152" lon="3.73725">
        <ele>1293.11</ele>
        <time>2011-08-03T16:20:12Z</time>
      </trkpt>
      <trkpt lat="44.40151" lon="3.73725">
        <ele>1292.63</ele>
        <time>2011-08-03T16:20:31Z</time>
      </trkpt>
      <trkpt lat="44.40153" lon="3.73736">
        <ele>1292.63</ele>
        <time>2011-08-03T16:20:42Z</time>
      </trkpt>
      <trkpt lat="44.40164" lon="3.73793">
        <ele>1290.23</ele>
        <time>2011-08-03T16:20:51Z</time>
      </trkpt>
      <trkpt lat="44.40169" lon="3.73855">
        <ele>1285.9</ele>
        <time>2011-08-03T16:20:57Z</time>
      </trkpt>
      <trkpt lat="44.40172" lon="3.73875">
        <ele>1284.46</ele>
        <time>2011-08-03T16:20:59Z</time>
      </trkpt>
      <trkpt lat="44.40189" lon="3.73942">
        <ele>1276.29</ele>
        <time>2011-08-03T16:21:07Z</time>
      </trkpt>
      <trkpt lat="44.40194" lon="3.73966">
        <ele>1273.4</ele>
        <time>2011-08-03T16:21:10Z</time>
      </trkpt>
      <trkpt lat="44.40197" lon="3.73983">
        <ele>1271.96</ele>
        <time>2011-08-03T16:21:12Z</time>
      </trkpt>
      <trkpt lat="44.40199" lon="3.73992">
        <ele>1271</ele>
        <time>2011-08-03T16:21:13Z</time>
      </trkpt>
      <trkpt lat="44.40201" lon="3.74001">
        <ele>1270.52</ele>
        <time>2011-08-03T16:21:14Z</time>
      </trkpt>
      <trkpt lat="44.40202" lon="3.74012">
        <ele>1269.56</ele>
        <time>2011-08-03T16:21:15Z</time>
      </trkpt>
      <trkpt lat="44.40205" lon="3.74022">
        <ele>1269.08</ele>
        <time>2011-08-03T16:21:16Z</time>
      </trkpt>
      <trkpt lat="44.40208" lon="3.74032">
        <ele>1268.12</ele>
        <time>2011-08-03T16:21:17Z</time>
      </trkpt>
      <trkpt lat="44.40213" lon="3.74042">
        <ele>1267.16</ele>
        <time>2011-08-03T16:21:18Z</time>
      </trkpt>
      <trkpt lat="44.40217" lon="3.74052">
        <ele>1266.67</ele>
        <time>2011-08-03T16:21:19Z</time>
      </trkpt>
      <trkpt lat="44.40223" lon="3.74061">
        <ele>1265.71</ele>
        <time>2011-08-03T16:21:20Z</time>
      </trkpt>
      <trkpt lat="44.4023" lon="3.74069">
        <ele>1265.23</ele>
        <time>2011-08-03T16:21:21Z</time>
      </trkpt>
      <trkpt lat="44.40237" lon="3.74076">
        <ele>1264.75</ele>
        <time>2011-08-03T16:21:22Z</time>
      </trkpt>
      <trkpt lat="44.40245" lon="3.74082">
        <ele>1264.27</ele>
        <time>2011-08-03T16:21:23Z</time>
      </trkpt>
      <trkpt lat="44.40253" lon="3.74086">
        <ele>1263.79</ele>
        <time>2011-08-03T16:21:24Z</time>
      </trkpt>
      <trkpt lat="44.4026" lon="3.74092">
        <ele>1263.31</ele>
        <time>2011-08-03T16:21:25Z</time>
      </trkpt>
      <trkpt lat="44.40267" lon="3.74098">
        <ele>1262.83</ele>
        <time>2011-08-03T16:21:26Z</time>
      </trkpt>
      <trkpt lat="44.40274" lon="3.74107">
        <ele>1261.87</ele>
        <time>2011-08-03T16:21:27Z</time>
      </trkpt>
      <trkpt lat="44.40279" lon="3.74117">
        <ele>1261.39</ele>
        <time>2011-08-03T16:21:28Z</time>
      </trkpt>
      <trkpt lat="44.40285" lon="3.74128">
        <ele>1260.43</ele>
        <time>2011-08-03T16:21:29Z</time>
      </trkpt>
      <trkpt lat="44.4029" lon="3.7414">
        <ele>1259.46</ele>
        <time>2011-08-03T16:21:30Z</time>
      </trkpt>
      <trkpt lat="44.40297" lon="3.74152">
        <ele>1258.5</ele>
        <time>2011-08-03T16:21:31Z</time>
      </trkpt>
      <trkpt lat="44.40317" lon="3.7419">
        <ele>1255.62</ele>
        <time>2011-08-03T16:21:34Z</time>
      </trkpt>
      <trkpt lat="44.4034" lon="3.74221">
        <ele>1252.25</ele>
        <time>2011-08-03T16:21:37Z</time>
      </trkpt>
      <trkpt lat="44.40348" lon="3.74229">
        <ele>1251.29</ele>
        <time>2011-08-03T16:21:38Z</time>
      </trkpt>
      <trkpt lat="44.40355" lon="3.74238">
        <ele>1250.33</ele>
        <time>2011-08-03T16:21:39Z</time>
      </trkpt>
      <trkpt lat="44.40361" lon="3.74248">
        <ele>1249.37</ele>
        <time>2011-08-03T16:21:40Z</time>
      </trkpt>
      <trkpt lat="44.40366" lon="3.74257">
        <ele>1248.41</ele>
        <time>2011-08-03T16:21:41Z</time>
      </trkpt>
      <trkpt lat="44.40374" lon="3.74271">
        <ele>1247.45</ele>
        <time>2011-08-03T16:21:43Z</time>
      </trkpt>
      <trkpt lat="44.40379" lon="3.74276">
        <ele>1246.97</ele>
        <time>2011-08-03T16:21:44Z</time>
      </trkpt>
      <trkpt lat="44.40383" lon="3.74279">
        <ele>1246.97</ele>
        <time>2011-08-03T16:21:45Z</time>
      </trkpt>
      <trkpt lat="44.40409" lon="3.74298">
        <ele>1246.97</ele>
        <time>2011-08-03T16:21:52Z</time>
      </trkpt>
      <trkpt lat="44.40412" lon="3.74301">
        <ele>1246.97</ele>
        <time>2011-08-03T16:21:53Z</time>
      </trkpt>
      <trkpt lat="44.40415" lon="3.74304">
        <ele>1246.97</ele>
        <time>2011-08-03T16:21:54Z</time>
      </trkpt>
      <trkpt lat="44.40418" lon="3.74309">
        <ele>1246.97</ele>
        <time>2011-08-03T16:21:55Z</time>
      </trkpt>
      <trkpt lat="44.40421" lon="3.74314">
        <ele>1247.45</ele>
        <time>2011-08-03T16:21:56Z</time>
      </trkpt>
      <trkpt lat="44.40423" lon="3.7432">
        <ele>1246.97</ele>
        <time>2011-08-03T16:21:57Z</time>
      </trkpt>
      <trkpt lat="44.40431" lon="3.74341">
        <ele>1246.97</ele>
        <time>2011-08-03T16:22:00Z</time>
      </trkpt>
      <trkpt lat="44.40432" lon="3.7435">
        <ele>1246.49</ele>
        <time>2011-08-03T16:22:01Z</time>
      </trkpt>
      <trkpt lat="44.40433" lon="3.7436">
        <ele>1246.01</ele>
        <time>2011-08-03T16:22:02Z</time>
      </trkpt>
      <trkpt lat="44.40434" lon="3.7437">
        <ele>1245.53</ele>
        <time>2011-08-03T16:22:03Z</time>
      </trkpt>
      <trkpt lat="44.40433" lon="3.74381">
        <ele>1245.04</ele>
        <time>2011-08-03T16:22:04Z</time>
      </trkpt>
      <trkpt lat="44.40432" lon="3.74391">
        <ele>1244.56</ele>
        <time>2011-08-03T16:22:05Z</time>
      </trkpt>
      <trkpt lat="44.40429" lon="3.74401">
        <ele>1243.6</ele>
        <time>2011-08-03T16:22:06Z</time>
      </trkpt>
      <trkpt lat="44.40427" lon="3.74408">
        <ele>1242.64</ele>
        <time>2011-08-03T16:22:07Z</time>
      </trkpt>
      <trkpt lat="44.40425" lon="3.74413">
        <ele>1242.16</ele>
        <time>2011-08-03T16:22:08Z</time>
      </trkpt>
      <trkpt lat="44.40424" lon="3.74417">
        <ele>1239.76</ele>
        <time>2011-08-03T16:22:16Z</time>
      </trkpt>
      <trkpt lat="44.40416" lon="3.74437">
        <ele>1239.28</ele>
        <time>2011-08-03T16:22:27Z</time>
      </trkpt>
      <trkpt lat="44.40416" lon="3.74441">
        <ele>1238.8</ele>
        <time>2011-08-03T16:22:28Z</time>
      </trkpt>
      <trkpt lat="44.40416" lon="3.74446">
        <ele>1238.8</ele>
        <time>2011-08-03T16:22:29Z</time>
      </trkpt>
      <trkpt lat="44.40418" lon="3.7445">
        <ele>1238.32</ele>
        <time>2011-08-03T16:22:30Z</time>
      </trkpt>
      <trkpt lat="44.4042" lon="3.74455">
        <ele>1237.83</ele>
        <time>2011-08-03T16:22:31Z</time>
      </trkpt>
      <trkpt lat="44.40422" lon="3.7446">
        <ele>1237.83</ele>
        <time>2011-08-03T16:22:32Z</time>
      </trkpt>
      <trkpt lat="44.40422" lon="3.74465">
        <ele>1237.35</ele>
        <time>2011-08-03T16:22:33Z</time>
      </trkpt>
      <trkpt lat="44.40422" lon="3.74471">
        <ele>1236.87</ele>
        <time>2011-08-03T16:22:34Z</time>
      </trkpt>
      <trkpt lat="44.40421" lon="3.74484">
        <ele>1234.95</ele>
        <time>2011-08-03T16:22:43Z</time>
      </trkpt>
      <trkpt lat="44.40421" lon="3.74484">
        <ele>1234.95</ele>
        <time>2011-08-03T16:23:01Z</time>
      </trkpt>
      <trkpt lat="44.4042" lon="3.74485">
        <ele>1234.95</ele>
        <time>2011-08-03T16:23:24Z</time>
      </trkpt>
      <trkpt lat="44.4042" lon="3.74485">
        <ele>1234.95</ele>
        <time>2011-08-03T16:23:42Z</time>
      </trkpt>
      <trkpt lat="44.40419" lon="3.74487">
        <ele>1234.95</ele>
        <time>2011-08-03T16:23:43Z</time>
      </trkpt>
      <trkpt lat="44.40417" lon="3.74492">
        <ele>1234.47</ele>
        <time>2011-08-03T16:23:44Z</time>
      </trkpt>
      <trkpt lat="44.40412" lon="3.74504">
        <ele>1233.51</ele>
        <time>2011-08-03T16:23:46Z</time>
      </trkpt>
      <trkpt lat="44.40409" lon="3.74507">
        <ele>1233.51</ele>
        <time>2011-08-03T16:23:47Z</time>
      </trkpt>
      <trkpt lat="44.40406" lon="3.74509">
        <ele>1233.03</ele>
        <time>2011-08-03T16:23:48Z</time>
      </trkpt>
      <trkpt lat="44.40402" lon="3.7451">
        <ele>1232.55</ele>
        <time>2011-08-03T16:23:49Z</time>
      </trkpt>
      <trkpt lat="44.40398" lon="3.74513">
        <ele>1232.07</ele>
        <time>2011-08-03T16:23:50Z</time>
      </trkpt>
      <trkpt lat="44.40393" lon="3.74517">
        <ele>1232.07</ele>
        <time>2011-08-03T16:23:51Z</time>
      </trkpt>
      <trkpt lat="44.40385" lon="3.74522">
        <ele>1231.11</ele>
        <time>2011-08-03T16:23:53Z</time>
      </trkpt>
      <trkpt lat="44.40381" lon="3.74524">
        <ele>1230.62</ele>
        <time>2011-08-03T16:23:54Z</time>
      </trkpt>
      <trkpt lat="44.40376" lon="3.74526">
        <ele>1230.14</ele>
        <time>2011-08-03T16:23:55Z</time>
      </trkpt>
      <trkpt lat="44.40372" lon="3.74529">
        <ele>1229.66</ele>
        <time>2011-08-03T16:23:56Z</time>
      </trkpt>
      <trkpt lat="44.40369" lon="3.74531">
        <ele>1229.66</ele>
        <time>2011-08-03T16:23:57Z</time>
      </trkpt>
      <trkpt lat="44.4036" lon="3.74533">
        <ele>1228.7</ele>
        <time>2011-08-03T16:24:02Z</time>
      </trkpt>
      <trkpt lat="44.40357" lon="3.74531">
        <ele>1228.7</ele>
        <time>2011-08-03T16:24:03Z</time>
      </trkpt>
      <trkpt lat="44.40354" lon="3.74529">
        <ele>1228.7</ele>
        <time>2011-08-03T16:24:04Z</time>
      </trkpt>
      <trkpt lat="44.4035" lon="3.74526">
        <ele>1228.7</ele>
        <time>2011-08-03T16:24:05Z</time>
      </trkpt>
      <trkpt lat="44.40347" lon="3.74522">
        <ele>1228.22</ele>
        <time>2011-08-03T16:24:06Z</time>
      </trkpt>
      <trkpt lat="44.40322" lon="3.74494">
        <ele>1226.78</ele>
        <time>2011-08-03T16:24:12Z</time>
      </trkpt>
      <trkpt lat="44.40317" lon="3.7449">
        <ele>1226.78</ele>
        <time>2011-08-03T16:24:13Z</time>
      </trkpt>
      <trkpt lat="44.40312" lon="3.74487">
        <ele>1226.78</ele>
        <time>2011-08-03T16:24:14Z</time>
      </trkpt>
      <trkpt lat="44.40306" lon="3.74484">
        <ele>1226.3</ele>
        <time>2011-08-03T16:24:15Z</time>
      </trkpt>
      <trkpt lat="44.403" lon="3.74484">
        <ele>1226.3</ele>
        <time>2011-08-03T16:24:16Z</time>
      </trkpt>
      <trkpt lat="44.40293" lon="3.74484">
        <ele>1225.82</ele>
        <time>2011-08-03T16:24:17Z</time>
      </trkpt>
      <trkpt lat="44.40286" lon="3.74484">
        <ele>1225.34</ele>
        <time>2011-08-03T16:24:18Z</time>
      </trkpt>
      <trkpt lat="44.40278" lon="3.74482">
        <ele>1224.86</ele>
        <time>2011-08-03T16:24:19Z</time>
      </trkpt>
      <trkpt lat="44.4027" lon="3.74479">
        <ele>1224.38</ele>
        <time>2011-08-03T16:24:20Z</time>
      </trkpt>
      <trkpt lat="44.40263" lon="3.74474">
        <ele>1223.9</ele>
        <time>2011-08-03T16:24:21Z</time>
      </trkpt>
      <trkpt lat="44.40189" lon="3.74429">
        <ele>1219.09</ele>
        <time>2011-08-03T16:24:30Z</time>
      </trkpt>
      <trkpt lat="44.40179" lon="3.74429">
        <ele>1218.61</ele>
        <time>2011-08-03T16:24:31Z</time>
      </trkpt>
      <trkpt lat="44.40128" lon="3.7443">
        <ele>1215.24</ele>
        <time>2011-08-03T16:24:36Z</time>
      </trkpt>
      <trkpt lat="44.40118" lon="3.74428">
        <ele>1214.28</ele>
        <time>2011-08-03T16:24:37Z</time>
      </trkpt>
      <trkpt lat="44.40099" lon="3.74422">
        <ele>1212.84</ele>
        <time>2011-08-03T16:24:39Z</time>
      </trkpt>
      <trkpt lat="44.40093" lon="3.74417">
        <ele>1211.88</ele>
        <time>2011-08-03T16:24:40Z</time>
      </trkpt>
      <trkpt lat="44.40088" lon="3.7441">
        <ele>1211.4</ele>
        <time>2011-08-03T16:24:41Z</time>
      </trkpt>
      <trkpt lat="44.40085" lon="3.74401">
        <ele>1210.44</ele>
        <time>2011-08-03T16:24:42Z</time>
      </trkpt>
      <trkpt lat="44.40082" lon="3.74392">
        <ele>1209.96</ele>
        <time>2011-08-03T16:24:43Z</time>
      </trkpt>
      <trkpt lat="44.40078" lon="3.74383">
        <ele>1209</ele>
        <time>2011-08-03T16:24:44Z</time>
      </trkpt>
      <trkpt lat="44.40072" lon="3.74378">
        <ele>1208.51</ele>
        <time>2011-08-03T16:24:45Z</time>
      </trkpt>
      <trkpt lat="44.40064" lon="3.74375">
        <ele>1207.55</ele>
        <time>2011-08-03T16:24:46Z</time>
      </trkpt>
      <trkpt lat="44.40057" lon="3.74374">
        <ele>1207.07</ele>
        <time>2011-08-03T16:24:47Z</time>
      </trkpt>
      <trkpt lat="44.40015" lon="3.74362">
        <ele>1203.23</ele>
        <time>2011-08-03T16:24:53Z</time>
      </trkpt>
      <trkpt lat="44.40011" lon="3.7436">
        <ele>1202.75</ele>
        <time>2011-08-03T16:24:54Z</time>
      </trkpt>
      <trkpt lat="44.40009" lon="3.74359">
        <ele>1202.75</ele>
        <time>2011-08-03T16:24:55Z</time>
      </trkpt>
      <trkpt lat="44.40016" lon="3.74368">
        <ele>1202.27</ele>
        <time>2011-08-03T16:25:03Z</time>
      </trkpt>
      <trkpt lat="44.40016" lon="3.74372">
        <ele>1202.27</ele>
        <time>2011-08-03T16:25:04Z</time>
      </trkpt>
      <trkpt lat="44.40015" lon="3.74375">
        <ele>1202.27</ele>
        <time>2011-08-03T16:25:05Z</time>
      </trkpt>
      <trkpt lat="44.40002" lon="3.74422">
        <ele>1201.3</ele>
        <time>2011-08-03T16:25:11Z</time>
      </trkpt>
      <trkpt lat="44.39996" lon="3.74429">
        <ele>1200.82</ele>
        <time>2011-08-03T16:25:12Z</time>
      </trkpt>
      <trkpt lat="44.39982" lon="3.74438">
        <ele>1199.86</ele>
        <time>2011-08-03T16:25:14Z</time>
      </trkpt>
      <trkpt lat="44.39974" lon="3.7444">
        <ele>1199.38</ele>
        <time>2011-08-03T16:25:15Z</time>
      </trkpt>
      <trkpt lat="44.39952" lon="3.74441">
        <ele>1198.42</ele>
        <time>2011-08-03T16:25:18Z</time>
      </trkpt>
      <trkpt lat="44.39945" lon="3.74444">
        <ele>1198.42</ele>
        <time>2011-08-03T16:25:19Z</time>
      </trkpt>
      <trkpt lat="44.39924" lon="3.74455">
        <ele>1197.46</ele>
        <time>2011-08-03T16:25:22Z</time>
      </trkpt>
      <trkpt lat="44.39916" lon="3.74457">
        <ele>1196.98</ele>
        <time>2011-08-03T16:25:23Z</time>
      </trkpt>
      <trkpt lat="44.39892" lon="3.7446">
        <ele>1195.54</ele>
        <time>2011-08-03T16:25:26Z</time>
      </trkpt>
      <trkpt lat="44.39885" lon="3.74457">
        <ele>1195.06</ele>
        <time>2011-08-03T16:25:27Z</time>
      </trkpt>
      <trkpt lat="44.39855" lon="3.74444">
        <ele>1194.09</ele>
        <time>2011-08-03T16:25:32Z</time>
      </trkpt>
      <trkpt lat="44.3985" lon="3.74444">
        <ele>1194.09</ele>
        <time>2011-08-03T16:25:33Z</time>
      </trkpt>
      <trkpt lat="44.39794" lon="3.7445">
        <ele>1192.17</ele>
        <time>2011-08-03T16:25:42Z</time>
      </trkpt>
      <trkpt lat="44.39787" lon="3.74453">
        <ele>1192.17</ele>
        <time>2011-08-03T16:25:43Z</time>
      </trkpt>
      <trkpt lat="44.39782" lon="3.74457">
        <ele>1192.17</ele>
        <time>2011-08-03T16:25:44Z</time>
      </trkpt>
      <trkpt lat="44.39777" lon="3.74462">
        <ele>1192.17</ele>
        <time>2011-08-03T16:25:45Z</time>
      </trkpt>
      <trkpt lat="44.39774" lon="3.74469">
        <ele>1192.17</ele>
        <time>2011-08-03T16:25:46Z</time>
      </trkpt>
      <trkpt lat="44.3977" lon="3.74477">
        <ele>1191.69</ele>
        <time>2011-08-03T16:25:47Z</time>
      </trkpt>
      <trkpt lat="44.39756" lon="3.74503">
        <ele>1190.73</ele>
        <time>2011-08-03T16:25:51Z</time>
      </trkpt>
      <trkpt lat="44.39752" lon="3.74508">
        <ele>1190.73</ele>
        <time>2011-08-03T16:25:52Z</time>
      </trkpt>
      <trkpt lat="44.39747" lon="3.74511">
        <ele>1190.73</ele>
        <time>2011-08-03T16:25:53Z</time>
      </trkpt>
      <trkpt lat="44.39742" lon="3.74511">
        <ele>1190.73</ele>
        <time>2011-08-03T16:25:54Z</time>
      </trkpt>
      <trkpt lat="44.39737" lon="3.74512">
        <ele>1190.25</ele>
        <time>2011-08-03T16:25:55Z</time>
      </trkpt>
      <trkpt lat="44.39685" lon="3.74507">
        <ele>1188.81</ele>
        <time>2011-08-03T16:26:05Z</time>
      </trkpt>
      <trkpt lat="44.3968" lon="3.74509">
        <ele>1188.33</ele>
        <time>2011-08-03T16:26:06Z</time>
      </trkpt>
      <trkpt lat="44.3967" lon="3.74513">
        <ele>1188.33</ele>
        <time>2011-08-03T16:26:08Z</time>
      </trkpt>
      <trkpt lat="44.39665" lon="3.74513">
        <ele>1187.85</ele>
        <time>2011-08-03T16:26:09Z</time>
      </trkpt>
      <trkpt lat="44.3966" lon="3.74513">
        <ele>1187.85</ele>
        <time>2011-08-03T16:26:10Z</time>
      </trkpt>
      <trkpt lat="44.39655" lon="3.74511">
        <ele>1187.37</ele>
        <time>2011-08-03T16:26:11Z</time>
      </trkpt>
      <trkpt lat="44.3965" lon="3.74508">
        <ele>1187.37</ele>
        <time>2011-08-03T16:26:12Z</time>
      </trkpt>
      <trkpt lat="44.39645" lon="3.74507">
        <ele>1186.88</ele>
        <time>2011-08-03T16:26:13Z</time>
      </trkpt>
      <trkpt lat="44.3964" lon="3.74506">
        <ele>1186.88</ele>
        <time>2011-08-03T16:26:14Z</time>
      </trkpt>
      <trkpt lat="44.39635" lon="3.74506">
        <ele>1186.88</ele>
        <time>2011-08-03T16:26:15Z</time>
      </trkpt>
      <trkpt lat="44.3963" lon="3.74508">
        <ele>1186.4</ele>
        <time>2011-08-03T16:26:16Z</time>
      </trkpt>
      <trkpt lat="44.39625" lon="3.7451">
        <ele>1186.4</ele>
        <time>2011-08-03T16:26:17Z</time>
      </trkpt>
      <trkpt lat="44.39619" lon="3.74513">
        <ele>1186.4</ele>
        <time>2011-08-03T16:26:18Z</time>
      </trkpt>
      <trkpt lat="44.39544" lon="3.74526">
        <ele>1182.08</ele>
        <time>2011-08-03T16:26:29Z</time>
      </trkpt>
      <trkpt lat="44.39479" lon="3.74539">
        <ele>1180.16</ele>
        <time>2011-08-03T16:26:38Z</time>
      </trkpt>
      <trkpt lat="44.39434" lon="3.74568">
        <ele>1178.23</ele>
        <time>2011-08-03T16:26:45Z</time>
      </trkpt>
      <trkpt lat="44.39423" lon="3.74581">
        <ele>1177.75</ele>
        <time>2011-08-03T16:26:47Z</time>
      </trkpt>
      <trkpt lat="44.39409" lon="3.74593">
        <ele>1176.79</ele>
        <time>2011-08-03T16:26:49Z</time>
      </trkpt>
      <trkpt lat="44.39402" lon="3.74601">
        <ele>1176.31</ele>
        <time>2011-08-03T16:26:50Z</time>
      </trkpt>
      <trkpt lat="44.39396" lon="3.74609">
        <ele>1175.35</ele>
        <time>2011-08-03T16:26:51Z</time>
      </trkpt>
      <trkpt lat="44.3939" lon="3.74614">
        <ele>1174.87</ele>
        <time>2011-08-03T16:26:52Z</time>
      </trkpt>
      <trkpt lat="44.39382" lon="3.74618">
        <ele>1173.91</ele>
        <time>2011-08-03T16:26:53Z</time>
      </trkpt>
      <trkpt lat="44.39375" lon="3.74618">
        <ele>1172.95</ele>
        <time>2011-08-03T16:26:54Z</time>
      </trkpt>
      <trkpt lat="44.39367" lon="3.74615">
        <ele>1171.98</ele>
        <time>2011-08-03T16:26:55Z</time>
      </trkpt>
      <trkpt lat="44.39362" lon="3.74608">
        <ele>1171.02</ele>
        <time>2011-08-03T16:26:56Z</time>
      </trkpt>
      <trkpt lat="44.39358" lon="3.74599">
        <ele>1170.06</ele>
        <time>2011-08-03T16:26:57Z</time>
      </trkpt>
      <trkpt lat="44.39354" lon="3.7457">
        <ele>1167.66</ele>
        <time>2011-08-03T16:27:00Z</time>
      </trkpt>
      <trkpt lat="44.39368" lon="3.74507">
        <ele>1162.85</ele>
        <time>2011-08-03T16:27:06Z</time>
      </trkpt>
      <trkpt lat="44.39378" lon="3.74484">
        <ele>1159.01</ele>
        <time>2011-08-03T16:27:13Z</time>
      </trkpt>
      <trkpt lat="44.39378" lon="3.74483">
        <ele>1158.05</ele>
        <time>2011-08-03T16:27:27Z</time>
      </trkpt>
      <trkpt lat="44.39378" lon="3.74483">
        <ele>1158.05</ele>
        <time>2011-08-03T16:27:45Z</time>
      </trkpt>
      <trkpt lat="44.39379" lon="3.74483">
        <ele>1158.05</ele>
        <time>2011-08-03T16:28:03Z</time>
      </trkpt>
      <trkpt lat="44.39379" lon="3.74483">
        <ele>1158.05</ele>
        <time>2011-08-03T16:28:32Z</time>
      </trkpt>
      <trkpt lat="44.39379" lon="3.74483">
        <ele>1158.05</ele>
        <time>2011-08-03T16:28:49Z</time>
      </trkpt>
      <trkpt lat="44.39379" lon="3.74483">
        <ele>1158.05</ele>
        <time>2011-08-03T16:29:10Z</time>
      </trkpt>
      <trkpt lat="44.39379" lon="3.74482">
        <ele>1158.05</ele>
        <time>2011-08-03T16:29:30Z</time>
      </trkpt>
      <trkpt lat="44.39379" lon="3.74482">
        <ele>1158.05</ele>
        <time>2011-08-03T16:29:50Z</time>
      </trkpt>
      <trkpt lat="44.39379" lon="3.74481">
        <ele>1158.05</ele>
        <time>2011-08-03T16:30:29Z</time>
      </trkpt>
      <trkpt lat="44.3938" lon="3.74481">
        <ele>1158.05</ele>
        <time>2011-08-03T16:31:05Z</time>
      </trkpt>
      <trkpt lat="44.3938" lon="3.7448">
        <ele>1158.53</ele>
        <time>2011-08-03T16:31:46Z</time>
      </trkpt>
      <trkpt lat="44.3938" lon="3.7448">
        <ele>1158.53</ele>
        <time>2011-08-03T16:32:23Z</time>
      </trkpt>
      <trkpt lat="44.39381" lon="3.74481">
        <ele>1157.56</ele>
        <time>2011-08-03T16:33:03Z</time>
      </trkpt>
      <trkpt lat="44.39381" lon="3.74481">
        <ele>1157.56</ele>
        <time>2011-08-03T16:33:41Z</time>
      </trkpt>
      <trkpt lat="44.39381" lon="3.74482">
        <ele>1157.08</ele>
        <time>2011-08-03T16:34:18Z</time>
      </trkpt>
      <trkpt lat="44.39381" lon="3.74481">
        <ele>1157.56</ele>
        <time>2011-08-03T16:34:52Z</time>
      </trkpt>
      <trkpt lat="44.39381" lon="3.74481">
        <ele>1157.56</ele>
        <time>2011-08-03T16:35:26Z</time>
      </trkpt>
      <trkpt lat="44.39381" lon="3.74481">
        <ele>1157.56</ele>
        <time>2011-08-03T16:36:00Z</time>
      </trkpt>
      <trkpt lat="44.39381" lon="3.74481">
        <ele>1157.56</ele>
        <time>2011-08-03T16:36:38Z</time>
      </trkpt>
      <trkpt lat="44.3938" lon="3.74481">
        <ele>1157.56</ele>
        <time>2011-08-03T16:37:18Z</time>
      </trkpt>
      <trkpt lat="44.39381" lon="3.74481">
        <ele>1157.56</ele>
        <time>2011-08-03T16:37:59Z</time>
      </trkpt>
      <trkpt lat="44.39381" lon="3.74481">
        <ele>1157.56</ele>
        <time>2011-08-03T16:38:39Z</time>
      </trkpt>
      <trkpt lat="44.39381" lon="3.74481">
        <ele>1157.56</ele>
        <time>2011-08-03T16:39:11Z</time>
      </trkpt>
      <trkpt lat="44.39381" lon="3.74481">
        <ele>1157.56</ele>
        <time>2011-08-03T16:39:31Z</time>
      </trkpt>
      <trkpt lat="44.39381" lon="3.74481">
        <ele>1157.08</ele>
        <time>2011-08-03T16:40:02Z</time>
      </trkpt>
      <trkpt lat="44.39381" lon="3.74481">
        <ele>1157.08</ele>
        <time>2011-08-03T16:40:16Z</time>
      </trkpt>
      <trkpt lat="44.39381" lon="3.74481">
        <ele>1157.08</ele>
        <time>2011-08-03T16:40:52Z</time>
      </trkpt>
      <trkpt lat="44.39381" lon="3.7448">
        <ele>1157.08</ele>
        <time>2011-08-03T16:41:08Z</time>
      </trkpt>
      <trkpt lat="44.39387" lon="3.74467">
        <ele>1157.08</ele>
        <time>2011-08-03T16:41:24Z</time>
      </trkpt>
      <trkpt lat="44.39389" lon="3.74462">
        <ele>1156.6</ele>
        <time>2011-08-03T16:41:25Z</time>
      </trkpt>
      <trkpt lat="44.39391" lon="3.74436">
        <ele>1155.16</ele>
        <time>2011-08-03T16:41:29Z</time>
      </trkpt>
      <trkpt lat="44.39364" lon="3.74393">
        <ele>1153.72</ele>
        <time>2011-08-03T16:41:39Z</time>
      </trkpt>
      <trkpt lat="44.39352" lon="3.74363">
        <ele>1156.6</ele>
        <time>2011-08-03T16:41:48Z</time>
      </trkpt>
      <trkpt lat="44.39326" lon="3.74344">
        <ele>1159.01</ele>
        <time>2011-08-03T16:41:58Z</time>
      </trkpt>
      <trkpt lat="44.39282" lon="3.74349">
        <ele>1158.05</ele>
        <time>2011-08-03T16:42:09Z</time>
      </trkpt>
      <trkpt lat="44.39265" lon="3.74351">
        <ele>1156.6</ele>
        <time>2011-08-03T16:42:12Z</time>
      </trkpt>
      <trkpt lat="44.39239" lon="3.74352">
        <ele>1153.24</ele>
        <time>2011-08-03T16:42:16Z</time>
      </trkpt>
      <trkpt lat="44.39194" lon="3.74332">
        <ele>1146.03</ele>
        <time>2011-08-03T16:42:23Z</time>
      </trkpt>
      <trkpt lat="44.39188" lon="3.74317">
        <ele>1145.07</ele>
        <time>2011-08-03T16:42:25Z</time>
      </trkpt>
      <trkpt lat="44.39178" lon="3.74304">
        <ele>1144.11</ele>
        <time>2011-08-03T16:42:28Z</time>
      </trkpt>
      <trkpt lat="44.39159" lon="3.743">
        <ele>1143.14</ele>
        <time>2011-08-03T16:42:32Z</time>
      </trkpt>
      <trkpt lat="44.3915" lon="3.74302">
        <ele>1142.66</ele>
        <time>2011-08-03T16:42:34Z</time>
      </trkpt>
      <trkpt lat="44.39141" lon="3.74305">
        <ele>1142.66</ele>
        <time>2011-08-03T16:42:36Z</time>
      </trkpt>
      <trkpt lat="44.39123" lon="3.74321">
        <ele>1141.7</ele>
        <time>2011-08-03T16:42:40Z</time>
      </trkpt>
      <trkpt lat="44.39109" lon="3.7434">
        <ele>1140.74</ele>
        <time>2011-08-03T16:42:43Z</time>
      </trkpt>
      <trkpt lat="44.39099" lon="3.74349">
        <ele>1140.26</ele>
        <time>2011-08-03T16:42:45Z</time>
      </trkpt>
      <trkpt lat="44.39069" lon="3.74363">
        <ele>1138.34</ele>
        <time>2011-08-03T16:42:50Z</time>
      </trkpt>
      <trkpt lat="44.39045" lon="3.74377">
        <ele>1138.34</ele>
        <time>2011-08-03T16:42:55Z</time>
      </trkpt>
      <trkpt lat="44.3903" lon="3.74396">
        <ele>1137.86</ele>
        <time>2011-08-03T16:42:59Z</time>
      </trkpt>
      <trkpt lat="44.39007" lon="3.74421">
        <ele>1138.34</ele>
        <time>2011-08-03T16:43:05Z</time>
      </trkpt>
      <trkpt lat="44.38971" lon="3.74451">
        <ele>1141.22</ele>
        <time>2011-08-03T16:43:15Z</time>
      </trkpt>
      <trkpt lat="44.3892" lon="3.74474">
        <ele>1143.14</ele>
        <time>2011-08-03T16:43:29Z</time>
      </trkpt>
      <trkpt lat="44.38877" lon="3.74473">
        <ele>1143.63</ele>
        <time>2011-08-03T16:43:39Z</time>
      </trkpt>
      <trkpt lat="44.38857" lon="3.7447">
        <ele>1143.14</ele>
        <time>2011-08-03T16:43:43Z</time>
      </trkpt>
      <trkpt lat="44.3878" lon="3.74488">
        <ele>1138.34</ele>
        <time>2011-08-03T16:43:55Z</time>
      </trkpt>
      <trkpt lat="44.38773" lon="3.7449">
        <ele>1137.86</ele>
        <time>2011-08-03T16:43:56Z</time>
      </trkpt>
      <trkpt lat="44.38743" lon="3.745">
        <ele>1136.42</ele>
        <time>2011-08-03T16:44:00Z</time>
      </trkpt>
      <trkpt lat="44.38711" lon="3.74525">
        <ele>1134.97</ele>
        <time>2011-08-03T16:44:05Z</time>
      </trkpt>
      <trkpt lat="44.38677" lon="3.74544">
        <ele>1133.53</ele>
        <time>2011-08-03T16:44:10Z</time>
      </trkpt>
      <trkpt lat="44.3861" lon="3.74526">
        <ele>1131.61</ele>
        <time>2011-08-03T16:44:20Z</time>
      </trkpt>
      <trkpt lat="44.38558" lon="3.74481">
        <ele>1127.28</ele>
        <time>2011-08-03T16:44:28Z</time>
      </trkpt>
      <trkpt lat="44.38553" lon="3.74475">
        <ele>1127.28</ele>
        <time>2011-08-03T16:44:29Z</time>
      </trkpt>
      <trkpt lat="44.38547" lon="3.7447">
        <ele>1127.28</ele>
        <time>2011-08-03T16:44:30Z</time>
      </trkpt>
      <trkpt lat="44.38541" lon="3.74467">
        <ele>1127.28</ele>
        <time>2011-08-03T16:44:31Z</time>
      </trkpt>
      <trkpt lat="44.38535" lon="3.74465">
        <ele>1126.8</ele>
        <time>2011-08-03T16:44:32Z</time>
      </trkpt>
      <trkpt lat="44.38528" lon="3.74464">
        <ele>1126.8</ele>
        <time>2011-08-03T16:44:33Z</time>
      </trkpt>
      <trkpt lat="44.38482" lon="3.74476">
        <ele>1125.36</ele>
        <time>2011-08-03T16:44:40Z</time>
      </trkpt>
      <trkpt lat="44.38475" lon="3.74477">
        <ele>1125.36</ele>
        <time>2011-08-03T16:44:41Z</time>
      </trkpt>
      <trkpt lat="44.38444" lon="3.74479">
        <ele>1124.88</ele>
        <time>2011-08-03T16:44:46Z</time>
      </trkpt>
      <trkpt lat="44.38439" lon="3.74478">
        <ele>1124.88</ele>
        <time>2011-08-03T16:44:47Z</time>
      </trkpt>
      <trkpt lat="44.38434" lon="3.74476">
        <ele>1124.88</ele>
        <time>2011-08-03T16:44:48Z</time>
      </trkpt>
      <trkpt lat="44.3843" lon="3.74473">
        <ele>1125.36</ele>
        <time>2011-08-03T16:44:49Z</time>
      </trkpt>
      <trkpt lat="44.38427" lon="3.7447">
        <ele>1125.36</ele>
        <time>2011-08-03T16:44:50Z</time>
      </trkpt>
      <trkpt lat="44.38425" lon="3.74468">
        <ele>1125.84</ele>
        <time>2011-08-03T16:44:51Z</time>
      </trkpt>
      <trkpt lat="44.38422" lon="3.74466">
        <ele>1125.84</ele>
        <time>2011-08-03T16:44:52Z</time>
      </trkpt>
      <trkpt lat="44.38419" lon="3.74465">
        <ele>1126.32</ele>
        <time>2011-08-03T16:44:53Z</time>
      </trkpt>
      <trkpt lat="44.38416" lon="3.74464">
        <ele>1126.32</ele>
        <time>2011-08-03T16:44:54Z</time>
      </trkpt>
      <trkpt lat="44.38414" lon="3.74463">
        <ele>1126.32</ele>
        <time>2011-08-03T16:44:55Z</time>
      </trkpt>
      <trkpt lat="44.38395" lon="3.74456">
        <ele>1124.88</ele>
        <time>2011-08-03T16:45:02Z</time>
      </trkpt>
      <trkpt lat="44.38393" lon="3.74456">
        <ele>1124.88</ele>
        <time>2011-08-03T16:45:03Z</time>
      </trkpt>
      <trkpt lat="44.38381" lon="3.74455">
        <ele>1124.4</ele>
        <time>2011-08-03T16:45:06Z</time>
      </trkpt>
      <trkpt lat="44.38377" lon="3.74456">
        <ele>1124.4</ele>
        <time>2011-08-03T16:45:07Z</time>
      </trkpt>
      <trkpt lat="44.38348" lon="3.74455">
        <ele>1122.96</ele>
        <time>2011-08-03T16:45:13Z</time>
      </trkpt>
      <trkpt lat="44.3834" lon="3.74452">
        <ele>1122.96</ele>
        <time>2011-08-03T16:45:15Z</time>
      </trkpt>
      <trkpt lat="44.38335" lon="3.7445">
        <ele>1122.48</ele>
        <time>2011-08-03T16:45:16Z</time>
      </trkpt>
      <trkpt lat="44.38322" lon="3.74444">
        <ele>1121.52</ele>
        <time>2011-08-03T16:45:19Z</time>
      </trkpt>
      <trkpt lat="44.38318" lon="3.74445">
        <ele>1121.52</ele>
        <time>2011-08-03T16:45:20Z</time>
      </trkpt>
      <trkpt lat="44.38314" lon="3.74446">
        <ele>1121.52</ele>
        <time>2011-08-03T16:45:21Z</time>
      </trkpt>
      <trkpt lat="44.3831" lon="3.7445">
        <ele>1121.03</ele>
        <time>2011-08-03T16:45:22Z</time>
      </trkpt>
      <trkpt lat="44.38307" lon="3.74453">
        <ele>1121.03</ele>
        <time>2011-08-03T16:45:23Z</time>
      </trkpt>
      <trkpt lat="44.38303" lon="3.74457">
        <ele>1121.03</ele>
        <time>2011-08-03T16:45:24Z</time>
      </trkpt>
      <trkpt lat="44.383" lon="3.74461">
        <ele>1121.03</ele>
        <time>2011-08-03T16:45:25Z</time>
      </trkpt>
      <trkpt lat="44.38297" lon="3.74465">
        <ele>1120.55</ele>
        <time>2011-08-03T16:45:26Z</time>
      </trkpt>
      <trkpt lat="44.38294" lon="3.74471">
        <ele>1120.55</ele>
        <time>2011-08-03T16:45:27Z</time>
      </trkpt>
      <trkpt lat="44.3829" lon="3.74476">
        <ele>1120.55</ele>
        <time>2011-08-03T16:45:28Z</time>
      </trkpt>
      <trkpt lat="44.38284" lon="3.74486">
        <ele>1120.55</ele>
        <time>2011-08-03T16:45:30Z</time>
      </trkpt>
      <trkpt lat="44.3828" lon="3.7449">
        <ele>1120.07</ele>
        <time>2011-08-03T16:45:31Z</time>
      </trkpt>
      <trkpt lat="44.38275" lon="3.74492">
        <ele>1120.07</ele>
        <time>2011-08-03T16:45:32Z</time>
      </trkpt>
      <trkpt lat="44.3827" lon="3.74494">
        <ele>1120.07</ele>
        <time>2011-08-03T16:45:33Z</time>
      </trkpt>
      <trkpt lat="44.38265" lon="3.74495">
        <ele>1120.07</ele>
        <time>2011-08-03T16:45:34Z</time>
      </trkpt>
      <trkpt lat="44.38255" lon="3.74498">
        <ele>1120.07</ele>
        <time>2011-08-03T16:45:36Z</time>
      </trkpt>
      <trkpt lat="44.38251" lon="3.74501">
        <ele>1120.07</ele>
        <time>2011-08-03T16:45:37Z</time>
      </trkpt>
      <trkpt lat="44.38247" lon="3.74504">
        <ele>1120.07</ele>
        <time>2011-08-03T16:45:38Z</time>
      </trkpt>
      <trkpt lat="44.38231" lon="3.74518">
        <ele>1120.07</ele>
        <time>2011-08-03T16:45:42Z</time>
      </trkpt>
      <trkpt lat="44.38227" lon="3.7452">
        <ele>1120.07</ele>
        <time>2011-08-03T16:45:43Z</time>
      </trkpt>
      <trkpt lat="44.38222" lon="3.7452">
        <ele>1120.07</ele>
        <time>2011-08-03T16:45:44Z</time>
      </trkpt>
      <trkpt lat="44.38217" lon="3.74519">
        <ele>1120.07</ele>
        <time>2011-08-03T16:45:45Z</time>
      </trkpt>
      <trkpt lat="44.38212" lon="3.74518">
        <ele>1120.55</ele>
        <time>2011-08-03T16:45:46Z</time>
      </trkpt>
      <trkpt lat="44.38207" lon="3.74516">
        <ele>1120.55</ele>
        <time>2011-08-03T16:45:47Z</time>
      </trkpt>
      <trkpt lat="44.38184" lon="3.74507">
        <ele>1120.07</ele>
        <time>2011-08-03T16:45:54Z</time>
      </trkpt>
      <trkpt lat="44.38175" lon="3.74505">
        <ele>1120.07</ele>
        <time>2011-08-03T16:45:56Z</time>
      </trkpt>
      <trkpt lat="44.3817" lon="3.74504">
        <ele>1120.07</ele>
        <time>2011-08-03T16:45:57Z</time>
      </trkpt>
      <trkpt lat="44.38165" lon="3.74501">
        <ele>1119.59</ele>
        <time>2011-08-03T16:45:58Z</time>
      </trkpt>
      <trkpt lat="44.38154" lon="3.74494">
        <ele>1118.63</ele>
        <time>2011-08-03T16:46:00Z</time>
      </trkpt>
      <trkpt lat="44.38148" lon="3.74492">
        <ele>1118.15</ele>
        <time>2011-08-03T16:46:01Z</time>
      </trkpt>
      <trkpt lat="44.38142" lon="3.74491">
        <ele>1118.15</ele>
        <time>2011-08-03T16:46:02Z</time>
      </trkpt>
      <trkpt lat="44.38131" lon="3.74489">
        <ele>1117.67</ele>
        <time>2011-08-03T16:46:04Z</time>
      </trkpt>
      <trkpt lat="44.38126" lon="3.74486">
        <ele>1117.19</ele>
        <time>2011-08-03T16:46:05Z</time>
      </trkpt>
      <trkpt lat="44.38122" lon="3.74482">
        <ele>1117.19</ele>
        <time>2011-08-03T16:46:06Z</time>
      </trkpt>
      <trkpt lat="44.3811" lon="3.74473">
        <ele>1116.71</ele>
        <time>2011-08-03T16:46:09Z</time>
      </trkpt>
      <trkpt lat="44.38106" lon="3.74472">
        <ele>1116.71</ele>
        <time>2011-08-03T16:46:10Z</time>
      </trkpt>
      <trkpt lat="44.38101" lon="3.74472">
        <ele>1116.71</ele>
        <time>2011-08-03T16:46:11Z</time>
      </trkpt>
      <trkpt lat="44.38092" lon="3.74472">
        <ele>1115.75</ele>
        <time>2011-08-03T16:46:13Z</time>
      </trkpt>
      <trkpt lat="44.38088" lon="3.74469">
        <ele>1115.27</ele>
        <time>2011-08-03T16:46:14Z</time>
      </trkpt>
      <trkpt lat="44.38084" lon="3.74467">
        <ele>1115.27</ele>
        <time>2011-08-03T16:46:15Z</time>
      </trkpt>
      <trkpt lat="44.3808" lon="3.74467">
        <ele>1114.31</ele>
        <time>2011-08-03T16:46:16Z</time>
      </trkpt>
      <trkpt lat="44.38076" lon="3.7447">
        <ele>1113.82</ele>
        <time>2011-08-03T16:46:17Z</time>
      </trkpt>
      <trkpt lat="44.38074" lon="3.74475">
        <ele>1112.86</ele>
        <time>2011-08-03T16:46:18Z</time>
      </trkpt>
      <trkpt lat="44.38071" lon="3.74481">
        <ele>1112.38</ele>
        <time>2011-08-03T16:46:19Z</time>
      </trkpt>
      <trkpt lat="44.38068" lon="3.74485">
        <ele>1111.9</ele>
        <time>2011-08-03T16:46:20Z</time>
      </trkpt>
      <trkpt lat="44.38064" lon="3.74486">
        <ele>1111.9</ele>
        <time>2011-08-03T16:46:21Z</time>
      </trkpt>
      <trkpt lat="44.38061" lon="3.74486">
        <ele>1110.94</ele>
        <time>2011-08-03T16:46:22Z</time>
      </trkpt>
      <trkpt lat="44.38059" lon="3.74484">
        <ele>1110.46</ele>
        <time>2011-08-03T16:46:23Z</time>
      </trkpt>
      <trkpt lat="44.38057" lon="3.74481">
        <ele>1109.98</ele>
        <time>2011-08-03T16:46:24Z</time>
      </trkpt>
      <trkpt lat="44.38057" lon="3.74477">
        <ele>1109.5</ele>
        <time>2011-08-03T16:46:25Z</time>
      </trkpt>
      <trkpt lat="44.38056" lon="3.74473">
        <ele>1108.54</ele>
        <time>2011-08-03T16:46:26Z</time>
      </trkpt>
      <trkpt lat="44.38056" lon="3.74468">
        <ele>1108.06</ele>
        <time>2011-08-03T16:46:27Z</time>
      </trkpt>
      <trkpt lat="44.38055" lon="3.74462">
        <ele>1107.58</ele>
        <time>2011-08-03T16:46:28Z</time>
      </trkpt>
      <trkpt lat="44.38052" lon="3.74456">
        <ele>1106.61</ele>
        <time>2011-08-03T16:46:29Z</time>
      </trkpt>
      <trkpt lat="44.38048" lon="3.74451">
        <ele>1106.13</ele>
        <time>2011-08-03T16:46:30Z</time>
      </trkpt>
      <trkpt lat="44.38038" lon="3.74447">
        <ele>1104.69</ele>
        <time>2011-08-03T16:46:32Z</time>
      </trkpt>
      <trkpt lat="44.38035" lon="3.74447">
        <ele>1104.21</ele>
        <time>2011-08-03T16:46:33Z</time>
      </trkpt>
      <trkpt lat="44.38033" lon="3.74448">
        <ele>1103.25</ele>
        <time>2011-08-03T16:46:34Z</time>
      </trkpt>
      <trkpt lat="44.38031" lon="3.74448">
        <ele>1102.77</ele>
        <time>2011-08-03T16:46:35Z</time>
      </trkpt>
      <trkpt lat="44.38029" lon="3.74449">
        <ele>1102.77</ele>
        <time>2011-08-03T16:46:36Z</time>
      </trkpt>
      <trkpt lat="44.38024" lon="3.74452">
        <ele>1102.29</ele>
        <time>2011-08-03T16:46:40Z</time>
      </trkpt>
      <trkpt lat="44.38022" lon="3.74452">
        <ele>1101.81</ele>
        <time>2011-08-03T16:46:41Z</time>
      </trkpt>
      <trkpt lat="44.3802" lon="3.74452">
        <ele>1101.81</ele>
        <time>2011-08-03T16:46:42Z</time>
      </trkpt>
      <trkpt lat="44.38018" lon="3.74452">
        <ele>1101.81</ele>
        <time>2011-08-03T16:46:43Z</time>
      </trkpt>
      <trkpt lat="44.38017" lon="3.74451">
        <ele>1101.81</ele>
        <time>2011-08-03T16:46:44Z</time>
      </trkpt>
      <trkpt lat="44.37981" lon="3.74457">
        <ele>1099.4</ele>
        <time>2011-08-03T16:46:56Z</time>
      </trkpt>
      <trkpt lat="44.37971" lon="3.74455">
        <ele>1099.4</ele>
        <time>2011-08-03T16:46:59Z</time>
      </trkpt>
      <trkpt lat="44.37969" lon="3.74452">
        <ele>1099.4</ele>
        <time>2011-08-03T16:47:00Z</time>
      </trkpt>
      <trkpt lat="44.37968" lon="3.74451">
        <ele>1099.4</ele>
        <time>2011-08-03T16:47:01Z</time>
      </trkpt>
      <trkpt lat="44.37967" lon="3.7445">
        <ele>1099.89</ele>
        <time>2011-08-03T16:47:16Z</time>
      </trkpt>
      <trkpt lat="44.37967" lon="3.7445">
        <ele>1099.89</ele>
        <time>2011-08-03T16:47:38Z</time>
      </trkpt>
      <trkpt lat="44.37966" lon="3.74449">
        <ele>1099.89</ele>
        <time>2011-08-03T16:48:03Z</time>
      </trkpt>
      <trkpt lat="44.37965" lon="3.74448">
        <ele>1100.37</ele>
        <time>2011-08-03T16:48:30Z</time>
      </trkpt>
      <trkpt lat="44.37958" lon="3.74442">
        <ele>1101.81</ele>
        <time>2011-08-03T16:48:43Z</time>
      </trkpt>
      <trkpt lat="44.37957" lon="3.74443">
        <ele>1101.81</ele>
        <time>2011-08-03T16:48:45Z</time>
      </trkpt>
      <trkpt lat="44.37927" lon="3.74444">
        <ele>1101.81</ele>
        <time>2011-08-03T16:48:58Z</time>
      </trkpt>
      <trkpt lat="44.37909" lon="3.74448">
        <ele>1104.21</ele>
        <time>2011-08-03T16:49:10Z</time>
      </trkpt>
      <trkpt lat="44.37896" lon="3.74443">
        <ele>1105.65</ele>
        <time>2011-08-03T16:49:19Z</time>
      </trkpt>
      <trkpt lat="44.37878" lon="3.74412">
        <ele>1105.65</ele>
        <time>2011-08-03T16:49:31Z</time>
      </trkpt>
      <trkpt lat="44.37863" lon="3.74401">
        <ele>1106.13</ele>
        <time>2011-08-03T16:49:38Z</time>
      </trkpt>
      <trkpt lat="44.37861" lon="3.74386">
        <ele>1106.61</ele>
        <time>2011-08-03T16:49:42Z</time>
      </trkpt>
      <trkpt lat="44.37854" lon="3.74352">
        <ele>1109.98</ele>
        <time>2011-08-03T16:49:55Z</time>
      </trkpt>
      <trkpt lat="44.37851" lon="3.7435">
        <ele>1110.46</ele>
        <time>2011-08-03T16:49:57Z</time>
      </trkpt>
      <trkpt lat="44.37838" lon="3.74326">
        <ele>1116.71</ele>
        <time>2011-08-03T16:50:14Z</time>
      </trkpt>
      <trkpt lat="44.37838" lon="3.74322">
        <ele>1117.19</ele>
        <time>2011-08-03T16:50:16Z</time>
      </trkpt>
      <trkpt lat="44.37845" lon="3.74295">
        <ele>1119.11</ele>
        <time>2011-08-03T16:50:34Z</time>
      </trkpt>
      <trkpt lat="44.37843" lon="3.7428">
        <ele>1120.07</ele>
        <time>2011-08-03T16:50:47Z</time>
      </trkpt>
      <trkpt lat="44.37844" lon="3.74273">
        <ele>1120.55</ele>
        <time>2011-08-03T16:50:53Z</time>
      </trkpt>
      <trkpt lat="44.37843" lon="3.74262">
        <ele>1121.52</ele>
        <time>2011-08-03T16:51:07Z</time>
      </trkpt>
      <trkpt lat="44.37843" lon="3.74262">
        <ele>1121.52</ele>
        <time>2011-08-03T16:51:35Z</time>
      </trkpt>
      <trkpt lat="44.37842" lon="3.74263">
        <ele>1122</ele>
        <time>2011-08-03T16:51:49Z</time>
      </trkpt>
      <trkpt lat="44.37842" lon="3.74305">
        <ele>1118.15</ele>
        <time>2011-08-03T16:52:01Z</time>
      </trkpt>
      <trkpt lat="44.37835" lon="3.74307">
        <ele>1117.67</ele>
        <time>2011-08-03T16:52:14Z</time>
      </trkpt>
      <trkpt lat="44.37832" lon="3.74311">
        <ele>1117.19</ele>
        <time>2011-08-03T16:52:28Z</time>
      </trkpt>
      <trkpt lat="44.3781" lon="3.74317">
        <ele>1114.31</ele>
        <time>2011-08-03T16:52:38Z</time>
      </trkpt>
      <trkpt lat="44.37798" lon="3.74321">
        <ele>1113.82</ele>
        <time>2011-08-03T16:52:41Z</time>
      </trkpt>
      <trkpt lat="44.37785" lon="3.74325">
        <ele>1113.34</ele>
        <time>2011-08-03T16:52:44Z</time>
      </trkpt>
      <trkpt lat="44.37765" lon="3.74347">
        <ele>1112.38</ele>
        <time>2011-08-03T16:52:54Z</time>
      </trkpt>
      <trkpt lat="44.37734" lon="3.74381">
        <ele>1109.5</ele>
        <time>2011-08-03T16:53:06Z</time>
      </trkpt>
      <trkpt lat="44.37694" lon="3.74365">
        <ele>1109.5</ele>
        <time>2011-08-03T16:53:18Z</time>
      </trkpt>
      <trkpt lat="44.37685" lon="3.74363">
        <ele>1109.98</ele>
        <time>2011-08-03T16:53:20Z</time>
      </trkpt>
      <trkpt lat="44.37659" lon="3.74362">
        <ele>1108.54</ele>
        <time>2011-08-03T16:53:26Z</time>
      </trkpt>
      <trkpt lat="44.37617" lon="3.74357">
        <ele>1107.1</ele>
        <time>2011-08-03T16:53:39Z</time>
      </trkpt>
      <trkpt lat="44.37621" lon="3.7436">
        <ele>1106.13</ele>
        <time>2011-08-03T16:53:50Z</time>
      </trkpt>
      <trkpt lat="44.37619" lon="3.7436">
        <ele>1106.13</ele>
        <time>2011-08-03T16:53:55Z</time>
      </trkpt>
      <trkpt lat="44.37614" lon="3.74347">
        <ele>1105.17</ele>
        <time>2011-08-03T16:54:07Z</time>
      </trkpt>
      <trkpt lat="44.37593" lon="3.743">
        <ele>1100.85</ele>
        <time>2011-08-03T16:54:20Z</time>
      </trkpt>
      <trkpt lat="44.37574" lon="3.74264">
        <ele>1096.04</ele>
        <time>2011-08-03T16:54:32Z</time>
      </trkpt>
      <trkpt lat="44.37573" lon="3.74254">
        <ele>1094.6</ele>
        <time>2011-08-03T16:54:38Z</time>
      </trkpt>
      <trkpt lat="44.37567" lon="3.74257">
        <ele>1095.08</ele>
        <time>2011-08-03T16:54:42Z</time>
      </trkpt>
      <trkpt lat="44.3754" lon="3.74285">
        <ele>1092.68</ele>
        <time>2011-08-03T16:54:58Z</time>
      </trkpt>
      <trkpt lat="44.37537" lon="3.74287">
        <ele>1091.23</ele>
        <time>2011-08-03T16:55:10Z</time>
      </trkpt>
      <trkpt lat="44.37536" lon="3.74287">
        <ele>1091.23</ele>
        <time>2011-08-03T16:55:38Z</time>
      </trkpt>
      <trkpt lat="44.37536" lon="3.74287">
        <ele>1091.23</ele>
        <time>2011-08-03T16:56:01Z</time>
      </trkpt>
      <trkpt lat="44.37533" lon="3.74287">
        <ele>1091.23</ele>
        <time>2011-08-03T16:56:25Z</time>
      </trkpt>
      <trkpt lat="44.37515" lon="3.74297">
        <ele>1092.68</ele>
        <time>2011-08-03T16:56:38Z</time>
      </trkpt>
      <trkpt lat="44.37475" lon="3.74327">
        <ele>1090.75</ele>
        <time>2011-08-03T16:56:49Z</time>
      </trkpt>
      <trkpt lat="44.3744" lon="3.7436">
        <ele>1092.2</ele>
        <time>2011-08-03T16:57:03Z</time>
      </trkpt>
      <trkpt lat="44.37429" lon="3.74367">
        <ele>1092.2</ele>
        <time>2011-08-03T16:57:14Z</time>
      </trkpt>
      <trkpt lat="44.37428" lon="3.74366">
        <ele>1092.2</ele>
        <time>2011-08-03T16:57:28Z</time>
      </trkpt>
      <trkpt lat="44.37431" lon="3.74372">
        <ele>1092.2</ele>
        <time>2011-08-03T16:57:42Z</time>
      </trkpt>
      <trkpt lat="44.37431" lon="3.74373">
        <ele>1092.2</ele>
        <time>2011-08-03T16:58:00Z</time>
      </trkpt>
      <trkpt lat="44.3743" lon="3.74374">
        <ele>1092.2</ele>
        <time>2011-08-03T16:58:10Z</time>
      </trkpt>
      <trkpt lat="44.37428" lon="3.7439">
        <ele>1090.75</ele>
        <time>2011-08-03T16:58:16Z</time>
      </trkpt>
      <trkpt lat="44.37403" lon="3.7444">
        <ele>1089.31</ele>
        <time>2011-08-03T16:58:30Z</time>
      </trkpt>
      <trkpt lat="44.37384" lon="3.74478">
        <ele>1088.35</ele>
        <time>2011-08-03T16:58:40Z</time>
      </trkpt>
      <trkpt lat="44.37369" lon="3.745">
        <ele>1087.87</ele>
        <time>2011-08-03T16:58:44Z</time>
      </trkpt>
      <trkpt lat="44.37352" lon="3.74513">
        <ele>1086.91</ele>
        <time>2011-08-03T16:58:48Z</time>
      </trkpt>
      <trkpt lat="44.37317" lon="3.74531">
        <ele>1084.5</ele>
        <time>2011-08-03T16:58:59Z</time>
      </trkpt>
      <trkpt lat="44.37296" lon="3.74529">
        <ele>1081.62</ele>
        <time>2011-08-03T16:59:07Z</time>
      </trkpt>
      <trkpt lat="44.37292" lon="3.74527">
        <ele>1080.66</ele>
        <time>2011-08-03T16:59:09Z</time>
      </trkpt>
      <trkpt lat="44.37273" lon="3.74527">
        <ele>1077.29</ele>
        <time>2011-08-03T16:59:16Z</time>
      </trkpt>
      <trkpt lat="44.37261" lon="3.74524">
        <ele>1074.41</ele>
        <time>2011-08-03T16:59:21Z</time>
      </trkpt>
      <trkpt lat="44.37248" lon="3.74532">
        <ele>1070.08</ele>
        <time>2011-08-03T16:59:27Z</time>
      </trkpt>
      <trkpt lat="44.37234" lon="3.74559">
        <ele>1065.76</ele>
        <time>2011-08-03T16:59:35Z</time>
      </trkpt>
      <trkpt lat="44.37217" lon="3.74582">
        <ele>1062.39</ele>
        <time>2011-08-03T16:59:40Z</time>
      </trkpt>
      <trkpt lat="44.37197" lon="3.746">
        <ele>1058.07</ele>
        <time>2011-08-03T16:59:46Z</time>
      </trkpt>
      <trkpt lat="44.37188" lon="3.7461">
        <ele>1055.18</ele>
        <time>2011-08-03T16:59:56Z</time>
      </trkpt>
      <trkpt lat="44.37185" lon="3.74617">
        <ele>1054.22</ele>
        <time>2011-08-03T17:00:09Z</time>
      </trkpt>
      <trkpt lat="44.37182" lon="3.74617">
        <ele>1052.78</ele>
        <time>2011-08-03T17:00:21Z</time>
      </trkpt>
      <trkpt lat="44.37176" lon="3.74615">
        <ele>1051.34</ele>
        <time>2011-08-03T17:00:25Z</time>
      </trkpt>
      <trkpt lat="44.37167" lon="3.74611">
        <ele>1050.86</ele>
        <time>2011-08-03T17:00:29Z</time>
      </trkpt>
      <trkpt lat="44.37156" lon="3.74608">
        <ele>1048.94</ele>
        <time>2011-08-03T17:00:39Z</time>
      </trkpt>
      <trkpt lat="44.37146" lon="3.74602">
        <ele>1047.01</ele>
        <time>2011-08-03T17:00:50Z</time>
      </trkpt>
      <trkpt lat="44.37138" lon="3.74612">
        <ele>1045.09</ele>
        <time>2011-08-03T17:01:03Z</time>
      </trkpt>
      <trkpt lat="44.3714" lon="3.7462">
        <ele>1043.65</ele>
        <time>2011-08-03T17:01:09Z</time>
      </trkpt>
      <trkpt lat="44.37138" lon="3.74625">
        <ele>1043.17</ele>
        <time>2011-08-03T17:01:13Z</time>
      </trkpt>
      <trkpt lat="44.37135" lon="3.74627">
        <ele>1042.69</ele>
        <time>2011-08-03T17:01:21Z</time>
      </trkpt>
      <trkpt lat="44.37125" lon="3.74612">
        <ele>1041.25</ele>
        <time>2011-08-03T17:01:36Z</time>
      </trkpt>
      <trkpt lat="44.37124" lon="3.7461">
        <ele>1040.76</ele>
        <time>2011-08-03T17:01:50Z</time>
      </trkpt>
      <trkpt lat="44.37119" lon="3.74607">
        <ele>1040.76</ele>
        <time>2011-08-03T17:02:00Z</time>
      </trkpt>
      <trkpt lat="44.37119" lon="3.74607">
        <ele>1040.76</ele>
        <time>2011-08-03T17:02:39Z</time>
      </trkpt>
      <trkpt lat="44.37119" lon="3.74607">
        <ele>1040.28</ele>
        <time>2011-08-03T17:03:20Z</time>
      </trkpt>
      <trkpt lat="44.37119" lon="3.74607">
        <ele>1040.28</ele>
        <time>2011-08-03T17:04:03Z</time>
      </trkpt>
      <trkpt lat="44.37119" lon="3.74608">
        <ele>1039.8</ele>
        <time>2011-08-03T17:04:43Z</time>
      </trkpt>
      <trkpt lat="44.37119" lon="3.74607">
        <ele>1039.8</ele>
        <time>2011-08-03T17:05:22Z</time>
      </trkpt>
      <trkpt lat="44.37118" lon="3.74609">
        <ele>1039.8</ele>
        <time>2011-08-03T17:05:32Z</time>
      </trkpt>
      <trkpt lat="44.37104" lon="3.74616">
        <ele>1036.44</ele>
        <time>2011-08-03T17:05:46Z</time>
      </trkpt>
      <trkpt lat="44.37096" lon="3.74619">
        <ele>1034.52</ele>
        <time>2011-08-03T17:05:50Z</time>
      </trkpt>
      <trkpt lat="44.37086" lon="3.74614">
        <ele>1034.04</ele>
        <time>2011-08-03T17:05:56Z</time>
      </trkpt>
      <trkpt lat="44.37092" lon="3.74598">
        <ele>1033.07</ele>
        <time>2011-08-03T17:06:02Z</time>
      </trkpt>
      <trkpt lat="44.37103" lon="3.74558">
        <ele>1031.15</ele>
        <time>2011-08-03T17:06:15Z</time>
      </trkpt>
      <trkpt lat="44.37111" lon="3.74522">
        <ele>1026.83</ele>
        <time>2011-08-03T17:06:26Z</time>
      </trkpt>
      <trkpt lat="44.3711" lon="3.74506">
        <ele>1022.5</ele>
        <time>2011-08-03T17:06:38Z</time>
      </trkpt>
      <trkpt lat="44.37108" lon="3.74504">
        <ele>1022.02</ele>
        <time>2011-08-03T17:06:44Z</time>
      </trkpt>
      <trkpt lat="44.37103" lon="3.74504">
        <ele>1021.06</ele>
        <time>2011-08-03T17:07:02Z</time>
      </trkpt>
      <trkpt lat="44.37103" lon="3.74504">
        <ele>1020.58</ele>
        <time>2011-08-03T17:07:20Z</time>
      </trkpt>
      <trkpt lat="44.37101" lon="3.74505">
        <ele>1020.58</ele>
        <time>2011-08-03T17:07:22Z</time>
      </trkpt>
      <trkpt lat="44.37096" lon="3.74503">
        <ele>1019.62</ele>
        <time>2011-08-03T17:07:26Z</time>
      </trkpt>
      <trkpt lat="44.37082" lon="3.74503">
        <ele>1017.21</ele>
        <time>2011-08-03T17:07:39Z</time>
      </trkpt>
      <trkpt lat="44.37071" lon="3.74504">
        <ele>1015.29</ele>
        <time>2011-08-03T17:07:52Z</time>
      </trkpt>
      <trkpt lat="44.37057" lon="3.74506">
        <ele>1014.33</ele>
        <time>2011-08-03T17:08:05Z</time>
      </trkpt>
      <trkpt lat="44.37049" lon="3.74506">
        <ele>1012.89</ele>
        <time>2011-08-03T17:08:12Z</time>
      </trkpt>
      <trkpt lat="44.3704" lon="3.74502">
        <ele>1012.41</ele>
        <time>2011-08-03T17:08:19Z</time>
      </trkpt>
      <trkpt lat="44.37035" lon="3.74501">
        <ele>1011.44</ele>
        <time>2011-08-03T17:08:28Z</time>
      </trkpt>
      <trkpt lat="44.3701" lon="3.74485">
        <ele>1009.04</ele>
        <time>2011-08-03T17:08:39Z</time>
      </trkpt>
      <trkpt lat="44.3701" lon="3.74484">
        <ele>1007.6</ele>
        <time>2011-08-03T17:08:42Z</time>
      </trkpt>
      <trkpt lat="44.37011" lon="3.74487">
        <ele>1006.64</ele>
        <time>2011-08-03T17:08:45Z</time>
      </trkpt>
      <trkpt lat="44.37005" lon="3.74508">
        <ele>1005.2</ele>
        <time>2011-08-03T17:08:55Z</time>
      </trkpt>
      <trkpt lat="44.36987" lon="3.74505">
        <ele>1004.23</ele>
        <time>2011-08-03T17:08:59Z</time>
      </trkpt>
      <trkpt lat="44.36961" lon="3.74502">
        <ele>999.91</ele>
        <time>2011-08-03T17:09:11Z</time>
      </trkpt>
      <trkpt lat="44.36961" lon="3.74502">
        <ele>999.91</ele>
        <time>2011-08-03T17:09:42Z</time>
      </trkpt>
      <trkpt lat="44.36961" lon="3.74501">
        <ele>999.91</ele>
        <time>2011-08-03T17:10:05Z</time>
      </trkpt>
      <trkpt lat="44.36962" lon="3.74501">
        <ele>999.43</ele>
        <time>2011-08-03T17:10:39Z</time>
      </trkpt>
      <trkpt lat="44.36962" lon="3.74501">
        <ele>999.43</ele>
        <time>2011-08-03T17:11:02Z</time>
      </trkpt>
      <trkpt lat="44.36962" lon="3.745">
        <ele>999.43</ele>
        <time>2011-08-03T17:11:30Z</time>
      </trkpt>
      <trkpt lat="44.3696" lon="3.74499">
        <ele>998.47</ele>
        <time>2011-08-03T17:11:36Z</time>
      </trkpt>
      <trkpt lat="44.36917" lon="3.74483">
        <ele>994.62</ele>
        <time>2011-08-03T17:11:48Z</time>
      </trkpt>
      <trkpt lat="44.36888" lon="3.74459">
        <ele>988.37</ele>
        <time>2011-08-03T17:11:55Z</time>
      </trkpt>
      <trkpt lat="44.36884" lon="3.74456">
        <ele>987.41</ele>
        <time>2011-08-03T17:11:56Z</time>
      </trkpt>
      <trkpt lat="44.3687" lon="3.7445">
        <ele>985.01</ele>
        <time>2011-08-03T17:11:59Z</time>
      </trkpt>
      <trkpt lat="44.36859" lon="3.74447">
        <ele>983.57</ele>
        <time>2011-08-03T17:12:01Z</time>
      </trkpt>
      <trkpt lat="44.36827" lon="3.74441">
        <ele>978.76</ele>
        <time>2011-08-03T17:12:06Z</time>
      </trkpt>
      <trkpt lat="44.36816" lon="3.74441">
        <ele>976.36</ele>
        <time>2011-08-03T17:12:08Z</time>
      </trkpt>
      <trkpt lat="44.36812" lon="3.7444">
        <ele>974.91</ele>
        <time>2011-08-03T17:12:09Z</time>
      </trkpt>
      <trkpt lat="44.36807" lon="3.74437">
        <ele>974.43</ele>
        <time>2011-08-03T17:12:10Z</time>
      </trkpt>
      <trkpt lat="44.36797" lon="3.7443">
        <ele>972.51</ele>
        <time>2011-08-03T17:12:12Z</time>
      </trkpt>
      <trkpt lat="44.36793" lon="3.74425">
        <ele>971.55</ele>
        <time>2011-08-03T17:12:13Z</time>
      </trkpt>
      <trkpt lat="44.36789" lon="3.74419">
        <ele>971.07</ele>
        <time>2011-08-03T17:12:14Z</time>
      </trkpt>
      <trkpt lat="44.36787" lon="3.74413">
        <ele>970.59</ele>
        <time>2011-08-03T17:12:15Z</time>
      </trkpt>
      <trkpt lat="44.36785" lon="3.74408">
        <ele>970.11</ele>
        <time>2011-08-03T17:12:16Z</time>
      </trkpt>
      <trkpt lat="44.3677" lon="3.74376">
        <ele>969.15</ele>
        <time>2011-08-03T17:12:26Z</time>
      </trkpt>
      <trkpt lat="44.36738" lon="3.74376">
        <ele>968.18</ele>
        <time>2011-08-03T17:12:36Z</time>
      </trkpt>
      <trkpt lat="44.36733" lon="3.74377">
        <ele>967.7</ele>
        <time>2011-08-03T17:12:37Z</time>
      </trkpt>
      <trkpt lat="44.36706" lon="3.74383">
        <ele>965.3</ele>
        <time>2011-08-03T17:12:41Z</time>
      </trkpt>
      <trkpt lat="44.367" lon="3.74383">
        <ele>964.34</ele>
        <time>2011-08-03T17:12:42Z</time>
      </trkpt>
      <trkpt lat="44.36682" lon="3.7438">
        <ele>962.42</ele>
        <time>2011-08-03T17:12:45Z</time>
      </trkpt>
      <trkpt lat="44.36676" lon="3.74381">
        <ele>961.94</ele>
        <time>2011-08-03T17:12:46Z</time>
      </trkpt>
      <trkpt lat="44.36643" lon="3.74386">
        <ele>955.21</ele>
        <time>2011-08-03T17:12:53Z</time>
      </trkpt>
      <trkpt lat="44.36635" lon="3.74385">
        <ele>953.77</ele>
        <time>2011-08-03T17:12:55Z</time>
      </trkpt>
      <trkpt lat="44.36631" lon="3.74382">
        <ele>953.28</ele>
        <time>2011-08-03T17:12:56Z</time>
      </trkpt>
      <trkpt lat="44.36627" lon="3.7438">
        <ele>952.32</ele>
        <time>2011-08-03T17:12:57Z</time>
      </trkpt>
      <trkpt lat="44.36624" lon="3.74379">
        <ele>951.36</ele>
        <time>2011-08-03T17:12:58Z</time>
      </trkpt>
      <trkpt lat="44.36621" lon="3.74379">
        <ele>950.4</ele>
        <time>2011-08-03T17:12:59Z</time>
      </trkpt>
      <trkpt lat="44.36617" lon="3.7438">
        <ele>949.44</ele>
        <time>2011-08-03T17:13:00Z</time>
      </trkpt>
      <trkpt lat="44.36614" lon="3.74381">
        <ele>948.48</ele>
        <time>2011-08-03T17:13:01Z</time>
      </trkpt>
      <trkpt lat="44.3661" lon="3.74383">
        <ele>947.52</ele>
        <time>2011-08-03T17:13:02Z</time>
      </trkpt>
      <trkpt lat="44.36598" lon="3.74387">
        <ele>944.63</ele>
        <time>2011-08-03T17:13:05Z</time>
      </trkpt>
      <trkpt lat="44.36594" lon="3.74388">
        <ele>943.67</ele>
        <time>2011-08-03T17:13:06Z</time>
      </trkpt>
      <trkpt lat="44.3659" lon="3.74389">
        <ele>942.71</ele>
        <time>2011-08-03T17:13:07Z</time>
      </trkpt>
      <trkpt lat="44.36581" lon="3.74392">
        <ele>939.83</ele>
        <time>2011-08-03T17:13:10Z</time>
      </trkpt>
      <trkpt lat="44.36576" lon="3.74392">
        <ele>938.86</ele>
        <time>2011-08-03T17:13:11Z</time>
      </trkpt>
      <trkpt lat="44.36571" lon="3.7439">
        <ele>937.9</ele>
        <time>2011-08-03T17:13:12Z</time>
      </trkpt>
      <trkpt lat="44.36567" lon="3.74386">
        <ele>937.42</ele>
        <time>2011-08-03T17:13:13Z</time>
      </trkpt>
      <trkpt lat="44.36564" lon="3.74382">
        <ele>936.46</ele>
        <time>2011-08-03T17:13:14Z</time>
      </trkpt>
      <trkpt lat="44.36555" lon="3.74374">
        <ele>934.54</ele>
        <time>2011-08-03T17:13:17Z</time>
      </trkpt>
      <trkpt lat="44.36554" lon="3.74375">
        <ele>933.58</ele>
        <time>2011-08-03T17:13:18Z</time>
      </trkpt>
      <trkpt lat="44.36553" lon="3.74378">
        <ele>932.62</ele>
        <time>2011-08-03T17:13:19Z</time>
      </trkpt>
      <trkpt lat="44.36552" lon="3.7438">
        <ele>931.65</ele>
        <time>2011-08-03T17:13:20Z</time>
      </trkpt>
      <trkpt lat="44.36552" lon="3.74382">
        <ele>930.69</ele>
        <time>2011-08-03T17:13:21Z</time>
      </trkpt>
      <trkpt lat="44.36554" lon="3.74385">
        <ele>930.21</ele>
        <time>2011-08-03T17:13:22Z</time>
      </trkpt>
      <trkpt lat="44.36556" lon="3.7439">
        <ele>929.25</ele>
        <time>2011-08-03T17:13:23Z</time>
      </trkpt>
      <trkpt lat="44.36559" lon="3.74395">
        <ele>928.29</ele>
        <time>2011-08-03T17:13:24Z</time>
      </trkpt>
      <trkpt lat="44.36572" lon="3.74411">
        <ele>926.37</ele>
        <time>2011-08-03T17:13:27Z</time>
      </trkpt>
      <trkpt lat="44.36594" lon="3.74428">
        <ele>923.96</ele>
        <time>2011-08-03T17:13:31Z</time>
      </trkpt>
      <trkpt lat="44.36598" lon="3.74431">
        <ele>923.48</ele>
        <time>2011-08-03T17:13:32Z</time>
      </trkpt>
      <trkpt lat="44.36601" lon="3.74433">
        <ele>923</ele>
        <time>2011-08-03T17:13:33Z</time>
      </trkpt>
      <trkpt lat="44.36602" lon="3.74436">
        <ele>922.04</ele>
        <time>2011-08-03T17:13:34Z</time>
      </trkpt>
      <trkpt lat="44.36604" lon="3.74438">
        <ele>920.6</ele>
        <time>2011-08-03T17:13:45Z</time>
      </trkpt>
      <trkpt lat="44.36597" lon="3.74441">
        <ele>919.64</ele>
        <time>2011-08-03T17:13:57Z</time>
      </trkpt>
      <trkpt lat="44.36596" lon="3.74442">
        <ele>919.64</ele>
        <time>2011-08-03T17:13:58Z</time>
      </trkpt>
      <trkpt lat="44.36596" lon="3.74443">
        <ele>919.64</ele>
        <time>2011-08-03T17:14:11Z</time>
      </trkpt>
      <trkpt lat="44.36597" lon="3.74443">
        <ele>919.64</ele>
        <time>2011-08-03T17:14:30Z</time>
      </trkpt>
      <trkpt lat="44.36597" lon="3.74442">
        <ele>919.64</ele>
        <time>2011-08-03T17:15:09Z</time>
      </trkpt>
      <trkpt lat="44.36596" lon="3.74442">
        <ele>919.64</ele>
        <time>2011-08-03T17:15:49Z</time>
      </trkpt>
      <trkpt lat="44.36597" lon="3.74442">
        <ele>919.64</ele>
        <time>2011-08-03T17:16:28Z</time>
      </trkpt>
      <trkpt lat="44.36596" lon="3.74441">
        <ele>920.12</ele>
        <time>2011-08-03T17:16:29Z</time>
      </trkpt>
      <trkpt lat="44.36595" lon="3.7444">
        <ele>920.6</ele>
        <time>2011-08-03T17:16:34Z</time>
      </trkpt>
      <trkpt lat="44.36593" lon="3.7444">
        <ele>920.6</ele>
        <time>2011-08-03T17:16:35Z</time>
      </trkpt>
      <trkpt lat="44.36574" lon="3.74439">
        <ele>919.64</ele>
        <time>2011-08-03T17:16:41Z</time>
      </trkpt>
      <trkpt lat="44.36531" lon="3.74418">
        <ele>913.39</ele>
        <time>2011-08-03T17:16:53Z</time>
      </trkpt>
      <trkpt lat="44.36504" lon="3.74402">
        <ele>909.06</ele>
        <time>2011-08-03T17:17:05Z</time>
      </trkpt>
      <trkpt lat="44.36501" lon="3.74402">
        <ele>909.06</ele>
        <time>2011-08-03T17:17:06Z</time>
      </trkpt>
      <trkpt lat="44.36499" lon="3.74403">
        <ele>908.58</ele>
        <time>2011-08-03T17:17:07Z</time>
      </trkpt>
      <trkpt lat="44.36497" lon="3.74405">
        <ele>908.58</ele>
        <time>2011-08-03T17:17:08Z</time>
      </trkpt>
      <trkpt lat="44.36494" lon="3.74406">
        <ele>908.1</ele>
        <time>2011-08-03T17:17:09Z</time>
      </trkpt>
      <trkpt lat="44.36491" lon="3.74406">
        <ele>907.62</ele>
        <time>2011-08-03T17:17:10Z</time>
      </trkpt>
      <trkpt lat="44.36488" lon="3.74407">
        <ele>907.62</ele>
        <time>2011-08-03T17:17:11Z</time>
      </trkpt>
      <trkpt lat="44.36484" lon="3.74408">
        <ele>907.62</ele>
        <time>2011-08-03T17:17:12Z</time>
      </trkpt>
      <trkpt lat="44.3648" lon="3.74408">
        <ele>907.62</ele>
        <time>2011-08-03T17:17:13Z</time>
      </trkpt>
      <trkpt lat="44.36476" lon="3.74409">
        <ele>907.14</ele>
        <time>2011-08-03T17:17:14Z</time>
      </trkpt>
      <trkpt lat="44.36453" lon="3.74411">
        <ele>904.26</ele>
        <time>2011-08-03T17:17:20Z</time>
      </trkpt>
      <trkpt lat="44.3645" lon="3.74407">
        <ele>903.78</ele>
        <time>2011-08-03T17:17:21Z</time>
      </trkpt>
      <trkpt lat="44.36447" lon="3.74403">
        <ele>903.3</ele>
        <time>2011-08-03T17:17:22Z</time>
      </trkpt>
      <trkpt lat="44.36445" lon="3.74398">
        <ele>902.33</ele>
        <time>2011-08-03T17:17:23Z</time>
      </trkpt>
      <trkpt lat="44.36442" lon="3.74392">
        <ele>901.85</ele>
        <time>2011-08-03T17:17:24Z</time>
      </trkpt>
      <trkpt lat="44.36439" lon="3.74386">
        <ele>901.37</ele>
        <time>2011-08-03T17:17:25Z</time>
      </trkpt>
      <trkpt lat="44.36436" lon="3.74381">
        <ele>900.89</ele>
        <time>2011-08-03T17:17:26Z</time>
      </trkpt>
      <trkpt lat="44.36386" lon="3.74363">
        <ele>897.05</ele>
        <time>2011-08-03T17:17:40Z</time>
      </trkpt>
      <trkpt lat="44.36371" lon="3.74328">
        <ele>894.16</ele>
        <time>2011-08-03T17:17:52Z</time>
      </trkpt>
      <trkpt lat="44.36374" lon="3.74329">
        <ele>891.28</ele>
        <time>2011-08-03T17:18:06Z</time>
      </trkpt>
      <trkpt lat="44.3637" lon="3.74333">
        <ele>890.8</ele>
        <time>2011-08-03T17:18:09Z</time>
      </trkpt>
      <trkpt lat="44.36368" lon="3.74336">
        <ele>890.32</ele>
        <time>2011-08-03T17:18:10Z</time>
      </trkpt>
      <trkpt lat="44.36367" lon="3.74339">
        <ele>889.36</ele>
        <time>2011-08-03T17:18:11Z</time>
      </trkpt>
      <trkpt lat="44.36364" lon="3.74342">
        <ele>888.4</ele>
        <time>2011-08-03T17:18:12Z</time>
      </trkpt>
      <trkpt lat="44.36361" lon="3.74344">
        <ele>887.91</ele>
        <time>2011-08-03T17:18:13Z</time>
      </trkpt>
      <trkpt lat="44.36358" lon="3.74346">
        <ele>886.95</ele>
        <time>2011-08-03T17:18:14Z</time>
      </trkpt>
      <trkpt lat="44.36324" lon="3.74365">
        <ele>886.47</ele>
        <time>2011-08-03T17:18:29Z</time>
      </trkpt>
      <trkpt lat="44.36317" lon="3.74397">
        <ele>886.47</ele>
        <time>2011-08-03T17:18:43Z</time>
      </trkpt>
      <trkpt lat="44.3631" lon="3.74434">
        <ele>886.47</ele>
        <time>2011-08-03T17:18:57Z</time>
      </trkpt>
      <trkpt lat="44.36301" lon="3.74486">
        <ele>884.55</ele>
        <time>2011-08-03T17:19:12Z</time>
      </trkpt>
      <trkpt lat="44.36306" lon="3.7453">
        <ele>881.19</ele>
        <time>2011-08-03T17:19:26Z</time>
      </trkpt>
      <trkpt lat="44.36308" lon="3.74534">
        <ele>880.71</ele>
        <time>2011-08-03T17:19:36Z</time>
      </trkpt>
      <trkpt lat="44.36308" lon="3.74532">
        <ele>880.71</ele>
        <time>2011-08-03T17:19:37Z</time>
      </trkpt>
      <trkpt lat="44.36308" lon="3.74529">
        <ele>880.71</ele>
        <time>2011-08-03T17:19:38Z</time>
      </trkpt>
      <trkpt lat="44.36305" lon="3.74495">
        <ele>879.74</ele>
        <time>2011-08-03T17:19:49Z</time>
      </trkpt>
      <trkpt lat="44.36303" lon="3.74493">
        <ele>879.74</ele>
        <time>2011-08-03T17:19:50Z</time>
      </trkpt>
      <trkpt lat="44.36302" lon="3.74489">
        <ele>878.3</ele>
        <time>2011-08-03T17:19:57Z</time>
      </trkpt>
      <trkpt lat="44.36303" lon="3.74487">
        <ele>878.3</ele>
        <time>2011-08-03T17:19:58Z</time>
      </trkpt>
      <trkpt lat="44.36304" lon="3.74485">
        <ele>878.3</ele>
        <time>2011-08-03T17:19:59Z</time>
      </trkpt>
      <trkpt lat="44.36305" lon="3.74482">
        <ele>877.82</ele>
        <time>2011-08-03T17:20:00Z</time>
      </trkpt>
      <trkpt lat="44.36306" lon="3.74479">
        <ele>877.82</ele>
        <time>2011-08-03T17:20:01Z</time>
      </trkpt>
      <trkpt lat="44.36307" lon="3.74476">
        <ele>877.34</ele>
        <time>2011-08-03T17:20:02Z</time>
      </trkpt>
      <trkpt lat="44.36308" lon="3.74472">
        <ele>877.34</ele>
        <time>2011-08-03T17:20:03Z</time>
      </trkpt>
      <trkpt lat="44.36308" lon="3.74468">
        <ele>876.86</ele>
        <time>2011-08-03T17:20:04Z</time>
      </trkpt>
      <trkpt lat="44.36323" lon="3.74407">
        <ele>873.98</ele>
        <time>2011-08-03T17:20:19Z</time>
      </trkpt>
      <trkpt lat="44.3633" lon="3.74356">
        <ele>873.01</ele>
        <time>2011-08-03T17:20:35Z</time>
      </trkpt>
      <trkpt lat="44.36326" lon="3.74355">
        <ele>873.01</ele>
        <time>2011-08-03T17:20:37Z</time>
      </trkpt>
      <trkpt lat="44.36323" lon="3.74355">
        <ele>873.01</ele>
        <time>2011-08-03T17:20:38Z</time>
      </trkpt>
      <trkpt lat="44.36319" lon="3.74354">
        <ele>873.5</ele>
        <time>2011-08-03T17:20:39Z</time>
      </trkpt>
      <trkpt lat="44.36317" lon="3.74353">
        <ele>873.5</ele>
        <time>2011-08-03T17:20:40Z</time>
      </trkpt>
      <trkpt lat="44.36313" lon="3.74352">
        <ele>873.5</ele>
        <time>2011-08-03T17:20:41Z</time>
      </trkpt>
      <trkpt lat="44.3631" lon="3.7435">
        <ele>873.01</ele>
        <time>2011-08-03T17:20:42Z</time>
      </trkpt>
      <trkpt lat="44.3628" lon="3.74352">
        <ele>872.53</ele>
        <time>2011-08-03T17:20:54Z</time>
      </trkpt>
      <trkpt lat="44.3627" lon="3.74363">
        <ele>872.05</ele>
        <time>2011-08-03T17:21:07Z</time>
      </trkpt>
      <trkpt lat="44.36271" lon="3.74366">
        <ele>872.05</ele>
        <time>2011-08-03T17:21:24Z</time>
      </trkpt>
      <trkpt lat="44.36271" lon="3.74366">
        <ele>872.05</ele>
        <time>2011-08-03T17:21:52Z</time>
      </trkpt>
      <trkpt lat="44.36271" lon="3.74366">
        <ele>872.05</ele>
        <time>2011-08-03T17:22:24Z</time>
      </trkpt>
    </trkseg>
  </trk>
</gpx>